Wetterdaten: Donnerstag, 22.02.2018
Datum Zeit Temp. A. Pool Temp. Feuchte A. Luftdruck Regen Wind Richtung Richtung Sonnenschein ET UV Solar Taupunkt Windchill Windben Empfang
22.02.2018 00:00 -1,9 C 3,9 C 88 % 1018,8 hPa 0,0 l/m 18,5 km/h (3 Bft) O-SO 105 0 min 0,000 mm 0,0 UV-I 0 W/m -3,6 C -11,3 C 22,5 km/h (4 Bft) 100,00 %
22.02.2018 00:01 -1,9 C 3,9 C 88 % 1018,9 hPa 0,0 l/m 21,5 km/h (4 Bft) O 92 0 min 0,000 mm 0,0 UV-I 0 W/m -3,6 C -12,8 C 29,0 km/h (5 Bft) 100,00 %
22.02.2018 00:02 -1,9 C 3,9 C 88 % 1018,9 hPa 0,0 l/m 14,8 km/h (3 Bft) O-SO 103 0 min 0,000 mm 0,0 UV-I 0 W/m -3,6 C -9,2 C 19,3 km/h (3 Bft) 100,00 %
22.02.2018 00:03 -1,9 C 3,9 C 89 % 1018,9 hPa 0,0 l/m 19,3 km/h (3 Bft) O 93 0 min 0,000 mm 0,0 UV-I 0 W/m -3,5 C -11,7 C 24,1 km/h (4 Bft) 100,00 %
22.02.2018 00:04 -1,8 C 3,9 C 89 % 1018,9 hPa 0,0 l/m 15,3 km/h (3 Bft) O-NO 74 0 min 0,000 mm 0,0 UV-I 0 W/m -3,4 C -9,4 C 19,3 km/h (3 Bft) 100,00 %
22.02.2018 00:05 -1,8 C 3,9 C 89 % 1018,9 hPa 0,0 l/m 18,3 km/h (3 Bft) O 95 0 min 0,000 mm 0,0 UV-I 0 W/m -3,4 C -11,1 C 25,7 km/h (4 Bft) 100,00 %
22.02.2018 00:06 -1,8 C 4,4 C 89 % 1018,9 hPa 0,0 l/m 19,3 km/h (3 Bft) O-SO 117 0 min 0,000 mm 0,0 UV-I 0 W/m -3,4 C -11,6 C 22,5 km/h (4 Bft) 100,00 %
22.02.2018 00:07 -1,9 C 3,9 C 88 % 1018,9 hPa 0,0 l/m 21,6 km/h (4 Bft) O-SO 104 0 min 0,000 mm 0,0 UV-I 0 W/m -3,6 C -12,8 C 27,4 km/h (4 Bft) 100,00 %
22.02.2018 00:08 -1,9 C 3,9 C 88 % 1018,9 hPa 0,0 l/m 19,6 km/h (3 Bft) O 96 0 min 0,000 mm 0,0 UV-I 0 W/m -3,6 C -11,9 C 24,1 km/h (4 Bft) 83,33 %
22.02.2018 00:09 -1,9 C 3,9 C 88 % 1018,9 hPa 0,0 l/m 17,9 km/h (3 Bft) O 79 0 min 0,000 mm 0,0 UV-I 0 W/m -3,6 C -11,0 C 24,1 km/h (4 Bft) 96,67 %
22.02.2018 00:10 -1,9 C 4,4 C 88 % 1018,9 hPa 0,0 l/m 19,1 km/h (3 Bft) O-SO 122 0 min 0,000 mm 0,0 UV-I 0 W/m -3,6 C -11,6 C 24,1 km/h (4 Bft) 100,00 %
22.02.2018 00:11 -1,9 C 4,4 C 88 % 1018,9 hPa 0,0 l/m 18,2 km/h (3 Bft) O 94 0 min 0,000 mm 0,0 UV-I 0 W/m -3,6 C -11,2 C 25,7 km/h (4 Bft) 100,00 %
22.02.2018 00:12 -1,9 C 3,9 C 88 % 1019,0 hPa 0,0 l/m 14,5 km/h (3 Bft) O 97 0 min 0,000 mm 0,0 UV-I 0 W/m -3,6 C -9,0 C 20,9 km/h (4 Bft) 100,00 %
22.02.2018 00:13 -1,9 C 3,9 C 88 % 1019,0 hPa 0,0 l/m 18,0 km/h (3 Bft) O-SO 107 0 min 0,000 mm 0,0 UV-I 0 W/m -3,6 C -11,0 C 20,9 km/h (4 Bft) 100,00 %
22.02.2018 00:14 -1,9 C 3,9 C 88 % 1019,0 hPa 0,0 l/m 13,6 km/h (3 Bft) O-SO 104 0 min 0,000 mm 0,0 UV-I 0 W/m -3,6 C -8,4 C 19,3 km/h (3 Bft) 100,00 %
22.02.2018 00:15 -1,9 C 3,9 C 88 % 1018,9 hPa 0,0 l/m 16,3 km/h (3 Bft) O 82 0 min 0,000 mm 0,0 UV-I 0 W/m -3,6 C -10,1 C 22,5 km/h (4 Bft) 100,00 %
22.02.2018 00:16 -1,9 C 3,9 C 88 % 1018,9 hPa 0,0 l/m 17,3 km/h (3 Bft) O 100 0 min 0,000 mm 0,0 UV-I 0 W/m -3,6 C -10,7 C 22,5 km/h (4 Bft) 100,00 %
22.02.2018 00:17 -1,9 C 3,9 C 88 % 1018,9 hPa 0,0 l/m 17,2 km/h (3 Bft) O-SO 109 0 min 0,000 mm 0,0 UV-I 0 W/m -3,6 C -10,6 C 24,1 km/h (4 Bft) 100,00 %
22.02.2018 00:18 -1,9 C 4,4 C 88 % 1018,9 hPa 0,0 l/m 11,3 km/h (2 Bft) O 92 0 min 0,000 mm 0,0 UV-I 0 W/m -3,6 C -6,6 C 14,5 km/h (3 Bft) 100,00 %
22.02.2018 00:19 -1,9 C 3,9 C 88 % 1019,0 hPa 0,0 l/m 13,9 km/h (3 Bft) O 97 0 min 0,000 mm 0,0 UV-I 0 W/m -3,6 C -8,6 C 17,7 km/h (3 Bft) 100,00 %
22.02.2018 00:20 -1,9 C 4,4 C 88 % 1019,0 hPa 0,0 l/m 16,4 km/h (3 Bft) O-SO 104 0 min 0,000 mm 0,0 UV-I 0 W/m -3,6 C -10,1 C 20,9 km/h (4 Bft) 100,00 %
22.02.2018 00:21 -1,9 C 4,4 C 88 % 1018,9 hPa 0,0 l/m 17,0 km/h (3 Bft) O-SO 103 0 min 0,000 mm 0,0 UV-I 0 W/m -3,6 C -10,5 C 22,5 km/h (4 Bft) 100,00 %
22.02.2018 00:22 -1,9 C 4,4 C 88 % 1019,0 hPa 0,0 l/m 14,3 km/h (3 Bft) O 91 0 min 0,000 mm 0,0 UV-I 0 W/m -3,6 C -8,8 C 16,1 km/h (3 Bft) 96,15 %
22.02.2018 00:23 -1,9 C 4,4 C 88 % 1019,0 hPa 0,0 l/m 15,4 km/h (3 Bft) O-NO 63 0 min 0,000 mm 0,0 UV-I 0 W/m -3,6 C -9,5 C 20,9 km/h (4 Bft) 100,00 %
22.02.2018 00:24 -1,9 C 3,9 C 88 % 1018,9 hPa 0,0 l/m 17,5 km/h (3 Bft) O 96 0 min 0,000 mm 0,0 UV-I 0 W/m -3,6 C -10,8 C 20,9 km/h (4 Bft) 100,00 %
22.02.2018 00:25 -1,9 C 3,9 C 88 % 1018,9 hPa 0,0 l/m 16,7 km/h (3 Bft) O 80 0 min 0,000 mm 0,0 UV-I 0 W/m -3,6 C -10,3 C 19,3 km/h (3 Bft) 100,00 %
22.02.2018 00:26 -1,9 C 3,9 C 88 % 1018,9 hPa 0,0 l/m 17,1 km/h (3 Bft) O-NO 76 0 min 0,000 mm 0,0 UV-I 0 W/m -3,6 C -10,5 C 22,5 km/h (4 Bft) 100,00 %
22.02.2018 00:27 -1,9 C 3,9 C 88 % 1018,9 hPa 0,0 l/m 16,3 km/h (3 Bft) O-SO 103 0 min 0,000 mm 0,0 UV-I 0 W/m -3,6 C -10,1 C 19,3 km/h (3 Bft) 100,00 %
22.02.2018 00:28 -1,9 C 4,4 C 87 % 1018,9 hPa 0,0 l/m 21,5 km/h (4 Bft) O 85 0 min 0,000 mm 0,0 UV-I 0 W/m -3,8 C -12,8 C 37,0 km/h (5 Bft) 100,00 %
22.02.2018 00:29 -1,9 C 3,9 C 87 % 1018,9 hPa 0,0 l/m 24,8 km/h (4 Bft) O 87 0 min 0,000 mm 0,0 UV-I 0 W/m -3,8 C -14,2 C 35,4 km/h (5 Bft) 100,00 %
22.02.2018 00:30 -1,9 C 3,9 C 87 % 1018,9 hPa 0,0 l/m 20,8 km/h (4 Bft) O-SO 120 0 min 0,000 mm 0,0 UV-I 0 W/m -3,8 C -12,5 C 29,0 km/h (5 Bft) 100,00 %
22.02.2018 00:31 -1,9 C 4,4 C 87 % 1018,8 hPa 0,0 l/m 20,5 km/h (4 Bft) O-SO 113 0 min 0,000 mm 0,0 UV-I 0 W/m -3,8 C -12,3 C 27,4 km/h (4 Bft) 100,00 %
22.02.2018 00:32 -1,9 C 4,4 C 87 % 1018,8 hPa 0,0 l/m 20,1 km/h (4 Bft) O 92 0 min 0,000 mm 0,0 UV-I 0 W/m -3,8 C -12,1 C 25,7 km/h (4 Bft) 100,00 %
22.02.2018 00:33 -1,9 C 3,9 C 87 % 1018,9 hPa 0,0 l/m 19,4 km/h (3 Bft) O 91 0 min 0,000 mm 0,0 UV-I 0 W/m -3,8 C -11,8 C 22,5 km/h (4 Bft) 100,00 %
22.02.2018 00:34 -1,9 C 3,9 C 86 % 1018,8 hPa 0,0 l/m 19,4 km/h (3 Bft) O-SO 104 0 min 0,000 mm 0,0 UV-I 0 W/m -3,9 C -11,8 C 25,7 km/h (4 Bft) 96,30 %
22.02.2018 00:35 -1,9 C 3,9 C 86 % 1018,8 hPa 0,0 l/m 20,0 km/h (4 Bft) O-NO 74 0 min 0,000 mm 0,0 UV-I 0 W/m -3,9 C -12,1 C 25,7 km/h (4 Bft) 100,00 %
22.02.2018 00:36 -1,9 C 3,9 C 86 % 1018,8 hPa 0,0 l/m 16,8 km/h (3 Bft) O 98 0 min 0,000 mm 0,0 UV-I 0 W/m -3,9 C -10,4 C 24,1 km/h (4 Bft) 100,00 %
22.02.2018 00:37 -1,9 C 3,9 C 87 % 1018,8 hPa 0,0 l/m 18,9 km/h (3 Bft) O 84 0 min 0,000 mm 0,0 UV-I 0 W/m -3,8 C -11,5 C 25,7 km/h (4 Bft) 90,91 %
22.02.2018 00:38 -1,9 C 3,9 C 86 % 1018,8 hPa 0,0 l/m 18,7 km/h (3 Bft) O 92 0 min 0,000 mm 0,0 UV-I 0 W/m -3,9 C -11,4 C 24,1 km/h (4 Bft) 96,30 %
22.02.2018 00:39 -1,9 C 4,4 C 86 % 1018,8 hPa 0,0 l/m 19,4 km/h (3 Bft) O 90 0 min 0,000 mm 0,0 UV-I 0 W/m -3,9 C -11,8 C 25,7 km/h (4 Bft) 100,00 %
22.02.2018 00:40 -1,9 C 4,4 C 86 % 1018,8 hPa 0,0 l/m 19,1 km/h (3 Bft) O 88 0 min 0,000 mm 0,0 UV-I 0 W/m -3,9 C -11,6 C 24,1 km/h (4 Bft) 100,00 %
22.02.2018 00:41 -1,9 C 4,4 C 86 % 1018,8 hPa 0,0 l/m 21,2 km/h (4 Bft) O 87 0 min 0,000 mm 0,0 UV-I 0 W/m -3,9 C -12,7 C 27,4 km/h (4 Bft) 100,00 %
22.02.2018 00:42 -1,9 C 4,4 C 87 % 1018,8 hPa 0,0 l/m 21,7 km/h (4 Bft) O-NO 75 0 min 0,000 mm 0,0 UV-I 0 W/m -3,8 C -12,9 C 29,0 km/h (5 Bft) 100,00 %
22.02.2018 00:43 -1,9 C 4,4 C 86 % 1018,7 hPa 0,0 l/m 25,1 km/h (4 Bft) O-SO 105 0 min 0,000 mm 0,0 UV-I 0 W/m -3,9 C -14,3 C 30,6 km/h (5 Bft) 100,00 %
22.02.2018 00:44 -1,9 C 4,4 C 86 % 1018,7 hPa 0,0 l/m 22,4 km/h (4 Bft) SO 136 0 min 0,000 mm 0,0 UV-I 0 W/m -3,9 C -13,2 C 27,4 km/h (4 Bft) 100,00 %
22.02.2018 00:45 -1,9 C 4,4 C 86 % 1018,8 hPa 0,0 l/m 13,7 km/h (3 Bft) O-SO 108 0 min 0,000 mm 0,0 UV-I 0 W/m -3,9 C -8,4 C 19,3 km/h (3 Bft) 100,00 %
22.02.2018 00:46 -1,9 C 4,4 C 86 % 1018,8 hPa 0,0 l/m 17,3 km/h (3 Bft) O 94 0 min 0,000 mm 0,0 UV-I 0 W/m -3,9 C -10,7 C 22,5 km/h (4 Bft) 100,00 %
22.02.2018 00:47 -1,9 C 4,4 C 86 % 1018,7 hPa 0,0 l/m 17,2 km/h (3 Bft) O 86 0 min 0,000 mm 0,0 UV-I 0 W/m -3,9 C -10,6 C 24,1 km/h (4 Bft) 100,00 %
22.02.2018 00:48 -1,9 C 4,4 C 87 % 1018,7 hPa 0,0 l/m 16,3 km/h (3 Bft) O-NO 63 0 min 0,000 mm 0,0 UV-I 0 W/m -3,8 C -10,1 C 22,5 km/h (4 Bft) 100,00 %
22.02.2018 00:49 -2,0 C 4,4 C 87 % 1018,8 hPa 0,0 l/m 18,0 km/h (3 Bft) O-SO 105 0 min 0,000 mm 0,0 UV-I 0 W/m -3,9 C -11,2 C 22,5 km/h (4 Bft) 100,00 %
22.02.2018 00:50 -2,0 C 4,4 C 86 % 1018,8 hPa 0,0 l/m 17,5 km/h (3 Bft) O 81 0 min 0,000 mm 0,0 UV-I 0 W/m -4,0 C -10,9 C 22,5 km/h (4 Bft) 100,00 %
22.02.2018 00:51 -2,0 C 4,4 C 86 % 1018,8 hPa 0,0 l/m 21,8 km/h (4 Bft) O-SO 115 0 min 0,000 mm 0,0 UV-I 0 W/m -4,0 C -13,1 C 30,6 km/h (5 Bft) 100,00 %
22.02.2018 00:52 -2,0 C 4,4 C 86 % 1018,8 hPa 0,0 l/m 21,8 km/h (4 Bft) O-SO 106 0 min 0,000 mm 0,0 UV-I 0 W/m -4,0 C -13,1 C 27,4 km/h (4 Bft) 96,55 %
22.02.2018 00:53 -2,0 C 4,4 C 86 % 1018,8 hPa 0,0 l/m 17,3 km/h (3 Bft) O 92 0 min 0,000 mm 0,0 UV-I 0 W/m -4,0 C -10,8 C 20,9 km/h (4 Bft) 100,00 %
22.02.2018 00:54 -2,0 C 4,4 C 86 % 1018,8 hPa 0,0 l/m 13,7 km/h (3 Bft) O-SO 114 0 min 0,000 mm 0,0 UV-I 0 W/m -4,0 C -8,5 C 16,1 km/h (3 Bft) 100,00 %
22.02.2018 00:55 -2,0 C 4,4 C 87 % 1018,8 hPa 0,0 l/m 16,5 km/h (3 Bft) O 98 0 min 0,000 mm 0,0 UV-I 0 W/m -3,9 C -10,3 C 22,5 km/h (4 Bft) 100,00 %
22.02.2018 00:56 -2,0 C 4,4 C 87 % 1018,8 hPa 0,0 l/m 20,6 km/h (4 Bft) O-SO 109 0 min 0,000 mm 0,0 UV-I 0 W/m -3,9 C -12,5 C 30,6 km/h (5 Bft) 100,00 %
22.02.2018 00:57 -2,0 C 4,4 C 87 % 1018,8 hPa 0,0 l/m 20,5 km/h (4 Bft) O-NO 77 0 min 0,000 mm 0,0 UV-I 0 W/m -3,9 C -12,5 C 30,6 km/h (5 Bft) 100,00 %
22.02.2018 00:58 -2,0 C 4,4 C 86 % 1018,8 hPa 0,0 l/m 18,8 km/h (3 Bft) O-SO 108 0 min 0,000 mm 0,0 UV-I 0 W/m -4,0 C -11,6 C 24,1 km/h (4 Bft) 100,00 %
22.02.2018 00:59 -2,0 C 4,4 C 86 % 1018,8 hPa 0,0 l/m 19,2 km/h (3 Bft) SO 127 0 min 0,000 mm 0,0 UV-I 0 W/m -4,0 C -11,8 C 24,1 km/h (4 Bft) 100,00 %
22.02.2018 01:00 -2,1 C 4,4 C 86 % 1018,8 hPa 0,0 l/m 19,6 km/h (3 Bft) O 90 0 min 0,025 mm 0,0 UV-I 0 W/m -4,1 C -12,1 C 25,7 km/h (4 Bft) 99,42 %
22.02.2018 01:01 -2,0 C 4,4 C 86 % 1018,8 hPa 0,0 l/m 20,6 km/h (4 Bft) O-SO 105 0 min 0,000 mm 0,0 UV-I 0 W/m -4,0 C -12,5 C 25,7 km/h (4 Bft) 100,00 %
22.02.2018 01:02 -2,1 C 4,4 C 86 % 1018,8 hPa 0,0 l/m 19,7 km/h (3 Bft) O 92 0 min 0,000 mm 0,0 UV-I 0 W/m -4,1 C -12,2 C 27,4 km/h (4 Bft) 100,00 %
22.02.2018 01:03 -2,1 C 4,4 C 86 % 1018,8 hPa 0,0 l/m 20,5 km/h (4 Bft) O 98 0 min 0,000 mm 0,0 UV-I 0 W/m -4,1 C -12,6 C 24,1 km/h (4 Bft) 96,55 %
22.02.2018 01:04 -2,0 C 4,4 C 86 % 1018,8 hPa 0,0 l/m 18,1 km/h (3 Bft) O-NO 76 0 min 0,000 mm 0,0 UV-I 0 W/m -4,0 C -11,2 C 22,5 km/h (4 Bft) 100,00 %
22.02.2018 01:05 -2,1 C 4,4 C 86 % 1018,8 hPa 0,0 l/m 19,5 km/h (3 Bft) O 92 0 min 0,000 mm 0,0 UV-I 0 W/m -4,1 C -12,1 C 25,7 km/h (4 Bft) 91,67 %
22.02.2018 01:06 -2,0 C 4,4 C 87 % 1018,8 hPa 0,0 l/m 20,3 km/h (4 Bft) O-SO 107 0 min 0,000 mm 0,0 UV-I 0 W/m -3,9 C -12,4 C 25,7 km/h (4 Bft) 93,33 %
22.02.2018 01:07 -2,1 C 4,4 C 86 % 1018,8 hPa 0,0 l/m 15,7 km/h (3 Bft) O 85 0 min 0,000 mm 0,0 UV-I 0 W/m -4,1 C -10,0 C 19,3 km/h (3 Bft) 96,88 %
22.02.2018 01:08 -2,0 C 4,4 C 86 % 1018,8 hPa 0,0 l/m 17,6 km/h (3 Bft) O 82 0 min 0,000 mm 0,0 UV-I 0 W/m -4,0 C -11,0 C 25,7 km/h (4 Bft) 100,00 %
22.02.2018 01:09 -2,0 C 4,4 C 87 % 1018,8 hPa 0,0 l/m 18,1 km/h (3 Bft) O 92 0 min 0,000 mm 0,0 UV-I 0 W/m -3,9 C -11,2 C 22,5 km/h (4 Bft) 90,91 %
22.02.2018 01:10 -2,0 C 4,4 C 87 % 1018,8 hPa 0,0 l/m 17,2 km/h (3 Bft) O-NO 75 0 min 0,000 mm 0,0 UV-I 0 W/m -3,9 C -10,7 C 20,9 km/h (4 Bft) 100,00 %
22.02.2018 01:11 -2,0 C 4,4 C 87 % 1018,8 hPa 0,0 l/m 17,4 km/h (3 Bft) O-SO 117 0 min 0,000 mm 0,0 UV-I 0 W/m -3,9 C -10,8 C 20,9 km/h (4 Bft) 95,65 %
22.02.2018 01:12 -2,1 C 3,9 C 87 % 1018,8 hPa 0,0 l/m 17,8 km/h (3 Bft) O-SO 105 0 min 0,000 mm 0,0 UV-I 0 W/m -4,0 C -11,2 C 20,9 km/h (4 Bft) 96,00 %
22.02.2018 01:13 -2,1 C 3,9 C 87 % 1018,8 hPa 0,0 l/m 13,6 km/h (3 Bft) O 98 0 min 0,000 mm 0,0 UV-I 0 W/m -4,0 C -8,6 C 19,3 km/h (3 Bft) 100,00 %
22.02.2018 01:14 -2,0 C 4,4 C 87 % 1018,8 hPa 0,0 l/m 15,9 km/h (3 Bft) O 84 0 min 0,000 mm 0,0 UV-I 0 W/m -3,9 C -10,0 C 20,9 km/h (4 Bft) 93,33 %
22.02.2018 01:15 -2,0 C 4,4 C 87 % 1018,9 hPa 0,0 l/m 17,1 km/h (3 Bft) O-SO 110 0 min 0,000 mm 0,0 UV-I 0 W/m -3,9 C -10,7 C 22,5 km/h (4 Bft) 100,00 %
22.02.2018 01:16 -2,1 C 4,4 C 87 % 1018,8 hPa 0,0 l/m 18,0 km/h (3 Bft) O 83 0 min 0,000 mm 0,0 UV-I 0 W/m -4,0 C -11,3 C 25,7 km/h (4 Bft) 91,67 %
22.02.2018 01:17 -2,1 C 4,4 C 86 % 1018,8 hPa 0,0 l/m 17,0 km/h (3 Bft) O 100 0 min 0,000 mm 0,0 UV-I 0 W/m -4,1 C -10,7 C 22,5 km/h (4 Bft) 100,00 %
22.02.2018 01:18 -2,1 C 4,4 C 86 % 1018,8 hPa 0,0 l/m 16,7 km/h (3 Bft) O 88 0 min 0,000 mm 0,0 UV-I 0 W/m -4,1 C -10,6 C 20,9 km/h (4 Bft) 96,30 %
22.02.2018 01:19 -2,1 C 4,4 C 86 % 1018,8 hPa 0,0 l/m 18,5 km/h (3 Bft) O-SO 110 0 min 0,000 mm 0,0 UV-I 0 W/m -4,1 C -11,6 C 22,5 km/h (4 Bft) 95,65 %
22.02.2018 01:20 -2,1 C 3,9 C 86 % 1018,8 hPa 0,0 l/m 20,8 km/h (4 Bft) O 101 0 min 0,000 mm 0,0 UV-I 0 W/m -4,1 C -12,7 C 27,4 km/h (4 Bft) 91,67 %
22.02.2018 01:21 -2,1 C 3,9 C 86 % 1018,8 hPa 0,0 l/m 18,9 km/h (3 Bft) O 100 0 min 0,000 mm 0,0 UV-I 0 W/m -4,1 C -11,8 C 25,7 km/h (4 Bft) 96,55 %
22.02.2018 01:22 -2,1 C 3,9 C 86 % 1018,8 hPa 0,0 l/m 20,1 km/h (4 Bft) O 94 0 min 0,000 mm 0,0 UV-I 0 W/m -4,1 C -12,4 C 24,1 km/h (4 Bft) 100,00 %
22.02.2018 01:23 -2,1 C 3,9 C 86 % 1018,8 hPa 0,0 l/m 19,3 km/h (3 Bft) O 89 0 min 0,000 mm 0,0 UV-I 0 W/m -4,1 C -12,0 C 22,5 km/h (4 Bft) 94,44 %
22.02.2018 01:24 -2,1 C 3,9 C 86 % 1018,8 hPa 0,0 l/m 17,4 km/h (3 Bft) O-SO 103 0 min 0,000 mm 0,0 UV-I 0 W/m -4,1 C -11,0 C 22,5 km/h (4 Bft) 100,00 %
22.02.2018 01:25 -2,1 C 3,9 C 86 % 1018,8 hPa 0,0 l/m 18,7 km/h (3 Bft) O-SO 112 0 min 0,000 mm 0,0 UV-I 0 W/m -4,1 C -11,7 C 22,5 km/h (4 Bft) 92,31 %
22.02.2018 01:26 -2,1 C 3,9 C 86 % 1018,8 hPa 0,0 l/m 13,6 km/h (3 Bft) SO 126 0 min 0,000 mm 0,0 UV-I 0 W/m -4,1 C -8,6 C 19,3 km/h (3 Bft) 100,00 %
22.02.2018 01:27 -2,1 C 3,9 C 86 % 1018,8 hPa 0,0 l/m 16,2 km/h (3 Bft) O-SO 102 0 min 0,000 mm 0,0 UV-I 0 W/m -4,1 C -10,3 C 24,1 km/h (4 Bft) 88,89 %
22.02.2018 01:28 -2,1 C 3,9 C 86 % 1018,8 hPa 0,0 l/m 16,5 km/h (3 Bft) O-NO 76 0 min 0,000 mm 0,0 UV-I 0 W/m -4,1 C -10,4 C 24,1 km/h (4 Bft) 96,55 %
22.02.2018 01:29 -2,1 C 3,9 C 86 % 1018,8 hPa 0,0 l/m 21,7 km/h (4 Bft) SO 138 0 min 0,000 mm 0,0 UV-I 0 W/m -4,1 C -13,2 C 29,0 km/h (5 Bft) 96,30 %
22.02.2018 01:30 -2,1 C 4,4 C 86 % 1018,8 hPa 0,0 l/m 19,3 km/h (3 Bft) SO 127 0 min 0,000 mm 0,0 UV-I 0 W/m -4,1 C -12,0 C 25,7 km/h (4 Bft) 92,86 %
22.02.2018 01:31 -2,1 C 3,9 C 86 % 1018,8 hPa 0,0 l/m 19,1 km/h (3 Bft) O-SO 104 0 min 0,000 mm 0,0 UV-I 0 W/m -4,1 C -11,9 C 29,0 km/h (5 Bft) 96,67 %
22.02.2018 01:32 -2,1 C 3,9 C 86 % 1018,8 hPa 0,0 l/m 18,2 km/h (3 Bft) O 85 0 min 0,000 mm 0,0 UV-I 0 W/m -4,1 C -11,4 C 22,5 km/h (4 Bft) 91,30 %
22.02.2018 01:33 -2,1 C 3,9 C 86 % 1018,8 hPa 0,0 l/m 20,5 km/h (4 Bft) O-SO 107 0 min 0,000 mm 0,0 UV-I 0 W/m -4,1 C -12,6 C 27,4 km/h (4 Bft) 100,00 %
22.02.2018 01:34 -2,1 C 3,9 C 86 % 1018,7 hPa 0,0 l/m 19,2 km/h (3 Bft) O 88 0 min 0,000 mm 0,0 UV-I 0 W/m -4,1 C -11,9 C 24,1 km/h (4 Bft) 85,71 %
22.02.2018 01:35 -2,1 C 3,9 C 86 % 1018,7 hPa 0,0 l/m 17,2 km/h (3 Bft) O-SO 102 0 min 0,000 mm 0,0 UV-I 0 W/m -4,1 C -10,9 C 25,7 km/h (4 Bft) 96,30 %
22.02.2018 01:36 -2,1 C 3,9 C 86 % 1018,7 hPa 0,0 l/m 19,6 km/h (3 Bft) O-SO 115 0 min 0,000 mm 0,0 UV-I 0 W/m -4,1 C -12,1 C 25,7 km/h (4 Bft) 92,31 %
22.02.2018 01:37 -2,1 C 3,9 C 86 % 1018,7 hPa 0,0 l/m 20,6 km/h (4 Bft) O-SO 107 0 min 0,000 mm 0,0 UV-I 0 W/m -4,1 C -12,6 C 24,1 km/h (4 Bft) 95,83 %
22.02.2018 01:38 -2,1 C 3,9 C 86 % 1018,7 hPa 0,0 l/m 19,9 km/h (4 Bft) O-SO 107 0 min 0,000 mm 0,0 UV-I 0 W/m -4,1 C -12,3 C 29,0 km/h (5 Bft) 95,83 %
22.02.2018 01:39 -2,1 C 3,9 C 86 % 1018,7 hPa 0,0 l/m 20,8 km/h (4 Bft) O-SO 104 0 min 0,000 mm 0,0 UV-I 0 W/m -4,1 C -12,7 C 25,7 km/h (4 Bft) 95,83 %
22.02.2018 01:40 -2,1 C 3,9 C 86 % 1018,7 hPa 0,0 l/m 17,5 km/h (3 Bft) O-SO 103 0 min 0,000 mm 0,0 UV-I 0 W/m -4,1 C -11,0 C 24,1 km/h (4 Bft) 98,19 %
22.02.2018 01:41 -2,1 C 3,9 C 87 % 1018,7 hPa 0,0 l/m 18,4 km/h (3 Bft) O-NO 78 0 min 0,000 mm 0,0 UV-I 0 W/m -4,0 C -11,5 C 20,9 km/h (4 Bft) 95,12 %
22.02.2018 01:42 -2,1 C 3,9 C 87 % 1018,7 hPa 0,0 l/m 16,8 km/h (3 Bft) O 86 0 min 0,000 mm 0,0 UV-I 0 W/m -4,0 C -10,6 C 22,5 km/h (4 Bft) 96,15 %
22.02.2018 01:43 -2,1 C 3,9 C 87 % 1018,7 hPa 0,0 l/m 17,8 km/h (3 Bft) O 98 0 min 0,000 mm 0,0 UV-I 0 W/m -4,0 C -11,2 C 24,1 km/h (4 Bft) 91,67 %
22.02.2018 01:44 -2,1 C 3,9 C 87 % 1018,6 hPa 0,0 l/m 19,7 km/h (3 Bft) O-SO 109 0 min 0,000 mm 0,0 UV-I 0 W/m -4,0 C -12,2 C 22,5 km/h (4 Bft) 96,15 %
22.02.2018 01:45 -2,1 C 3,9 C 87 % 1018,6 hPa 0,0 l/m 18,8 km/h (3 Bft) O 93 0 min 0,000 mm 0,0 UV-I 0 W/m -4,0 C -11,7 C 24,1 km/h (4 Bft) 100,00 %
22.02.2018 01:46 -2,1 C 3,9 C 87 % 1018,6 hPa 0,0 l/m 23,4 km/h (4 Bft) O 90 0 min 0,000 mm 0,0 UV-I 0 W/m -4,0 C -13,9 C 29,0 km/h (5 Bft) 96,30 %
22.02.2018 01:47 -2,1 C 3,9 C 86 % 1018,6 hPa 0,0 l/m 19,8 km/h (3 Bft) O 96 0 min 0,000 mm 0,0 UV-I 0 W/m -4,1 C -12,2 C 24,1 km/h (4 Bft) 92,86 %
22.02.2018 01:48 -2,1 C 3,9 C 86 % 1018,6 hPa 0,0 l/m 18,2 km/h (3 Bft) O-SO 121 0 min 0,000 mm 0,0 UV-I 0 W/m -4,1 C -11,4 C 22,5 km/h (4 Bft) 92,86 %
22.02.2018 01:49 -2,1 C 3,9 C 87 % 1018,6 hPa 0,0 l/m 19,0 km/h (3 Bft) O-SO 103 0 min 0,000 mm 0,0 UV-I 0 W/m -4,0 C -11,8 C 24,1 km/h (4 Bft) 92,86 %
22.02.2018 01:50 -2,2 C 3,9 C 87 % 1018,6 hPa 0,0 l/m 17,7 km/h (3 Bft) O 96 0 min 0,000 mm 0,0 UV-I 0 W/m -4,1 C -11,3 C 22,5 km/h (4 Bft) 96,67 %
22.02.2018 01:51 -2,1 C 3,9 C 86 % 1018,6 hPa 0,0 l/m 20,5 km/h (4 Bft) O 94 0 min 0,000 mm 0,0 UV-I 0 W/m -4,1 C -12,6 C 25,7 km/h (4 Bft) 96,15 %
22.02.2018 01:52 -2,2 C 3,9 C 87 % 1018,5 hPa 0,0 l/m 17,2 km/h (3 Bft) O 89 0 min 0,000 mm 0,0 UV-I 0 W/m -4,1 C -11,0 C 24,1 km/h (4 Bft) 91,67 %
22.02.2018 01:53 -2,2 C 3,9 C 87 % 1018,5 hPa 0,0 l/m 17,7 km/h (3 Bft) O 90 0 min 0,000 mm 0,0 UV-I 0 W/m -4,1 C -11,3 C 22,5 km/h (4 Bft) 96,55 %
22.02.2018 01:54 -2,2 C 3,9 C 87 % 1018,5 hPa 0,0 l/m 20,6 km/h (4 Bft) O-SO 102 0 min 0,000 mm 0,0 UV-I 0 W/m -4,1 C -12,8 C 24,1 km/h (4 Bft) 92,59 %
22.02.2018 01:55 -2,2 C 3,9 C 87 % 1018,5 hPa 0,0 l/m 16,5 km/h (3 Bft) O-SO 107 0 min 0,000 mm 0,0 UV-I 0 W/m -4,1 C -10,6 C 22,5 km/h (4 Bft) 96,15 %
22.02.2018 01:56 -2,1 C 3,9 C 87 % 1018,5 hPa 0,0 l/m 14,1 km/h (3 Bft) O-SO 103 0 min 0,000 mm 0,0 UV-I 0 W/m -4,0 C -8,9 C 19,3 km/h (3 Bft) 93,75 %
22.02.2018 01:57 -2,2 C 3,9 C 87 % 1018,5 hPa 0,0 l/m 20,1 km/h (4 Bft) O-SO 122 0 min 0,000 mm 0,0 UV-I 0 W/m -4,1 C -12,5 C 25,7 km/h (4 Bft) 95,65 %
22.02.2018 01:58 -2,2 C 3,9 C 87 % 1018,5 hPa 0,0 l/m 20,4 km/h (4 Bft) O-SO 111 0 min 0,000 mm 0,0 UV-I 0 W/m -4,1 C -12,7 C 25,7 km/h (4 Bft) 96,30 %
22.02.2018 01:59 -2,2 C 3,9 C 87 % 1018,5 hPa 0,0 l/m 19,0 km/h (3 Bft) O 80 0 min 0,000 mm 0,0 UV-I 0 W/m -4,1 C -12,0 C 27,4 km/h (4 Bft) 91,67 %
22.02.2018 02:00 -2,2 C 3,9 C 87 % 1018,4 hPa 0,0 l/m 15,9 km/h (3 Bft) O 84 0 min 0,026 mm 0,0 UV-I 0 W/m -4,1 C -10,2 C 19,3 km/h (3 Bft) 93,75 %
22.02.2018 02:01 -2,2 C 3,9 C 87 % 1018,4 hPa 0,0 l/m 17,6 km/h (3 Bft) O 95 0 min 0,000 mm 0,0 UV-I 0 W/m -4,1 C -11,2 C 22,5 km/h (4 Bft) 91,67 %
22.02.2018 02:02 -2,2 C 3,9 C 87 % 1018,5 hPa 0,0 l/m 17,0 km/h (3 Bft) SO 124 0 min 0,000 mm 0,0 UV-I 0 W/m -4,1 C -10,9 C 19,3 km/h (3 Bft) 95,12 %
22.02.2018 02:03 -2,2 C 3,9 C 87 % 1018,5 hPa 0,0 l/m 15,4 km/h (3 Bft) O-SO 103 0 min 0,000 mm 0,0 UV-I 0 W/m -4,1 C -9,9 C 20,9 km/h (4 Bft) 100,00 %
22.02.2018 02:04 -2,2 C 3,9 C 87 % 1018,4 hPa 0,0 l/m 12,6 km/h (3 Bft) O 82 0 min 0,000 mm 0,0 UV-I 0 W/m -4,1 C -8,0 C 17,7 km/h (3 Bft) 96,15 %
22.02.2018 02:05 -2,2 C 3,9 C 87 % 1018,4 hPa 0,0 l/m 15,4 km/h (3 Bft) O 84 0 min 0,000 mm 0,0 UV-I 0 W/m -4,1 C -9,9 C 20,9 km/h (4 Bft) 100,00 %
22.02.2018 02:06 -2,2 C 3,9 C 87 % 1018,4 hPa 0,0 l/m 17,3 km/h (3 Bft) O 90 0 min 0,000 mm 0,0 UV-I 0 W/m -4,1 C -11,0 C 22,5 km/h (4 Bft) 96,15 %
22.02.2018 02:07 -2,2 C 3,9 C 87 % 1018,4 hPa 0,0 l/m 17,0 km/h (3 Bft) O 95 0 min 0,000 mm 0,0 UV-I 0 W/m -4,1 C -10,9 C 19,3 km/h (3 Bft) 92,59 %
22.02.2018 02:08 -2,2 C 3,9 C 87 % 1018,4 hPa 0,0 l/m 18,4 km/h (3 Bft) O 91 0 min 0,000 mm 0,0 UV-I 0 W/m -4,1 C -11,6 C 24,1 km/h (4 Bft) 100,00 %
22.02.2018 02:09 -2,2 C 3,9 C 87 % 1018,4 hPa 0,0 l/m 14,5 km/h (3 Bft) O-NO 68 0 min 0,000 mm 0,0 UV-I 0 W/m -4,1 C -9,3 C 19,3 km/h (3 Bft) 91,67 %
22.02.2018 02:10 -2,2 C 3,9 C 87 % 1018,4 hPa 0,0 l/m 16,5 km/h (3 Bft) O-NO 77 0 min 0,000 mm 0,0 UV-I 0 W/m -4,1 C -10,6 C 22,5 km/h (4 Bft) 97,48 %
22.02.2018 02:11 -2,2 C 3,9 C 87 % 1018,4 hPa 0,0 l/m 15,7 km/h (3 Bft) O 80 0 min 0,000 mm 0,0 UV-I 0 W/m -4,1 C -10,1 C 19,3 km/h (3 Bft) 97,87 %
22.02.2018 02:12 -2,2 C 3,9 C 87 % 1018,4 hPa 0,0 l/m 13,1 km/h (3 Bft) O-NO 72 0 min 0,000 mm 0,0 UV-I 0 W/m -4,1 C -8,4 C 19,3 km/h (3 Bft) 100,00 %
22.02.2018 02:13 -2,2 C 3,9 C 87 % 1018,4 hPa 0,0 l/m 11,2 km/h (2 Bft) O 80 0 min 0,000 mm 0,0 UV-I 0 W/m -4,1 C -6,9 C 14,5 km/h (3 Bft) 96,30 %
22.02.2018 02:14 -2,2 C 3,9 C 87 % 1018,4 hPa 0,0 l/m 10,9 km/h (2 Bft) O 92 0 min 0,000 mm 0,0 UV-I 0 W/m -4,1 C -6,7 C 14,5 km/h (3 Bft) 100,00 %
22.02.2018 02:15 -2,2 C 3,9 C 87 % 1018,4 hPa 0,0 l/m 10,8 km/h (2 Bft) O-NO 70 0 min 0,000 mm 0,0 UV-I 0 W/m -4,1 C -6,6 C 12,9 km/h (3 Bft) 100,00 %
22.02.2018 02:16 -2,2 C 3,9 C 88 % 1018,4 hPa 0,0 l/m 16,3 km/h (3 Bft) O 96 0 min 0,000 mm 0,0 UV-I 0 W/m -3,9 C -10,5 C 22,5 km/h (4 Bft) 100,00 %
22.02.2018 02:17 -2,2 C 3,9 C 87 % 1018,4 hPa 0,0 l/m 20,7 km/h (4 Bft) O 101 0 min 0,000 mm 0,0 UV-I 0 W/m -4,1 C -12,8 C 27,4 km/h (4 Bft) 100,00 %
22.02.2018 02:18 -2,2 C 3,9 C 87 % 1018,4 hPa 0,0 l/m 14,9 km/h (3 Bft) O 86 0 min 0,000 mm 0,0 UV-I 0 W/m -4,1 C -9,6 C 20,9 km/h (4 Bft) 100,00 %
22.02.2018 02:19 -2,2 C 3,9 C 87 % 1018,3 hPa 0,0 l/m 14,4 km/h (3 Bft) O 100 0 min 0,000 mm 0,0 UV-I 0 W/m -4,1 C -9,3 C 19,3 km/h (3 Bft) 100,00 %
22.02.2018 02:20 -2,2 C 3,9 C 87 % 1018,4 hPa 0,0 l/m 17,4 km/h (3 Bft) O-SO 119 0 min 0,000 mm 0,0 UV-I 0 W/m -4,1 C -11,1 C 22,5 km/h (4 Bft) 91,67 %
22.02.2018 02:21 -2,2 C 3,9 C 87 % 1018,3 hPa 0,0 l/m 12,0 km/h (2 Bft) O 101 0 min 0,000 mm 0,0 UV-I 0 W/m -4,1 C -7,5 C 14,5 km/h (3 Bft) 100,00 %
22.02.2018 02:22 -2,2 C 3,9 C 87 % 1018,3 hPa 0,0 l/m 14,1 km/h (3 Bft) O 94 0 min 0,000 mm 0,0 UV-I 0 W/m -4,1 C -9,1 C 19,3 km/h (3 Bft) 100,00 %
22.02.2018 02:23 -2,2 C 3,9 C 87 % 1018,3 hPa 0,0 l/m 15,2 km/h (3 Bft) O-SO 121 0 min 0,000 mm 0,0 UV-I 0 W/m -4,1 C -9,8 C 17,7 km/h (3 Bft) 91,67 %
22.02.2018 02:24 -2,2 C 3,9 C 87 % 1018,4 hPa 0,0 l/m 17,6 km/h (3 Bft) O 89 0 min 0,000 mm 0,0 UV-I 0 W/m -4,1 C -11,2 C 20,9 km/h (4 Bft) 100,00 %
22.02.2018 02:25 -2,2 C 3,9 C 87 % 1018,4 hPa 0,0 l/m 17,4 km/h (3 Bft) O-SO 119 0 min 0,000 mm 0,0 UV-I 0 W/m -4,1 C -11,1 C 20,9 km/h (4 Bft) 100,00 %
22.02.2018 02:26 -2,3 C 3,9 C 87 % 1018,4 hPa 0,0 l/m 15,9 km/h (3 Bft) O 99 0 min 0,000 mm 0,0 UV-I 0 W/m -4,2 C -10,3 C 20,9 km/h (4 Bft) 100,00 %
22.02.2018 02:27 -2,2 C 3,9 C 87 % 1018,4 hPa 0,0 l/m 14,1 km/h (3 Bft) O-SO 107 0 min 0,000 mm 0,0 UV-I 0 W/m -4,1 C -9,1 C 22,5 km/h (4 Bft) 100,00 %
22.02.2018 02:28 -2,2 C 3,9 C 87 % 1018,4 hPa 0,0 l/m 17,8 km/h (3 Bft) O-SO 111 0 min 0,000 mm 0,0 UV-I 0 W/m -4,1 C -11,3 C 22,5 km/h (4 Bft) 100,00 %
22.02.2018 02:29 -2,2 C 3,9 C 87 % 1018,4 hPa 0,0 l/m 14,9 km/h (3 Bft) O-SO 121 0 min 0,000 mm 0,0 UV-I 0 W/m -4,1 C -9,6 C 19,3 km/h (3 Bft) 100,00 %
22.02.2018 02:30 -2,3 C 3,9 C 87 % 1018,4 hPa 0,0 l/m 14,9 km/h (3 Bft) O-SO 117 0 min 0,000 mm 0,0 UV-I 0 W/m -4,2 C -9,7 C 19,3 km/h (3 Bft) 100,00 %
22.02.2018 02:31 -2,3 C 3,9 C 87 % 1018,4 hPa 0,0 l/m 7,3 km/h (2 Bft) O 98 0 min 0,000 mm 0,0 UV-I 0 W/m -4,2 C -3,3 C 11,3 km/h (2 Bft) 100,00 %
22.02.2018 02:32 -2,3 C 3,9 C 87 % 1018,4 hPa 0,0 l/m 13,4 km/h (3 Bft) SO 126 0 min 0,000 mm 0,0 UV-I 0 W/m -4,2 C -8,7 C 17,7 km/h (3 Bft) 100,00 %
22.02.2018 02:33 -2,3 C 3,9 C 87 % 1018,4 hPa 0,0 l/m 14,2 km/h (3 Bft) O 101 0 min 0,000 mm 0,0 UV-I 0 W/m -4,2 C -9,2 C 17,7 km/h (3 Bft) 100,00 %
22.02.2018 02:34 -2,3 C 3,9 C 87 % 1018,3 hPa 0,0 l/m 13,4 km/h (3 Bft) O 85 0 min 0,000 mm 0,0 UV-I 0 W/m -4,2 C -8,7 C 16,1 km/h (3 Bft) 96,30 %
22.02.2018 02:35 -2,3 C 3,9 C 88 % 1018,4 hPa 0,0 l/m 13,3 km/h (3 Bft) O 87 0 min 0,000 mm 0,0 UV-I 0 W/m -4,0 C -8,6 C 17,7 km/h (3 Bft) 96,15 %
22.02.2018 02:36 -2,3 C 3,9 C 87 % 1018,3 hPa 0,0 l/m 12,4 km/h (3 Bft) S-SO 153 0 min 0,000 mm 0,0 UV-I 0 W/m -4,2 C -8,0 C 16,1 km/h (3 Bft) 93,33 %
22.02.2018 02:37 -2,3 C 3,9 C 87 % 1018,4 hPa 0,0 l/m 10,3 km/h (2 Bft) O 87 0 min 0,000 mm 0,0 UV-I 0 W/m -4,2 C -6,3 C 16,1 km/h (3 Bft) 100,00 %
22.02.2018 02:38 -2,3 C 3,9 C 88 % 1018,3 hPa 0,0 l/m 12,5 km/h (3 Bft) O-SO 107 0 min 0,000 mm 0,0 UV-I 0 W/m -4,0 C -8,0 C 17,7 km/h (3 Bft) 96,30 %
22.02.2018 02:39 -2,3 C 3,9 C 88 % 1018,4 hPa 0,0 l/m 6,1 km/h (2 Bft) O-SO 114 0 min 0,000 mm 0,0 UV-I 0 W/m -4,0 C -2,3 C 9,7 km/h (2 Bft) 100,00 %
22.02.2018 02:40 -2,3 C 3,9 C 88 % 1018,4 hPa 0,0 l/m 8,8 km/h (2 Bft) O 94 0 min 0,000 mm 0,0 UV-I 0 W/m -4,0 C -4,9 C 12,9 km/h (3 Bft) 100,00 %
22.02.2018 02:41 -2,3 C 3,9 C 88 % 1018,4 hPa 0,0 l/m 13,9 km/h (3 Bft) O-SO 113 0 min 0,000 mm 0,0 UV-I 0 W/m -4,0 C -9,0 C 17,7 km/h (3 Bft) 100,00 %
22.02.2018 02:42 -2,3 C 3,9 C 88 % 1018,3 hPa 0,0 l/m 12,6 km/h (3 Bft) O-SO 117 0 min 0,000 mm 0,0 UV-I 0 W/m -4,0 C -8,1 C 16,1 km/h (3 Bft) 100,00 %
22.02.2018 02:43 -2,3 C 3,9 C 88 % 1018,3 hPa 0,0 l/m 6,8 km/h (2 Bft) O-SO 105 0 min 0,000 mm 0,0 UV-I 0 W/m -4,0 C -2,7 C 11,3 km/h (2 Bft) 100,00 %
22.02.2018 02:44 -2,3 C 3,9 C 88 % 1018,4 hPa 0,0 l/m 10,9 km/h (2 Bft) O-SO 103 0 min 0,000 mm 0,0 UV-I 0 W/m -4,0 C -6,8 C 12,9 km/h (3 Bft) 95,65 %
22.02.2018 02:45 -2,3 C 3,9 C 88 % 1018,3 hPa 0,0 l/m 14,1 km/h (3 Bft) O-SO 109 0 min 0,000 mm 0,0 UV-I 0 W/m -4,0 C -9,2 C 17,7 km/h (3 Bft) 100,00 %
22.02.2018 02:46 -2,3 C 3,9 C 88 % 1018,3 hPa 0,0 l/m 12,7 km/h (3 Bft) O-SO 102 0 min 0,000 mm 0,0 UV-I 0 W/m -4,0 C -8,2 C 17,7 km/h (3 Bft) 100,00 %
22.02.2018 02:47 -2,3 C 3,9 C 88 % 1018,3 hPa 0,0 l/m 13,2 km/h (3 Bft) O 80 0 min 0,000 mm 0,0 UV-I 0 W/m -4,0 C -8,5 C 16,1 km/h (3 Bft) 100,00 %
22.02.2018 02:48 -2,3 C 3,9 C 88 % 1018,3 hPa 0,0 l/m 15,3 km/h (3 Bft) O-SO 123 0 min 0,000 mm 0,0 UV-I 0 W/m -4,0 C -10,0 C 19,3 km/h (3 Bft) 100,00 %
22.02.2018 02:49 -2,3 C 3,9 C 88 % 1018,3 hPa 0,0 l/m 13,0 km/h (3 Bft) O 87 0 min 0,000 mm 0,0 UV-I 0 W/m -4,0 C -8,4 C 17,7 km/h (3 Bft) 100,00 %
22.02.2018 02:50 -2,3 C 3,9 C 88 % 1018,3 hPa 0,0 l/m 12,4 km/h (3 Bft) O-NO 66 0 min 0,000 mm 0,0 UV-I 0 W/m -4,0 C -8,0 C 19,3 km/h (3 Bft) 96,15 %
22.02.2018 02:51 -2,3 C 3,9 C 88 % 1018,2 hPa 0,0 l/m 17,9 km/h (3 Bft) O 82 0 min 0,000 mm 0,0 UV-I 0 W/m -4,0 C -11,5 C 24,1 km/h (4 Bft) 100,00 %
22.02.2018 02:52 -2,3 C 3,9 C 88 % 1018,2 hPa 0,0 l/m 16,1 km/h (3 Bft) O-SO 103 0 min 0,000 mm 0,0 UV-I 0 W/m -4,0 C -10,5 C 24,1 km/h (4 Bft) 85,71 %
22.02.2018 02:53 -2,3 C 3,9 C 88 % 1018,2 hPa 0,0 l/m 16,6 km/h (3 Bft) O 86 0 min 0,000 mm 0,0 UV-I 0 W/m -4,0 C -10,8 C 24,1 km/h (4 Bft) 96,67 %
22.02.2018 02:54 -2,3 C 3,9 C 88 % 1018,2 hPa 0,0 l/m 9,3 km/h (2 Bft) O 86 0 min 0,000 mm 0,0 UV-I 0 W/m -4,0 C -5,4 C 14,5 km/h (3 Bft) 100,00 %
22.02.2018 02:55 -2,3 C 3,9 C 88 % 1018,2 hPa 0,0 l/m 15,2 km/h (3 Bft) O 84 0 min 0,000 mm 0,0 UV-I 0 W/m -4,0 C -9,9 C 19,3 km/h (3 Bft) 95,83 %
22.02.2018 02:56 -2,3 C 3,9 C 88 % 1018,1 hPa 0,0 l/m 13,4 km/h (3 Bft) O 82 0 min 0,000 mm 0,0 UV-I 0 W/m -4,0 C -8,7 C 17,7 km/h (3 Bft) 100,00 %
22.02.2018 02:57 -2,3 C 3,9 C 88 % 1018,2 hPa 0,0 l/m 15,2 km/h (3 Bft) O-NO 76 0 min 0,000 mm 0,0 UV-I 0 W/m -4,0 C -9,9 C 20,9 km/h (4 Bft) 100,00 %
22.02.2018 02:58 -2,3 C 3,9 C 88 % 1018,1 hPa 0,0 l/m 16,2 km/h (3 Bft) O-NO 75 0 min 0,000 mm 0,0 UV-I 0 W/m -4,0 C -10,5 C 20,9 km/h (4 Bft) 100,00 %
22.02.2018 02:59 -2,3 C 3,9 C 88 % 1018,1 hPa 0,0 l/m 17,1 km/h (3 Bft) O 92 0 min 0,000 mm 0,0 UV-I 0 W/m -4,0 C -11,0 C 22,5 km/h (4 Bft) 100,00 %
22.02.2018 03:00 -2,3 C 3,9 C 88 % 1018,0 hPa 0,0 l/m 13,4 km/h (3 Bft) O 101 0 min 0,000 mm 0,0 UV-I 0 W/m -4,0 C -8,7 C 19,3 km/h (3 Bft) 100,00 %
22.02.2018 03:01 -2,4 C 3,9 C 88 % 1018,0 hPa 0,0 l/m 13,9 km/h (3 Bft) O 101 0 min 0,025 mm 0,0 UV-I 0 W/m -4,1 C -9,2 C 16,1 km/h (3 Bft) 100,00 %
22.02.2018 03:02 -2,4 C 3,9 C 88 % 1018,1 hPa 0,0 l/m 12,9 km/h (3 Bft) O-NO 77 0 min 0,000 mm 0,0 UV-I 0 W/m -4,1 C -8,4 C 16,1 km/h (3 Bft) 100,00 %
22.02.2018 03:03 -2,4 C 3,9 C 88 % 1018,0 hPa 0,0 l/m 14,2 km/h (3 Bft) O 99 0 min 0,000 mm 0,0 UV-I 0 W/m -4,1 C -9,4 C 17,7 km/h (3 Bft) 96,15 %
22.02.2018 03:04 -2,4 C 3,9 C 88 % 1018,0 hPa 0,0 l/m 9,7 km/h (2 Bft) O 90 0 min 0,000 mm 0,0 UV-I 0 W/m -4,1 C -5,8 C 17,7 km/h (3 Bft) 100,00 %
22.02.2018 03:05 -2,4 C 3,9 C 88 % 1018,0 hPa 0,0 l/m 13,9 km/h (3 Bft) O-NO 78 0 min 0,000 mm 0,0 UV-I 0 W/m -4,1 C -9,2 C 17,7 km/h (3 Bft) 100,00 %
22.02.2018 03:06 -2,4 C 3,9 C 88 % 1018,0 hPa 0,0 l/m 12,6 km/h (3 Bft) O-NO 69 0 min 0,000 mm 0,0 UV-I 0 W/m -4,1 C -8,2 C 14,5 km/h (3 Bft) 100,00 %
22.02.2018 03:07 -2,4 C 3,9 C 88 % 1018,0 hPa 0,0 l/m 13,1 km/h (3 Bft) O 91 0 min 0,000 mm 0,0 UV-I 0 W/m -4,1 C -8,6 C 16,1 km/h (3 Bft) 100,00 %
22.02.2018 03:08 -2,4 C 3,9 C 89 % 1018,0 hPa 0,0 l/m 12,1 km/h (2 Bft) O 99 0 min 0,000 mm 0,0 UV-I 0 W/m -4,0 C -7,8 C 16,1 km/h (3 Bft) 100,00 %
22.02.2018 03:09 -2,4 C 3,9 C 89 % 1018,0 hPa 0,0 l/m 14,0 km/h (3 Bft) O 87 0 min 0,000 mm 0,0 UV-I 0 W/m -4,0 C -9,2 C 17,7 km/h (3 Bft) 100,00 %
22.02.2018 03:10 -2,4 C 3,9 C 89 % 1018,0 hPa 0,0 l/m 12,8 km/h (3 Bft) O 90 0 min 0,000 mm 0,0 UV-I 0 W/m -4,0 C -8,4 C 14,5 km/h (3 Bft) 100,00 %
22.02.2018 03:11 -2,4 C 3,9 C 89 % 1018,0 hPa 0,0 l/m 15,1 km/h (3 Bft) O-NO 58 0 min 0,000 mm 0,0 UV-I 0 W/m -4,0 C -10,0 C 19,3 km/h (3 Bft) 100,00 %
22.02.2018 03:12 -2,4 C 3,9 C 89 % 1018,0 hPa 0,0 l/m 11,7 km/h (2 Bft) O 86 0 min 0,000 mm 0,0 UV-I 0 W/m -4,0 C -7,5 C 17,7 km/h (3 Bft) 100,00 %
22.02.2018 03:13 -2,4 C 3,9 C 89 % 1018,0 hPa 0,0 l/m 15,4 km/h (3 Bft) O 88 0 min 0,000 mm 0,0 UV-I 0 W/m -4,0 C -10,1 C 20,9 km/h (4 Bft) 100,00 %
22.02.2018 03:14 -2,4 C 3,9 C 89 % 1018,0 hPa 0,0 l/m 15,0 km/h (3 Bft) O-SO 109 0 min 0,000 mm 0,0 UV-I 0 W/m -4,0 C -9,9 C 20,9 km/h (4 Bft) 100,00 %
22.02.2018 03:15 -2,5 C 3,9 C 89 % 1018,0 hPa 0,0 l/m 10,8 km/h (2 Bft) O-SO 112 0 min 0,000 mm 0,0 UV-I 0 W/m -4,1 C -6,9 C 17,7 km/h (3 Bft) 100,00 %
22.02.2018 03:16 -2,5 C 3,9 C 89 % 1018,0 hPa 0,0 l/m 16,3 km/h (3 Bft) O 86 0 min 0,000 mm 0,0 UV-I 0 W/m -4,1 C -10,8 C 19,3 km/h (3 Bft) 100,00 %
22.02.2018 03:17 -2,5 C 3,9 C 89 % 1018,0 hPa 0,0 l/m 15,3 km/h (3 Bft) O-SO 108 0 min 0,000 mm 0,0 UV-I 0 W/m -4,1 C -10,2 C 17,7 km/h (3 Bft) 100,00 %
22.02.2018 03:18 -2,5 C 3,9 C 89 % 1018,0 hPa 0,0 l/m 11,3 km/h (2 Bft) O 94 0 min 0,000 mm 0,0 UV-I 0 W/m -4,1 C -7,3 C 16,1 km/h (3 Bft) 100,00 %
22.02.2018 03:19 -2,5 C 3,9 C 89 % 1018,0 hPa 0,0 l/m 11,5 km/h (2 Bft) O-NO 74 0 min 0,000 mm 0,0 UV-I 0 W/m -4,1 C -7,5 C 16,1 km/h (3 Bft) 100,00 %
22.02.2018 03:20 -2,5 C 3,9 C 89 % 1017,9 hPa 0,0 l/m 13,8 km/h (3 Bft) O-NO 73 0 min 0,000 mm 0,0 UV-I 0 W/m -4,1 C -9,2 C 17,7 km/h (3 Bft) 95,65 %
22.02.2018 03:21 -2,5 C 3,9 C 89 % 1017,9 hPa 0,0 l/m 12,8 km/h (3 Bft) O-NO 64 0 min 0,000 mm 0,0 UV-I 0 W/m -4,1 C -8,5 C 16,1 km/h (3 Bft) 100,00 %
22.02.2018 03:22 -2,5 C 3,9 C 89 % 1017,9 hPa 0,0 l/m 13,0 km/h (3 Bft) O-NO 74 0 min 0,000 mm 0,0 UV-I 0 W/m -4,1 C -8,6 C 14,5 km/h (3 Bft) 96,55 %
22.02.2018 03:23 -2,5 C 3,9 C 89 % 1017,9 hPa 0,0 l/m 13,3 km/h (3 Bft) O 92 0 min 0,000 mm 0,0 UV-I 0 W/m -4,1 C -8,9 C 17,7 km/h (3 Bft) 100,00 %
22.02.2018 03:24 -2,6 C 3,9 C 89 % 1017,9 hPa 0,0 l/m 14,8 km/h (3 Bft) O 94 0 min 0,000 mm 0,0 UV-I 0 W/m -4,2 C -10,0 C 17,7 km/h (3 Bft) 100,00 %
22.02.2018 03:25 -2,6 C 3,9 C 89 % 1017,9 hPa 0,0 l/m 15,3 km/h (3 Bft) O 84 0 min 0,000 mm 0,0 UV-I 0 W/m -4,2 C -10,3 C 19,3 km/h (3 Bft) 100,00 %
22.02.2018 03:26 -2,6 C 3,9 C 89 % 1018,0 hPa 0,0 l/m 11,8 km/h (2 Bft) O 79 0 min 0,000 mm 0,0 UV-I 0 W/m -4,2 C -7,8 C 17,7 km/h (3 Bft) 100,00 %
22.02.2018 03:27 -2,6 C 3,9 C 89 % 1018,0 hPa 0,0 l/m 10,9 km/h (2 Bft) O 91 0 min 0,000 mm 0,0 UV-I 0 W/m -4,2 C -7,1 C 14,5 km/h (3 Bft) 92,59 %
22.02.2018 03:28 -2,6 C 3,9 C 89 % 1017,9 hPa 0,0 l/m 14,7 km/h (3 Bft) O 90 0 min 0,000 mm 0,0 UV-I 0 W/m -4,2 C -9,9 C 17,7 km/h (3 Bft) 100,00 %
22.02.2018 03:29 -2,6 C 3,9 C 89 % 1018,0 hPa 0,0 l/m 13,5 km/h (3 Bft) O-SO 111 0 min 0,000 mm 0,0 UV-I 0 W/m -4,2 C -9,1 C 19,3 km/h (3 Bft) 95,83 %
22.02.2018 03:30 -2,6 C 3,9 C 89 % 1017,9 hPa 0,0 l/m 11,0 km/h (2 Bft) O-NO 66 0 min 0,000 mm 0,0 UV-I 0 W/m -4,2 C -7,2 C 16,1 km/h (3 Bft) 100,00 %
22.02.2018 03:31 -2,6 C 3,9 C 89 % 1017,9 hPa 0,0 l/m 14,9 km/h (3 Bft) O-NO 65 0 min 0,000 mm 0,0 UV-I 0 W/m -4,2 C -10,1 C 17,7 km/h (3 Bft) 100,00 %
22.02.2018 03:32 -2,5 C 3,9 C 89 % 1017,9 hPa 0,0 l/m 12,9 km/h (3 Bft) O 92 0 min 0,000 mm 0,0 UV-I 0 W/m -4,1 C -8,6 C 16,1 km/h (3 Bft) 96,15 %
22.02.2018 03:33 -2,6 C 3,9 C 89 % 1017,9 hPa 0,0 l/m 12,3 km/h (3 Bft) O-NO 72 0 min 0,000 mm 0,0 UV-I 0 W/m -4,2 C -8,2 C 16,1 km/h (3 Bft) 100,00 %
22.02.2018 03:34 -2,6 C 3,9 C 89 % 1017,9 hPa 0,0 l/m 14,8 km/h (3 Bft) O 96 0 min 0,000 mm 0,0 UV-I 0 W/m -4,2 C -10,0 C 16,1 km/h (3 Bft) 96,15 %
22.02.2018 03:35 -2,6 C 3,9 C 89 % 1017,9 hPa 0,0 l/m 13,5 km/h (3 Bft) O-NO 75 0 min 0,000 mm 0,0 UV-I 0 W/m -4,2 C -9,1 C 16,1 km/h (3 Bft) 100,00 %
22.02.2018 03:36 -2,6 C 3,9 C 89 % 1017,9 hPa 0,0 l/m 13,0 km/h (3 Bft) O-NO 63 0 min 0,000 mm 0,0 UV-I 0 W/m -4,2 C -8,8 C 16,1 km/h (3 Bft) 93,33 %
22.02.2018 03:37 -2,6 C 3,9 C 89 % 1017,8 hPa 0,0 l/m 12,3 km/h (3 Bft) O-NO 74 0 min 0,000 mm 0,0 UV-I 0 W/m -4,2 C -8,2 C 14,5 km/h (3 Bft) 96,15 %
22.02.2018 03:38 -2,5 C 3,9 C 89 % 1017,8 hPa 0,0 l/m 13,4 km/h (3 Bft) NO 53 0 min 0,000 mm 0,0 UV-I 0 W/m -4,1 C -8,9 C 16,1 km/h (3 Bft) 96,15 %
22.02.2018 03:39 -2,5 C 3,9 C 89 % 1017,8 hPa 0,0 l/m 11,7 km/h (2 Bft) O 92 0 min 0,000 mm 0,0 UV-I 0 W/m -4,1 C -7,6 C 14,5 km/h (3 Bft) 96,30 %
22.02.2018 03:40 -2,5 C 3,9 C 89 % 1017,8 hPa 0,0 l/m 10,4 km/h (2 Bft) O 92 0 min 0,000 mm 0,0 UV-I 0 W/m -4,1 C -6,6 C 12,9 km/h (3 Bft) 100,00 %
22.02.2018 03:41 -2,5 C 3,9 C 89 % 1017,8 hPa 0,0 l/m 11,6 km/h (2 Bft) O 95 0 min 0,000 mm 0,0 UV-I 0 W/m -4,1 C -7,6 C 16,1 km/h (3 Bft) 96,15 %
22.02.2018 03:42 -2,5 C 3,9 C 89 % 1017,8 hPa 0,0 l/m 14,1 km/h (3 Bft) O-NO 65 0 min 0,000 mm 0,0 UV-I 0 W/m -4,1 C -9,4 C 17,7 km/h (3 Bft) 100,00 %
22.02.2018 03:43 -2,6 C 3,9 C 89 % 1017,8 hPa 0,0 l/m 14,8 km/h (3 Bft) O 96 0 min 0,000 mm 0,0 UV-I 0 W/m -4,2 C -10,0 C 19,3 km/h (3 Bft) 91,67 %
22.02.2018 03:44 -2,6 C 3,9 C 89 % 1017,8 hPa 0,0 l/m 13,2 km/h (3 Bft) O-SO 115 0 min 0,000 mm 0,0 UV-I 0 W/m -4,2 C -8,9 C 16,1 km/h (3 Bft) 100,00 %
22.02.2018 03:45 -2,6 C 3,9 C 89 % 1017,8 hPa 0,0 l/m 12,6 km/h (3 Bft) O 86 0 min 0,000 mm 0,0 UV-I 0 W/m -4,2 C -8,5 C 14,5 km/h (3 Bft) 91,30 %
22.02.2018 03:46 -2,6 C 3,9 C 89 % 1017,7 hPa 0,0 l/m 13,0 km/h (3 Bft) O 98 0 min 0,000 mm 0,0 UV-I 0 W/m -4,2 C -8,8 C 16,1 km/h (3 Bft) 100,00 %
22.02.2018 03:47 -2,6 C 3,9 C 89 % 1017,7 hPa 0,0 l/m 9,4 km/h (2 Bft) O-NO 71 0 min 0,000 mm 0,0 UV-I 0 W/m -4,2 C -5,8 C 14,5 km/h (3 Bft) 96,15 %
22.02.2018 03:48 -2,5 C 3,9 C 89 % 1017,7 hPa 0,0 l/m 10,8 km/h (2 Bft) O-NO 71 0 min 0,000 mm 0,0 UV-I 0 W/m -4,1 C -6,9 C 14,5 km/h (3 Bft) 96,30 %
22.02.2018 03:49 -2,6 C 3,9 C 89 % 1017,7 hPa 0,0 l/m 11,9 km/h (2 Bft) O 82 0 min 0,000 mm 0,0 UV-I 0 W/m -4,2 C -7,9 C 16,1 km/h (3 Bft) 92,86 %
22.02.2018 03:50 -2,5 C 3,9 C 89 % 1017,7 hPa 0,0 l/m 11,6 km/h (2 Bft) O-NO 68 0 min 0,000 mm 0,0 UV-I 0 W/m -4,1 C -7,6 C 12,9 km/h (3 Bft) 96,30 %
22.02.2018 03:51 -2,5 C 3,9 C 89 % 1017,7 hPa 0,0 l/m 12,3 km/h (3 Bft) O-SO 107 0 min 0,000 mm 0,0 UV-I 0 W/m -4,1 C -8,1 C 17,7 km/h (3 Bft) 96,15 %
22.02.2018 03:52 -2,5 C 3,9 C 89 % 1017,7 hPa 0,0 l/m 11,7 km/h (2 Bft) O 79 0 min 0,000 mm 0,0 UV-I 0 W/m -4,1 C -7,6 C 14,5 km/h (3 Bft) 96,67 %
22.02.2018 03:53 -2,5 C 3,9 C 89 % 1017,7 hPa 0,0 l/m 10,5 km/h (2 Bft) O 96 0 min 0,000 mm 0,0 UV-I 0 W/m -4,1 C -6,7 C 12,9 km/h (3 Bft) 91,67 %
22.02.2018 03:54 -2,5 C 3,9 C 89 % 1017,7 hPa 0,0 l/m 13,9 km/h (3 Bft) O 79 0 min 0,000 mm 0,0 UV-I 0 W/m -4,1 C -9,3 C 19,3 km/h (3 Bft) 88,24 %
22.02.2018 03:55 -2,6 C 3,9 C 89 % 1017,7 hPa 0,0 l/m 13,9 km/h (3 Bft) O-NO 70 0 min 0,000 mm 0,0 UV-I 0 W/m -4,2 C -9,4 C 16,1 km/h (3 Bft) 94,74 %
22.02.2018 03:56 -2,5 C 3,9 C 89 % 1017,7 hPa 0,0 l/m 15,0 km/h (3 Bft) O-NO 75 0 min 0,000 mm 0,0 UV-I 0 W/m -4,1 C -10,0 C 19,3 km/h (3 Bft) 100,00 %
22.02.2018 03:57 -2,6 C 3,9 C 89 % 1017,7 hPa 0,0 l/m 15,4 km/h (3 Bft) O-NO 71 0 min 0,000 mm 0,0 UV-I 0 W/m -4,2 C -10,4 C 17,7 km/h (3 Bft) 96,15 %
22.02.2018 03:58 -2,5 C 3,9 C 89 % 1017,6 hPa 0,0 l/m 14,6 km/h (3 Bft) O 90 0 min 0,000 mm 0,0 UV-I 0 W/m -4,1 C -9,7 C 20,9 km/h (4 Bft) 95,83 %
22.02.2018 03:59 -2,5 C 3,9 C 89 % 1017,7 hPa 0,0 l/m 16,3 km/h (3 Bft) O 92 0 min 0,000 mm 0,0 UV-I 0 W/m -4,1 C -10,8 C 20,9 km/h (4 Bft) 95,65 %
22.02.2018 04:00 -2,6 C 3,9 C 89 % 1017,7 hPa 0,0 l/m 13,9 km/h (3 Bft) O 82 0 min 0,000 mm 0,0 UV-I 0 W/m -4,2 C -9,4 C 19,3 km/h (3 Bft) 100,00 %
22.02.2018 04:01 -2,6 C 3,9 C 89 % 1017,6 hPa 0,0 l/m 11,1 km/h (2 Bft) O 97 0 min 0,000 mm 0,0 UV-I 0 W/m -4,2 C -7,3 C 12,9 km/h (3 Bft) 100,00 %
22.02.2018 04:02 -2,5 C 3,9 C 89 % 1017,6 hPa 0,0 l/m 14,0 km/h (3 Bft) O-NO 71 0 min 0,000 mm 0,0 UV-I 0 W/m -4,1 C -9,3 C 17,7 km/h (3 Bft) 95,65 %
22.02.2018 04:03 -2,6 C 3,9 C 89 % 1017,6 hPa 0,0 l/m 12,4 km/h (3 Bft) O 89 0 min 0,000 mm 0,0 UV-I 0 W/m -4,2 C -8,3 C 14,5 km/h (3 Bft) 100,00 %
22.02.2018 04:04 -2,5 C 3,9 C 89 % 1017,6 hPa 0,0 l/m 16,3 km/h (3 Bft) O-SO 107 0 min 0,000 mm 0,0 UV-I 0 W/m -4,1 C -10,8 C 19,3 km/h (3 Bft) 96,15 %
22.02.2018 04:05 -2,6 C 3,9 C 89 % 1017,5 hPa 0,0 l/m 15,0 km/h (3 Bft) O 83 0 min 0,000 mm 0,0 UV-I 0 W/m -4,2 C -10,1 C 17,7 km/h (3 Bft) 100,00 %
22.02.2018 04:06 -2,6 C 3,9 C 89 % 1017,6 hPa 0,0 l/m 14,3 km/h (3 Bft) O 83 0 min 0,000 mm 0,0 UV-I 0 W/m -4,2 C -9,7 C 17,7 km/h (3 Bft) 100,00 %
22.02.2018 04:07 -2,6 C 3,9 C 89 % 1017,5 hPa 0,0 l/m 15,0 km/h (3 Bft) O-NO 69 0 min 0,000 mm 0,0 UV-I 0 W/m -4,2 C -10,1 C 19,3 km/h (3 Bft) 100,00 %
22.02.2018 04:08 -2,6 C 3,9 C 89 % 1017,5 hPa 0,0 l/m 14,6 km/h (3 Bft) O 84 0 min 0,000 mm 0,0 UV-I 0 W/m -4,2 C -9,9 C 17,7 km/h (3 Bft) 100,00 %
22.02.2018 04:09 -2,6 C 3,9 C 89 % 1017,5 hPa 0,0 l/m 10,7 km/h (2 Bft) O-NO 65 0 min 0,000 mm 0,0 UV-I 0 W/m -4,2 C -6,9 C 12,9 km/h (3 Bft) 100,00 %
22.02.2018 04:10 -2,6 C 3,9 C 89 % 1017,5 hPa 0,0 l/m 12,4 km/h (3 Bft) O-NO 61 0 min 0,000 mm 0,0 UV-I 0 W/m -4,2 C -8,3 C 17,7 km/h (3 Bft) 100,00 %
22.02.2018 04:11 -2,6 C 3,9 C 89 % 1017,5 hPa 0,0 l/m 12,7 km/h (3 Bft) O-NO 78 0 min 0,000 mm 0,0 UV-I 0 W/m -4,2 C -8,5 C 14,5 km/h (3 Bft) 95,83 %
22.02.2018 04:12 -2,5 C 3,9 C 89 % 1017,5 hPa 0,0 l/m 12,0 km/h (2 Bft) O-NO 67 0 min 0,000 mm 0,0 UV-I 0 W/m -4,1 C -7,9 C 14,5 km/h (3 Bft) 100,00 %
22.02.2018 04:13 -2,5 C 3,9 C 89 % 1017,5 hPa 0,0 l/m 13,1 km/h (3 Bft) O-NO 66 0 min 0,000 mm 0,0 UV-I 0 W/m -4,1 C -8,7 C 16,1 km/h (3 Bft) 100,00 %
22.02.2018 04:14 -2,5 C 3,9 C 89 % 1017,5 hPa 0,0 l/m 11,9 km/h (2 Bft) O 88 0 min 0,000 mm 0,0 UV-I 0 W/m -4,1 C -7,8 C 16,1 km/h (3 Bft) 100,00 %
22.02.2018 04:15 -2,5 C 3,9 C 89 % 1017,5 hPa 0,0 l/m 15,0 km/h (3 Bft) O-NO 66 0 min 0,000 mm 0,0 UV-I 0 W/m -4,1 C -10,0 C 17,7 km/h (3 Bft) 96,55 %
22.02.2018 04:16 -2,6 C 3,9 C 89 % 1017,5 hPa 0,0 l/m 15,4 km/h (3 Bft) O 90 0 min 0,000 mm 0,0 UV-I 0 W/m -4,2 C -10,4 C 19,3 km/h (3 Bft) 100,00 %
22.02.2018 04:17 -2,5 C 3,9 C 89 % 1017,5 hPa 0,0 l/m 13,8 km/h (3 Bft) O-NO 59 0 min 0,000 mm 0,0 UV-I 0 W/m -4,1 C -9,2 C 17,7 km/h (3 Bft) 100,00 %
22.02.2018 04:18 -2,5 C 3,9 C 89 % 1017,5 hPa 0,0 l/m 14,8 km/h (3 Bft) O-NO 74 0 min 0,000 mm 0,0 UV-I 0 W/m -4,1 C -9,9 C 17,7 km/h (3 Bft) 93,33 %
22.02.2018 04:19 -2,5 C 3,9 C 89 % 1017,5 hPa 0,0 l/m 15,0 km/h (3 Bft) O 94 0 min 0,000 mm 0,0 UV-I 0 W/m -4,1 C -10,0 C 17,7 km/h (3 Bft) 92,31 %
22.02.2018 04:20 -2,5 C 3,9 C 89 % 1017,5 hPa 0,0 l/m 11,5 km/h (2 Bft) O-NO 74 0 min 0,000 mm 0,0 UV-I 0 W/m -4,1 C -7,5 C 16,1 km/h (3 Bft) 100,00 %
22.02.2018 04:21 -2,5 C 3,9 C 88 % 1017,5 hPa 0,0 l/m 14,6 km/h (3 Bft) O-NO 69 0 min 0,000 mm 0,0 UV-I 0 W/m -4,2 C -9,7 C 19,3 km/h (3 Bft) 95,65 %
22.02.2018 04:22 -2,5 C 3,9 C 89 % 1017,5 hPa 0,0 l/m 10,5 km/h (2 Bft) O 100 0 min 0,000 mm 0,0 UV-I 0 W/m -4,1 C -6,7 C 14,5 km/h (3 Bft) 100,00 %
22.02.2018 04:23 -2,5 C 3,9 C 89 % 1017,5 hPa 0,0 l/m 10,2 km/h (2 Bft) O 88 0 min 0,000 mm 0,0 UV-I 0 W/m -4,1 C -6,4 C 17,7 km/h (3 Bft) 100,00 %
22.02.2018 04:24 -2,5 C 3,9 C 89 % 1017,5 hPa 0,0 l/m 12,0 km/h (2 Bft) NO 44 0 min 0,000 mm 0,0 UV-I 0 W/m -4,1 C -7,9 C 16,1 km/h (3 Bft) 100,00 %
22.02.2018 04:25 -2,5 C 3,9 C 89 % 1017,5 hPa 0,0 l/m 11,7 km/h (2 Bft) O 82 0 min 0,000 mm 0,0 UV-I 0 W/m -4,1 C -7,6 C 14,5 km/h (3 Bft) 100,00 %
22.02.2018 04:26 -2,5 C 3,9 C 89 % 1017,5 hPa 0,0 l/m 13,4 km/h (3 Bft) O-NO 73 0 min 0,000 mm 0,0 UV-I 0 W/m -4,1 C -8,9 C 16,1 km/h (3 Bft) 100,00 %
22.02.2018 04:27 -2,6 C 3,9 C 89 % 1017,4 hPa 0,0 l/m 12,0 km/h (2 Bft) O 84 0 min 0,000 mm 0,0 UV-I 0 W/m -4,2 C -8,0 C 16,1 km/h (3 Bft) 100,00 %
22.02.2018 04:28 -2,5 C 3,9 C 89 % 1017,4 hPa 0,0 l/m 10,4 km/h (2 Bft) O-NO 71 0 min 0,000 mm 0,0 UV-I 0 W/m -4,1 C -6,6 C 14,5 km/h (3 Bft) 100,00 %
22.02.2018 04:29 -2,5 C 3,9 C 88 % 1017,4 hPa 0,0 l/m 12,3 km/h (3 Bft) O 93 0 min 0,000 mm 0,0 UV-I 0 W/m -4,2 C -8,1 C 14,5 km/h (3 Bft) 100,00 %
22.02.2018 04:30 -2,5 C 3,9 C 88 % 1017,4 hPa 0,0 l/m 13,5 km/h (3 Bft) O-NO 65 0 min 0,000 mm 0,0 UV-I 0 W/m -4,2 C -9,0 C 19,3 km/h (3 Bft) 100,00 %
22.02.2018 04:31 -2,5 C 3,9 C 89 % 1017,4 hPa 0,0 l/m 14,1 km/h (3 Bft) O 84 0 min 0,000 mm 0,0 UV-I 0 W/m -4,1 C -9,4 C 17,7 km/h (3 Bft) 100,00 %
22.02.2018 04:32 -2,5 C 3,9 C 89 % 1017,3 hPa 0,0 l/m 10,8 km/h (2 Bft) O-SO 105 0 min 0,000 mm 0,0 UV-I 0 W/m -4,1 C -6,9 C 16,1 km/h (3 Bft) 96,30 %
22.02.2018 04:33 -2,6 C 3,9 C 89 % 1017,3 hPa 0,0 l/m 14,6 km/h (3 Bft) O 88 0 min 0,000 mm 0,0 UV-I 0 W/m -4,2 C -9,9 C 17,7 km/h (3 Bft) 100,00 %
22.02.2018 04:34 -2,6 C 3,9 C 88 % 1017,3 hPa 0,0 l/m 13,7 km/h (3 Bft) O-NO 70 0 min 0,000 mm 0,0 UV-I 0 W/m -4,3 C -9,3 C 17,7 km/h (3 Bft) 93,10 %
22.02.2018 04:35 -2,6 C 3,9 C 88 % 1017,3 hPa 0,0 l/m 11,8 km/h (2 Bft) O 80 0 min 0,000 mm 0,0 UV-I 0 W/m -4,3 C -7,8 C 16,1 km/h (3 Bft) 100,00 %
22.02.2018 04:36 -2,5 C 3,9 C 88 % 1017,3 hPa 0,0 l/m 12,4 km/h (3 Bft) O 100 0 min 0,000 mm 0,0 UV-I 0 W/m -4,2 C -8,2 C 16,1 km/h (3 Bft) 91,67 %
22.02.2018 04:37 -2,6 C 3,9 C 88 % 1017,3 hPa 0,0 l/m 10,1 km/h (2 Bft) O 81 0 min 0,000 mm 0,0 UV-I 0 W/m -4,3 C -6,4 C 17,7 km/h (3 Bft) 93,33 %
22.02.2018 04:38 -2,6 C 3,9 C 89 % 1017,3 hPa 0,0 l/m 10,8 km/h (2 Bft) O 89 0 min 0,000 mm 0,0 UV-I 0 W/m -4,2 C -7,0 C 16,1 km/h (3 Bft) 100,00 %
22.02.2018 04:39 -2,6 C 3,9 C 89 % 1017,3 hPa 0,0 l/m 10,7 km/h (2 Bft) O 80 0 min 0,000 mm 0,0 UV-I 0 W/m -4,2 C -6,9 C 12,9 km/h (3 Bft) 100,00 %
22.02.2018 04:40 -2,6 C 3,9 C 88 % 1017,3 hPa 0,0 l/m 10,3 km/h (2 Bft) O 87 0 min 0,000 mm 0,0 UV-I 0 W/m -4,3 C -6,6 C 12,9 km/h (3 Bft) 100,00 %
22.02.2018 04:41 -2,5 C 3,9 C 89 % 1017,3 hPa 0,0 l/m 11,8 km/h (2 Bft) O 82 0 min 0,000 mm 0,0 UV-I 0 W/m -4,1 C -7,7 C 16,1 km/h (3 Bft) 100,00 %
22.02.2018 04:42 -2,5 C 3,9 C 89 % 1017,3 hPa 0,0 l/m 12,1 km/h (2 Bft) O-NO 78 0 min 0,000 mm 0,0 UV-I 0 W/m -4,1 C -8,0 C 16,1 km/h (3 Bft) 100,00 %
22.02.2018 04:43 -2,6 C 3,9 C 89 % 1017,3 hPa 0,0 l/m 13,3 km/h (3 Bft) O-NO 65 0 min 0,000 mm 0,0 UV-I 0 W/m -4,2 C -9,0 C 16,1 km/h (3 Bft) 100,00 %
22.02.2018 04:44 -2,5 C 3,9 C 89 % 1017,3 hPa 0,0 l/m 13,4 km/h (3 Bft) O-NO 64 0 min 0,000 mm 0,0 UV-I 0 W/m -4,1 C -8,9 C 17,7 km/h (3 Bft) 100,00 %
22.02.2018 04:45 -2,6 C 3,9 C 88 % 1017,2 hPa 0,0 l/m 13,3 km/h (3 Bft) O-NO 76 0 min 0,000 mm 0,0 UV-I 0 W/m -4,3 C -9,0 C 16,1 km/h (3 Bft) 100,00 %
22.02.2018 04:46 -2,6 C 3,9 C 88 % 1017,2 hPa 0,0 l/m 14,0 km/h (3 Bft) O 86 0 min 0,000 mm 0,0 UV-I 0 W/m -4,3 C -9,5 C 17,7 km/h (3 Bft) 100,00 %
22.02.2018 04:47 -2,6 C 3,9 C 88 % 1017,2 hPa 0,0 l/m 14,0 km/h (3 Bft) O-NO 76 0 min 0,000 mm 0,0 UV-I 0 W/m -4,3 C -9,5 C 17,7 km/h (3 Bft) 100,00 %
22.02.2018 04:48 -2,6 C 3,9 C 88 % 1017,2 hPa 0,0 l/m 14,1 km/h (3 Bft) O 82 0 min 0,000 mm 0,0 UV-I 0 W/m -4,3 C -9,5 C 16,1 km/h (3 Bft) 100,00 %
22.02.2018 04:49 -2,6 C 3,9 C 88 % 1017,2 hPa 0,0 l/m 12,3 km/h (3 Bft) O 88 0 min 0,000 mm 0,0 UV-I 0 W/m -4,3 C -8,2 C 17,7 km/h (3 Bft) 91,67 %
22.02.2018 04:50 -2,6 C 3,9 C 88 % 1017,2 hPa 0,0 l/m 11,3 km/h (2 Bft) O-NO 69 0 min 0,000 mm 0,0 UV-I 0 W/m -4,3 C -7,4 C 16,1 km/h (3 Bft) 100,00 %
22.02.2018 04:51 -2,6 C 3,9 C 89 % 1017,2 hPa 0,0 l/m 13,8 km/h (3 Bft) O-SO 105 0 min 0,000 mm 0,0 UV-I 0 W/m -4,2 C -9,3 C 17,7 km/h (3 Bft) 100,00 %
22.02.2018 04:52 -2,6 C 3,9 C 89 % 1017,2 hPa 0,0 l/m 13,4 km/h (3 Bft) O 80 0 min 0,000 mm 0,0 UV-I 0 W/m -4,2 C -9,0 C 17,7 km/h (3 Bft) 100,00 %
22.02.2018 04:53 -2,6 C 3,9 C 89 % 1017,2 hPa 0,0 l/m 14,7 km/h (3 Bft) O 87 0 min 0,000 mm 0,0 UV-I 0 W/m -4,2 C -9,9 C 20,9 km/h (4 Bft) 96,55 %
22.02.2018 04:54 -2,6 C 3,9 C 88 % 1017,2 hPa 0,0 l/m 14,1 km/h (3 Bft) O-NO 67 0 min 0,000 mm 0,0 UV-I 0 W/m -4,3 C -9,5 C 19,3 km/h (3 Bft) 100,00 %
22.02.2018 04:55 -2,6 C 3,9 C 88 % 1017,2 hPa 0,0 l/m 12,4 km/h (3 Bft) O-SO 107 0 min 0,000 mm 0,0 UV-I 0 W/m -4,3 C -8,3 C 16,1 km/h (3 Bft) 100,00 %
22.02.2018 04:56 -2,6 C 3,9 C 88 % 1017,2 hPa 0,0 l/m 12,7 km/h (3 Bft) O-NO 78 0 min 0,000 mm 0,0 UV-I 0 W/m -4,3 C -8,5 C 16,1 km/h (3 Bft) 100,00 %
22.02.2018 04:57 -2,6 C 3,9 C 89 % 1017,2 hPa 0,0 l/m 13,5 km/h (3 Bft) O 82 0 min 0,000 mm 0,0 UV-I 0 W/m -4,2 C -9,1 C 19,3 km/h (3 Bft) 100,00 %
22.02.2018 04:58 -2,6 C 3,9 C 89 % 1017,2 hPa 0,0 l/m 15,0 km/h (3 Bft) O 81 0 min 0,000 mm 0,0 UV-I 0 W/m -4,2 C -10,1 C 17,7 km/h (3 Bft) 100,00 %
22.02.2018 04:59 -2,6 C 3,9 C 89 % 1017,2 hPa 0,0 l/m 15,0 km/h (3 Bft) O 82 0 min 0,000 mm 0,0 UV-I 0 W/m -4,2 C -10,1 C 19,3 km/h (3 Bft) 100,00 %
22.02.2018 05:00 -2,6 C 3,9 C 88 % 1017,2 hPa 0,0 l/m 11,1 km/h (2 Bft) O 94 0 min 0,000 mm 0,0 UV-I 0 W/m -4,3 C -7,3 C 14,5 km/h (3 Bft) 100,00 %
22.02.2018 05:01 -2,6 C 3,9 C 88 % 1017,2 hPa 0,0 l/m 15,4 km/h (3 Bft) O-NO 78 0 min 0,000 mm 0,0 UV-I 0 W/m -4,3 C -10,4 C 19,3 km/h (3 Bft) 100,00 %
22.02.2018 05:02 -2,6 C 3,9 C 88 % 1017,2 hPa 0,0 l/m 17,1 km/h (3 Bft) O-NO 67 0 min 0,000 mm 0,0 UV-I 0 W/m -4,3 C -11,4 C 22,5 km/h (4 Bft) 95,24 %
22.02.2018 05:03 -2,6 C 3,9 C 88 % 1017,2 hPa 0,0 l/m 13,3 km/h (3 Bft) O 92 0 min 0,000 mm 0,0 UV-I 0 W/m -4,3 C -9,0 C 17,7 km/h (3 Bft) 100,00 %
22.02.2018 05:04 -2,6 C 3,9 C 88 % 1017,2 hPa 0,0 l/m 16,4 km/h (3 Bft) O-NO 77 0 min 0,000 mm 0,0 UV-I 0 W/m -4,3 C -11,0 C 19,3 km/h (3 Bft) 98,71 %
22.02.2018 05:05 -2,6 C 3,9 C 88 % 1017,1 hPa 0,0 l/m 17,1 km/h (3 Bft) O-NO 64 0 min 0,000 mm 0,0 UV-I 0 W/m -4,3 C -11,4 C 20,9 km/h (4 Bft) 100,00 %
22.02.2018 05:06 -2,6 C 3,9 C 88 % 1017,2 hPa 0,0 l/m 14,6 km/h (3 Bft) O 89 0 min 0,000 mm 0,0 UV-I 0 W/m -4,3 C -9,9 C 19,3 km/h (3 Bft) 100,00 %
22.02.2018 05:07 -2,6 C 3,9 C 88 % 1017,2 hPa 0,0 l/m 13,7 km/h (3 Bft) O-NO 76 0 min 0,000 mm 0,0 UV-I 0 W/m -4,3 C -9,3 C 16,1 km/h (3 Bft) 96,15 %
22.02.2018 05:08 -2,6 C 3,9 C 88 % 1017,1 hPa 0,0 l/m 11,7 km/h (2 Bft) O-NO 59 0 min 0,000 mm 0,0 UV-I 0 W/m -4,3 C -7,8 C 14,5 km/h (3 Bft) 100,00 %
22.02.2018 05:09 -2,6 C 3,9 C 88 % 1017,2 hPa 0,0 l/m 11,6 km/h (2 Bft) O-SO 103 0 min 0,000 mm 0,0 UV-I 0 W/m -4,3 C -7,7 C 14,5 km/h (3 Bft) 100,00 %
22.02.2018 05:10 -2,6 C 3,9 C 88 % 1017,2 hPa 0,0 l/m 13,8 km/h (3 Bft) O 81 0 min 0,000 mm 0,0 UV-I 0 W/m -4,3 C -9,3 C 19,3 km/h (3 Bft) 95,65 %
22.02.2018 05:11 -2,6 C 3,9 C 89 % 1017,2 hPa 0,0 l/m 13,8 km/h (3 Bft) O 85 0 min 0,000 mm 0,0 UV-I 0 W/m -4,2 C -9,3 C 19,3 km/h (3 Bft) 100,00 %
22.02.2018 05:12 -2,6 C 3,9 C 89 % 1017,2 hPa 0,0 l/m 14,6 km/h (3 Bft) O 84 0 min 0,000 mm 0,0 UV-I 0 W/m -4,2 C -9,9 C 17,7 km/h (3 Bft) 95,65 %
22.02.2018 05:13 -2,6 C 3,9 C 89 % 1017,2 hPa 0,0 l/m 12,5 km/h (3 Bft) O-SO 102 0 min 0,000 mm 0,0 UV-I 0 W/m -4,2 C -8,4 C 16,1 km/h (3 Bft) 100,00 %
22.02.2018 05:14 -2,6 C 3,9 C 89 % 1017,2 hPa 0,0 l/m 11,5 km/h (2 Bft) O-NO 65 0 min 0,000 mm 0,0 UV-I 0 W/m -4,2 C -7,6 C 14,5 km/h (3 Bft) 96,55 %
22.02.2018 05:15 -2,6 C 3,9 C 89 % 1017,2 hPa 0,0 l/m 11,9 km/h (2 Bft) O 90 0 min 0,000 mm 0,0 UV-I 0 W/m -4,2 C -7,9 C 16,1 km/h (3 Bft) 92,31 %
22.02.2018 05:16 -2,6 C 3,9 C 89 % 1017,2 hPa 0,0 l/m 10,9 km/h (2 Bft) O 85 0 min 0,000 mm 0,0 UV-I 0 W/m -4,2 C -7,1 C 14,5 km/h (3 Bft) 100,00 %
22.02.2018 05:17 -2,6 C 3,9 C 89 % 1017,2 hPa 0,0 l/m 15,5 km/h (3 Bft) O 84 0 min 0,000 mm 0,0 UV-I 0 W/m -4,2 C -10,5 C 19,3 km/h (3 Bft) 96,30 %
22.02.2018 05:18 -2,6 C 3,9 C 89 % 1017,2 hPa 0,0 l/m 17,2 km/h (3 Bft) O 81 0 min 0,000 mm 0,0 UV-I 0 W/m -4,2 C -11,5 C 20,9 km/h (4 Bft) 95,65 %
22.02.2018 05:19 -2,6 C 3,9 C 89 % 1017,2 hPa 0,0 l/m 18,1 km/h (3 Bft) O 85 0 min 0,000 mm 0,0 UV-I 0 W/m -4,2 C -12,0 C 22,5 km/h (4 Bft) 92,59 %
22.02.2018 05:20 -2,6 C 3,9 C 89 % 1017,2 hPa 0,0 l/m 17,0 km/h (3 Bft) O-NO 74 0 min 0,000 mm 0,0 UV-I 0 W/m -4,2 C -11,4 C 19,3 km/h (3 Bft) 100,00 %
22.02.2018 05:21 -2,6 C 3,9 C 89 % 1017,2 hPa 0,0 l/m 14,3 km/h (3 Bft) O 84 0 min 0,000 mm 0,0 UV-I 0 W/m -4,2 C -9,7 C 17,7 km/h (3 Bft) 93,33 %
22.02.2018 05:22 -2,6 C 3,9 C 89 % 1017,2 hPa 0,0 l/m 12,7 km/h (3 Bft) O-NO 69 0 min 0,000 mm 0,0 UV-I 0 W/m -4,2 C -8,5 C 16,1 km/h (3 Bft) 100,00 %
22.02.2018 05:23 -2,6 C 3,9 C 89 % 1017,2 hPa 0,0 l/m 12,5 km/h (3 Bft) O-NO 74 0 min 0,000 mm 0,0 UV-I 0 W/m -4,2 C -8,4 C 16,1 km/h (3 Bft) 95,83 %
22.02.2018 05:24 -2,6 C 3,9 C 89 % 1017,2 hPa 0,0 l/m 13,3 km/h (3 Bft) O-NO 67 0 min 0,000 mm 0,0 UV-I 0 W/m -4,2 C -9,0 C 14,5 km/h (3 Bft) 100,00 %
22.02.2018 05:25 -2,6 C 3,9 C 89 % 1017,2 hPa 0,0 l/m 13,1 km/h (3 Bft) O 80 0 min 0,000 mm 0,0 UV-I 0 W/m -4,2 C -8,8 C 17,7 km/h (3 Bft) 95,83 %
22.02.2018 05:26 -2,6 C 3,9 C 89 % 1017,2 hPa 0,0 l/m 12,0 km/h (2 Bft) O-NO 74 0 min 0,000 mm 0,0 UV-I 0 W/m -4,2 C -8,0 C 16,1 km/h (3 Bft) 100,00 %
22.02.2018 05:27 -2,6 C 3,9 C 89 % 1017,2 hPa 0,0 l/m 10,6 km/h (2 Bft) O-NO 62 0 min 0,000 mm 0,0 UV-I 0 W/m -4,2 C -6,8 C 17,7 km/h (3 Bft) 95,83 %
22.02.2018 05:28 -2,6 C 3,9 C 89 % 1017,2 hPa 0,0 l/m 14,4 km/h (3 Bft) O 98 0 min 0,000 mm 0,0 UV-I 0 W/m -4,2 C -9,7 C 19,3 km/h (3 Bft) 100,00 %
22.02.2018 05:29 -2,6 C 3,9 C 89 % 1017,2 hPa 0,0 l/m 16,3 km/h (3 Bft) O 88 0 min 0,000 mm 0,0 UV-I 0 W/m -4,2 C -10,9 C 19,3 km/h (3 Bft) 96,15 %
22.02.2018 05:30 -2,6 C 3,9 C 89 % 1017,2 hPa 0,0 l/m 13,2 km/h (3 Bft) O 90 0 min 0,000 mm 0,0 UV-I 0 W/m -4,2 C -8,9 C 17,7 km/h (3 Bft) 96,30 %
22.02.2018 05:31 -2,6 C 3,9 C 89 % 1017,3 hPa 0,0 l/m 13,8 km/h (3 Bft) O-NO 74 0 min 0,000 mm 0,0 UV-I 0 W/m -4,2 C -9,3 C 17,7 km/h (3 Bft) 96,15 %
22.02.2018 05:32 -2,6 C 3,9 C 89 % 1017,2 hPa 0,0 l/m 14,9 km/h (3 Bft) O-NO 76 0 min 0,000 mm 0,0 UV-I 0 W/m -4,2 C -10,1 C 19,3 km/h (3 Bft) 92,31 %
22.02.2018 05:33 -2,6 C 3,9 C 89 % 1017,3 hPa 0,0 l/m 13,1 km/h (3 Bft) O 91 0 min 0,000 mm 0,0 UV-I 0 W/m -4,2 C -8,8 C 16,1 km/h (3 Bft) 100,00 %
22.02.2018 05:34 -2,6 C 3,9 C 89 % 1017,3 hPa 0,0 l/m 13,0 km/h (3 Bft) O-NO 57 0 min 0,000 mm 0,0 UV-I 0 W/m -4,2 C -8,8 C 17,7 km/h (3 Bft) 96,67 %
22.02.2018 05:35 -2,6 C 3,9 C 90 % 1017,3 hPa 0,0 l/m 14,4 km/h (3 Bft) O 101 0 min 0,000 mm 0,0 UV-I 0 W/m -4,0 C -9,7 C 19,3 km/h (3 Bft) 100,00 %
22.02.2018 05:36 -2,6 C 3,9 C 89 % 1017,3 hPa 0,0 l/m 14,2 km/h (3 Bft) O-NO 57 0 min 0,000 mm 0,0 UV-I 0 W/m -4,2 C -9,6 C 19,3 km/h (3 Bft) 96,15 %
22.02.2018 05:37 -2,6 C 3,9 C 89 % 1017,3 hPa 0,0 l/m 14,2 km/h (3 Bft) O-NO 76 0 min 0,000 mm 0,0 UV-I 0 W/m -4,2 C -9,6 C 17,7 km/h (3 Bft) 98,22 %
22.02.2018 05:38 -2,6 C 3,9 C 89 % 1017,3 hPa 0,0 l/m 16,0 km/h (3 Bft) O 84 0 min 0,000 mm 0,0 UV-I 0 W/m -4,2 C -10,8 C 19,3 km/h (3 Bft) 92,50 %
22.02.2018 05:39 -2,7 C 3,9 C 90 % 1017,3 hPa 0,0 l/m 13,8 km/h (3 Bft) O 100 0 min 0,000 mm 0,0 UV-I 0 W/m -4,1 C -9,4 C 19,3 km/h (3 Bft) 96,15 %
22.02.2018 05:40 -2,7 C 3,9 C 90 % 1017,3 hPa 0,0 l/m 16,1 km/h (3 Bft) O-NO 72 0 min 0,000 mm 0,0 UV-I 0 W/m -4,1 C -10,9 C 20,9 km/h (4 Bft) 96,30 %
22.02.2018 05:41 -2,7 C 3,9 C 90 % 1017,3 hPa 0,0 l/m 13,5 km/h (3 Bft) O 88 0 min 0,000 mm 0,0 UV-I 0 W/m -4,1 C -9,2 C 19,3 km/h (3 Bft) 86,96 %
22.02.2018 05:42 -2,7 C 3,9 C 90 % 1017,4 hPa 0,0 l/m 11,4 km/h (2 Bft) O-NO 71 0 min 0,000 mm 0,0 UV-I 0 W/m -4,1 C -7,6 C 14,5 km/h (3 Bft) 97,96 %
22.02.2018 05:43 -2,7 C 3,9 C 90 % 1017,3 hPa 0,0 l/m 13,3 km/h (3 Bft) O-NO 76 0 min 0,000 mm 0,0 UV-I 0 W/m -4,1 C -9,1 C 16,1 km/h (3 Bft) 95,12 %
22.02.2018 05:44 -2,7 C 3,9 C 90 % 1017,3 hPa 0,0 l/m 12,0 km/h (2 Bft) O-NO 71 0 min 0,000 mm 0,0 UV-I 0 W/m -4,1 C -8,1 C 14,5 km/h (3 Bft) 96,30 %
22.02.2018 05:45 -2,7 C 3,9 C 90 % 1017,3 hPa 0,0 l/m 11,8 km/h (2 Bft) O-NO 71 0 min 0,000 mm 0,0 UV-I 0 W/m -4,1 C -8,0 C 16,1 km/h (3 Bft) 92,31 %
22.02.2018 05:46 -2,7 C 3,9 C 90 % 1017,3 hPa 0,0 l/m 11,4 km/h (2 Bft) O-NO 78 0 min 0,000 mm 0,0 UV-I 0 W/m -4,1 C -7,6 C 16,1 km/h (3 Bft) 100,00 %
22.02.2018 05:47 -2,7 C 3,9 C 90 % 1017,4 hPa 0,0 l/m 14,0 km/h (3 Bft) O 88 0 min 0,000 mm 0,0 UV-I 0 W/m -4,1 C -9,6 C 19,3 km/h (3 Bft) 92,31 %
22.02.2018 05:48 -2,7 C 3,9 C 90 % 1017,4 hPa 0,0 l/m 13,6 km/h (3 Bft) O-NO 78 0 min 0,000 mm 0,0 UV-I 0 W/m -4,1 C -9,3 C 17,7 km/h (3 Bft) 96,30 %
22.02.2018 05:49 -2,7 C 3,9 C 90 % 1017,3 hPa 0,0 l/m 12,6 km/h (3 Bft) O-NO 74 0 min 0,000 mm 0,0 UV-I 0 W/m -4,1 C -8,6 C 16,1 km/h (3 Bft) 96,15 %
22.02.2018 05:50 -2,7 C 3,9 C 90 % 1017,3 hPa 0,0 l/m 13,7 km/h (3 Bft) O-NO 75 0 min 0,000 mm 0,0 UV-I 0 W/m -4,1 C -9,4 C 16,1 km/h (3 Bft) 93,33 %
22.02.2018 05:51 -2,7 C 3,9 C 90 % 1017,3 hPa 0,0 l/m 16,8 km/h (3 Bft) O-NO 69 0 min 0,000 mm 0,0 UV-I 0 W/m -4,1 C -11,4 C 19,3 km/h (3 Bft) 95,83 %
22.02.2018 05:52 -2,7 C 3,9 C 90 % 1017,3 hPa 0,0 l/m 18,3 km/h (3 Bft) O 92 0 min 0,000 mm 0,0 UV-I 0 W/m -4,1 C -12,2 C 24,1 km/h (4 Bft) 95,65 %
22.02.2018 05:53 -2,7 C 3,9 C 90 % 1017,3 hPa 0,0 l/m 16,8 km/h (3 Bft) O 92 0 min 0,000 mm 0,0 UV-I 0 W/m -4,1 C -11,4 C 20,9 km/h (4 Bft) 95,83 %
22.02.2018 05:54 -2,7 C 3,9 C 90 % 1017,3 hPa 0,0 l/m 16,5 km/h (3 Bft) O 89 0 min 0,000 mm 0,0 UV-I 0 W/m -4,1 C -11,2 C 20,9 km/h (4 Bft) 86,96 %
22.02.2018 05:55 -2,7 C 3,9 C 90 % 1017,3 hPa 0,0 l/m 14,6 km/h (3 Bft) O 97 0 min 0,000 mm 0,0 UV-I 0 W/m -4,1 C -10,0 C 19,3 km/h (3 Bft) 100,00 %
22.02.2018 05:56 -2,7 C 3,9 C 90 % 1017,2 hPa 0,0 l/m 14,4 km/h (3 Bft) O 90 0 min 0,000 mm 0,0 UV-I 0 W/m -4,1 C -9,9 C 17,7 km/h (3 Bft) 88,46 %
22.02.2018 05:57 -2,7 C 3,9 C 90 % 1017,3 hPa 0,0 l/m 12,8 km/h (3 Bft) O-NO 63 0 min 0,000 mm 0,0 UV-I 0 W/m -4,1 C -8,7 C 16,1 km/h (3 Bft) 95,83 %
22.02.2018 05:58 -2,7 C 3,9 C 90 % 1017,3 hPa 0,0 l/m 13,0 km/h (3 Bft) O-NO 76 0 min 0,000 mm 0,0 UV-I 0 W/m -4,1 C -8,9 C 17,7 km/h (3 Bft) 92,86 %
22.02.2018 05:59 -2,7 C 3,9 C 90 % 1017,3 hPa 0,0 l/m 10,3 km/h (2 Bft) O 88 0 min 0,000 mm 0,0 UV-I 0 W/m -4,1 C -6,7 C 12,9 km/h (3 Bft) 92,59 %
22.02.2018 06:00 -2,7 C 3,9 C 90 % 1017,3 hPa 0,0 l/m 10,6 km/h (2 Bft) O 86 0 min 0,000 mm 0,0 UV-I 0 W/m -4,1 C -7,0 C 14,5 km/h (3 Bft) 96,55 %
22.02.2018 06:01 -2,7 C 3,9 C 90 % 1017,3 hPa 0,0 l/m 11,5 km/h (2 Bft) O 83 0 min 0,000 mm 0,0 UV-I 0 W/m -4,1 C -7,7 C 17,7 km/h (3 Bft) 100,00 %
22.02.2018 06:02 -2,7 C 3,9 C 90 % 1017,3 hPa 0,0 l/m 11,3 km/h (2 Bft) O-NO 61 0 min 0,000 mm 0,0 UV-I 0 W/m -4,1 C -7,5 C 14,5 km/h (3 Bft) 95,12 %
22.02.2018 06:03 -2,7 C 3,9 C 90 % 1017,3 hPa 0,0 l/m 12,6 km/h (3 Bft) O-SO 103 0 min 0,000 mm 0,0 UV-I 0 W/m -4,1 C -8,6 C 16,1 km/h (3 Bft) 91,67 %
22.02.2018 06:04 -2,7 C 3,9 C 90 % 1017,4 hPa 0,0 l/m 12,7 km/h (3 Bft) NO 51 0 min 0,000 mm 0,0 UV-I 0 W/m -4,1 C -8,6 C 17,7 km/h (3 Bft) 93,75 %
22.02.2018 06:05 -2,7 C 3,9 C 90 % 1017,4 hPa 0,0 l/m 13,7 km/h (3 Bft) O-NO 76 0 min 0,000 mm 0,0 UV-I 0 W/m -4,1 C -9,4 C 17,7 km/h (3 Bft) 100,00 %
22.02.2018 06:06 -2,7 C 3,9 C 90 % 1017,3 hPa 0,0 l/m 17,1 km/h (3 Bft) O-NO 70 0 min 0,000 mm 0,0 UV-I 0 W/m -4,1 C -11,5 C 20,9 km/h (4 Bft) 93,33 %
22.02.2018 06:07 -2,7 C 3,9 C 90 % 1017,3 hPa 0,0 l/m 16,5 km/h (3 Bft) O 92 0 min 0,000 mm 0,0 UV-I 0 W/m -4,1 C -11,2 C 22,5 km/h (4 Bft) 95,24 %
22.02.2018 06:08 -2,7 C 3,9 C 90 % 1017,4 hPa 0,0 l/m 18,6 km/h (3 Bft) O 88 0 min 0,000 mm 0,0 UV-I 0 W/m -4,1 C -12,4 C 25,7 km/h (4 Bft) 91,30 %
22.02.2018 06:09 -2,7 C 3,9 C 90 % 1017,4 hPa 0,0 l/m 16,2 km/h (3 Bft) O 89 0 min 0,000 mm 0,0 UV-I 0 W/m -4,1 C -11,0 C 22,5 km/h (4 Bft) 95,83 %
22.02.2018 06:10 -2,7 C 3,9 C 90 % 1017,3 hPa 0,0 l/m 16,4 km/h (3 Bft) O-NO 71 0 min 0,000 mm 0,0 UV-I 0 W/m -4,1 C -11,1 C 24,1 km/h (4 Bft) 96,15 %
22.02.2018 06:11 -2,7 C 3,9 C 90 % 1017,4 hPa 0,0 l/m 15,8 km/h (3 Bft) O-NO 69 0 min 0,000 mm 0,0 UV-I 0 W/m -4,1 C -10,8 C 20,9 km/h (4 Bft) 97,23 %
22.02.2018 06:12 -2,7 C 3,9 C 90 % 1017,3 hPa 0,0 l/m 14,9 km/h (3 Bft) O-NO 63 0 min 0,000 mm 0,0 UV-I 0 W/m -4,1 C -10,2 C 19,3 km/h (3 Bft) 97,62 %
22.02.2018 06:13 -2,7 C 3,9 C 90 % 1017,3 hPa 0,0 l/m 11,3 km/h (2 Bft) O-SO 113 0 min 0,000 mm 0,0 UV-I 0 W/m -4,1 C -7,5 C 16,1 km/h (3 Bft) 96,15 %
22.02.2018 06:14 -2,7 C 3,9 C 90 % 1017,3 hPa 0,0 l/m 13,0 km/h (3 Bft) O-NO 76 0 min 0,000 mm 0,0 UV-I 0 W/m -4,1 C -8,9 C 17,7 km/h (3 Bft) 96,30 %
22.02.2018 06:15 -2,7 C 3,9 C 90 % 1017,3 hPa 0,0 l/m 14,2 km/h (3 Bft) O 85 0 min 0,000 mm 0,0 UV-I 0 W/m -4,1 C -9,7 C 19,3 km/h (3 Bft) 92,86 %
22.02.2018 06:16 -2,7 C 3,9 C 90 % 1017,3 hPa 0,0 l/m 16,3 km/h (3 Bft) O 80 0 min 0,000 mm 0,0 UV-I 0 W/m -4,1 C -11,1 C 20,9 km/h (4 Bft) 96,30 %
22.02.2018 06:17 -2,8 C 3,9 C 90 % 1017,2 hPa 0,0 l/m 17,8 km/h (3 Bft) O-NO 76 0 min 0,000 mm 0,0 UV-I 0 W/m -4,2 C -12,1 C 22,5 km/h (4 Bft) 100,00 %
22.02.2018 06:18 -2,8 C 3,9 C 90 % 1017,2 hPa 0,0 l/m 14,6 km/h (3 Bft) O-NO 61 0 min 0,000 mm 0,0 UV-I 0 W/m -4,2 C -10,1 C 17,7 km/h (3 Bft) 100,00 %
22.02.2018 06:19 -2,8 C 3,9 C 90 % 1017,2 hPa 0,0 l/m 19,2 km/h (3 Bft) O-NO 70 0 min 0,000 mm 0,0 UV-I 0 W/m -4,2 C -12,8 C 22,5 km/h (4 Bft) 100,00 %
22.02.2018 06:20 -2,8 C 3,9 C 90 % 1017,2 hPa 0,0 l/m 20,4 km/h (4 Bft) O-NO 67 0 min 0,000 mm 0,0 UV-I 0 W/m -4,2 C -13,4 C 22,5 km/h (4 Bft) 93,33 %
22.02.2018 06:21 -2,8 C 3,9 C 90 % 1017,1 hPa 0,0 l/m 14,2 km/h (3 Bft) O-NO 67 0 min 0,000 mm 0,0 UV-I 0 W/m -4,2 C -9,8 C 20,9 km/h (4 Bft) 96,15 %
22.02.2018 06:22 -2,7 C 3,9 C 90 % 1017,2 hPa 0,0 l/m 16,2 km/h (3 Bft) O 94 0 min 0,000 mm 0,0 UV-I 0 W/m -4,1 C -11,0 C 22,5 km/h (4 Bft) 100,00 %
22.02.2018 06:23 -2,8 C 3,9 C 90 % 1017,2 hPa 0,0 l/m 18,8 km/h (3 Bft) O 84 0 min 0,000 mm 0,0 UV-I 0 W/m -4,2 C -12,6 C 25,7 km/h (4 Bft) 91,30 %
22.02.2018 06:24 -2,8 C 3,9 C 90 % 1017,2 hPa 0,0 l/m 16,4 km/h (3 Bft) O 88 0 min 0,000 mm 0,0 UV-I 0 W/m -4,2 C -11,3 C 20,9 km/h (4 Bft) 100,00 %
22.02.2018 06:25 -2,8 C 3,9 C 90 % 1017,2 hPa 0,0 l/m 15,9 km/h (3 Bft) O 90 0 min 0,000 mm 0,0 UV-I 0 W/m -4,2 C -10,9 C 20,9 km/h (4 Bft) 100,00 %
22.02.2018 06:26 -2,7 C 3,9 C 90 % 1017,1 hPa 0,0 l/m 14,9 km/h (3 Bft) O 84 0 min 0,000 mm 0,0 UV-I 0 W/m -4,1 C -10,2 C 19,3 km/h (3 Bft) 100,00 %
22.02.2018 06:27 -2,7 C 3,9 C 90 % 1017,1 hPa 0,0 l/m 13,9 km/h (3 Bft) O-NO 75 0 min 0,000 mm 0,0 UV-I 0 W/m -4,1 C -9,5 C 17,7 km/h (3 Bft) 100,00 %
22.02.2018 06:28 -2,7 C 3,9 C 90 % 1017,2 hPa 0,0 l/m 15,1 km/h (3 Bft) O 85 0 min 0,000 mm 0,0 UV-I 0 W/m -4,1 C -10,3 C 19,3 km/h (3 Bft) 100,00 %
22.02.2018 06:29 -2,7 C 3,9 C 90 % 1017,2 hPa 0,0 l/m 16,8 km/h (3 Bft) O 99 0 min 0,000 mm 0,0 UV-I 0 W/m -4,1 C -11,4 C 20,9 km/h (4 Bft) 100,00 %
22.02.2018 06:30 -2,7 C 3,9 C 90 % 1017,2 hPa 0,0 l/m 13,4 km/h (3 Bft) O 86 0 min 0,000 mm 0,0 UV-I 0 W/m -4,1 C -9,2 C 17,7 km/h (3 Bft) 100,00 %
22.02.2018 06:31 -2,7 C 3,9 C 90 % 1017,2 hPa 0,0 l/m 14,3 km/h (3 Bft) O-SO 106 0 min 0,000 mm 0,0 UV-I 0 W/m -4,1 C -9,8 C 17,7 km/h (3 Bft) 100,00 %
22.02.2018 06:32 -2,8 C 3,9 C 90 % 1017,1 hPa 0,0 l/m 15,7 km/h (3 Bft) O-NO 66 0 min 0,000 mm 0,0 UV-I 0 W/m -4,2 C -10,8 C 22,5 km/h (4 Bft) 100,00 %
22.02.2018 06:33 -2,8 C 3,9 C 90 % 1017,1 hPa 0,0 l/m 15,7 km/h (3 Bft) O 88 0 min 0,000 mm 0,0 UV-I 0 W/m -4,2 C -10,8 C 17,7 km/h (3 Bft) 100,00 %
22.02.2018 06:34 -2,7 C 3,9 C 90 % 1017,1 hPa 0,0 l/m 12,5 km/h (3 Bft) O-NO 78 0 min 0,000 mm 0,0 UV-I 0 W/m -4,1 C -8,5 C 16,1 km/h (3 Bft) 100,00 %
22.02.2018 06:35 -2,7 C 3,9 C 91 % 1017,1 hPa 0,0 l/m 14,6 km/h (3 Bft) O 84 0 min 0,000 mm 0,0 UV-I 0 W/m -4,0 C -10,0 C 17,7 km/h (3 Bft) 100,00 %
22.02.2018 06:36 -2,7 C 3,9 C 91 % 1017,1 hPa 0,0 l/m 14,7 km/h (3 Bft) O-NO 72 0 min 0,000 mm 0,0 UV-I 0 W/m -4,0 C -10,1 C 17,7 km/h (3 Bft) 100,00 %
22.02.2018 06:37 -2,7 C 3,9 C 91 % 1017,1 hPa 0,0 l/m 13,0 km/h (3 Bft) O-NO 69 0 min 0,000 mm 0,0 UV-I 0 W/m -4,0 C -8,9 C 16,1 km/h (3 Bft) 100,00 %
22.02.2018 06:38 -2,7 C 3,9 C 91 % 1017,1 hPa 0,0 l/m 14,4 km/h (3 Bft) O-NO 71 0 min 0,000 mm 0,0 UV-I 0 W/m -4,0 C -9,9 C 19,3 km/h (3 Bft) 100,00 %
22.02.2018 06:39 -2,7 C 3,9 C 91 % 1017,1 hPa 0,0 l/m 14,1 km/h (3 Bft) O-NO 74 0 min 0,000 mm 0,0 UV-I 0 W/m -4,0 C -9,6 C 19,3 km/h (3 Bft) 100,00 %
22.02.2018 06:40 -2,7 C 3,9 C 91 % 1017,1 hPa 0,0 l/m 16,7 km/h (3 Bft) O 83 0 min 0,000 mm 0,0 UV-I 0 W/m -4,0 C -11,3 C 20,9 km/h (4 Bft) 97,50 %
22.02.2018 06:41 -2,7 C 3,9 C 91 % 1017,1 hPa 0,0 l/m 16,7 km/h (3 Bft) O-NO 77 0 min 0,000 mm 0,0 UV-I 0 W/m -4,0 C -11,3 C 20,9 km/h (4 Bft) 100,00 %
22.02.2018 06:42 -2,7 C 3,9 C 91 % 1017,1 hPa 0,0 l/m 14,8 km/h (3 Bft) O 80 0 min 0,000 mm 0,0 UV-I 0 W/m -4,0 C -10,1 C 19,3 km/h (3 Bft) 100,00 %
22.02.2018 06:43 -2,7 C 3,9 C 91 % 1017,1 hPa 0,0 l/m 15,0 km/h (3 Bft) O 86 0 min 0,000 mm 0,0 UV-I 0 W/m -4,0 C -10,3 C 17,7 km/h (3 Bft) 100,00 %
22.02.2018 06:44 -2,7 C 3,9 C 91 % 1017,0 hPa 0,0 l/m 15,0 km/h (3 Bft) O-NO 69 0 min 0,000 mm 0,0 UV-I 0 W/m -4,0 C -10,3 C 19,3 km/h (3 Bft) 100,00 %
22.02.2018 06:45 -2,7 C 3,9 C 91 % 1017,1 hPa 0,0 l/m 15,2 km/h (3 Bft) O 91 0 min 0,000 mm 0,0 UV-I 0 W/m -4,0 C -10,4 C 20,9 km/h (4 Bft) 100,00 %
22.02.2018 06:46 -2,7 C 3,9 C 90 % 1017,0 hPa 0,0 l/m 13,5 km/h (3 Bft) O 82 0 min 0,000 mm 0,0 UV-I 0 W/m -4,1 C -9,2 C 17,7 km/h (3 Bft) 100,00 %
22.02.2018 06:47 -2,8 C 3,9 C 91 % 1017,1 hPa 0,0 l/m 12,4 km/h (3 Bft) O 80 0 min 0,000 mm 0,0 UV-I 0 W/m -4,1 C -8,5 C 17,7 km/h (3 Bft) 100,00 %
22.02.2018 06:48 -2,8 C 3,9 C 91 % 1017,0 hPa 0,0 l/m 17,2 km/h (3 Bft) O 95 0 min 0,000 mm 0,0 UV-I 0 W/m -4,1 C -11,7 C 22,5 km/h (4 Bft) 100,00 %
22.02.2018 06:49 -2,8 C 3,9 C 91 % 1017,1 hPa 0,0 l/m 18,3 km/h (3 Bft) O-NO 76 0 min 0,000 mm 0,0 UV-I 0 W/m -4,1 C -12,4 C 20,9 km/h (4 Bft) 100,00 %
22.02.2018 06:50 -2,8 C 3,9 C 90 % 1017,0 hPa 0,0 l/m 19,6 km/h (3 Bft) O 95 0 min 0,000 mm 0,0 UV-I 0 W/m -4,2 C -13,0 C 25,7 km/h (4 Bft) 96,15 %
22.02.2018 06:51 -2,8 C 3,9 C 90 % 1017,0 hPa 0,0 l/m 16,8 km/h (3 Bft) O 100 0 min 0,000 mm 0,0 UV-I 0 W/m -4,2 C -11,5 C 20,9 km/h (4 Bft) 100,00 %
22.02.2018 06:52 -2,8 C 3,9 C 90 % 1017,0 hPa 0,0 l/m 14,4 km/h (3 Bft) O 82 0 min 0,000 mm 0,0 UV-I 0 W/m -4,2 C -10,0 C 19,3 km/h (3 Bft) 100,00 %
22.02.2018 06:53 -2,8 C 3,9 C 90 % 1017,0 hPa 0,0 l/m 15,3 km/h (3 Bft) O 93 0 min 0,000 mm 0,0 UV-I 0 W/m -4,2 C -10,6 C 20,9 km/h (4 Bft) 100,00 %
22.02.2018 06:54 -2,7 C 3,9 C 90 % 1017,1 hPa 0,0 l/m 17,2 km/h (3 Bft) O 84 0 min 0,000 mm 0,0 UV-I 0 W/m -4,1 C -11,6 C 20,9 km/h (4 Bft) 100,00 %
22.02.2018 06:55 -2,7 C 3,9 C 90 % 1017,1 hPa 0,0 l/m 17,0 km/h (3 Bft) O 86 0 min 0,000 mm 0,0 UV-I 0 W/m -4,1 C -11,5 C 22,5 km/h (4 Bft) 100,00 %
22.02.2018 06:56 -2,7 C 3,9 C 90 % 1017,1 hPa 0,0 l/m 14,1 km/h (3 Bft) O-NO 71 0 min 0,000 mm 0,0 UV-I 0 W/m -4,1 C -9,6 C 16,1 km/h (3 Bft) 100,00 %
22.02.2018 06:57 -2,7 C 3,9 C 91 % 1017,1 hPa 0,0 l/m 16,8 km/h (3 Bft) NO 44 0 min 0,000 mm 0,0 UV-I 0 W/m -4,0 C -11,4 C 22,5 km/h (4 Bft) 100,00 %
22.02.2018 06:58 -2,7 C 3,9 C 91 % 1017,0 hPa 0,0 l/m 14,8 km/h (3 Bft) O 79 0 min 0,000 mm 0,0 UV-I 0 W/m -4,0 C -10,1 C 19,3 km/h (3 Bft) 94,44 %
22.02.2018 06:59 -2,7 C 3,9 C 91 % 1017,1 hPa 0,0 l/m 13,9 km/h (3 Bft) O-SO 106 0 min 0,000 mm 0,0 UV-I 0 W/m -4,0 C -9,5 C 16,1 km/h (3 Bft) 100,00 %
22.02.2018 07:00 -2,7 C 3,9 C 91 % 1017,1 hPa 0,0 l/m 19,0 km/h (3 Bft) O-NO 73 0 min 0,000 mm 0,0 UV-I 1 W/m -4,0 C -12,6 C 24,1 km/h (4 Bft) 100,00 %
22.02.2018 07:01 -2,7 C 3,9 C 90 % 1017,1 hPa 0,0 l/m 17,2 km/h (3 Bft) O 93 0 min 0,000 mm 0,0 UV-I 5 W/m -4,1 C -11,6 C 22,5 km/h (4 Bft) 100,00 %
22.02.2018 07:02 -2,8 C 3,9 C 90 % 1017,1 hPa 0,0 l/m 14,6 km/h (3 Bft) O-NO 77 0 min 0,000 mm 0,0 UV-I 5 W/m -4,2 C -10,1 C 19,3 km/h (3 Bft) 96,67 %
22.02.2018 07:03 -2,7 C 3,9 C 90 % 1017,1 hPa 0,0 l/m 20,0 km/h (4 Bft) O 89 0 min 0,000 mm 0,0 UV-I 5 W/m -4,1 C -13,1 C 27,4 km/h (4 Bft) 100,00 %
22.02.2018 07:04 -2,8 C 3,9 C 90 % 1017,1 hPa 0,0 l/m 19,2 km/h (3 Bft) O-NO 71 0 min 0,000 mm 0,0 UV-I 5 W/m -4,2 C -12,8 C 22,5 km/h (4 Bft) 100,00 %
22.02.2018 07:05 -2,8 C 3,9 C 90 % 1017,1 hPa 0,0 l/m 17,0 km/h (3 Bft) O 96 0 min 0,000 mm 0,0 UV-I 5 W/m -4,2 C -11,6 C 19,3 km/h (3 Bft) 93,10 %
22.02.2018 07:06 -2,8 C 3,9 C 90 % 1017,1 hPa 0,0 l/m 16,6 km/h (3 Bft) O 87 0 min 0,000 mm 0,0 UV-I 5 W/m -4,2 C -11,4 C 20,9 km/h (4 Bft) 100,00 %
22.02.2018 07:07 -2,7 C 3,9 C 90 % 1017,1 hPa 0,0 l/m 17,9 km/h (3 Bft) O 98 0 min 0,000 mm 0,0 UV-I 5 W/m -4,1 C -12,0 C 20,9 km/h (4 Bft) 100,00 %
22.02.2018 07:08 -2,8 C 3,9 C 90 % 1017,1 hPa 0,0 l/m 16,5 km/h (3 Bft) O 98 0 min 0,000 mm 0,0 UV-I 5 W/m -4,2 C -11,3 C 22,5 km/h (4 Bft) 100,00 %
22.02.2018 07:09 -2,8 C 3,9 C 90 % 1017,1 hPa 0,0 l/m 13,1 km/h (3 Bft) O-NO 76 0 min 0,000 mm 0,0 UV-I 5 W/m -4,2 C -9,1 C 17,7 km/h (3 Bft) 100,00 %
22.02.2018 07:10 -2,8 C 3,9 C 90 % 1017,1 hPa 0,0 l/m 13,9 km/h (3 Bft) O 97 0 min 0,000 mm 0,0 UV-I 5 W/m -4,2 C -9,6 C 17,7 km/h (3 Bft) 100,00 %
22.02.2018 07:11 -2,8 C 3,9 C 91 % 1017,1 hPa 0,0 l/m 15,5 km/h (3 Bft) O-SO 105 0 min 0,000 mm 0,0 UV-I 7 W/m -4,1 C -10,7 C 19,3 km/h (3 Bft) 100,00 %
22.02.2018 07:12 -2,8 C 3,9 C 91 % 1017,1 hPa 0,0 l/m 14,2 km/h (3 Bft) O-NO 78 0 min 0,000 mm 0,0 UV-I 7 W/m -4,1 C -9,8 C 16,1 km/h (3 Bft) 100,00 %
22.02.2018 07:13 -2,8 C 3,9 C 91 % 1017,1 hPa 0,0 l/m 15,5 km/h (3 Bft) O-NO 69 0 min 0,000 mm 0,0 UV-I 7 W/m -4,1 C -10,7 C 19,3 km/h (3 Bft) 100,00 %
22.02.2018 07:14 -2,7 C 3,9 C 91 % 1017,1 hPa 0,0 l/m 16,4 km/h (3 Bft) O-NO 78 0 min 0,000 mm 0,0 UV-I 7 W/m -4,0 C -11,1 C 19,3 km/h (3 Bft) 100,00 %
22.02.2018 07:15 -2,8 C 3,9 C 91 % 1017,1 hPa 0,0 l/m 18,3 km/h (3 Bft) O 88 0 min 0,000 mm 0,0 UV-I 8 W/m -4,1 C -12,4 C 20,9 km/h (4 Bft) 100,00 %
22.02.2018 07:16 -2,8 C 3,9 C 90 % 1017,1 hPa 0,0 l/m 17,7 km/h (3 Bft) O-NO 76 0 min 0,000 mm 0,0 UV-I 9 W/m -4,2 C -12,0 C 20,9 km/h (4 Bft) 100,00 %
22.02.2018 07:17 -2,8 C 3,9 C 90 % 1017,1 hPa 0,0 l/m 16,7 km/h (3 Bft) O 92 0 min 0,000 mm 0,0 UV-I 9 W/m -4,2 C -11,4 C 19,3 km/h (3 Bft) 100,00 %
22.02.2018 07:18 -2,8 C 3,9 C 90 % 1017,1 hPa 0,0 l/m 17,2 km/h (3 Bft) O 90 0 min 0,000 mm 0,0 UV-I 11 W/m -4,2 C -11,7 C 19,3 km/h (3 Bft) 100,00 %
22.02.2018 07:19 -2,8 C 3,9 C 90 % 1017,1 hPa 0,0 l/m 17,4 km/h (3 Bft) O-NO 61 0 min 0,000 mm 0,0 UV-I 11 W/m -4,2 C -11,8 C 20,9 km/h (4 Bft) 95,83 %
22.02.2018 07:20 -2,8 C 3,9 C 90 % 1017,1 hPa 0,0 l/m 19,1 km/h (3 Bft) O-NO 65 0 min 0,000 mm 0,0 UV-I 11 W/m -4,2 C -12,8 C 24,1 km/h (4 Bft) 100,00 %
22.02.2018 07:21 -2,8 C 3,9 C 90 % 1017,1 hPa 0,0 l/m 17,9 km/h (3 Bft) O 80 0 min 0,000 mm 0,0 UV-I 12 W/m -4,2 C -12,1 C 20,9 km/h (4 Bft) 100,00 %
22.02.2018 07:22 -2,8 C 3,9 C 90 % 1017,1 hPa 0,0 l/m 17,8 km/h (3 Bft) O-NO 59 0 min 0,000 mm 0,0 UV-I 12 W/m -4,2 C -12,1 C 22,5 km/h (4 Bft) 100,00 %
22.02.2018 07:23 -2,8 C 3,9 C 91 % 1017,1 hPa 0,0 l/m 17,9 km/h (3 Bft) O 80 0 min 0,000 mm 0,0 UV-I 12 W/m -4,1 C -12,1 C 22,5 km/h (4 Bft) 100,00 %
22.02.2018 07:24 -2,8 C 3,9 C 91 % 1017,1 hPa 0,0 l/m 19,1 km/h (3 Bft) O-NO 65 0 min 0,000 mm 0,0 UV-I 12 W/m -4,1 C -12,8 C 24,1 km/h (4 Bft) 100,00 %
22.02.2018 07:25 -2,8 C 3,9 C 90 % 1017,1 hPa 0,0 l/m 18,3 km/h (3 Bft) O 84 0 min 0,000 mm 0,0 UV-I 15 W/m -4,2 C -12,4 C 24,1 km/h (4 Bft) 100,00 %
22.02.2018 07:26 -2,8 C 3,9 C 90 % 1017,1 hPa 0,0 l/m 18,6 km/h (3 Bft) O-NO 69 0 min 0,000 mm 0,0 UV-I 16 W/m -4,2 C -12,5 C 24,1 km/h (4 Bft) 100,00 %
22.02.2018 07:27 -2,8 C 3,9 C 90 % 1017,1 hPa 0,0 l/m 20,6 km/h (4 Bft) O 84 0 min 0,000 mm 0,0 UV-I 16 W/m -4,2 C -13,5 C 25,7 km/h (4 Bft) 100,00 %
22.02.2018 07:28 -2,8 C 3,9 C 90 % 1017,1 hPa 0,0 l/m 16,1 km/h (3 Bft) O 79 0 min 0,000 mm 0,0 UV-I 18 W/m -4,2 C -11,1 C 17,7 km/h (3 Bft) 100,00 %
22.02.2018 07:29 -2,8 C 3,9 C 90 % 1017,1 hPa 0,0 l/m 18,6 km/h (3 Bft) O 90 0 min 0,000 mm 0,0 UV-I 18 W/m -4,2 C -12,5 C 25,7 km/h (4 Bft) 100,00 %
22.02.2018 07:30 -2,8 C 3,9 C 90 % 1017,1 hPa 0,0 l/m 17,4 km/h (3 Bft) O 81 0 min 0,000 mm 0,0 UV-I 18 W/m -4,2 C -11,8 C 22,5 km/h (4 Bft) 100,00 %
22.02.2018 07:31 -2,8 C 3,9 C 90 % 1017,1 hPa 0,0 l/m 17,5 km/h (3 Bft) O-NO 78 0 min 0,000 mm 0,0 UV-I 18 W/m -4,2 C -11,9 C 20,9 km/h (4 Bft) 95,65 %
22.02.2018 07:32 -2,8 C 3,9 C 90 % 1017,1 hPa 0,0 l/m 16,1 km/h (3 Bft) O 80 0 min 0,000 mm 0,0 UV-I 18 W/m -4,2 C -11,1 C 19,3 km/h (3 Bft) 95,83 %
22.02.2018 07:33 -2,8 C 3,9 C 90 % 1017,1 hPa 0,0 l/m 16,1 km/h (3 Bft) O 83 0 min 0,000 mm 0,0 UV-I 19 W/m -4,2 C -11,1 C 22,5 km/h (4 Bft) 100,00 %
22.02.2018 07:34 -2,8 C 3,9 C 90 % 1017,1 hPa 0,0 l/m 17,5 km/h (3 Bft) O 79 0 min 0,000 mm 0,0 UV-I 19 W/m -4,2 C -11,9 C 20,9 km/h (4 Bft) 96,67 %
22.02.2018 07:35 -2,8 C 3,9 C 90 % 1017,1 hPa 0,0 l/m 16,0 km/h (3 Bft) O 91 0 min 0,000 mm 0,0 UV-I 19 W/m -4,2 C -11,0 C 19,3 km/h (3 Bft) 100,00 %
22.02.2018 07:36 -2,8 C 3,9 C 90 % 1017,1 hPa 0,0 l/m 14,8 km/h (3 Bft) O-NO 78 0 min 0,000 mm 0,0 UV-I 19 W/m -4,2 C -10,2 C 17,7 km/h (3 Bft) 100,00 %
22.02.2018 07:37 -2,8 C 3,9 C 90 % 1017,1 hPa 0,0 l/m 15,7 km/h (3 Bft) O-SO 112 0 min 0,000 mm 0,0 UV-I 18 W/m -4,2 C -10,8 C 19,3 km/h (3 Bft) 100,00 %
22.02.2018 07:38 -2,8 C 3,9 C 90 % 1017,2 hPa 0,0 l/m 19,4 km/h (3 Bft) O 84 0 min 0,000 mm 0,0 UV-I 18 W/m -4,2 C -12,9 C 24,1 km/h (4 Bft) 100,00 %
22.02.2018 07:39 -2,8 C 3,9 C 90 % 1017,1 hPa 0,0 l/m 20,6 km/h (4 Bft) O-NO 67 0 min 0,000 mm 0,0 UV-I 18 W/m -4,2 C -13,5 C 25,7 km/h (4 Bft) 100,00 %
22.02.2018 07:40 -2,8 C 3,9 C 90 % 1017,1 hPa 0,0 l/m 19,4 km/h (3 Bft) O 80 0 min 0,000 mm 0,0 UV-I 18 W/m -4,2 C -12,9 C 24,1 km/h (4 Bft) 93,33 %
22.02.2018 07:41 -2,8 C 3,9 C 90 % 1017,1 hPa 0,0 l/m 15,7 km/h (3 Bft) O 79 0 min 0,000 mm 0,0 UV-I 18 W/m -4,2 C -10,8 C 19,3 km/h (3 Bft) 97,56 %
22.02.2018 07:42 -2,8 C 3,9 C 90 % 1017,2 hPa 0,0 l/m 16,7 km/h (3 Bft) O-NO 57 0 min 0,000 mm 0,0 UV-I 17 W/m -4,2 C -11,4 C 20,9 km/h (4 Bft) 100,00 %
22.02.2018 07:43 -2,8 C 3,9 C 90 % 1017,2 hPa 0,0 l/m 16,6 km/h (3 Bft) O 80 0 min 0,000 mm 0,0 UV-I 16 W/m -4,2 C -11,4 C 20,9 km/h (4 Bft) 98,00 %
22.02.2018 07:44 -2,7 C 3,9 C 90 % 1017,1 hPa 0,0 l/m 19,2 km/h (3 Bft) O 94 0 min 0,000 mm 0,0 UV-I 16 W/m -4,1 C -12,7 C 24,1 km/h (4 Bft) 97,56 %
22.02.2018 07:45 -2,8 C 3,9 C 90 % 1017,1 hPa 0,0 l/m 16,1 km/h (3 Bft) O-NO 71 0 min 0,000 mm 0,0 UV-I 16 W/m -4,2 C -11,1 C 19,3 km/h (3 Bft) 96,15 %
22.02.2018 07:46 -2,8 C 3,9 C 90 % 1017,2 hPa 0,0 l/m 15,6 km/h (3 Bft) O-NO 76 0 min 0,000 mm 0,0 UV-I 16 W/m -4,2 C -10,8 C 22,5 km/h (4 Bft) 100,00 %
22.02.2018 07:47 -2,8 C 3,9 C 90 % 1017,2 hPa 0,0 l/m 17,7 km/h (3 Bft) O-NO 74 0 min 0,000 mm 0,0 UV-I 16 W/m -4,2 C -12,0 C 19,3 km/h (3 Bft) 92,59 %
22.02.2018 07:48 -2,8 C 3,9 C 90 % 1017,2 hPa 0,0 l/m 15,7 km/h (3 Bft) O-NO 77 0 min 0,000 mm 0,0 UV-I 16 W/m -4,2 C -10,8 C 17,7 km/h (3 Bft) 93,10 %
22.02.2018 07:49 -2,7 C 3,9 C 90 % 1017,2 hPa 0,0 l/m 18,5 km/h (3 Bft) O-NO 69 0 min 0,000 mm 0,0 UV-I 16 W/m -4,1 C -12,3 C 22,5 km/h (4 Bft) 100,00 %
22.02.2018 07:50 -2,7 C 3,9 C 90 % 1017,3 hPa 0,0 l/m 14,4 km/h (3 Bft) O-SO 105 0 min 0,000 mm 0,0 UV-I 16 W/m -4,1 C -9,9 C 17,7 km/h (3 Bft) 96,55 %
22.02.2018 07:51 -2,8 C 3,9 C 90 % 1017,3 hPa 0,0 l/m 14,6 km/h (3 Bft) O-NO 60 0 min 0,000 mm 0,0 UV-I 18 W/m -4,2 C -10,1 C 17,7 km/h (3 Bft) 100,00 %
22.02.2018 07:52 -2,7 C 3,9 C 90 % 1017,3 hPa 0,0 l/m 17,1 km/h (3 Bft) O-NO 76 0 min 0,000 mm 0,0 UV-I 18 W/m -4,1 C -11,5 C 19,3 km/h (3 Bft) 96,15 %
22.02.2018 07:54 -2,7 C 3,9 C 91 % 1017,3 hPa 0,0 l/m 15,9 km/h (3 Bft) O-NO 59 0 min 0,000 mm 0,0 UV-I 19 W/m -4,0 C -10,8 C 19,3 km/h (3 Bft) 97,87 %
22.02.2018 07:55 -2,7 C 3,9 C 91 % 1017,3 hPa 0,0 l/m 14,1 km/h (3 Bft) O 96 0 min 0,000 mm 0,0 UV-I 20 W/m -4,0 C -9,6 C 19,3 km/h (3 Bft) 100,00 %
22.02.2018 07:56 -2,7 C 3,9 C 91 % 1017,3 hPa 0,0 l/m 15,2 km/h (3 Bft) O 95 0 min 0,000 mm 0,0 UV-I 21 W/m -4,0 C -10,4 C 19,3 km/h (3 Bft) 95,65 %
22.02.2018 07:57 -2,7 C 3,9 C 90 % 1017,3 hPa 0,0 l/m 17,4 km/h (3 Bft) O-NO 63 0 min 0,000 mm 0,0 UV-I 21 W/m -4,1 C -11,7 C 20,9 km/h (4 Bft) 100,00 %
22.02.2018 07:58 -2,7 C 3,9 C 90 % 1017,3 hPa 0,0 l/m 17,0 km/h (3 Bft) O-NO 78 0 min 0,000 mm 0,0 UV-I 23 W/m -4,1 C -11,5 C 20,9 km/h (4 Bft) 93,10 %
22.02.2018 07:59 -2,7 C 3,9 C 90 % 1017,3 hPa 0,0 l/m 16,8 km/h (3 Bft) O-NO 77 0 min 0,000 mm 0,0 UV-I 25 W/m -4,1 C -11,4 C 19,3 km/h (3 Bft) 95,83 %
22.02.2018 08:00 -2,7 C 3,9 C 90 % 1017,4 hPa 0,0 l/m 15,2 km/h (3 Bft) O-NO 78 0 min 0,000 mm 0,0 UV-I 25 W/m -4,1 C -10,4 C 20,9 km/h (4 Bft) 100,00 %
22.02.2018 08:01 -2,8 C 3,9 C 90 % 1017,3 hPa 0,0 l/m 18,3 km/h (3 Bft) O 84 0 min 0,026 mm 0,0 UV-I 24 W/m -4,2 C -12,4 C 20,9 km/h (4 Bft) 96,67 %
22.02.2018 08:02 -2,7 C 3,9 C 90 % 1017,3 hPa 0,0 l/m 15,3 km/h (3 Bft) O 83 0 min 0,000 mm 0,0 UV-I 24 W/m -4,1 C -10,4 C 20,9 km/h (4 Bft) 96,15 %
22.02.2018 08:03 -2,7 C 3,9 C 91 % 1017,3 hPa 0,0 l/m 15,1 km/h (3 Bft) O-NO 72 0 min 0,000 mm 0,0 UV-I 25 W/m -4,0 C -10,3 C 19,3 km/h (3 Bft) 91,67 %
22.02.2018 08:04 -2,7 C 3,9 C 91 % 1017,4 hPa 0,0 l/m 18,4 km/h (3 Bft) O-NO 67 0 min 0,000 mm 0,0 UV-I 26 W/m -4,0 C -12,3 C 22,5 km/h (4 Bft) 100,00 %
22.02.2018 08:05 -2,7 C 3,9 C 91 % 1017,3 hPa 0,0 l/m 17,5 km/h (3 Bft) O-NO 76 0 min 0,000 mm 0,0 UV-I 28 W/m -4,0 C -11,8 C 20,9 km/h (4 Bft) 96,15 %
22.02.2018 08:06 -2,7 C 3,9 C 91 % 1017,4 hPa 0,0 l/m 15,4 km/h (3 Bft) O-NO 70 0 min 0,000 mm 0,0 UV-I 29 W/m -4,0 C -10,5 C 17,7 km/h (3 Bft) 96,55 %
22.02.2018 08:07 -2,7 C 3,9 C 91 % 1017,4 hPa 0,0 l/m 15,6 km/h (3 Bft) O-SO 103 0 min 0,000 mm 0,0 UV-I 32 W/m -4,0 C -10,6 C 19,3 km/h (3 Bft) 100,00 %
22.02.2018 08:08 -2,7 C 3,9 C 91 % 1017,4 hPa 0,0 l/m 17,9 km/h (3 Bft) O-NO 69 0 min 0,000 mm 0,0 UV-I 33 W/m -4,0 C -12,0 C 22,5 km/h (4 Bft) 93,33 %
22.02.2018 08:09 -2,7 C 3,9 C 91 % 1017,4 hPa 0,0 l/m 15,5 km/h (3 Bft) O-NO 74 0 min 0,000 mm 0,0 UV-I 31 W/m -4,0 C -10,6 C 19,3 km/h (3 Bft) 100,00 %
22.02.2018 08:10 -2,7 C 3,9 C 91 % 1017,4 hPa 0,0 l/m 12,6 km/h (3 Bft) O-NO 62 0 min 0,000 mm 0,0 UV-I 30 W/m -4,0 C -8,6 C 16,1 km/h (3 Bft) 96,67 %
22.02.2018 08:11 -2,7 C 3,9 C 91 % 1017,4 hPa 0,0 l/m 13,1 km/h (3 Bft) O-NO 67 0 min 0,000 mm 0,0 UV-I 31 W/m -4,0 C -8,9 C 19,3 km/h (3 Bft) 100,00 %
22.02.2018 08:12 -2,7 C 3,9 C 91 % 1017,4 hPa 0,0 l/m 15,8 km/h (3 Bft) O-NO 69 0 min 0,000 mm 0,0 UV-I 32 W/m -4,0 C -10,8 C 19,3 km/h (3 Bft) 96,30 %
22.02.2018 08:13 -2,7 C 3,9 C 91 % 1017,4 hPa 0,0 l/m 13,9 km/h (3 Bft) NO 55 0 min 0,000 mm 0,0 UV-I 33 W/m -4,0 C -9,5 C 17,7 km/h (3 Bft) 100,00 %
22.02.2018 08:14 -2,7 C 3,9 C 91 % 1017,4 hPa 0,0 l/m 14,7 km/h (3 Bft) O 80 0 min 0,000 mm 0,0 UV-I 34 W/m -4,0 C -10,1 C 20,9 km/h (4 Bft) 96,67 %
22.02.2018 08:15 -2,7 C 3,9 C 91 % 1017,4 hPa 0,0 l/m 18,6 km/h (3 Bft) O 79 0 min 0,000 mm 0,0 UV-I 33 W/m -4,0 C -12,4 C 20,9 km/h (4 Bft) 100,00 %
22.02.2018 08:16 -2,7 C 3,9 C 90 % 1017,5 hPa 0,0 l/m 18,4 km/h (3 Bft) O-SO 104 0 min 0,000 mm 0,0 UV-I 32 W/m -4,1 C -12,3 C 22,5 km/h (4 Bft) 100,00 %
22.02.2018 08:17 -2,7 C 3,9 C 90 % 1017,5 hPa 0,0 l/m 19,1 km/h (3 Bft) O 96 0 min 0,000 mm 0,0 UV-I 31 W/m -4,1 C -12,7 C 22,5 km/h (4 Bft) 92,86 %
22.02.2018 08:18 -2,7 C 3,9 C 90 % 1017,5 hPa 0,0 l/m 17,9 km/h (3 Bft) O 88 0 min 0,000 mm 0,0 UV-I 33 W/m -4,1 C -12,0 C 24,1 km/h (4 Bft) 100,00 %
22.02.2018 08:19 -2,7 C 3,9 C 90 % 1017,4 hPa 0,0 l/m 15,0 km/h (3 Bft) O-NO 67 0 min 0,000 mm 0,0 UV-I 32 W/m -4,1 C -10,3 C 20,9 km/h (4 Bft) 91,30 %
22.02.2018 08:20 -2,7 C 3,9 C 90 % 1017,4 hPa 0,0 l/m 13,1 km/h (3 Bft) O 94 0 min 0,000 mm 0,0 UV-I 31 W/m -4,1 C -8,9 C 17,7 km/h (3 Bft) 100,00 %
22.02.2018 08:21 -2,7 C 3,9 C 90 % 1017,5 hPa 0,0 l/m 15,0 km/h (3 Bft) O 90 0 min 0,000 mm 0,0 UV-I 30 W/m -4,1 C -10,3 C 20,9 km/h (4 Bft) 100,00 %
22.02.2018 08:22 -2,7 C 3,9 C 90 % 1017,5 hPa 0,0 l/m 15,7 km/h (3 Bft) O-SO 107 0 min 0,000 mm 0,0 UV-I 33 W/m -4,1 C -10,7 C 19,3 km/h (3 Bft) 100,00 %
22.02.2018 08:23 -2,7 C 3,9 C 90 % 1017,5 hPa 0,0 l/m 12,6 km/h (3 Bft) O-NO 72 0 min 0,000 mm 0,0 UV-I 35 W/m -4,1 C -8,6 C 16,1 km/h (3 Bft) 100,00 %
22.02.2018 08:24 -2,7 C 3,9 C 90 % 1017,6 hPa 0,0 l/m 10,0 km/h (2 Bft) NO 53 0 min 0,000 mm 0,0 UV-I 34 W/m -4,1 C -6,4 C 14,5 km/h (3 Bft) 100,00 %
22.02.2018 08:25 -2,7 C 3,9 C 91 % 1017,6 hPa 0,0 l/m 12,0 km/h (2 Bft) O-SO 104 0 min 0,000 mm 0,0 UV-I 32 W/m -4,0 C -8,1 C 14,5 km/h (3 Bft) 93,33 %
22.02.2018 08:26 -2,7 C 3,9 C 91 % 1017,6 hPa 0,0 l/m 12,1 km/h (2 Bft) O 92 0 min 0,000 mm 0,0 UV-I 29 W/m -4,0 C -8,2 C 14,5 km/h (3 Bft) 96,88 %
22.02.2018 08:27 -2,7 C 3,9 C 91 % 1017,6 hPa 0,0 l/m 12,0 km/h (2 Bft) O-SO 104 0 min 0,000 mm 0,0 UV-I 28 W/m -4,0 C -8,1 C 16,1 km/h (3 Bft) 93,33 %
22.02.2018 08:28 -2,7 C 3,9 C 91 % 1017,6 hPa 0,0 l/m 13,4 km/h (3 Bft) O-NO 68 0 min 0,000 mm 0,0 UV-I 29 W/m -4,0 C -9,2 C 19,3 km/h (3 Bft) 100,00 %
22.02.2018 08:29 -2,7 C 3,9 C 91 % 1017,6 hPa 0,0 l/m 13,9 km/h (3 Bft) O-NO 60 0 min 0,000 mm 0,0 UV-I 27 W/m -4,0 C -9,5 C 17,7 km/h (3 Bft) 100,00 %
22.02.2018 08:30 -2,7 C 3,9 C 90 % 1017,6 hPa 0,0 l/m 14,7 km/h (3 Bft) O-NO 69 0 min 0,000 mm 0,0 UV-I 30 W/m -4,1 C -10,1 C 17,7 km/h (3 Bft) 100,00 %
22.02.2018 08:31 -2,7 C 3,9 C 91 % 1017,6 hPa 0,0 l/m 13,8 km/h (3 Bft) NO 53 0 min 0,000 mm 0,0 UV-I 33 W/m -4,0 C -9,4 C 16,1 km/h (3 Bft) 100,00 %
22.02.2018 08:32 -2,7 C 3,9 C 91 % 1017,6 hPa 0,0 l/m 14,0 km/h (3 Bft) O-NO 63 0 min 0,000 mm 0,0 UV-I 30 W/m -4,0 C -9,6 C 17,7 km/h (3 Bft) 100,00 %
22.02.2018 08:33 -2,7 C 3,9 C 91 % 1017,6 hPa 0,0 l/m 13,7 km/h (3 Bft) O-NO 70 0 min 0,000 mm 0,0 UV-I 28 W/m -4,0 C -9,4 C 17,7 km/h (3 Bft) 100,00 %
22.02.2018 08:34 -2,7 C 3,9 C 90 % 1017,6 hPa 0,0 l/m 15,1 km/h (3 Bft) O-SO 109 0 min 0,000 mm 0,0 UV-I 33 W/m -4,1 C -10,3 C 19,3 km/h (3 Bft) 100,00 %
22.02.2018 08:35 -2,7 C 3,9 C 90 % 1017,6 hPa 0,0 l/m 14,9 km/h (3 Bft) O-SO 104 0 min 0,000 mm 0,0 UV-I 32 W/m -4,1 C -10,2 C 19,3 km/h (3 Bft) 100,00 %
22.02.2018 08:36 -2,7 C 3,9 C 90 % 1017,6 hPa 0,0 l/m 12,0 km/h (2 Bft) O-NO 60 0 min 0,000 mm 0,0 UV-I 32 W/m -4,1 C -8,1 C 16,1 km/h (3 Bft) 92,31 %
22.02.2018 08:37 -2,7 C 3,9 C 91 % 1017,6 hPa 0,0 l/m 16,0 km/h (3 Bft) O-NO 68 0 min 0,000 mm 0,0 UV-I 34 W/m -4,0 C -10,9 C 20,9 km/h (4 Bft) 100,00 %
22.02.2018 08:38 -2,7 C 3,9 C 90 % 1017,6 hPa 0,0 l/m 13,5 km/h (3 Bft) O-NO 76 0 min 0,000 mm 0,0 UV-I 34 W/m -4,1 C -9,2 C 17,7 km/h (3 Bft) 100,00 %
22.02.2018 08:39 -2,7 C 3,9 C 90 % 1017,6 hPa 0,0 l/m 14,2 km/h (3 Bft) O 84 0 min 0,000 mm 0,0 UV-I 30 W/m -4,1 C -9,7 C 17,7 km/h (3 Bft) 100,00 %
22.02.2018 08:40 -2,7 C 3,9 C 90 % 1017,6 hPa 0,0 l/m 15,7 km/h (3 Bft) O-NO 63 0 min 0,000 mm 0,0 UV-I 30 W/m -4,1 C -10,7 C 19,3 km/h (3 Bft) 100,00 %
22.02.2018 08:41 -2,7 C 3,9 C 90 % 1017,6 hPa 0,0 l/m 11,4 km/h (2 Bft) O-NO 65 0 min 0,000 mm 0,0 UV-I 32 W/m -4,1 C -7,6 C 14,5 km/h (3 Bft) 100,00 %
22.02.2018 08:42 -2,7 C 3,9 C 91 % 1017,6 hPa 0,0 l/m 13,3 km/h (3 Bft) O 87 0 min 0,000 mm 0,0 UV-I 31 W/m -4,0 C -9,1 C 17,7 km/h (3 Bft) 100,00 %
22.02.2018 08:43 -2,7 C 3,9 C 91 % 1017,5 hPa 0,0 l/m 15,9 km/h (3 Bft) O 89 0 min 0,000 mm 0,0 UV-I 29 W/m -4,0 C -10,8 C 20,9 km/h (4 Bft) 100,00 %
22.02.2018 08:44 -2,7 C 3,9 C 91 % 1017,6 hPa 0,0 l/m 14,8 km/h (3 Bft) O 96 0 min 0,000 mm 0,0 UV-I 30 W/m -4,0 C -10,1 C 19,3 km/h (3 Bft) 100,00 %
22.02.2018 08:45 -2,7 C 3,9 C 90 % 1017,6 hPa 0,0 l/m 12,6 km/h (3 Bft) O 92 0 min 0,000 mm 0,0 UV-I 30 W/m -4,1 C -8,6 C 17,7 km/h (3 Bft) 96,55 %
22.02.2018 08:46 -2,7 C 3,9 C 90 % 1017,5 hPa 0,0 l/m 17,1 km/h (3 Bft) O 91 0 min 0,000 mm 0,0 UV-I 31 W/m -4,1 C -11,5 C 22,5 km/h (4 Bft) 100,00 %
22.02.2018 08:47 -2,7 C 3,9 C 90 % 1017,5 hPa 0,0 l/m 14,2 km/h (3 Bft) O-NO 76 0 min 0,000 mm 0,0 UV-I 31 W/m -4,1 C -9,7 C 17,7 km/h (3 Bft) 100,00 %
22.02.2018 08:48 -2,7 C 3,9 C 90 % 1017,5 hPa 0,0 l/m 13,5 km/h (3 Bft) O-NO 78 0 min 0,000 mm 0,0 UV-I 29 W/m -4,1 C -9,2 C 16,1 km/h (3 Bft) 97,99 %
22.02.2018 08:49 -2,7 C 3,9 C 90 % 1017,6 hPa 0,0 l/m 14,6 km/h (3 Bft) O-NO 72 0 min 0,000 mm 0,0 UV-I 28 W/m -4,1 C -10,0 C 19,3 km/h (3 Bft) 100,00 %
22.02.2018 08:50 -2,7 C 3,9 C 90 % 1017,6 hPa 0,0 l/m 17,3 km/h (3 Bft) NO 55 0 min 0,000 mm 0,0 UV-I 28 W/m -4,1 C -11,7 C 20,9 km/h (4 Bft) 100,00 %
22.02.2018 08:51 -2,7 C 3,9 C 90 % 1017,6 hPa 0,0 l/m 15,3 km/h (3 Bft) O-NO 68 0 min 0,000 mm 0,0 UV-I 25 W/m -4,1 C -10,4 C 19,3 km/h (3 Bft) 100,00 %
22.02.2018 08:52 -2,7 C 3,9 C 90 % 1017,6 hPa 0,0 l/m 14,7 km/h (3 Bft) O-NO 75 0 min 0,000 mm 0,0 UV-I 23 W/m -4,1 C -10,1 C 19,3 km/h (3 Bft) 100,00 %
22.02.2018 08:53 -2,7 C 3,9 C 90 % 1017,6 hPa 0,0 l/m 10,5 km/h (2 Bft) O-NO 76 0 min 0,000 mm 0,0 UV-I 23 W/m -4,1 C -6,9 C 14,5 km/h (3 Bft) 100,00 %
22.02.2018 08:54 -2,7 C 3,9 C 90 % 1017,5 hPa 0,0 l/m 12,0 km/h (2 Bft) O 84 0 min 0,000 mm 0,0 UV-I 22 W/m -4,1 C -8,1 C 17,7 km/h (3 Bft) 100,00 %
22.02.2018 08:55 -2,7 C 3,9 C 90 % 1017,6 hPa 0,0 l/m 12,7 km/h (3 Bft) O-NO 78 0 min 0,000 mm 0,0 UV-I 21 W/m -4,1 C -8,6 C 14,5 km/h (3 Bft) 100,00 %
22.02.2018 08:56 -2,7 C 3,9 C 91 % 1017,6 hPa 0,0 l/m 10,3 km/h (2 Bft) O-NO 67 0 min 0,000 mm 0,0 UV-I 23 W/m -4,0 C -6,7 C 14,5 km/h (3 Bft) 100,00 %
22.02.2018 08:57 -2,7 C 3,9 C 91 % 1017,5 hPa 0,0 l/m 12,5 km/h (3 Bft) O-NO 64 0 min 0,000 mm 0,0 UV-I 23 W/m -4,0 C -8,5 C 17,7 km/h (3 Bft) 100,00 %
22.02.2018 08:58 -2,7 C 3,9 C 91 % 1017,5 hPa 0,0 l/m 15,3 km/h (3 Bft) O-NO 61 0 min 0,000 mm 0,0 UV-I 20 W/m -4,0 C -10,4 C 20,9 km/h (4 Bft) 100,00 %
22.02.2018 08:59 -2,7 C 3,9 C 90 % 1017,6 hPa 0,0 l/m 9,8 km/h (2 Bft) O 81 0 min 0,000 mm 0,0 UV-I 19 W/m -4,1 C -6,3 C 14,5 km/h (3 Bft) 96,15 %
22.02.2018 09:00 -2,7 C 3,9 C 90 % 1017,6 hPa 0,0 l/m 17,1 km/h (3 Bft) O 79 0 min 0,025 mm 0,0 UV-I 18 W/m -4,1 C -11,5 C 20,9 km/h (4 Bft) 100,00 %
22.02.2018 09:01 -2,7 C 3,9 C 90 % 1017,5 hPa 0,0 l/m 12,6 km/h (3 Bft) O 82 0 min 0,000 mm 0,0 UV-I 18 W/m -4,1 C -8,6 C 16,1 km/h (3 Bft) 100,00 %
22.02.2018 09:02 -2,7 C 3,9 C 90 % 1017,6 hPa 0,0 l/m 11,6 km/h (2 Bft) O 90 0 min 0,000 mm 0,0 UV-I 18 W/m -4,1 C -7,8 C 14,5 km/h (3 Bft) 100,00 %
22.02.2018 09:03 -2,7 C 3,9 C 90 % 1017,5 hPa 0,0 l/m 7,3 km/h (2 Bft) O 90 0 min 0,000 mm 0,0 UV-I 19 W/m -4,1 C -3,7 C 9,7 km/h (2 Bft) 100,00 %
22.02.2018 09:04 -2,7 C 3,9 C 90 % 1017,6 hPa 0,0 l/m 14,0 km/h (3 Bft) O-NO 62 0 min 0,000 mm 0,0 UV-I 20 W/m -4,1 C -9,6 C 17,7 km/h (3 Bft) 100,00 %
22.02.2018 09:05 -2,7 C 3,9 C 90 % 1017,5 hPa 0,0 l/m 17,1 km/h (3 Bft) O-NO 69 0 min 0,000 mm 0,0 UV-I 21 W/m -4,1 C -11,5 C 22,5 km/h (4 Bft) 100,00 %
22.02.2018 09:06 -2,7 C 3,9 C 90 % 1017,5 hPa 0,0 l/m 16,6 km/h (3 Bft) O-NO 60 0 min 0,000 mm 0,0 UV-I 21 W/m -4,1 C -11,3 C 20,9 km/h (4 Bft) 100,00 %
22.02.2018 09:07 -2,7 C 3,9 C 90 % 1017,5 hPa 0,0 l/m 15,6 km/h (3 Bft) O-NO 65 0 min 0,000 mm 0,0 UV-I 21 W/m -4,1 C -10,6 C 19,3 km/h (3 Bft) 100,00 %
22.02.2018 09:08 -2,7 C 3,9 C 90 % 1017,5 hPa 0,0 l/m 14,9 km/h (3 Bft) O-NO 66 0 min 0,000 mm 0,0 UV-I 23 W/m -4,1 C -10,2 C 19,3 km/h (3 Bft) 100,00 %
22.02.2018 09:09 -2,7 C 3,9 C 90 % 1017,5 hPa 0,0 l/m 14,9 km/h (3 Bft) O-NO 71 0 min 0,000 mm 0,0 UV-I 25 W/m -4,1 C -10,2 C 17,7 km/h (3 Bft) 100,00 %
22.02.2018 09:10 -2,7 C 3,9 C 90 % 1017,5 hPa 0,0 l/m 14,6 km/h (3 Bft) O-NO 68 0 min 0,000 mm 0,0 UV-I 25 W/m -4,1 C -10,0 C 17,7 km/h (3 Bft) 96,15 %
22.02.2018 09:11 -2,7 C 3,9 C 90 % 1017,5 hPa 0,0 l/m 15,4 km/h (3 Bft) O-NO 69 0 min 0,000 mm 0,0 UV-I 25 W/m -4,1 C -10,5 C 19,3 km/h (3 Bft) 96,30 %
22.02.2018 09:12 -2,7 C 3,9 C 90 % 1017,5 hPa 0,0 l/m 15,5 km/h (3 Bft) O 81 0 min 0,000 mm 0,0 UV-I 27 W/m -4,1 C -10,6 C 20,9 km/h (4 Bft) 100,00 %
22.02.2018 09:13 -2,7 C 3,9 C 90 % 1017,5 hPa 0,0 l/m 16,6 km/h (3 Bft) O-NO 68 0 min 0,000 mm 0,0 UV-I 29 W/m -4,1 C -11,3 C 20,9 km/h (4 Bft) 100,00 %
22.02.2018 09:14 -2,7 C 3,9 C 90 % 1017,5 hPa 0,0 l/m 15,2 km/h (3 Bft) O 86 0 min 0,000 mm 0,0 UV-I 30 W/m -4,1 C -10,4 C 17,7 km/h (3 Bft) 96,55 %
22.02.2018 09:15 -2,7 C 3,9 C 90 % 1017,5 hPa 0,0 l/m 18,0 km/h (3 Bft) O-NO 66 0 min 0,000 mm 0,0 UV-I 31 W/m -4,1 C -12,1 C 22,5 km/h (4 Bft) 100,00 %
22.02.2018 09:16 -2,7 C 3,9 C 90 % 1017,5 hPa 0,0 l/m 16,7 km/h (3 Bft) O 94 0 min 0,000 mm 0,0 UV-I 34 W/m -4,1 C -11,3 C 20,9 km/h (4 Bft) 100,00 %
22.02.2018 09:17 -2,7 C 3,9 C 90 % 1017,5 hPa 0,0 l/m 15,5 km/h (3 Bft) NO 43 0 min 0,000 mm 0,0 UV-I 37 W/m -4,1 C -10,6 C 19,3 km/h (3 Bft) 100,00 %
22.02.2018 09:18 -2,7 C 3,9 C 90 % 1017,5 hPa 0,0 l/m 13,8 km/h (3 Bft) O 82 0 min 0,000 mm 0,0 UV-I 38 W/m -4,1 C -9,4 C 20,9 km/h (4 Bft) 100,00 %
22.02.2018 09:19 -2,7 C 3,9 C 90 % 1017,5 hPa 0,0 l/m 16,3 km/h (3 Bft) O 80 0 min 0,000 mm 0,0 UV-I 41 W/m -4,1 C -11,1 C 19,3 km/h (3 Bft) 100,00 %
22.02.2018 09:20 -2,7 C 3,9 C 90 % 1017,5 hPa 0,0 l/m 17,1 km/h (3 Bft) O-NO 67 0 min 0,000 mm 0,0 UV-I 44 W/m -4,1 C -11,5 C 22,5 km/h (4 Bft) 100,00 %
22.02.2018 09:21 -2,7 C 3,9 C 89 % 1017,5 hPa 0,0 l/m 18,3 km/h (3 Bft) NO 53 0 min 0,000 mm 0,0 UV-I 45 W/m -4,3 C -12,2 C 22,5 km/h (4 Bft) 96,15 %
22.02.2018 09:22 -2,7 C 3,9 C 89 % 1017,4 hPa 0,0 l/m 19,3 km/h (3 Bft) NO 46 0 min 0,000 mm 0,0 UV-I 46 W/m -4,3 C -12,8 C 24,1 km/h (4 Bft) 98,13 %
22.02.2018 09:23 -2,7 C 3,9 C 90 % 1017,4 hPa 0,0 l/m 22,1 km/h (4 Bft) O-NO 71 0 min 0,000 mm 0,0 UV-I 48 W/m -4,1 C -14,1 C 27,4 km/h (4 Bft) 97,73 %
22.02.2018 09:24 -2,7 C 3,9 C 90 % 1017,3 hPa 0,0 l/m 18,3 km/h (3 Bft) N-NO 28 0 min 0,000 mm 0,0 UV-I 50 W/m -4,1 C -12,2 C 22,5 km/h (4 Bft) 96,30 %
22.02.2018 09:25 -2,7 C 3,9 C 90 % 1017,3 hPa 0,0 l/m 20,2 km/h (4 Bft) NO 38 0 min 0,000 mm 0,0 UV-I 53 W/m -4,1 C -13,2 C 22,5 km/h (4 Bft) 100,00 %
22.02.2018 09:26 -2,6 C 3,9 C 90 % 1017,3 hPa 0,0 l/m 20,5 km/h (4 Bft) O-NO 63 0 min 0,000 mm 0,0 UV-I 56 W/m -4,0 C -13,2 C 27,4 km/h (4 Bft) 100,00 %
22.02.2018 09:27 -2,6 C 3,9 C 90 % 1017,2 hPa 0,0 l/m 21,9 km/h (4 Bft) O-NO 61 0 min 0,000 mm 0,0 UV-I 57 W/m -4,0 C -13,9 C 27,4 km/h (4 Bft) 93,10 %
22.02.2018 09:28 -2,6 C 3,9 C 90 % 1017,2 hPa 0,0 l/m 21,1 km/h (4 Bft) O-NO 58 0 min 0,000 mm 0,0 UV-I 59 W/m -4,0 C -13,5 C 25,7 km/h (4 Bft) 100,00 %
22.02.2018 09:29 -2,6 C 3,9 C 90 % 1017,3 hPa 0,0 l/m 20,2 km/h (4 Bft) NO 49 0 min 0,000 mm 0,0 UV-I 61 W/m -4,0 C -13,1 C 25,7 km/h (4 Bft) 96,55 %
22.02.2018 09:30 -2,6 C 3,9 C 90 % 1017,3 hPa 0,0 l/m 17,5 km/h (3 Bft) NO 48 0 min 0,000 mm 0,0 UV-I 63 W/m -4,0 C -11,7 C 25,7 km/h (4 Bft) 96,30 %
22.02.2018 09:31 -2,6 C 3,9 C 90 % 1017,3 hPa 0,0 l/m 18,3 km/h (3 Bft) NO 54 0 min 0,000 mm 0,0 UV-I 66 W/m -4,0 C -12,1 C 25,7 km/h (4 Bft) 100,00 %
22.02.2018 09:32 -2,6 C 3,9 C 90 % 1017,3 hPa 0,0 l/m 17,0 km/h (3 Bft) O-NO 59 0 min 0,000 mm 0,0 UV-I 69 W/m -4,0 C -11,4 C 24,1 km/h (4 Bft) 91,67 %
22.02.2018 09:33 -2,6 C 3,9 C 90 % 1017,3 hPa 0,0 l/m 19,0 km/h (3 Bft) O 81 0 min 0,000 mm 0,0 UV-I 73 W/m -4,0 C -12,5 C 22,5 km/h (4 Bft) 92,86 %
22.02.2018 09:34 -2,6 C 3,9 C 90 % 1017,3 hPa 0,0 l/m 14,3 km/h (3 Bft) O-NO 63 0 min 0,000 mm 0,0 UV-I 76 W/m -4,0 C -9,7 C 19,3 km/h (3 Bft) 96,30 %
22.02.2018 09:35 -2,6 C 3,9 C 90 % 1017,3 hPa 0,0 l/m 23,7 km/h (4 Bft) O-NO 63 0 min 0,000 mm 0,0 UV-I 80 W/m -4,0 C -14,7 C 27,4 km/h (4 Bft) 96,15 %
22.02.2018 09:36 -2,6 C 3,9 C 89 % 1017,3 hPa 0,0 l/m 17,8 km/h (3 Bft) NO 50 0 min 0,000 mm 0,0 UV-I 82 W/m -4,2 C -11,8 C 22,5 km/h (4 Bft) 100,00 %
22.02.2018 09:37 -2,6 C 3,9 C 89 % 1017,3 hPa 0,0 l/m 19,3 km/h (3 Bft) O-NO 68 0 min 0,000 mm 0,0 UV-I 81 W/m -4,2 C -12,6 C 25,7 km/h (4 Bft) 100,00 %
22.02.2018 09:38 -2,6 C 3,9 C 89 % 1017,3 hPa 0,0 l/m 16,9 km/h (3 Bft) O-NO 71 0 min 0,000 mm 0,0 UV-I 79 W/m -4,2 C -11,3 C 22,5 km/h (4 Bft) 96,15 %
22.02.2018 09:39 -2,6 C 3,9 C 89 % 1017,3 hPa 0,0 l/m 17,6 km/h (3 Bft) O-NO 59 0 min 0,000 mm 0,0 UV-I 82 W/m -4,2 C -11,7 C 22,5 km/h (4 Bft) 91,67 %
22.02.2018 09:40 -2,6 C 3,9 C 89 % 1017,3 hPa 0,0 l/m 19,0 km/h (3 Bft) O-NO 67 0 min 0,000 mm 0,0 UV-I 84 W/m -4,2 C -12,5 C 22,5 km/h (4 Bft) 95,65 %
22.02.2018 09:41 -2,6 C 3,9 C 89 % 1017,3 hPa 0,0 l/m 16,2 km/h (3 Bft) O-NO 69 0 min 0,000 mm 0,0 UV-I 89 W/m -4,2 C -10,9 C 19,3 km/h (3 Bft) 95,83 %
22.02.2018 09:42 -2,6 C 3,9 C 90 % 1017,3 hPa 0,0 l/m 17,6 km/h (3 Bft) O-NO 71 0 min 0,000 mm 0,0 UV-I 95 W/m -4,0 C -11,7 C 22,5 km/h (4 Bft) 95,65 %
22.02.2018 09:43 -2,5 C 3,9 C 90 % 1017,3 hPa 0,0 l/m 16,4 km/h (3 Bft) NO 38 0 min 0,000 mm 0,0 UV-I 97 W/m -3,9 C -10,9 C 22,5 km/h (4 Bft) 91,67 %
22.02.2018 09:44 -2,6 C 3,9 C 90 % 1017,3 hPa 0,0 l/m 15,6 km/h (3 Bft) NO 51 0 min 0,000 mm 0,0 UV-I 90 W/m -4,0 C -10,5 C 20,9 km/h (4 Bft) 100,00 %
22.02.2018 09:45 -2,5 C 3,9 C 89 % 1017,3 hPa 0,0 l/m 18,4 km/h (3 Bft) O-NO 67 0 min 0,000 mm 0,0 UV-I 87 W/m -4,1 C -12,0 C 24,1 km/h (4 Bft) 91,67 %
22.02.2018 09:46 -2,5 C 3,9 C 89 % 1017,4 hPa 0,0 l/m 17,2 km/h (3 Bft) O-NO 68 0 min 0,000 mm 0,0 UV-I 83 W/m -4,1 C -11,4 C 22,5 km/h (4 Bft) 95,65 %
22.02.2018 09:47 -2,5 C 3,9 C 89 % 1017,4 hPa 0,0 l/m 16,3 km/h (3 Bft) O-NO 67 0 min 0,000 mm 0,0 UV-I 82 W/m -4,1 C -10,8 C 19,3 km/h (3 Bft) 92,59 %
22.02.2018 09:48 -2,5 C 3,9 C 89 % 1017,4 hPa 0,0 l/m 16,6 km/h (3 Bft) O-NO 68 0 min 0,000 mm 0,0 UV-I 87 W/m -4,1 C -11,0 C 19,3 km/h (3 Bft) 92,86 %
22.02.2018 09:49 -2,5 C 3,9 C 89 % 1017,4 hPa 0,0 l/m 17,4 km/h (3 Bft) O-NO 76 0 min 0,000 mm 0,0 UV-I 96 W/m -4,1 C -11,5 C 20,9 km/h (4 Bft) 93,33 %
22.02.2018 09:50 -2,6 C 3,9 C 89 % 1017,4 hPa 0,0 l/m 18,2 km/h (3 Bft) O-NO 77 0 min 0,000 mm 0,0 UV-I 97 W/m -4,2 C -12,0 C 20,9 km/h (4 Bft) 100,00 %
22.02.2018 09:51 -2,6 C 3,9 C 89 % 1017,4 hPa 0,0 l/m 16,8 km/h (3 Bft) O 96 0 min 0,000 mm 0,0 UV-I 89 W/m -4,2 C -11,2 C 22,5 km/h (4 Bft) 93,33 %
22.02.2018 09:52 -2,6 C 3,9 C 89 % 1017,4 hPa 0,0 l/m 16,8 km/h (3 Bft) NO 53 0 min 0,000 mm 0,0 UV-I 81 W/m -4,2 C -11,2 C 20,9 km/h (4 Bft) 91,30 %
22.02.2018 09:53 -2,6 C 3,9 C 89 % 1017,4 hPa 0,0 l/m 17,3 km/h (3 Bft) O-NO 59 0 min 0,000 mm 0,0 UV-I 74 W/m -4,2 C -11,5 C 22,5 km/h (4 Bft) 100,00 %
22.02.2018 09:54 -2,6 C 3,9 C 89 % 1017,4 hPa 0,0 l/m 19,2 km/h (3 Bft) O-NO 70 0 min 0,000 mm 0,0 UV-I 72 W/m -4,2 C -12,6 C 24,1 km/h (4 Bft) 91,30 %
22.02.2018 09:55 -2,6 C 3,9 C 89 % 1017,4 hPa 0,0 l/m 14,7 km/h (3 Bft) O-NO 71 0 min 0,000 mm 0,0 UV-I 76 W/m -4,2 C -9,9 C 17,7 km/h (3 Bft) 100,00 %
22.02.2018 09:56 -2,6 C 3,9 C 89 % 1017,4 hPa 0,0 l/m 17,5 km/h (3 Bft) O 83 0 min 0,000 mm 0,0 UV-I 80 W/m -4,2 C -11,7 C 22,5 km/h (4 Bft) 92,31 %
22.02.2018 09:57 -2,6 C 3,9 C 89 % 1017,4 hPa 0,0 l/m 13,8 km/h (3 Bft) O 84 0 min 0,000 mm 0,0 UV-I 85 W/m -4,2 C -9,3 C 17,7 km/h (3 Bft) 100,00 %
22.02.2018 09:58 -2,5 C 3,9 C 89 % 1017,4 hPa 0,0 l/m 15,4 km/h (3 Bft) O-NO 59 0 min 0,000 mm 0,0 UV-I 87 W/m -4,1 C -10,3 C 19,3 km/h (3 Bft) 92,31 %
22.02.2018 09:59 -2,5 C 3,9 C 89 % 1017,4 hPa 0,0 l/m 12,7 km/h (3 Bft) O-NO 71 0 min 0,000 mm 0,0 UV-I 83 W/m -4,1 C -8,4 C 16,1 km/h (3 Bft) 94,44 %
22.02.2018 10:00 -2,4 C 3,9 C 89 % 1017,4 hPa 0,0 l/m 13,7 km/h (3 Bft) O-NO 76 0 min 0,000 mm 0,0 UV-I 80 W/m -4,0 C -9,0 C 22,5 km/h (4 Bft) 96,30 %
22.02.2018 10:01 -2,5 C 3,9 C 89 % 1017,5 hPa 0,0 l/m 15,3 km/h (3 Bft) O-NO 78 0 min 0,025 mm 0,0 UV-I 78 W/m -4,1 C -10,2 C 20,9 km/h (4 Bft) 92,59 %
22.02.2018 10:02 -2,5 C 3,9 C 89 % 1017,4 hPa 0,0 l/m 15,0 km/h (3 Bft) O 80 0 min 0,000 mm 0,0 UV-I 81 W/m -4,1 C -10,0 C 17,7 km/h (3 Bft) 100,00 %
22.02.2018 10:03 -2,5 C 3,9 C 89 % 1017,4 hPa 0,0 l/m 18,3 km/h (3 Bft) O-NO 77 0 min 0,000 mm 0,0 UV-I 79 W/m -4,1 C -12,0 C 20,9 km/h (4 Bft) 96,55 %
22.02.2018 10:04 -2,5 C 3,9 C 89 % 1017,4 hPa 0,0 l/m 16,6 km/h (3 Bft) O-NO 59 0 min 0,000 mm 0,0 UV-I 77 W/m -4,1 C -11,0 C 20,9 km/h (4 Bft) 100,00 %
22.02.2018 10:05 -2,5 C 3,9 C 89 % 1017,5 hPa 0,0 l/m 15,8 km/h (3 Bft) O-NO 74 0 min 0,000 mm 0,0 UV-I 72 W/m -4,1 C -10,5 C 22,5 km/h (4 Bft) 91,30 %
22.02.2018 10:06 -2,5 C 3,9 C 89 % 1017,5 hPa 0,0 l/m 18,7 km/h (3 Bft) O-SO 102 0 min 0,000 mm 0,0 UV-I 69 W/m -4,1 C -12,2 C 22,5 km/h (4 Bft) 100,00 %
22.02.2018 10:07 -2,5 C 3,9 C 89 % 1017,5 hPa 0,0 l/m 18,7 km/h (3 Bft) O-NO 67 0 min 0,000 mm 0,0 UV-I 67 W/m -4,1 C -12,2 C 24,1 km/h (4 Bft) 92,31 %
22.02.2018 10:08 -2,5 C 3,9 C 89 % 1017,5 hPa 0,0 l/m 19,1 km/h (3 Bft) O-NO 76 0 min 0,000 mm 0,0 UV-I 64 W/m -4,1 C -12,4 C 22,5 km/h (4 Bft) 91,67 %
22.02.2018 10:09 -2,5 C 3,9 C 89 % 1017,5 hPa 0,0 l/m 19,0 km/h (3 Bft) O 84 0 min 0,000 mm 0,0 UV-I 58 W/m -4,1 C -12,3 C 24,1 km/h (4 Bft) 100,00 %
22.02.2018 10:10 -2,5 C 3,9 C 89 % 1017,5 hPa 0,0 l/m 19,4 km/h (3 Bft) O-NO 65 0 min 0,000 mm 0,0 UV-I 56 W/m -4,1 C -12,6 C 22,5 km/h (4 Bft) 95,83 %
22.02.2018 10:11 -2,5 C 3,9 C 88 % 1017,5 hPa 0,0 l/m 20,6 km/h (4 Bft) O 80 0 min 0,000 mm 0,0 UV-I 60 W/m -4,2 C -13,2 C 25,7 km/h (4 Bft) 96,15 %
22.02.2018 10:12 -2,5 C 3,9 C 88 % 1017,5 hPa 0,0 l/m 19,2 km/h (3 Bft) NO 56 0 min 0,000 mm 0,0 UV-I 62 W/m -4,2 C -12,5 C 20,9 km/h (4 Bft) 92,59 %
22.02.2018 10:13 -2,6 C 3,9 C 88 % 1017,5 hPa 0,0 l/m 15,2 km/h (3 Bft) O-NO 63 0 min 0,000 mm 0,0 UV-I 60 W/m -4,3 C -10,3 C 19,3 km/h (3 Bft) 100,00 %
22.02.2018 10:14 -2,5 C 3,9 C 88 % 1017,5 hPa 0,0 l/m 15,4 km/h (3 Bft) O-NO 62 0 min 0,000 mm 0,0 UV-I 60 W/m -4,2 C -10,3 C 19,3 km/h (3 Bft) 92,31 %
22.02.2018 10:15 -2,6 C 3,9 C 88 % 1017,5 hPa 0,0 l/m 19,8 km/h (3 Bft) O-NO 63 0 min 0,000 mm 0,0 UV-I 61 W/m -4,3 C -12,9 C 25,7 km/h (4 Bft) 100,00 %
22.02.2018 10:16 -2,6 C 3,9 C 88 % 1017,5 hPa 0,0 l/m 17,8 km/h (3 Bft) O-NO 74 0 min 0,000 mm 0,0 UV-I 66 W/m -4,3 C -11,8 C 22,5 km/h (4 Bft) 94,44 %
22.02.2018 10:17 -2,5 C 3,9 C 88 % 1017,5 hPa 0,0 l/m 18,2 km/h (3 Bft) NO 44 0 min 0,000 mm 0,0 UV-I 74 W/m -4,2 C -11,9 C 25,7 km/h (4 Bft) 100,00 %
22.02.2018 10:18 -2,5 C 3,9 C 88 % 1017,5 hPa 0,0 l/m 17,0 km/h (3 Bft) O-NO 59 0 min 0,000 mm 0,0 UV-I 76 W/m -4,2 C -11,2 C 19,3 km/h (3 Bft) 91,30 %
22.02.2018 10:19 -2,5 C 3,9 C 88 % 1017,5 hPa 0,0 l/m 16,4 km/h (3 Bft) O-NO 74 0 min 0,000 mm 0,0 UV-I 74 W/m -4,2 C -10,9 C 20,9 km/h (4 Bft) 96,55 %
22.02.2018 10:20 -2,5 C 3,9 C 88 % 1017,5 hPa 0,0 l/m 15,9 km/h (3 Bft) O-NO 59 0 min 0,000 mm 0,0 UV-I 75 W/m -4,2 C -10,6 C 19,3 km/h (3 Bft) 96,30 %
22.02.2018 10:21 -2,5 C 3,9 C 88 % 1017,5 hPa 0,0 l/m 16,9 km/h (3 Bft) O-NO 58 0 min 0,000 mm 0,0 UV-I 75 W/m -4,2 C -11,2 C 20,9 km/h (4 Bft) 95,65 %
22.02.2018 10:22 -2,5 C 3,9 C 88 % 1017,5 hPa 0,0 l/m 17,5 km/h (3 Bft) O-NO 69 0 min 0,000 mm 0,0 UV-I 70 W/m -4,2 C -11,5 C 22,5 km/h (4 Bft) 100,00 %
22.02.2018 10:23 -2,5 C 3,9 C 88 % 1017,5 hPa 0,0 l/m 19,1 km/h (3 Bft) O 88 0 min 0,000 mm 0,0 UV-I 64 W/m -4,2 C -12,4 C 24,1 km/h (4 Bft) 100,00 %
22.02.2018 10:24 -2,5 C 3,9 C 87 % 1017,5 hPa 0,0 l/m 16,5 km/h (3 Bft) O-NO 69 0 min 0,000 mm 0,0 UV-I 70 W/m -4,4 C -10,9 C 20,9 km/h (4 Bft) 96,15 %
22.02.2018 10:25 -2,5 C 3,9 C 87 % 1017,5 hPa 0,0 l/m 17,5 km/h (3 Bft) O-NO 69 0 min 0,000 mm 0,0 UV-I 78 W/m -4,4 C -11,5 C 19,3 km/h (3 Bft) 91,67 %
22.02.2018 10:26 -2,4 C 3,9 C 87 % 1017,5 hPa 0,0 l/m 15,4 km/h (3 Bft) O-NO 77 0 min 0,000 mm 0,0 UV-I 81 W/m -4,3 C -10,1 C 19,3 km/h (3 Bft) 100,00 %
22.02.2018 10:27 -2,4 C 3,9 C 87 % 1017,5 hPa 0,0 l/m 15,9 km/h (3 Bft) O-NO 57 0 min 0,000 mm 0,0 UV-I 80 W/m -4,3 C -10,5 C 22,5 km/h (4 Bft) 95,83 %
22.02.2018 10:28 -2,4 C 3,9 C 87 % 1017,5 hPa 0,0 l/m 16,9 km/h (3 Bft) O 88 0 min 0,000 mm 0,0 UV-I 78 W/m -4,3 C -11,1 C 20,9 km/h (4 Bft) 95,65 %
22.02.2018 10:29 -2,4 C 3,9 C 87 % 1017,5 hPa 0,0 l/m 13,1 km/h (3 Bft) O-NO 78 0 min 0,000 mm 0,0 UV-I 76 W/m -4,3 C -8,6 C 17,7 km/h (3 Bft) 96,30 %
22.02.2018 10:30 -2,4 C 3,9 C 88 % 1017,5 hPa 0,0 l/m 14,3 km/h (3 Bft) NO 51 0 min 0,000 mm 0,0 UV-I 76 W/m -4,1 C -9,4 C 19,3 km/h (3 Bft) 96,15 %
22.02.2018 10:31 -2,4 C 3,9 C 88 % 1017,4 hPa 0,0 l/m 14,3 km/h (3 Bft) NO 49 0 min 0,000 mm 0,0 UV-I 81 W/m -4,1 C -9,4 C 19,3 km/h (3 Bft) 92,59 %
22.02.2018 10:32 -2,4 C 3,9 C 88 % 1017,4 hPa 0,0 l/m 11,4 km/h (2 Bft) O 84 0 min 0,000 mm 0,0 UV-I 90 W/m -4,1 C -7,3 C 17,7 km/h (3 Bft) 100,00 %
22.02.2018 10:33 -2,4 C 3,9 C 88 % 1017,4 hPa 0,0 l/m 14,5 km/h (3 Bft) O-NO 74 0 min 0,000 mm 0,0 UV-I 93 W/m -4,1 C -9,6 C 17,7 km/h (3 Bft) 100,00 %
22.02.2018 10:34 -2,4 C 3,9 C 88 % 1017,5 hPa 0,0 l/m 13,5 km/h (3 Bft) O 96 0 min 0,000 mm 0,0 UV-I 93 W/m -4,1 C -8,9 C 17,7 km/h (3 Bft) 96,43 %
22.02.2018 10:35 -2,4 C 3,9 C 88 % 1017,5 hPa 0,0 l/m 14,1 km/h (3 Bft) O 79 0 min 0,000 mm 0,0 UV-I 88 W/m -4,1 C -9,3 C 17,7 km/h (3 Bft) 95,83 %
22.02.2018 10:36 -2,4 C 3,9 C 88 % 1017,5 hPa 0,0 l/m 12,8 km/h (3 Bft) O-NO 59 0 min 0,000 mm 0,0 UV-I 88 W/m -4,1 C -8,4 C 16,1 km/h (3 Bft) 100,00 %
22.02.2018 10:37 -2,3 C 3,9 C 88 % 1017,5 hPa 0,0 l/m 9,5 km/h (2 Bft) NO 45 0 min 0,000 mm 0,0 UV-I 90 W/m -4,0 C -5,5 C 17,7 km/h (3 Bft) 100,00 %
22.02.2018 10:38 -2,3 C 3,9 C 88 % 1017,5 hPa 0,0 l/m 16,3 km/h (3 Bft) O-NO 60 0 min 0,000 mm 0,0 UV-I 90 W/m -4,0 C -10,6 C 19,3 km/h (3 Bft) 100,00 %
22.02.2018 10:39 -2,3 C 3,9 C 88 % 1017,5 hPa 0,0 l/m 16,5 km/h (3 Bft) O-NO 58 0 min 0,000 mm 0,0 UV-I 84 W/m -4,0 C -10,7 C 20,9 km/h (4 Bft) 100,00 %
22.02.2018 10:40 -2,3 C 3,9 C 88 % 1017,5 hPa 0,0 l/m 18,2 km/h (3 Bft) O-NO 66 0 min 0,000 mm 0,0 UV-I 76 W/m -4,0 C -11,7 C 24,1 km/h (4 Bft) 95,83 %
22.02.2018 10:41 -2,3 C 3,9 C 87 % 1017,5 hPa 0,0 l/m 15,4 km/h (3 Bft) O-NO 57 0 min 0,000 mm 0,0 UV-I 70 W/m -4,2 C -10,0 C 20,9 km/h (4 Bft) 100,00 %
22.02.2018 10:42 -2,3 C 3,9 C 88 % 1017,5 hPa 0,0 l/m 11,1 km/h (2 Bft) O-NO 58 0 min 0,000 mm 0,0 UV-I 65 W/m -4,0 C -6,9 C 14,5 km/h (3 Bft) 100,00 %
22.02.2018 10:43 -2,3 C 3,9 C 87 % 1017,5 hPa 0,0 l/m 17,7 km/h (3 Bft) NO 55 0 min 0,000 mm 0,0 UV-I 61 W/m -4,2 C -11,4 C 24,1 km/h (4 Bft) 100,00 %
22.02.2018 10:44 -2,3 C 3,9 C 87 % 1017,5 hPa 0,0 l/m 18,4 km/h (3 Bft) NO 46 0 min 0,000 mm 0,0 UV-I 57 W/m -4,2 C -11,8 C 22,5 km/h (4 Bft) 100,00 %
22.02.2018 10:45 -2,3 C 3,9 C 87 % 1017,5 hPa 0,0 l/m 18,0 km/h (3 Bft) O-NO 69 0 min 0,000 mm 0,0 UV-I 57 W/m -4,2 C -11,6 C 22,5 km/h (4 Bft) 100,00 %
22.02.2018 10:46 -2,4 C 3,9 C 87 % 1017,5 hPa 0,0 l/m 18,5 km/h (3 Bft) O 96 0 min 0,000 mm 0,0 UV-I 59 W/m -4,3 C -12,0 C 22,5 km/h (4 Bft) 96,30 %
22.02.2018 10:47 -2,4 C 3,9 C 87 % 1017,5 hPa 0,0 l/m 15,3 km/h (3 Bft) O 91 0 min 0,000 mm 0,0 UV-I 60 W/m -4,3 C -10,1 C 20,9 km/h (4 Bft) 100,00 %
22.02.2018 10:48 -2,4 C 3,9 C 87 % 1017,5 hPa 0,0 l/m 15,8 km/h (3 Bft) O-NO 64 0 min 0,000 mm 0,0 UV-I 59 W/m -4,3 C -10,4 C 22,5 km/h (4 Bft) 100,00 %
22.02.2018 10:49 -2,3 C 3,9 C 87 % 1017,5 hPa 0,0 l/m 14,1 km/h (3 Bft) O-SO 105 0 min 0,000 mm 0,0 UV-I 60 W/m -4,2 C -9,2 C 19,3 km/h (3 Bft) 100,00 %
22.02.2018 10:50 -2,3 C 3,9 C 87 % 1017,5 hPa 0,0 l/m 15,8 km/h (3 Bft) O-NO 65 0 min 0,000 mm 0,0 UV-I 58 W/m -4,2 C -10,3 C 25,7 km/h (4 Bft) 91,67 %
22.02.2018 10:51 -2,4 C 3,9 C 87 % 1017,5 hPa 0,0 l/m 17,9 km/h (3 Bft) O-NO 61 0 min 0,000 mm 0,0 UV-I 60 W/m -4,3 C -11,6 C 20,9 km/h (4 Bft) 100,00 %
22.02.2018 10:52 -2,4 C 3,9 C 87 % 1017,5 hPa 0,0 l/m 11,7 km/h (2 Bft) NO 55 0 min 0,000 mm 0,0 UV-I 65 W/m -4,3 C -7,5 C 22,5 km/h (4 Bft) 100,00 %
22.02.2018 10:53 -2,3 C 3,9 C 87 % 1017,5 hPa 0,0 l/m 19,1 km/h (3 Bft) O-NO 65 0 min 0,000 mm 0,0 UV-I 70 W/m -4,2 C -12,1 C 25,7 km/h (4 Bft) 100,00 %
22.02.2018 10:54 -2,3 C 3,9 C 88 % 1017,5 hPa 0,0 l/m 10,5 km/h (2 Bft) O-NO 67 0 min 0,000 mm 0,0 UV-I 72 W/m -4,0 C -6,4 C 12,9 km/h (3 Bft) 100,00 %
22.02.2018 10:55 -2,3 C 3,9 C 88 % 1017,5 hPa 0,0 l/m 15,4 km/h (3 Bft) O 84 0 min 0,000 mm 0,0 UV-I 68 W/m -4,0 C -10,0 C 19,3 km/h (3 Bft) 100,00 %
22.02.2018 10:56 -2,3 C 3,9 C 87 % 1017,5 hPa 0,0 l/m 19,4 km/h (3 Bft) O-NO 77 0 min 0,000 mm 0,0 UV-I 63 W/m -4,2 C -12,3 C 25,7 km/h (4 Bft) 95,65 %
22.02.2018 10:57 -2,3 C 3,9 C 87 % 1017,5 hPa 0,0 l/m 19,5 km/h (3 Bft) O-NO 68 0 min 0,000 mm 0,0 UV-I 70 W/m -4,2 C -12,4 C 25,7 km/h (4 Bft) 100,00 %
22.02.2018 10:58 -2,4 C 3,9 C 87 % 1017,5 hPa 0,0 l/m 20,2 km/h (4 Bft) O-NO 73 0 min 0,000 mm 0,0 UV-I 86 W/m -4,3 C -12,8 C 25,7 km/h (4 Bft) 100,00 %
22.02.2018 10:59 -2,3 C 3,9 C 87 % 1017,5 hPa 0,0 l/m 18,1 km/h (3 Bft) O 82 0 min 0,000 mm 0,0 UV-I 97 W/m -4,2 C -11,6 C 24,1 km/h (4 Bft) 95,83 %
22.02.2018 11:00 -2,3 C 3,9 C 87 % 1017,5 hPa 0,0 l/m 16,5 km/h (3 Bft) NO 53 0 min 0,026 mm 0,0 UV-I 93 W/m -4,2 C -10,7 C 20,9 km/h (4 Bft) 100,00 %
22.02.2018 11:01 -2,3 C 3,9 C 87 % 1017,5 hPa 0,0 l/m 14,1 km/h (3 Bft) O-NO 71 0 min 0,000 mm 0,0 UV-I 85 W/m -4,2 C -9,2 C 17,7 km/h (3 Bft) 96,30 %
22.02.2018 11:02 -2,3 C 3,9 C 87 % 1017,5 hPa 0,0 l/m 17,4 km/h (3 Bft) O-NO 71 0 min 0,000 mm 0,0 UV-I 80 W/m -4,2 C -11,2 C 22,5 km/h (4 Bft) 100,00 %
22.02.2018 11:03 -2,3 C 3,9 C 88 % 1017,5 hPa 0,0 l/m 13,1 km/h (3 Bft) O 87 0 min 0,000 mm 0,0 UV-I 78 W/m -4,0 C -8,5 C 17,7 km/h (3 Bft) 100,00 %
22.02.2018 11:04 -2,3 C 3,9 C 88 % 1017,5 hPa 0,0 l/m 14,9 km/h (3 Bft) O-NO 59 0 min 0,000 mm 0,0 UV-I 79 W/m -4,0 C -9,7 C 19,3 km/h (3 Bft) 100,00 %
22.02.2018 11:05 -2,3 C 3,9 C 88 % 1017,5 hPa 0,0 l/m 14,6 km/h (3 Bft) O-SO 105 0 min 0,000 mm 0,0 UV-I 73 W/m -4,0 C -9,5 C 17,7 km/h (3 Bft) 100,00 %
22.02.2018 11:06 -2,3 C 3,9 C 88 % 1017,6 hPa 0,0 l/m 13,3 km/h (3 Bft) O-NO 67 0 min 0,000 mm 0,0 UV-I 63 W/m -4,0 C -8,6 C 16,1 km/h (3 Bft) 100,00 %
22.02.2018 11:07 -2,3 C 3,9 C 88 % 1017,6 hPa 0,0 l/m 11,7 km/h (2 Bft) O-NO 63 0 min 0,000 mm 0,0 UV-I 62 W/m -4,0 C -7,4 C 14,5 km/h (3 Bft) 100,00 %
22.02.2018 11:08 -2,3 C 3,9 C 88 % 1017,6 hPa 0,0 l/m 12,5 km/h (3 Bft) O 90 0 min 0,000 mm 0,0 UV-I 62 W/m -4,0 C -8,0 C 14,5 km/h (3 Bft) 100,00 %
22.02.2018 11:09 -2,3 C 3,9 C 89 % 1017,6 hPa 0,0 l/m 12,9 km/h (3 Bft) O 85 0 min 0,000 mm 0,0 UV-I 72 W/m -3,9 C -8,3 C 17,7 km/h (3 Bft) 100,00 %
22.02.2018 11:10 -2,3 C 3,9 C 89 % 1017,6 hPa 0,0 l/m 11,3 km/h (2 Bft) O 94 0 min 0,000 mm 0,0 UV-I 79 W/m -3,9 C -7,1 C 14,5 km/h (3 Bft) 100,00 %
22.02.2018 11:11 -2,3 C 3,9 C 89 % 1017,6 hPa 0,0 l/m 12,8 km/h (3 Bft) O 84 0 min 0,000 mm 0,0 UV-I 70 W/m -3,9 C -8,3 C 16,1 km/h (3 Bft) 100,00 %
22.02.2018 11:12 -2,3 C 3,9 C 89 % 1017,6 hPa 0,0 l/m 11,9 km/h (2 Bft) O-SO 109 0 min 0,000 mm 0,0 UV-I 70 W/m -3,9 C -7,6 C 14,5 km/h (3 Bft) 100,00 %
22.02.2018 11:13 -2,2 C 3,9 C 89 % 1017,6 hPa 0,0 l/m 12,4 km/h (3 Bft) O-NO 71 0 min 0,000 mm 0,0 UV-I 78 W/m -3,8 C -7,8 C 19,3 km/h (3 Bft) 100,00 %
22.02.2018 11:14 -2,2 C 3,9 C 89 % 1017,6 hPa 0,0 l/m 7,6 km/h (2 Bft) O 84 0 min 0,000 mm 0,0 UV-I 84 W/m -3,8 C -3,5 C 11,3 km/h (2 Bft) 100,00 %
22.02.2018 11:15 -2,2 C 3,9 C 89 % 1017,7 hPa 0,0 l/m 11,4 km/h (2 Bft) O 92 0 min 0,000 mm 0,0 UV-I 87 W/m -3,8 C -7,1 C 20,9 km/h (4 Bft) 100,00 %
22.02.2018 11:16 -2,2 C 3,9 C 88 % 1017,6 hPa 0,0 l/m 15,4 km/h (3 Bft) O-NO 78 0 min 0,000 mm 0,0 UV-I 94 W/m -3,9 C -9,9 C 20,9 km/h (4 Bft) 100,00 %
22.02.2018 11:17 -2,2 C 3,9 C 88 % 1017,6 hPa 0,0 l/m 13,4 km/h (3 Bft) O-SO 107 0 min 0,000 mm 0,0 UV-I 102 W/m -3,9 C -8,6 C 17,7 km/h (3 Bft) 95,65 %
22.02.2018 11:18 -2,2 C 3,9 C 88 % 1017,6 hPa 0,0 l/m 16,9 km/h (3 Bft) O 96 0 min 0,000 mm 0,0 UV-I 110 W/m -3,9 C -10,8 C 24,1 km/h (4 Bft) 96,30 %
22.02.2018 11:19 -2,3 C 3,9 C 88 % 1017,6 hPa 0,0 l/m 16,5 km/h (3 Bft) O 98 0 min 0,000 mm 0,1 UV-I 121 W/m -4,0 C -10,7 C 20,9 km/h (4 Bft) 100,00 %
22.02.2018 11:20 -2,3 C 3,9 C 88 % 1017,6 hPa 0,0 l/m 17,2 km/h (3 Bft) O 100 0 min 0,000 mm 0,5 UV-I 137 W/m -4,0 C -11,1 C 20,9 km/h (4 Bft) 100,00 %
22.02.2018 11:21 -2,2 C 3,9 C 87 % 1017,6 hPa 0,0 l/m 14,2 km/h (3 Bft) O-NO 72 0 min 0,000 mm 0,5 UV-I 152 W/m -4,1 C -9,1 C 19,3 km/h (3 Bft) 100,00 %
22.02.2018 11:22 -2,2 C 3,9 C 88 % 1017,7 hPa 0,0 l/m 13,3 km/h (3 Bft) O 99 0 min 0,000 mm 0,5 UV-I 167 W/m -3,9 C -8,5 C 19,3 km/h (3 Bft) 100,00 %
22.02.2018 11:23 -2,2 C 3,9 C 87 % 1017,7 hPa 0,0 l/m 16,9 km/h (3 Bft) O-NO 73 0 min 0,000 mm 0,5 UV-I 178 W/m -4,1 C -10,8 C 20,9 km/h (4 Bft) 100,00 %
22.02.2018 11:24 -2,2 C 3,9 C 87 % 1017,6 hPa 0,0 l/m 16,1 km/h (3 Bft) O-NO 69 0 min 0,000 mm 0,5 UV-I 183 W/m -4,1 C -10,3 C 24,1 km/h (4 Bft) 100,00 %
22.02.2018 11:25 -2,2 C 3,9 C 87 % 1017,7 hPa 0,0 l/m 21,2 km/h (4 Bft) O-NO 71 0 min 0,000 mm 0,5 UV-I 188 W/m -4,1 C -13,1 C 27,4 km/h (4 Bft) 100,00 %
22.02.2018 11:26 -2,2 C 3,9 C 87 % 1017,6 hPa 0,0 l/m 19,4 km/h (3 Bft) O-NO 69 0 min 0,000 mm 0,6 UV-I 195 W/m -4,1 C -12,2 C 25,7 km/h (4 Bft) 100,00 %
22.02.2018 11:27 -2,2 C 3,9 C 87 % 1017,7 hPa 0,0 l/m 17,0 km/h (3 Bft) O-NO 68 0 min 0,000 mm 0,6 UV-I 200 W/m -4,1 C -10,9 C 22,5 km/h (4 Bft) 100,00 %
22.02.2018 11:28 -2,1 C 3,9 C 87 % 1017,6 hPa 0,0 l/m 15,1 km/h (3 Bft) O 94 0 min 0,000 mm 0,6 UV-I 200 W/m -4,0 C -9,6 C 19,3 km/h (3 Bft) 100,00 %
22.02.2018 11:29 -2,1 C 3,9 C 87 % 1017,6 hPa 0,0 l/m 17,3 km/h (3 Bft) O 84 0 min 0,000 mm 0,6 UV-I 191 W/m -4,0 C -10,9 C 22,5 km/h (4 Bft) 91,30 %
22.02.2018 11:30 -2,1 C 3,9 C 87 % 1017,6 hPa 0,0 l/m 18,2 km/h (3 Bft) O 92 0 min 0,000 mm 0,5 UV-I 165 W/m -4,0 C -11,4 C 22,5 km/h (4 Bft) 100,00 %
22.02.2018 11:31 -2,1 C 3,9 C 87 % 1017,6 hPa 0,0 l/m 15,3 km/h (3 Bft) O 88 0 min 0,000 mm 0,5 UV-I 157 W/m -4,0 C -9,7 C 20,9 km/h (4 Bft) 100,00 %
22.02.2018 11:32 -2,1 C 3,9 C 87 % 1017,6 hPa 0,0 l/m 19,2 km/h (3 Bft) O 81 0 min 0,000 mm 0,5 UV-I 160 W/m -4,0 C -11,9 C 25,7 km/h (4 Bft) 100,00 %
22.02.2018 11:33 -2,1 C 3,9 C 87 % 1017,6 hPa 0,0 l/m 18,5 km/h (3 Bft) O-NO 78 0 min 0,000 mm 0,5 UV-I 154 W/m -4,0 C -11,6 C 22,5 km/h (4 Bft) 96,55 %
22.02.2018 11:34 -2,1 C 3,9 C 87 % 1017,6 hPa 0,0 l/m 18,3 km/h (3 Bft) O-NO 75 0 min 0,000 mm 0,5 UV-I 147 W/m -4,0 C -11,5 C 22,5 km/h (4 Bft) 100,00 %
22.02.2018 11:35 -2,2 C 3,9 C 86 % 1017,6 hPa 0,0 l/m 18,3 km/h (3 Bft) O 79 0 min 0,000 mm 0,5 UV-I 136 W/m -4,2 C -11,6 C 20,9 km/h (4 Bft) 100,00 %
22.02.2018 11:36 -2,2 C 3,9 C 86 % 1017,6 hPa 0,0 l/m 17,5 km/h (3 Bft) O 80 0 min 0,000 mm 0,5 UV-I 128 W/m -4,2 C -11,2 C 20,9 km/h (4 Bft) 100,00 %
22.02.2018 11:37 -2,2 C 3,9 C 86 % 1017,6 hPa 0,0 l/m 17,3 km/h (3 Bft) O 92 0 min 0,000 mm 0,5 UV-I 124 W/m -4,2 C -11,0 C 20,9 km/h (4 Bft) 100,00 %
22.02.2018 11:38 -2,2 C 3,9 C 87 % 1017,6 hPa 0,0 l/m 15,6 km/h (3 Bft) O-NO 76 0 min 0,000 mm 0,5 UV-I 118 W/m -4,1 C -10,0 C 20,9 km/h (4 Bft) 100,00 %
22.02.2018 11:39 -2,1 C 3,9 C 87 % 1017,6 hPa 0,0 l/m 16,8 km/h (3 Bft) O-SO 105 0 min 0,000 mm 0,2 UV-I 107 W/m -4,0 C -10,6 C 19,3 km/h (3 Bft) 100,00 %
22.02.2018 11:40 -2,1 C 3,9 C 87 % 1017,6 hPa 0,0 l/m 17,1 km/h (3 Bft) O 98 0 min 0,000 mm 0,0 UV-I 101 W/m -4,0 C -10,8 C 20,9 km/h (4 Bft) 100,00 %
22.02.2018 11:41 -2,1 C 3,9 C 87 % 1017,6 hPa 0,0 l/m 16,4 km/h (3 Bft) O 86 0 min 0,000 mm 0,0 UV-I 93 W/m -4,0 C -10,4 C 19,3 km/h (3 Bft) 100,00 %
22.02.2018 11:42 -2,1 C 3,9 C 87 % 1017,6 hPa 0,0 l/m 12,3 km/h (3 Bft) O-SO 123 0 min 0,000 mm 0,0 UV-I 91 W/m -4,0 C -7,6 C 14,5 km/h (3 Bft) 95,65 %
22.02.2018 11:43 -2,1 C 3,9 C 87 % 1017,6 hPa 0,0 l/m 14,7 km/h (3 Bft) O-NO 76 0 min 0,000 mm 0,0 UV-I 91 W/m -4,0 C -9,3 C 19,3 km/h (3 Bft) 100,00 %
22.02.2018 11:44 -2,1 C 3,9 C 87 % 1017,6 hPa 0,0 l/m 17,5 km/h (3 Bft) O-NO 71 0 min 0,000 mm 0,0 UV-I 86 W/m -4,0 C -11,0 C 20,9 km/h (4 Bft) 96,15 %
22.02.2018 11:45 -2,2 C 3,9 C 86 % 1017,6 hPa 0,0 l/m 15,9 km/h (3 Bft) O 83 0 min 0,000 mm 0,0 UV-I 85 W/m -4,2 C -10,2 C 19,3 km/h (3 Bft) 96,30 %
22.02.2018 11:46 -2,2 C 3,9 C 87 % 1017,6 hPa 0,0 l/m 17,7 km/h (3 Bft) O-NO 68 0 min 0,000 mm 0,0 UV-I 88 W/m -4,1 C -11,3 C 20,9 km/h (4 Bft) 100,00 %
22.02.2018 11:47 -2,2 C 3,9 C 87 % 1017,6 hPa 0,0 l/m 14,8 km/h (3 Bft) O-NO 75 0 min 0,000 mm 0,0 UV-I 82 W/m -4,1 C -9,5 C 17,7 km/h (3 Bft) 96,30 %
22.02.2018 11:48 -2,1 C 3,9 C 87 % 1017,6 hPa 0,0 l/m 10,8 km/h (2 Bft) O-NO 64 0 min 0,000 mm 0,0 UV-I 71 W/m -4,0 C -6,5 C 14,5 km/h (3 Bft) 100,00 %
22.02.2018 11:49 -2,1 C 3,9 C 87 % 1017,6 hPa 0,0 l/m 8,9 km/h (2 Bft) O-NO 69 0 min 0,000 mm 0,0 UV-I 62 W/m -4,0 C -4,8 C 14,5 km/h (3 Bft) 91,67 %
22.02.2018 11:50 -2,1 C 3,9 C 87 % 1017,6 hPa 0,0 l/m 15,0 km/h (3 Bft) O 95 0 min 0,000 mm 0,0 UV-I 59 W/m -4,0 C -9,5 C 17,7 km/h (3 Bft) 100,00 %
22.02.2018 11:51 -2,2 C 3,9 C 87 % 1017,6 hPa 0,0 l/m 11,3 km/h (2 Bft) O 88 0 min 0,000 mm 0,0 UV-I 57 W/m -4,1 C -7,0 C 14,5 km/h (3 Bft) 91,67 %
22.02.2018 11:52 -2,1 C 3,9 C 87 % 1017,6 hPa 0,0 l/m 13,9 km/h (3 Bft) O 81 0 min 0,000 mm 0,0 UV-I 62 W/m -4,0 C -8,8 C 17,7 km/h (3 Bft) 97,56 %
22.02.2018 11:53 -2,1 C 3,9 C 88 % 1017,6 hPa 0,0 l/m 15,1 km/h (3 Bft) O 83 0 min 0,000 mm 0,0 UV-I 66 W/m -3,8 C -9,6 C 17,7 km/h (3 Bft) 100,00 %
22.02.2018 11:54 -2,1 C 3,9 C 88 % 1017,6 hPa 0,0 l/m 15,1 km/h (3 Bft) O-SO 107 0 min 0,000 mm 0,0 UV-I 71 W/m -3,8 C -9,6 C 19,3 km/h (3 Bft) 95,65 %
22.02.2018 11:55 -2,2 C 3,9 C 87 % 1017,6 hPa 0,0 l/m 17,2 km/h (3 Bft) O-NO 68 0 min 0,000 mm 0,0 UV-I 78 W/m -4,1 C -11,0 C 20,9 km/h (4 Bft) 100,00 %
22.02.2018 11:56 -2,2 C 3,9 C 87 % 1017,6 hPa 0,0 l/m 15,0 km/h (3 Bft) O-NO 70 0 min 0,000 mm 0,0 UV-I 78 W/m -4,1 C -9,6 C 19,3 km/h (3 Bft) 95,83 %
22.02.2018 11:57 -2,2 C 3,9 C 87 % 1017,6 hPa 0,0 l/m 14,0 km/h (3 Bft) O-NO 67 0 min 0,000 mm 0,0 UV-I 80 W/m -4,1 C -9,0 C 20,9 km/h (4 Bft) 100,00 %
22.02.2018 11:58 -2,2 C 3,9 C 87 % 1017,6 hPa 0,0 l/m 13,8 km/h (3 Bft) O-NO 67 0 min 0,000 mm 0,0 UV-I 81 W/m -4,1 C -8,8 C 19,3 km/h (3 Bft) 95,83 %
22.02.2018 11:59 -2,2 C 3,9 C 87 % 1017,6 hPa 0,0 l/m 14,5 km/h (3 Bft) O 95 0 min 0,000 mm 0,0 UV-I 90 W/m -4,1 C -9,3 C 19,3 km/h (3 Bft) 96,88 %
22.02.2018 12:00 -2,2 C 3,9 C 87 % 1017,6 hPa 0,0 l/m 13,8 km/h (3 Bft) O 95 0 min 0,051 mm 0,0 UV-I 97 W/m -4,1 C -8,8 C 17,7 km/h (3 Bft) 97,92 %
22.02.2018 12:01 -2,2 C 3,9 C 87 % 1017,6 hPa 0,0 l/m 14,1 km/h (3 Bft) O 84 0 min 0,000 mm 0,0 UV-I 92 W/m -4,1 C -9,1 C 17,7 km/h (3 Bft) 97,56 %
22.02.2018 12:02 -2,2 C 3,9 C 87 % 1017,6 hPa 0,0 l/m 16,8 km/h (3 Bft) SO 126 0 min 0,000 mm 0,0 UV-I 86 W/m -4,1 C -10,7 C 22,5 km/h (4 Bft) 95,83 %
22.02.2018 12:03 -2,2 C 3,9 C 87 % 1017,6 hPa 0,0 l/m 14,6 km/h (3 Bft) O 92 0 min 0,000 mm 0,0 UV-I 86 W/m -4,1 C -9,4 C 20,9 km/h (4 Bft) 96,15 %
22.02.2018 12:04 -2,2 C 3,9 C 87 % 1017,6 hPa 0,0 l/m 13,6 km/h (3 Bft) O 92 0 min 0,000 mm 0,0 UV-I 100 W/m -4,1 C -8,7 C 17,7 km/h (3 Bft) 100,00 %
22.02.2018 12:05 -2,2 C 3,9 C 87 % 1017,6 hPa 0,0 l/m 13,7 km/h (3 Bft) O-NO 69 0 min 0,000 mm 0,0 UV-I 112 W/m -4,1 C -8,8 C 16,1 km/h (3 Bft) 91,30 %
22.02.2018 12:06 -2,2 C 3,9 C 87 % 1017,6 hPa 0,0 l/m 13,9 km/h (3 Bft) O 80 0 min 0,000 mm 0,1 UV-I 119 W/m -4,1 C -8,9 C 17,7 km/h (3 Bft) 100,00 %
22.02.2018 12:07 -2,2 C 3,9 C 87 % 1017,6 hPa 0,0 l/m 11,5 km/h (2 Bft) O 88 0 min 0,000 mm 0,5 UV-I 130 W/m -4,1 C -7,1 C 14,5 km/h (3 Bft) 92,31 %
22.02.2018 12:08 -2,2 C 3,9 C 87 % 1017,6 hPa 0,0 l/m 13,2 km/h (3 Bft) O-NO 69 0 min 0,000 mm 0,5 UV-I 140 W/m -4,1 C -8,4 C 16,1 km/h (3 Bft) 96,30 %
22.02.2018 12:09 -2,2 C 3,9 C 87 % 1017,6 hPa 0,0 l/m 17,5 km/h (3 Bft) O-NO 76 0 min 0,000 mm 0,5 UV-I 136 W/m -4,1 C -11,2 C 20,9 km/h (4 Bft) 100,00 %
22.02.2018 12:10 -2,2 C 3,9 C 87 % 1017,6 hPa 0,0 l/m 13,9 km/h (3 Bft) O 94 0 min 0,000 mm 0,1 UV-I 121 W/m -4,1 C -8,9 C 19,3 km/h (3 Bft) 95,83 %
22.02.2018 12:11 -2,2 C 3,9 C 87 % 1017,6 hPa 0,0 l/m 15,4 km/h (3 Bft) O 90 0 min 0,000 mm 0,5 UV-I 123 W/m -4,1 C -9,9 C 19,3 km/h (3 Bft) 100,00 %
22.02.2018 12:12 -2,2 C 3,9 C 87 % 1017,6 hPa 0,0 l/m 17,8 km/h (3 Bft) O 86 0 min 0,000 mm 0,5 UV-I 141 W/m -4,1 C -11,3 C 20,9 km/h (4 Bft) 95,83 %
22.02.2018 12:13 -2,2 C 3,9 C 88 % 1017,6 hPa 0,0 l/m 14,9 km/h (3 Bft) O 85 0 min 0,000 mm 0,6 UV-I 150 W/m -3,9 C -9,6 C 19,3 km/h (3 Bft) 100,00 %
22.02.2018 12:14 -2,2 C 3,9 C 88 % 1017,6 hPa 0,0 l/m 17,4 km/h (3 Bft) O-SO 113 0 min 0,000 mm 0,5 UV-I 145 W/m -3,9 C -11,1 C 20,9 km/h (4 Bft) 93,33 %
22.02.2018 12:15 -2,2 C 3,9 C 88 % 1017,6 hPa 0,0 l/m 17,9 km/h (3 Bft) O 96 0 min 0,000 mm 0,5 UV-I 134 W/m -3,9 C -11,4 C 22,5 km/h (4 Bft) 100,00 %
22.02.2018 12:16 -2,2 C 3,9 C 88 % 1017,6 hPa 0,0 l/m 16,2 km/h (3 Bft) O-SO 107 0 min 0,000 mm 0,5 UV-I 139 W/m -3,9 C -10,4 C 20,9 km/h (4 Bft) 95,65 %
22.02.2018 12:17 -2,3 C 3,9 C 88 % 1017,6 hPa 0,0 l/m 15,5 km/h (3 Bft) O-SO 106 0 min 0,000 mm 0,5 UV-I 140 W/m -4,0 C -10,1 C 20,9 km/h (4 Bft) 96,30 %
22.02.2018 12:18 -2,3 C 3,9 C 88 % 1017,6 hPa 0,0 l/m 14,0 km/h (3 Bft) O-NO 78 0 min 0,000 mm 0,5 UV-I 133 W/m -4,0 C -9,1 C 20,9 km/h (4 Bft) 100,00 %
22.02.2018 12:19 -2,2 C 3,9 C 88 % 1017,6 hPa 0,0 l/m 13,4 km/h (3 Bft) O 86 0 min 0,000 mm 0,5 UV-I 141 W/m -3,9 C -8,6 C 19,3 km/h (3 Bft) 100,00 %
22.02.2018 12:20 -2,2 C 3,9 C 89 % 1017,6 hPa 0,0 l/m 14,7 km/h (3 Bft) O 90 0 min 0,000 mm 0,6 UV-I 145 W/m -3,8 C -9,5 C 17,7 km/h (3 Bft) 96,15 %
22.02.2018 12:21 -2,2 C 3,9 C 89 % 1017,6 hPa 0,0 l/m 16,1 km/h (3 Bft) O-NO 74 0 min 0,000 mm 0,5 UV-I 136 W/m -3,8 C -10,3 C 19,3 km/h (3 Bft) 100,00 %
22.02.2018 12:22 -2,2 C 3,9 C 88 % 1017,6 hPa 0,0 l/m 14,7 km/h (3 Bft) O 98 0 min 0,000 mm 0,5 UV-I 125 W/m -3,9 C -9,5 C 20,9 km/h (4 Bft) 96,55 %
22.02.2018 12:23 -2,3 C 3,9 C 88 % 1017,6 hPa 0,0 l/m 14,9 km/h (3 Bft) O-SO 105 0 min 0,000 mm 0,5 UV-I 131 W/m -4,0 C -9,7 C 22,5 km/h (4 Bft) 100,00 %
22.02.2018 12:24 -2,3 C 3,9 C 89 % 1017,6 hPa 0,0 l/m 13,6 km/h (3 Bft) O-NO 74 0 min 0,000 mm 0,5 UV-I 137 W/m -3,9 C -8,8 C 20,9 km/h (4 Bft) 100,00 %
22.02.2018 12:25 -2,3 C 3,9 C 89 % 1017,6 hPa 0,0 l/m 14,1 km/h (3 Bft) O 90 0 min 0,000 mm 0,5 UV-I 132 W/m -3,9 C -9,2 C 17,7 km/h (3 Bft) 96,30 %
22.02.2018 12:26 -2,3 C 3,9 C 89 % 1017,6 hPa 0,0 l/m 15,3 km/h (3 Bft) O 97 0 min 0,000 mm 0,5 UV-I 129 W/m -3,9 C -10,0 C 20,9 km/h (4 Bft) 100,00 %
22.02.2018 12:27 -2,3 C 3,9 C 89 % 1017,6 hPa 0,0 l/m 17,1 km/h (3 Bft) O-NO 67 0 min 0,000 mm 0,5 UV-I 127 W/m -3,9 C -11,0 C 20,9 km/h (4 Bft) 100,00 %
22.02.2018 12:28 -2,3 C 3,9 C 89 % 1017,6 hPa 0,0 l/m 16,9 km/h (3 Bft) O 90 0 min 0,000 mm 0,5 UV-I 120 W/m -3,9 C -10,9 C 20,9 km/h (4 Bft) 100,00 %
22.02.2018 12:29 -2,3 C 3,9 C 89 % 1017,6 hPa 0,0 l/m 14,9 km/h (3 Bft) O 95 0 min 0,000 mm 0,0 UV-I 111 W/m -3,9 C -9,7 C 17,7 km/h (3 Bft) 100,00 %
22.02.2018 12:30 -2,3 C 3,9 C 89 % 1017,6 hPa 0,0 l/m 15,0 km/h (3 Bft) O-SO 107 0 min 0,000 mm 0,0 UV-I 105 W/m -3,9 C -9,8 C 17,7 km/h (3 Bft) 100,00 %
22.02.2018 12:31 -2,3 C 3,9 C 89 % 1017,5 hPa 0,0 l/m 11,7 km/h (2 Bft) O-NO 78 0 min 0,000 mm 0,0 UV-I 102 W/m -3,9 C -7,4 C 17,7 km/h (3 Bft) 100,00 %
22.02.2018 12:32 -2,3 C 3,9 C 89 % 1017,6 hPa 0,0 l/m 14,0 km/h (3 Bft) O 81 0 min 0,000 mm 0,0 UV-I 99 W/m -3,9 C -9,1 C 17,7 km/h (3 Bft) 96,15 %
22.02.2018 12:33 -2,3 C 3,9 C 89 % 1017,5 hPa 0,0 l/m 11,9 km/h (2 Bft) O-NO 76 0 min 0,000 mm 0,0 UV-I 98 W/m -3,9 C -7,6 C 14,5 km/h (3 Bft) 100,00 %
22.02.2018 12:34 -2,3 C 3,9 C 90 % 1017,5 hPa 0,0 l/m 13,2 km/h (3 Bft) O 94 0 min 0,000 mm 0,0 UV-I 104 W/m -3,7 C -8,5 C 17,7 km/h (3 Bft) 100,00 %
22.02.2018 12:35 -2,3 C 3,9 C 90 % 1017,5 hPa 0,0 l/m 15,0 km/h (3 Bft) O 89 0 min 0,000 mm 0,0 UV-I 109 W/m -3,7 C -9,8 C 20,9 km/h (4 Bft) 100,00 %
22.02.2018 12:36 -2,3 C 3,9 C 90 % 1017,5 hPa 0,0 l/m 15,9 km/h (3 Bft) O-NO 70 0 min 0,000 mm 0,0 UV-I 109 W/m -3,7 C -10,3 C 22,5 km/h (4 Bft) 100,00 %
22.02.2018 12:37 -2,3 C 3,9 C 90 % 1017,5 hPa 0,0 l/m 14,5 km/h (3 Bft) O-SO 111 0 min 0,000 mm 0,0 UV-I 111 W/m -3,7 C -9,4 C 19,3 km/h (3 Bft) 100,00 %
22.02.2018 12:38 -2,3 C 3,9 C 90 % 1017,5 hPa 0,0 l/m 16,0 km/h (3 Bft) O-SO 113 0 min 0,000 mm 0,0 UV-I 113 W/m -3,7 C -10,4 C 20,9 km/h (4 Bft) 100,00 %
22.02.2018 12:39 -2,3 C 3,9 C 90 % 1017,5 hPa 0,0 l/m 14,8 km/h (3 Bft) O 80 0 min 0,000 mm 0,0 UV-I 111 W/m -3,7 C -9,6 C 17,7 km/h (3 Bft) 100,00 %
22.02.2018 12:40 -2,4 C 3,9 C 90 % 1017,5 hPa 0,0 l/m 15,9 km/h (3 Bft) O 82 0 min 0,000 mm 0,0 UV-I 106 W/m -3,8 C -10,5 C 22,5 km/h (4 Bft) 100,00 %
22.02.2018 12:41 -2,4 C 3,9 C 90 % 1017,5 hPa 0,0 l/m 16,0 km/h (3 Bft) O 98 0 min 0,000 mm 0,0 UV-I 111 W/m -3,8 C -10,5 C 20,9 km/h (4 Bft) 100,00 %
22.02.2018 12:42 -2,4 C 3,9 C 90 % 1017,5 hPa 0,0 l/m 14,1 km/h (3 Bft) O 96 0 min 0,000 mm 0,0 UV-I 118 W/m -3,8 C -9,3 C 20,9 km/h (4 Bft) 100,00 %
22.02.2018 12:43 -2,4 C 3,9 C 91 % 1017,6 hPa 0,0 l/m 18,3 km/h (3 Bft) O 98 0 min 0,000 mm 0,0 UV-I 120 W/m -3,7 C -11,8 C 22,5 km/h (4 Bft) 100,00 %
22.02.2018 12:44 -2,4 C 3,9 C 90 % 1017,6 hPa 0,0 l/m 13,5 km/h (3 Bft) O 94 0 min 0,000 mm 0,0 UV-I 118 W/m -3,8 C -8,9 C 17,7 km/h (3 Bft) 100,00 %
22.02.2018 12:45 -2,4 C 3,9 C 91 % 1017,6 hPa 0,0 l/m 14,6 km/h (3 Bft) O 93 0 min 0,000 mm 0,0 UV-I 116 W/m -3,7 C -9,6 C 17,7 km/h (3 Bft) 100,00 %
22.02.2018 12:46 -2,4 C 3,9 C 91 % 1017,6 hPa 0,0 l/m 16,3 km/h (3 Bft) O 84 0 min 0,000 mm 0,0 UV-I 120 W/m -3,7 C -10,7 C 20,9 km/h (4 Bft) 100,00 %
22.02.2018 12:47 -2,4 C 3,9 C 91 % 1017,6 hPa 0,0 l/m 17,0 km/h (3 Bft) O 82 0 min 0,000 mm 0,5 UV-I 123 W/m -3,7 C -11,1 C 22,5 km/h (4 Bft) 96,15 %
22.02.2018 12:48 -2,4 C 3,9 C 91 % 1017,6 hPa 0,0 l/m 15,9 km/h (3 Bft) O 86 0 min 0,000 mm 0,0 UV-I 122 W/m -3,7 C -10,5 C 19,3 km/h (3 Bft) 100,00 %
22.02.2018 12:49 -2,4 C 3,9 C 91 % 1017,6 hPa 0,0 l/m 18,8 km/h (3 Bft) O-SO 105 0 min 0,000 mm 0,0 UV-I 118 W/m -3,7 C -12,1 C 22,5 km/h (4 Bft) 100,00 %
22.02.2018 12:50 -2,4 C 3,9 C 91 % 1017,5 hPa 0,0 l/m 20,7 km/h (4 Bft) O 98 0 min 0,000 mm 0,0 UV-I 114 W/m -3,7 C -13,1 C 25,7 km/h (4 Bft) 100,00 %
22.02.2018 12:51 -2,5 C 3,9 C 91 % 1017,5 hPa 0,0 l/m 18,4 km/h (3 Bft) O-SO 106 0 min 0,000 mm 0,0 UV-I 109 W/m -3,8 C -12,0 C 24,1 km/h (4 Bft) 100,00 %
22.02.2018 12:52 -2,5 C 3,9 C 91 % 1017,5 hPa 0,0 l/m 20,1 km/h (4 Bft) O 100 0 min 0,000 mm 0,0 UV-I 104 W/m -3,8 C -12,9 C 27,4 km/h (4 Bft) 95,83 %
22.02.2018 12:53 -2,6 C 3,9 C 91 % 1017,5 hPa 0,0 l/m 19,7 km/h (3 Bft) O 86 0 min 0,000 mm 0,0 UV-I 104 W/m -3,9 C -12,8 C 25,7 km/h (4 Bft) 100,00 %
22.02.2018 12:54 -2,6 C 3,9 C 91 % 1017,4 hPa 0,0 l/m 16,7 km/h (3 Bft) O 83 0 min 0,000 mm 0,0 UV-I 102 W/m -3,9 C -11,2 C 22,5 km/h (4 Bft) 100,00 %
22.02.2018 12:55 -2,5 C 3,9 C 91 % 1017,4 hPa 0,0 l/m 12,5 km/h (3 Bft) O 95 0 min 0,000 mm 0,0 UV-I 103 W/m -3,8 C -8,3 C 16,1 km/h (3 Bft) 100,00 %
22.02.2018 12:56 -2,5 C 3,9 C 91 % 1017,5 hPa 0,0 l/m 12,4 km/h (3 Bft) O 94 0 min 0,000 mm 0,0 UV-I 105 W/m -3,8 C -8,2 C 16,1 km/h (3 Bft) 100,00 %
22.02.2018 12:57 -2,5 C 3,9 C 91 % 1017,5 hPa 0,0 l/m 15,7 km/h (3 Bft) O 95 0 min 0,000 mm 0,0 UV-I 105 W/m -3,8 C -10,5 C 19,3 km/h (3 Bft) 100,00 %
22.02.2018 12:58 -2,5 C 3,9 C 91 % 1017,5 hPa 0,0 l/m 17,8 km/h (3 Bft) O 89 0 min 0,000 mm 0,0 UV-I 103 W/m -3,8 C -11,7 C 20,9 km/h (4 Bft) 96,88 %
22.02.2018 12:59 -2,5 C 3,9 C 91 % 1017,5 hPa 0,0 l/m 17,0 km/h (3 Bft) O 94 0 min 0,000 mm 0,0 UV-I 109 W/m -3,8 C -11,2 C 22,5 km/h (4 Bft) 100,00 %
22.02.2018 13:00 -2,6 C 3,9 C 91 % 1017,5 hPa 0,0 l/m 17,2 km/h (3 Bft) O 88 0 min 0,000 mm 0,0 UV-I 118 W/m -3,9 C -11,5 C 20,9 km/h (4 Bft) 100,00 %
22.02.2018 13:02 -2,6 C 3,9 C 91 % 1017,5 hPa 0,0 l/m 17,3 km/h (3 Bft) O 86 0 min 0,050 mm 0,0 UV-I 130 W/m -3,9 C -11,5 C 24,1 km/h (4 Bft) 100,00 %
22.02.2018 13:03 -2,6 C 3,9 C 91 % 1017,5 hPa 0,0 l/m 18,1 km/h (3 Bft) O-SO 108 0 min 0,000 mm 0,0 UV-I 141 W/m -3,9 C -12,0 C 24,1 km/h (4 Bft) 98,01 %
22.02.2018 13:04 -2,6 C 3,9 C 91 % 1017,5 hPa 0,0 l/m 17,6 km/h (3 Bft) O-NO 64 0 min 0,000 mm 0,0 UV-I 155 W/m -3,9 C -11,7 C 20,9 km/h (4 Bft) 100,00 %
22.02.2018 13:05 -2,6 C 3,9 C 91 % 1017,4 hPa 0,0 l/m 13,4 km/h (3 Bft) O-NO 67 0 min 0,000 mm 0,2 UV-I 170 W/m -3,9 C -9,0 C 17,7 km/h (3 Bft) 100,00 %
22.02.2018 13:06 -2,6 C 3,9 C 92 % 1017,4 hPa 0,0 l/m 12,9 km/h (3 Bft) O-NO 73 0 min 0,000 mm 0,5 UV-I 182 W/m -3,7 C -8,7 C 17,7 km/h (3 Bft) 100,00 %
22.02.2018 13:07 -2,6 C 3,9 C 92 % 1017,4 hPa 0,0 l/m 13,7 km/h (3 Bft) O-NO 72 0 min 0,000 mm 0,5 UV-I 191 W/m -3,7 C -9,3 C 16,1 km/h (3 Bft) 100,00 %
22.02.2018 13:08 -2,5 C 3,9 C 92 % 1017,4 hPa 0,0 l/m 16,8 km/h (3 Bft) O-NO 71 0 min 0,000 mm 0,6 UV-I 198 W/m -3,6 C -11,1 C 22,5 km/h (4 Bft) 100,00 %
22.02.2018 13:09 -2,5 C 3,9 C 92 % 1017,4 hPa 0,0 l/m 16,2 km/h (3 Bft) O 96 0 min 0,000 mm 0,6 UV-I 204 W/m -3,6 C -10,8 C 22,5 km/h (4 Bft) 100,00 %
22.02.2018 13:10 -2,5 C 3,9 C 92 % 1017,4 hPa 0,0 l/m 14,9 km/h (3 Bft) O 96 0 min 0,000 mm 0,6 UV-I 213 W/m -3,6 C -9,9 C 19,3 km/h (3 Bft) 100,00 %
22.02.2018 13:11 -2,5 C 3,9 C 92 % 1017,4 hPa 0,0 l/m 16,3 km/h (3 Bft) O 80 0 min 0,000 mm 0,6 UV-I 202 W/m -3,6 C -10,8 C 19,3 km/h (3 Bft) 100,00 %
22.02.2018 13:12 -2,5 C 3,9 C 92 % 1017,4 hPa 0,0 l/m 17,5 km/h (3 Bft) O-NO 67 0 min 0,000 mm 0,6 UV-I 202 W/m -3,6 C -11,5 C 19,3 km/h (3 Bft) 100,00 %
22.02.2018 13:13 -2,5 C 3,9 C 92 % 1017,4 hPa 0,0 l/m 15,9 km/h (3 Bft) O 96 0 min 0,000 mm 0,7 UV-I 226 W/m -3,6 C -10,6 C 19,3 km/h (3 Bft) 100,00 %
22.02.2018 13:14 -2,4 C 3,9 C 92 % 1017,4 hPa 0,0 l/m 18,0 km/h (3 Bft) O 88 0 min 0,000 mm 0,7 UV-I 229 W/m -3,5 C -11,7 C 22,5 km/h (4 Bft) 100,00 %
22.02.2018 13:15 -2,4 C 3,9 C 92 % 1017,4 hPa 0,0 l/m 13,6 km/h (3 Bft) O 86 0 min 0,000 mm 0,7 UV-I 222 W/m -3,5 C -8,9 C 17,7 km/h (3 Bft) 100,00 %
22.02.2018 13:16 -2,4 C 3,9 C 92 % 1017,4 hPa 0,0 l/m 19,0 km/h (3 Bft) O-NO 71 0 min 0,000 mm 0,6 UV-I 208 W/m -3,5 C -12,2 C 22,5 km/h (4 Bft) 100,00 %
22.02.2018 13:17 -2,5 C 3,9 C 92 % 1017,4 hPa 0,0 l/m 17,5 km/h (3 Bft) O-NO 74 0 min 0,000 mm 0,6 UV-I 205 W/m -3,6 C -11,5 C 20,9 km/h (4 Bft) 100,00 %
22.02.2018 13:18 -2,5 C 3,9 C 92 % 1017,4 hPa 0,0 l/m 18,6 km/h (3 Bft) O-NO 77 0 min 0,000 mm 0,6 UV-I 207 W/m -3,6 C -12,1 C 22,5 km/h (4 Bft) 100,00 %
22.02.2018 13:19 -2,4 C 3,9 C 92 % 1017,4 hPa 0,0 l/m 18,4 km/h (3 Bft) O 81 0 min 0,000 mm 0,6 UV-I 210 W/m -3,5 C -11,9 C 24,1 km/h (4 Bft) 96,30 %
22.02.2018 13:20 -2,4 C 3,9 C 92 % 1017,4 hPa 0,0 l/m 18,8 km/h (3 Bft) O 90 0 min 0,000 mm 0,6 UV-I 213 W/m -3,5 C -12,1 C 24,1 km/h (4 Bft) 100,00 %
22.02.2018 13:21 -2,4 C 3,9 C 92 % 1017,5 hPa 0,0 l/m 17,5 km/h (3 Bft) O 82 0 min 0,000 mm 0,6 UV-I 207 W/m -3,5 C -11,4 C 20,9 km/h (4 Bft) 96,55 %
22.02.2018 13:22 -2,4 C 3,9 C 92 % 1017,4 hPa 0,0 l/m 17,1 km/h (3 Bft) O 80 0 min 0,000 mm 0,6 UV-I 206 W/m -3,5 C -11,2 C 20,9 km/h (4 Bft) 100,00 %
22.02.2018 13:23 -2,4 C 3,9 C 92 % 1017,4 hPa 0,0 l/m 16,3 km/h (3 Bft) O-NO 69 0 min 0,000 mm 0,6 UV-I 200 W/m -3,5 C -10,7 C 19,3 km/h (3 Bft) 100,00 %
22.02.2018 13:24 -2,4 C 3,9 C 92 % 1017,4 hPa 0,0 l/m 14,6 km/h (3 Bft) O 81 0 min 0,000 mm 0,6 UV-I 199 W/m -3,5 C -9,6 C 17,7 km/h (3 Bft) 100,00 %
22.02.2018 13:25 -2,4 C 3,9 C 92 % 1017,5 hPa 0,0 l/m 15,7 km/h (3 Bft) O 80 0 min 0,000 mm 0,6 UV-I 197 W/m -3,5 C -10,3 C 20,9 km/h (4 Bft) 100,00 %
22.02.2018 13:26 -2,4 C 3,9 C 92 % 1017,4 hPa 0,0 l/m 16,2 km/h (3 Bft) O-NO 67 0 min 0,000 mm 0,6 UV-I 193 W/m -3,5 C -10,6 C 20,9 km/h (4 Bft) 100,00 %
22.02.2018 13:27 -2,4 C 3,9 C 91 % 1017,4 hPa 0,0 l/m 14,8 km/h (3 Bft) O-NO 57 0 min 0,000 mm 0,6 UV-I 187 W/m -3,7 C -9,8 C 17,7 km/h (3 Bft) 100,00 %
22.02.2018 13:28 -2,4 C 3,9 C 92 % 1017,4 hPa 0,0 l/m 16,2 km/h (3 Bft) O 84 0 min 0,000 mm 0,6 UV-I 185 W/m -3,5 C -10,6 C 17,7 km/h (3 Bft) 95,83 %
22.02.2018 13:29 -2,4 C 3,9 C 91 % 1017,4 hPa 0,0 l/m 14,7 km/h (3 Bft) O 84 0 min 0,000 mm 0,6 UV-I 184 W/m -3,7 C -9,7 C 20,9 km/h (4 Bft) 100,00 %
22.02.2018 13:30 -2,4 C 3,9 C 91 % 1017,4 hPa 0,0 l/m 17,9 km/h (3 Bft) O 96 0 min 0,000 mm 0,5 UV-I 182 W/m -3,7 C -11,6 C 22,5 km/h (4 Bft) 96,55 %
22.02.2018 13:31 -2,4 C 3,9 C 91 % 1017,4 hPa 0,0 l/m 17,4 km/h (3 Bft) O-NO 70 0 min 0,000 mm 0,5 UV-I 179 W/m -3,7 C -11,3 C 20,9 km/h (4 Bft) 100,00 %
22.02.2018 13:32 -2,4 C 3,9 C 92 % 1017,4 hPa 0,0 l/m 17,8 km/h (3 Bft) O 98 0 min 0,000 mm 0,5 UV-I 174 W/m -3,5 C -11,6 C 24,1 km/h (4 Bft) 96,88 %
22.02.2018 13:33 -2,4 C 3,9 C 91 % 1017,4 hPa 0,0 l/m 17,3 km/h (3 Bft) O-NO 68 0 min 0,000 mm 0,5 UV-I 170 W/m -3,7 C -11,3 C 22,5 km/h (4 Bft) 96,67 %
22.02.2018 13:34 -2,4 C 3,9 C 92 % 1017,4 hPa 0,0 l/m 17,2 km/h (3 Bft) O 82 0 min 0,000 mm 0,5 UV-I 164 W/m -3,5 C -11,2 C 20,9 km/h (4 Bft) 98,07 %
22.02.2018 13:35 -2,4 C 3,9 C 92 % 1017,4 hPa 0,0 l/m 16,6 km/h (3 Bft) O 81 0 min 0,000 mm 0,5 UV-I 162 W/m -3,5 C -10,9 C 20,9 km/h (4 Bft) 97,56 %
22.02.2018 13:36 -2,4 C 3,9 C 92 % 1017,4 hPa 0,0 l/m 16,1 km/h (3 Bft) O 90 0 min 0,000 mm 0,2 UV-I 157 W/m -3,5 C -10,6 C 19,3 km/h (3 Bft) 100,00 %
22.02.2018 13:37 -2,4 C 3,9 C 92 % 1017,4 hPa 0,0 l/m 15,6 km/h (3 Bft) O-NO 70 0 min 0,000 mm 0,0 UV-I 150 W/m -3,5 C -10,3 C 17,7 km/h (3 Bft) 96,30 %
22.02.2018 13:38 -2,4 C 3,9 C 92 % 1017,4 hPa 0,0 l/m 15,8 km/h (3 Bft) O-NO 74 0 min 0,000 mm 0,0 UV-I 142 W/m -3,5 C -10,4 C 20,9 km/h (4 Bft) 100,00 %
22.02.2018 13:39 -2,4 C 3,9 C 92 % 1017,4 hPa 0,0 l/m 16,8 km/h (3 Bft) O 95 0 min 0,000 mm 0,0 UV-I 139 W/m -3,5 C -11,0 C 20,9 km/h (4 Bft) 96,67 %
22.02.2018 13:40 -2,4 C 3,9 C 92 % 1017,4 hPa 0,0 l/m 16,6 km/h (3 Bft) O-NO 68 0 min 0,000 mm 0,0 UV-I 138 W/m -3,5 C -10,9 C 19,3 km/h (3 Bft) 100,00 %
22.02.2018 13:41 -2,4 C 3,9 C 92 % 1017,4 hPa 0,0 l/m 16,0 km/h (3 Bft) O 90 0 min 0,000 mm 0,0 UV-I 131 W/m -3,5 C -10,5 C 19,3 km/h (3 Bft) 95,83 %
22.02.2018 13:42 -2,4 C 3,9 C 92 % 1017,4 hPa 0,0 l/m 15,4 km/h (3 Bft) O 82 0 min 0,000 mm 0,0 UV-I 126 W/m -3,5 C -10,1 C 19,3 km/h (3 Bft) 100,00 %
22.02.2018 13:43 -2,4 C 3,9 C 92 % 1017,3 hPa 0,0 l/m 15,2 km/h (3 Bft) O-NO 65 0 min 0,000 mm 0,0 UV-I 127 W/m -3,5 C -10,0 C 19,3 km/h (3 Bft) 96,55 %
22.02.2018 13:44 -2,4 C 3,9 C 92 % 1017,3 hPa 0,0 l/m 17,4 km/h (3 Bft) O-NO 74 0 min 0,000 mm 0,0 UV-I 126 W/m -3,5 C -11,3 C 20,9 km/h (4 Bft) 98,06 %
22.02.2018 13:45 -2,4 C 3,9 C 92 % 1017,3 hPa 0,0 l/m 16,0 km/h (3 Bft) O-NO 63 0 min 0,000 mm 0,0 UV-I 121 W/m -3,5 C -10,5 C 19,3 km/h (3 Bft) 93,18 %
22.02.2018 13:46 -2,4 C 3,9 C 92 % 1017,3 hPa 0,0 l/m 14,9 km/h (3 Bft) O 88 0 min 0,000 mm 0,0 UV-I 115 W/m -3,5 C -9,8 C 17,7 km/h (3 Bft) 96,15 %
22.02.2018 13:48 -2,4 C 3,9 C 92 % 1017,3 hPa 0,0 l/m 14,6 km/h (3 Bft) O 81 0 min 0,000 mm 0,0 UV-I 109 W/m -3,5 C -9,6 C 19,3 km/h (3 Bft) 94,87 %
22.02.2018 13:49 -2,4 C 3,9 C 93 % 1017,3 hPa 0,0 l/m 16,2 km/h (3 Bft) O 80 0 min 0,000 mm 0,0 UV-I 115 W/m -3,4 C -10,6 C 19,3 km/h (3 Bft) 96,15 %
22.02.2018 13:50 -2,4 C 3,9 C 93 % 1017,3 hPa 0,0 l/m 19,0 km/h (3 Bft) O-NO 75 0 min 0,000 mm 0,0 UV-I 123 W/m -3,4 C -12,2 C 24,1 km/h (4 Bft) 93,33 %
22.02.2018 13:51 -2,4 C 3,9 C 93 % 1017,4 hPa 0,0 l/m 20,3 km/h (4 Bft) O 82 0 min 0,000 mm 0,0 UV-I 123 W/m -3,4 C -12,9 C 24,1 km/h (4 Bft) 96,15 %
22.02.2018 13:52 -2,4 C 3,9 C 93 % 1017,3 hPa 0,0 l/m 12,1 km/h (2 Bft) O 92 0 min 0,000 mm 0,0 UV-I 124 W/m -3,4 C -7,8 C 16,1 km/h (3 Bft) 96,67 %
22.02.2018 13:53 -2,4 C 3,9 C 93 % 1017,3 hPa 0,0 l/m 14,6 km/h (3 Bft) O 80 0 min 0,000 mm 0,0 UV-I 125 W/m -3,4 C -9,6 C 17,7 km/h (3 Bft) 96,15 %
22.02.2018 13:54 -2,4 C 3,9 C 93 % 1017,4 hPa 0,0 l/m 15,4 km/h (3 Bft) O 79 0 min 0,000 mm 0,0 UV-I 132 W/m -3,4 C -10,1 C 19,3 km/h (3 Bft) 93,33 %
22.02.2018 13:55 -2,4 C 3,9 C 93 % 1017,4 hPa 0,0 l/m 15,2 km/h (3 Bft) O 101 0 min 0,000 mm 0,0 UV-I 135 W/m -3,4 C -10,0 C 20,9 km/h (4 Bft) 95,65 %
22.02.2018 13:56 -2,4 C 3,9 C 93 % 1017,4 hPa 0,0 l/m 17,4 km/h (3 Bft) O 86 0 min 0,000 mm 0,0 UV-I 142 W/m -3,4 C -11,3 C 24,1 km/h (4 Bft) 95,83 %
22.02.2018 13:57 -2,5 C 3,9 C 93 % 1017,4 hPa 0,0 l/m 17,5 km/h (3 Bft) O-NO 76 0 min 0,000 mm 0,0 UV-I 146 W/m -3,5 C -11,5 C 25,7 km/h (4 Bft) 100,00 %
22.02.2018 13:58 -2,5 C 3,9 C 92 % 1017,3 hPa 0,0 l/m 15,2 km/h (3 Bft) O 94 0 min 0,000 mm 0,2 UV-I 149 W/m -3,6 C -10,1 C 17,7 km/h (3 Bft) 88,89 %
22.02.2018 13:59 -2,5 C 3,9 C 92 % 1017,3 hPa 0,0 l/m 18,0 km/h (3 Bft) O-NO 64 0 min 0,000 mm 0,5 UV-I 151 W/m -3,6 C -11,8 C 24,1 km/h (4 Bft) 93,10 %
22.02.2018 14:00 -2,5 C 3,9 C 92 % 1017,3 hPa 0,0 l/m 16,6 km/h (3 Bft) O-SO 104 0 min 0,000 mm 0,5 UV-I 151 W/m -3,6 C -11,0 C 19,3 km/h (3 Bft) 95,83 %
22.02.2018 14:01 -2,5 C 3,9 C 92 % 1017,4 hPa 0,0 l/m 16,8 km/h (3 Bft) O 96 0 min 0,051 mm 0,5 UV-I 149 W/m -3,6 C -11,1 C 20,9 km/h (4 Bft) 91,67 %
22.02.2018 14:02 -2,5 C 3,9 C 92 % 1017,4 hPa 0,0 l/m 19,3 km/h (3 Bft) O 88 0 min 0,000 mm 0,1 UV-I 149 W/m -3,6 C -12,5 C 24,1 km/h (4 Bft) 96,55 %
22.02.2018 14:03 -2,5 C 3,9 C 92 % 1017,4 hPa 0,0 l/m 13,7 km/h (3 Bft) O 97 0 min 0,000 mm 0,0 UV-I 147 W/m -3,6 C -9,1 C 17,7 km/h (3 Bft) 91,30 %
22.02.2018 14:04 -2,5 C 3,9 C 92 % 1017,3 hPa 0,0 l/m 16,1 km/h (3 Bft) O 87 0 min 0,000 mm 0,0 UV-I 142 W/m -3,6 C -10,7 C 20,9 km/h (4 Bft) 95,83 %
22.02.2018 14:05 -2,5 C 3,9 C 92 % 1017,3 hPa 0,0 l/m 16,1 km/h (3 Bft) O 80 0 min 0,000 mm 0,0 UV-I 136 W/m -3,6 C -10,7 C 19,3 km/h (3 Bft) 92,31 %
22.02.2018 14:06 -2,5 C 3,9 C 92 % 1017,3 hPa 0,0 l/m 15,6 km/h (3 Bft) O 93 0 min 0,000 mm 0,0 UV-I 133 W/m -3,6 C -10,4 C 22,5 km/h (4 Bft) 92,59 %
22.02.2018 14:07 -2,5 C 3,9 C 92 % 1017,3 hPa 0,0 l/m 15,0 km/h (3 Bft) O 82 0 min 0,000 mm 0,0 UV-I 127 W/m -3,6 C -10,0 C 20,9 km/h (4 Bft) 93,33 %
22.02.2018 14:08 -2,5 C 3,9 C 92 % 1017,3 hPa 0,0 l/m 14,9 km/h (3 Bft) O-NO 72 0 min 0,000 mm 0,0 UV-I 119 W/m -3,6 C -9,9 C 19,3 km/h (3 Bft) 92,31 %
22.02.2018 14:09 -2,5 C 3,9 C 92 % 1017,3 hPa 0,0 l/m 16,8 km/h (3 Bft) O-NO 78 0 min 0,000 mm 0,0 UV-I 115 W/m -3,6 C -11,1 C 20,9 km/h (4 Bft) 95,83 %
22.02.2018 14:10 -2,5 C 3,9 C 92 % 1017,3 hPa 0,0 l/m 15,2 km/h (3 Bft) O-NO 67 0 min 0,000 mm 0,0 UV-I 113 W/m -3,6 C -10,1 C 19,3 km/h (3 Bft) 95,65 %
22.02.2018 14:11 -2,5 C 3,9 C 92 % 1017,3 hPa 0,0 l/m 11,7 km/h (2 Bft) O-NO 73 0 min 0,000 mm 0,0 UV-I 111 W/m -3,6 C -7,6 C 14,5 km/h (3 Bft) 95,24 %
22.02.2018 14:12 -2,6 C 3,9 C 92 % 1017,3 hPa 0,0 l/m 14,0 km/h (3 Bft) O-NO 74 0 min 0,000 mm 0,0 UV-I 111 W/m -3,7 C -9,5 C 17,7 km/h (3 Bft) 92,31 %
22.02.2018 14:13 -2,6 C 3,9 C 92 % 1017,3 hPa 0,0 l/m 14,5 km/h (3 Bft) O 90 0 min 0,000 mm 0,0 UV-I 114 W/m -3,7 C -9,8 C 20,9 km/h (4 Bft) 100,00 %
22.02.2018 14:14 -2,6 C 3,9 C 92 % 1017,3 hPa 0,0 l/m 15,3 km/h (3 Bft) NO 52 0 min 0,000 mm 0,0 UV-I 119 W/m -3,7 C -10,3 C 19,3 km/h (3 Bft) 92,31 %
22.02.2018 14:15 -2,6 C 3,9 C 92 % 1017,3 hPa 0,0 l/m 15,5 km/h (3 Bft) O 93 0 min 0,000 mm 0,0 UV-I 121 W/m -3,7 C -10,5 C 19,3 km/h (3 Bft) 95,83 %
22.02.2018 14:16 -2,6 C 3,9 C 92 % 1017,2 hPa 0,0 l/m 14,8 km/h (3 Bft) O-NO 67 0 min 0,000 mm 0,0 UV-I 124 W/m -3,7 C -10,0 C 17,7 km/h (3 Bft) 92,86 %
22.02.2018 14:17 -2,6 C 3,9 C 92 % 1017,3 hPa 0,0 l/m 15,2 km/h (3 Bft) O 87 0 min 0,000 mm 0,0 UV-I 125 W/m -3,7 C -10,3 C 19,3 km/h (3 Bft) 96,30 %
22.02.2018 14:18 -2,6 C 3,9 C 92 % 1017,2 hPa 0,0 l/m 16,9 km/h (3 Bft) O 96 0 min 0,000 mm 0,0 UV-I 129 W/m -3,7 C -11,3 C 20,9 km/h (4 Bft) 100,00 %
22.02.2018 14:19 -2,5 C 3,9 C 92 % 1017,2 hPa 0,0 l/m 16,3 km/h (3 Bft) O-NO 76 0 min 0,000 mm 0,0 UV-I 135 W/m -3,6 C -10,8 C 19,3 km/h (3 Bft) 93,33 %
22.02.2018 14:20 -2,5 C 3,9 C 92 % 1017,2 hPa 0,0 l/m 13,7 km/h (3 Bft) O-SO 109 0 min 0,000 mm 0,0 UV-I 137 W/m -3,6 C -9,1 C 17,7 km/h (3 Bft) 92,31 %
22.02.2018 14:21 -2,5 C 3,9 C 92 % 1017,2 hPa 0,0 l/m 16,3 km/h (3 Bft) O-NO 66 0 min 0,000 mm 0,0 UV-I 138 W/m -3,6 C -10,8 C 20,9 km/h (4 Bft) 92,59 %
22.02.2018 14:22 -2,5 C 3,9 C 92 % 1017,1 hPa 0,0 l/m 15,0 km/h (3 Bft) O-NO 70 0 min 0,000 mm 0,0 UV-I 141 W/m -3,6 C -10,0 C 19,3 km/h (3 Bft) 100,00 %
22.02.2018 14:23 -2,5 C 3,9 C 92 % 1017,2 hPa 0,0 l/m 16,1 km/h (3 Bft) O 91 0 min 0,000 mm 0,0 UV-I 143 W/m -3,6 C -10,7 C 20,9 km/h (4 Bft) 93,33 %
22.02.2018 14:24 -2,5 C 3,9 C 92 % 1017,1 hPa 0,0 l/m 14,5 km/h (3 Bft) O-NO 77 0 min 0,000 mm 0,0 UV-I 147 W/m -3,6 C -9,7 C 17,7 km/h (3 Bft) 100,00 %
22.02.2018 14:25 -2,5 C 3,9 C 92 % 1017,2 hPa 0,0 l/m 16,0 km/h (3 Bft) O 80 0 min 0,000 mm 0,4 UV-I 151 W/m -3,6 C -10,6 C 20,9 km/h (4 Bft) 91,67 %
22.02.2018 14:26 -2,4 C 3,9 C 92 % 1017,2 hPa 0,0 l/m 14,2 km/h (3 Bft) O 80 0 min 0,000 mm 0,0 UV-I 151 W/m -3,5 C -9,4 C 17,7 km/h (3 Bft) 100,00 %
22.02.2018 14:27 -2,4 C 3,9 C 92 % 1017,2 hPa 0,0 l/m 13,3 km/h (3 Bft) O 84 0 min 0,000 mm 0,0 UV-I 150 W/m -3,5 C -8,7 C 17,7 km/h (3 Bft) 96,55 %
22.02.2018 14:28 -2,4 C 3,9 C 92 % 1017,2 hPa 0,0 l/m 12,3 km/h (3 Bft) O 97 0 min 0,000 mm 0,2 UV-I 150 W/m -3,5 C -8,0 C 20,9 km/h (4 Bft) 93,10 %
22.02.2018 14:29 -2,4 C 3,9 C 92 % 1017,2 hPa 0,0 l/m 16,8 km/h (3 Bft) O 83 0 min 0,000 mm 0,3 UV-I 149 W/m -3,5 C -11,0 C 20,9 km/h (4 Bft) 100,00 %
22.02.2018 14:30 -2,4 C 3,9 C 92 % 1017,2 hPa 0,0 l/m 18,3 km/h (3 Bft) O 90 0 min 0,000 mm 0,0 UV-I 145 W/m -3,5 C -11,8 C 20,9 km/h (4 Bft) 100,00 %
22.02.2018 14:31 -2,4 C 3,9 C 92 % 1017,2 hPa 0,0 l/m 19,2 km/h (3 Bft) O 94 0 min 0,000 mm 0,0 UV-I 142 W/m -3,5 C -12,3 C 24,1 km/h (4 Bft) 94,12 %
22.02.2018 14:32 -2,4 C 3,9 C 92 % 1017,2 hPa 0,0 l/m 16,1 km/h (3 Bft) O 80 0 min 0,000 mm 0,0 UV-I 141 W/m -3,5 C -10,6 C 17,7 km/h (3 Bft) 93,75 %
22.02.2018 14:33 -2,4 C 3,9 C 92 % 1017,2 hPa 0,0 l/m 15,6 km/h (3 Bft) O-SO 105 0 min 0,000 mm 0,0 UV-I 132 W/m -3,5 C -10,3 C 20,9 km/h (4 Bft) 100,00 %
22.02.2018 14:34 -2,4 C 3,9 C 92 % 1017,2 hPa 0,0 l/m 15,7 km/h (3 Bft) O 86 0 min 0,000 mm 0,0 UV-I 126 W/m -3,5 C -10,3 C 20,9 km/h (4 Bft) 95,83 %
22.02.2018 14:35 -2,4 C 3,9 C 92 % 1017,2 hPa 0,0 l/m 16,0 km/h (3 Bft) O 80 0 min 0,000 mm 0,0 UV-I 127 W/m -3,5 C -10,5 C 20,9 km/h (4 Bft) 100,00 %
22.02.2018 14:36 -2,4 C 3,9 C 92 % 1017,2 hPa 0,0 l/m 14,7 km/h (3 Bft) NO 55 0 min 0,000 mm 0,0 UV-I 131 W/m -3,5 C -9,7 C 17,7 km/h (3 Bft) 96,30 %
22.02.2018 14:37 -2,4 C 3,9 C 92 % 1017,2 hPa 0,0 l/m 17,2 km/h (3 Bft) O-NO 78 0 min 0,000 mm 0,0 UV-I 131 W/m -3,5 C -11,2 C 19,3 km/h (3 Bft) 100,00 %
22.02.2018 14:38 -2,4 C 3,9 C 92 % 1017,2 hPa 0,0 l/m 15,8 km/h (3 Bft) O-NO 68 0 min 0,000 mm 0,0 UV-I 132 W/m -3,5 C -10,4 C 19,3 km/h (3 Bft) 96,97 %
22.02.2018 14:39 -2,4 C 3,9 C 92 % 1017,2 hPa 0,0 l/m 14,1 km/h (3 Bft) O-NO 76 0 min 0,000 mm 0,0 UV-I 132 W/m -3,5 C -9,3 C 19,3 km/h (3 Bft) 95,65 %
22.02.2018 14:40 -2,4 C 3,9 C 92 % 1017,2 hPa 0,0 l/m 16,4 km/h (3 Bft) O-NO 78 0 min 0,000 mm 0,0 UV-I 138 W/m -3,5 C -10,8 C 20,9 km/h (4 Bft) 100,00 %
22.02.2018 14:41 -2,4 C 3,9 C 92 % 1017,2 hPa 0,0 l/m 19,2 km/h (3 Bft) O-NO 72 0 min 0,000 mm 0,0 UV-I 143 W/m -3,5 C -12,3 C 24,1 km/h (4 Bft) 100,00 %
22.02.2018 14:42 -2,4 C 3,9 C 92 % 1017,2 hPa 0,0 l/m 20,2 km/h (4 Bft) O 82 0 min 0,000 mm 0,0 UV-I 149 W/m -3,5 C -12,8 C 25,7 km/h (4 Bft) 100,00 %
22.02.2018 14:43 -2,5 C 3,9 C 91 % 1017,2 hPa 0,0 l/m 17,2 km/h (3 Bft) O-NO 76 0 min 0,000 mm 0,4 UV-I 158 W/m -3,8 C -11,4 C 22,5 km/h (4 Bft) 100,00 %
22.02.2018 14:44 -2,5 C 3,9 C 91 % 1017,2 hPa 0,0 l/m 17,4 km/h (3 Bft) O 101 0 min 0,000 mm 0,5 UV-I 167 W/m -3,8 C -11,5 C 22,5 km/h (4 Bft) 100,00 %
22.02.2018 14:45 -2,5 C 3,9 C 91 % 1017,2 hPa 0,0 l/m 18,6 km/h (3 Bft) O-NO 78 0 min 0,000 mm 0,5 UV-I 171 W/m -3,8 C -12,1 C 24,1 km/h (4 Bft) 100,00 %
22.02.2018 14:46 -2,5 C 3,9 C 91 % 1017,2 hPa 0,0 l/m 19,2 km/h (3 Bft) O-NO 70 0 min 0,000 mm 0,5 UV-I 175 W/m -3,8 C -12,5 C 20,9 km/h (4 Bft) 100,00 %
22.02.2018 14:47 -2,5 C 3,9 C 91 % 1017,2 hPa 0,0 l/m 19,5 km/h (3 Bft) O 81 0 min 0,000 mm 0,5 UV-I 178 W/m -3,8 C -12,6 C 22,5 km/h (4 Bft) 100,00 %
22.02.2018 14:48 -2,5 C 3,9 C 91 % 1017,2 hPa 0,0 l/m 18,2 km/h (3 Bft) O 79 0 min 0,000 mm 0,5 UV-I 178 W/m -3,8 C -11,9 C 20,9 km/h (4 Bft) 95,83 %
22.02.2018 14:49 -2,4 C 3,9 C 91 % 1017,2 hPa 0,0 l/m 16,7 km/h (3 Bft) NO 55 0 min 0,000 mm 0,5 UV-I 178 W/m -3,7 C -10,9 C 19,3 km/h (3 Bft) 100,00 %
22.02.2018 14:50 -2,4 C 3,9 C 91 % 1017,2 hPa 0,0 l/m 15,3 km/h (3 Bft) O 80 0 min 0,000 mm 0,5 UV-I 177 W/m -3,7 C -10,1 C 20,9 km/h (4 Bft) 100,00 %
22.02.2018 14:51 -2,4 C 3,9 C 91 % 1017,2 hPa 0,0 l/m 15,0 km/h (3 Bft) O 96 0 min 0,000 mm 0,5 UV-I 176 W/m -3,7 C -9,9 C 17,7 km/h (3 Bft) 100,00 %
22.02.2018 14:52 -2,4 C 3,9 C 91 % 1017,2 hPa 0,0 l/m 17,3 km/h (3 Bft) O-NO 71 0 min 0,000 mm 0,5 UV-I 176 W/m -3,7 C -11,3 C 19,3 km/h (3 Bft) 100,00 %
22.02.2018 14:53 -2,4 C 3,9 C 91 % 1017,2 hPa 0,0 l/m 16,9 km/h (3 Bft) O-NO 65 0 min 0,000 mm 0,5 UV-I 174 W/m -3,7 C -11,1 C 19,3 km/h (3 Bft) 96,30 %
22.02.2018 14:54 -2,4 C 3,9 C 91 % 1017,2 hPa 0,0 l/m 15,4 km/h (3 Bft) O-NO 71 0 min 0,000 mm 0,5 UV-I 172 W/m -3,7 C -10,1 C 17,7 km/h (3 Bft) 92,86 %
22.02.2018 14:55 -2,3 C 3,9 C 91 % 1017,2 hPa 0,0 l/m 17,6 km/h (3 Bft) O-NO 70 0 min 0,000 mm 0,5 UV-I 172 W/m -3,6 C -11,3 C 20,9 km/h (4 Bft) 100,00 %
22.02.2018 14:56 -2,3 C 3,9 C 91 % 1017,2 hPa 0,0 l/m 15,6 km/h (3 Bft) O 81 0 min 0,000 mm 0,5 UV-I 171 W/m -3,6 C -10,1 C 19,3 km/h (3 Bft) 100,00 %
22.02.2018 14:57 -2,3 C 3,9 C 91 % 1017,2 hPa 0,0 l/m 14,5 km/h (3 Bft) O 86 0 min 0,000 mm 0,5 UV-I 170 W/m -3,6 C -9,4 C 17,7 km/h (3 Bft) 100,00 %
22.02.2018 14:58 -2,3 C 3,9 C 91 % 1017,2 hPa 0,0 l/m 13,3 km/h (3 Bft) O-NO 71 0 min 0,000 mm 0,5 UV-I 168 W/m -3,6 C -8,6 C 16,1 km/h (3 Bft) 90,91 %
22.02.2018 14:59 -2,3 C 3,9 C 91 % 1017,2 hPa 0,0 l/m 13,7 km/h (3 Bft) O-NO 68 0 min 0,000 mm 0,5 UV-I 165 W/m -3,6 C -8,9 C 16,1 km/h (3 Bft) 100,00 %
22.02.2018 15:00 -2,3 C 3,9 C 91 % 1017,2 hPa 0,0 l/m 13,5 km/h (3 Bft) O 87 0 min 0,051 mm 0,5 UV-I 167 W/m -3,6 C -8,8 C 19,3 km/h (3 Bft) 100,00 %
22.02.2018 15:01 -2,3 C 3,9 C 91 % 1017,2 hPa 0,0 l/m 17,2 km/h (3 Bft) O-NO 65 0 min 0,000 mm 0,5 UV-I 167 W/m -3,6 C -11,1 C 20,9 km/h (4 Bft) 100,00 %
22.02.2018 15:02 -2,3 C 3,9 C 91 % 1017,2 hPa 0,0 l/m 14,4 km/h (3 Bft) O-NO 71 0 min 0,000 mm 0,4 UV-I 166 W/m -3,6 C -9,4 C 20,9 km/h (4 Bft) 96,15 %
22.02.2018 15:03 -2,3 C 3,9 C 91 % 1017,2 hPa 0,0 l/m 14,6 km/h (3 Bft) O 96 0 min 0,000 mm 0,0 UV-I 166 W/m -3,6 C -9,5 C 17,7 km/h (3 Bft) 96,97 %
22.02.2018 15:04 -2,3 C 3,9 C 91 % 1017,2 hPa 0,0 l/m 14,8 km/h (3 Bft) O-NO 74 0 min 0,000 mm 0,0 UV-I 166 W/m -3,6 C -9,6 C 19,3 km/h (3 Bft) 100,00 %
22.02.2018 15:05 -2,3 C 3,9 C 91 % 1017,2 hPa 0,0 l/m 13,6 km/h (3 Bft) O 82 0 min 0,000 mm 0,0 UV-I 163 W/m -3,6 C -8,8 C 16,1 km/h (3 Bft) 100,00 %
22.02.2018 15:06 -2,3 C 3,9 C 91 % 1017,2 hPa 0,0 l/m 15,9 km/h (3 Bft) O 101 0 min 0,000 mm 0,0 UV-I 162 W/m -3,6 C -10,3 C 19,3 km/h (3 Bft) 100,00 %
22.02.2018 15:07 -2,3 C 3,9 C 91 % 1017,2 hPa 0,0 l/m 16,3 km/h (3 Bft) O-NO 66 0 min 0,000 mm 0,0 UV-I 160 W/m -3,6 C -10,6 C 19,3 km/h (3 Bft) 100,00 %
22.02.2018 15:08 -2,3 C 3,9 C 91 % 1017,2 hPa 0,0 l/m 19,6 km/h (3 Bft) O-NO 67 0 min 0,000 mm 0,0 UV-I 153 W/m -3,6 C -12,4 C 22,5 km/h (4 Bft) 100,00 %
22.02.2018 15:09 -2,2 C 3,9 C 90 % 1017,2 hPa 0,0 l/m 16,4 km/h (3 Bft) O-NO 62 0 min 0,000 mm 0,0 UV-I 153 W/m -3,6 C -10,5 C 20,9 km/h (4 Bft) 100,00 %
22.02.2018 15:10 -2,3 C 3,9 C 90 % 1017,2 hPa 0,0 l/m 16,2 km/h (3 Bft) O-NO 74 0 min 0,000 mm 0,0 UV-I 150 W/m -3,7 C -10,5 C 19,3 km/h (3 Bft) 100,00 %
22.02.2018 15:11 -2,3 C 3,9 C 90 % 1017,2 hPa 0,0 l/m 13,3 km/h (3 Bft) O 88 0 min 0,000 mm 0,0 UV-I 145 W/m -3,7 C -8,6 C 16,1 km/h (3 Bft) 100,00 %
22.02.2018 15:12 -2,2 C 3,9 C 91 % 1017,2 hPa 0,0 l/m 14,4 km/h (3 Bft) O 88 0 min 0,000 mm 0,0 UV-I 151 W/m -3,5 C -9,3 C 17,7 km/h (3 Bft) 100,00 %
22.02.2018 15:13 -2,2 C 3,9 C 91 % 1017,2 hPa 0,0 l/m 16,8 km/h (3 Bft) O-NO 70 0 min 0,000 mm 0,0 UV-I 152 W/m -3,5 C -10,7 C 19,3 km/h (3 Bft) 96,15 %
22.02.2018 15:14 -2,2 C 3,9 C 91 % 1017,2 hPa 0,0 l/m 16,3 km/h (3 Bft) O-NO 74 0 min 0,000 mm 0,0 UV-I 155 W/m -3,5 C -10,5 C 19,3 km/h (3 Bft) 100,00 %
22.02.2018 15:15 -2,2 C 3,9 C 91 % 1017,2 hPa 0,0 l/m 15,4 km/h (3 Bft) O-SO 104 0 min 0,000 mm 0,0 UV-I 154 W/m -3,5 C -9,9 C 19,3 km/h (3 Bft) 85,71 %
22.02.2018 15:16 -2,2 C 3,9 C 91 % 1017,2 hPa 0,0 l/m 15,7 km/h (3 Bft) O-NO 67 0 min 0,000 mm 0,0 UV-I 150 W/m -3,5 C -10,1 C 19,3 km/h (3 Bft) 100,00 %
22.02.2018 15:17 -2,2 C 3,9 C 91 % 1017,2 hPa 0,0 l/m 13,3 km/h (3 Bft) O-NO 63 0 min 0,000 mm 0,0 UV-I 152 W/m -3,5 C -8,5 C 17,7 km/h (3 Bft) 100,00 %
22.02.2018 15:18 -2,2 C 3,9 C 91 % 1017,2 hPa 0,0 l/m 17,9 km/h (3 Bft) O-NO 74 0 min 0,000 mm 0,0 UV-I 148 W/m -3,5 C -11,4 C 20,9 km/h (4 Bft) 100,00 %
22.02.2018 15:19 -2,2 C 3,9 C 91 % 1017,2 hPa 0,0 l/m 18,0 km/h (3 Bft) O 82 0 min 0,000 mm 0,0 UV-I 146 W/m -3,5 C -11,4 C 20,9 km/h (4 Bft) 100,00 %
22.02.2018 15:20 -2,2 C 3,9 C 91 % 1017,2 hPa 0,0 l/m 15,9 km/h (3 Bft) O-NO 75 0 min 0,000 mm 0,0 UV-I 146 W/m -3,5 C -10,2 C 20,9 km/h (4 Bft) 96,30 %
22.02.2018 15:21 -2,2 C 3,9 C 91 % 1017,2 hPa 0,0 l/m 15,4 km/h (3 Bft) O 82 0 min 0,000 mm 0,0 UV-I 146 W/m -3,5 C -9,9 C 20,9 km/h (4 Bft) 100,00 %
22.02.2018 15:22 -2,2 C 3,9 C 90 % 1017,2 hPa 0,0 l/m 17,7 km/h (3 Bft) O-NO 70 0 min 0,000 mm 0,0 UV-I 143 W/m -3,6 C -11,3 C 20,9 km/h (4 Bft) 100,00 %
22.02.2018 15:23 -2,2 C 3,9 C 90 % 1017,2 hPa 0,0 l/m 15,4 km/h (3 Bft) O-NO 78 0 min 0,000 mm 0,0 UV-I 139 W/m -3,6 C -9,9 C 19,3 km/h (3 Bft) 100,00 %
22.02.2018 15:24 -2,2 C 3,9 C 91 % 1017,2 hPa 0,0 l/m 17,4 km/h (3 Bft) O 84 0 min 0,000 mm 0,0 UV-I 135 W/m -3,5 C -11,1 C 20,9 km/h (4 Bft) 100,00 %
22.02.2018 15:25 -2,2 C 3,9 C 91 % 1017,2 hPa 0,0 l/m 15,7 km/h (3 Bft) O-NO 76 0 min 0,000 mm 0,0 UV-I 134 W/m -3,5 C -10,1 C 19,3 km/h (3 Bft) 100,00 %
22.02.2018 15:26 -2,2 C 3,9 C 91 % 1017,2 hPa 0,0 l/m 13,3 km/h (3 Bft) O 92 0 min 0,000 mm 0,0 UV-I 130 W/m -3,5 C -8,5 C 17,7 km/h (3 Bft) 96,67 %
22.02.2018 15:27 -2,1 C 3,9 C 91 % 1017,2 hPa 0,0 l/m 11,7 km/h (2 Bft) O 84 0 min 0,000 mm 0,0 UV-I 126 W/m -3,4 C -7,2 C 16,1 km/h (3 Bft) 100,00 %
22.02.2018 15:28 -2,1 C 3,9 C 91 % 1017,2 hPa 0,0 l/m 15,2 km/h (3 Bft) O 80 0 min 0,000 mm 0,0 UV-I 125 W/m -3,4 C -9,7 C 19,3 km/h (3 Bft) 100,00 %
22.02.2018 15:29 -2,1 C 3,9 C 91 % 1017,2 hPa 0,0 l/m 18,2 km/h (3 Bft) O-NO 78 0 min 0,000 mm 0,0 UV-I 120 W/m -3,4 C -11,4 C 20,9 km/h (4 Bft) 100,00 %
22.02.2018 15:30 -2,1 C 3,9 C 91 % 1017,2 hPa 0,0 l/m 16,1 km/h (3 Bft) O-NO 68 0 min 0,000 mm 0,0 UV-I 120 W/m -3,4 C -10,2 C 19,3 km/h (3 Bft) 100,00 %
22.02.2018 15:31 -2,1 C 3,9 C 91 % 1017,2 hPa 0,0 l/m 18,3 km/h (3 Bft) O-NO 71 0 min 0,000 mm 0,0 UV-I 118 W/m -3,4 C -11,5 C 24,1 km/h (4 Bft) 100,00 %
22.02.2018 15:32 -2,1 C 3,9 C 91 % 1017,2 hPa 0,0 l/m 18,3 km/h (3 Bft) O-NO 69 0 min 0,000 mm 0,0 UV-I 115 W/m -3,4 C -11,5 C 20,9 km/h (4 Bft) 100,00 %
22.02.2018 15:33 -2,1 C 3,9 C 90 % 1017,2 hPa 0,0 l/m 14,8 km/h (3 Bft) O-NO 67 0 min 0,000 mm 0,0 UV-I 112 W/m -3,5 C -9,4 C 20,9 km/h (4 Bft) 100,00 %
22.02.2018 15:34 -2,1 C 3,9 C 91 % 1017,2 hPa 0,0 l/m 16,0 km/h (3 Bft) O-NO 72 0 min 0,000 mm 0,0 UV-I 107 W/m -3,4 C -10,1 C 19,3 km/h (3 Bft) 100,00 %
22.02.2018 15:35 -2,1 C 3,9 C 91 % 1017,2 hPa 0,0 l/m 16,4 km/h (3 Bft) O 82 0 min 0,000 mm 0,0 UV-I 102 W/m -3,4 C -10,4 C 20,9 km/h (4 Bft) 100,00 %
22.02.2018 15:36 -2,1 C 3,9 C 91 % 1017,2 hPa 0,0 l/m 17,4 km/h (3 Bft) O 88 0 min 0,000 mm 0,0 UV-I 99 W/m -3,4 C -11,0 C 22,5 km/h (4 Bft) 100,00 %
22.02.2018 15:37 -2,1 C 3,9 C 91 % 1017,2 hPa 0,0 l/m 17,6 km/h (3 Bft) O 86 0 min 0,000 mm 0,0 UV-I 102 W/m -3,4 C -11,1 C 20,9 km/h (4 Bft) 100,00 %
22.02.2018 15:38 -2,2 C 3,9 C 91 % 1017,2 hPa 0,0 l/m 15,1 km/h (3 Bft) O-NO 69 0 min 0,000 mm 0,0 UV-I 103 W/m -3,5 C -9,7 C 19,3 km/h (3 Bft) 92,31 %
22.02.2018 15:39 -2,2 C 3,9 C 91 % 1017,2 hPa 0,0 l/m 16,4 km/h (3 Bft) O-NO 61 0 min 0,000 mm 0,0 UV-I 104 W/m -3,5 C -10,5 C 22,5 km/h (4 Bft) 100,00 %
22.02.2018 15:40 -2,2 C 3,9 C 91 % 1017,2 hPa 0,0 l/m 13,2 km/h (3 Bft) O-NO 65 0 min 0,000 mm 0,0 UV-I 104 W/m -3,5 C -8,4 C 17,7 km/h (3 Bft) 100,00 %
22.02.2018 15:41 -2,2 C 3,9 C 91 % 1017,2 hPa 0,0 l/m 14,9 km/h (3 Bft) O-NO 67 0 min 0,000 mm 0,0 UV-I 98 W/m -3,5 C -9,6 C 19,3 km/h (3 Bft) 100,00 %
22.02.2018 15:42 -2,2 C 3,9 C 91 % 1017,3 hPa 0,0 l/m 14,5 km/h (3 Bft) O-NO 76 0 min 0,000 mm 0,0 UV-I 97 W/m -3,5 C -9,3 C 19,3 km/h (3 Bft) 100,00 %
22.02.2018 15:43 -2,2 C 3,9 C 91 % 1017,2 hPa 0,0 l/m 14,6 km/h (3 Bft) O-NO 76 0 min 0,000 mm 0,0 UV-I 95 W/m -3,5 C -9,4 C 17,7 km/h (3 Bft) 100,00 %
22.02.2018 15:44 -2,2 C 3,9 C 91 % 1017,3 hPa 0,0 l/m 15,4 km/h (3 Bft) O 84 0 min 0,000 mm 0,0 UV-I 91 W/m -3,5 C -9,9 C 19,3 km/h (3 Bft) 100,00 %
22.02.2018 15:45 -2,2 C 3,9 C 91 % 1017,2 hPa 0,0 l/m 17,6 km/h (3 Bft) O-NO 76 0 min 0,000 mm 0,0 UV-I 87 W/m -3,5 C -11,2 C 20,9 km/h (4 Bft) 93,33 %
22.02.2018 15:46 -2,2 C 3,9 C 91 % 1017,2 hPa 0,0 l/m 16,3 km/h (3 Bft) O 87 0 min 0,000 mm 0,0 UV-I 83 W/m -3,5 C -10,5 C 20,9 km/h (4 Bft) 96,15 %
22.02.2018 15:47 -2,2 C 3,9 C 91 % 1017,3 hPa 0,0 l/m 12,7 km/h (3 Bft) NO 54 0 min 0,000 mm 0,0 UV-I 84 W/m -3,5 C -8,1 C 14,5 km/h (3 Bft) 91,67 %
22.02.2018 15:48 -2,2 C 3,9 C 91 % 1017,2 hPa 0,0 l/m 10,5 km/h (2 Bft) O-NO 76 0 min 0,000 mm 0,0 UV-I 82 W/m -3,5 C -6,3 C 16,1 km/h (3 Bft) 100,00 %
22.02.2018 15:49 -2,2 C 3,9 C 91 % 1017,3 hPa 0,0 l/m 12,3 km/h (3 Bft) O-NO 68 0 min 0,000 mm 0,0 UV-I 78 W/m -3,5 C -7,8 C 17,7 km/h (3 Bft) 95,83 %
22.02.2018 15:50 -2,2 C 3,9 C 91 % 1017,3 hPa 0,0 l/m 13,9 km/h (3 Bft) NO 53 0 min 0,000 mm 0,0 UV-I 78 W/m -3,5 C -8,9 C 17,7 km/h (3 Bft) 100,00 %
22.02.2018 15:51 -2,2 C 3,9 C 91 % 1017,3 hPa 0,0 l/m 16,4 km/h (3 Bft) O 84 0 min 0,000 mm 0,0 UV-I 78 W/m -3,5 C -10,5 C 24,1 km/h (4 Bft) 91,67 %
22.02.2018 15:52 -2,2 C 3,9 C 91 % 1017,3 hPa 0,0 l/m 17,5 km/h (3 Bft) O-NO 65 0 min 0,000 mm 0,0 UV-I 76 W/m -3,5 C -11,2 C 22,5 km/h (4 Bft) 96,30 %
22.02.2018 15:53 -2,2 C 3,9 C 90 % 1017,3 hPa 0,0 l/m 18,1 km/h (3 Bft) O-NO 63 0 min 0,000 mm 0,0 UV-I 76 W/m -3,6 C -11,5 C 24,1 km/h (4 Bft) 100,00 %
22.02.2018 15:54 -2,2 C 3,9 C 90 % 1017,3 hPa 0,0 l/m 15,5 km/h (3 Bft) O 81 0 min 0,000 mm 0,0 UV-I 72 W/m -3,6 C -10,0 C 22,5 km/h (4 Bft) 100,00 %
22.02.2018 15:55 -2,2 C 3,9 C 91 % 1017,3 hPa 0,0 l/m 16,7 km/h (3 Bft) O 81 0 min 0,000 mm 0,0 UV-I 70 W/m -3,5 C -10,7 C 20,9 km/h (4 Bft) 96,15 %
22.02.2018 15:56 -2,2 C 3,9 C 91 % 1017,2 hPa 0,0 l/m 11,9 km/h (2 Bft) NO 51 0 min 0,000 mm 0,0 UV-I 70 W/m -3,5 C -7,5 C 17,7 km/h (3 Bft) 92,59 %
22.02.2018 15:57 -2,2 C 3,9 C 91 % 1017,2 hPa 0,0 l/m 13,3 km/h (3 Bft) O-NO 57 0 min 0,000 mm 0,0 UV-I 68 W/m -3,5 C -8,5 C 17,7 km/h (3 Bft) 100,00 %
22.02.2018 15:58 -2,2 C 3,9 C 91 % 1017,3 hPa 0,0 l/m 16,9 km/h (3 Bft) NO 45 0 min 0,000 mm 0,0 UV-I 67 W/m -3,5 C -10,8 C 19,3 km/h (3 Bft) 96,30 %
22.02.2018 15:59 -2,2 C 3,9 C 91 % 1017,3 hPa 0,0 l/m 17,5 km/h (3 Bft) O-NO 69 0 min 0,000 mm 0,0 UV-I 65 W/m -3,5 C -11,2 C 22,5 km/h (4 Bft) 100,00 %
22.02.2018 16:00 -2,3 C 3,9 C 91 % 1017,3 hPa 0,0 l/m 19,2 km/h (3 Bft) O-NO 61 0 min 0,000 mm 0,0 UV-I 65 W/m -3,6 C -12,2 C 22,5 km/h (4 Bft) 96,15 %
22.02.2018 16:01 -2,3 C 3,9 C 91 % 1017,3 hPa 0,0 l/m 16,9 km/h (3 Bft) O-NO 71 0 min 0,051 mm 0,0 UV-I 63 W/m -3,6 C -10,9 C 20,9 km/h (4 Bft) 100,00 %
22.02.2018 16:02 -2,3 C 3,9 C 91 % 1017,2 hPa 0,0 l/m 14,9 km/h (3 Bft) O-NO 71 0 min 0,000 mm 0,0 UV-I 61 W/m -3,6 C -9,7 C 19,3 km/h (3 Bft) 96,67 %
22.02.2018 16:03 -2,3 C 3,9 C 91 % 1017,3 hPa 0,0 l/m 15,8 km/h (3 Bft) O-NO 57 0 min 0,000 mm 0,0 UV-I 60 W/m -3,6 C -10,3 C 19,3 km/h (3 Bft) 91,30 %
22.02.2018 16:04 -2,3 C 3,9 C 91 % 1017,3 hPa 0,0 l/m 10,7 km/h (2 Bft) O-NO 73 0 min 0,000 mm 0,0 UV-I 60 W/m -3,6 C -6,6 C 16,1 km/h (3 Bft) 100,00 %
22.02.2018 16:05 -2,3 C 3,9 C 91 % 1017,2 hPa 0,0 l/m 14,9 km/h (3 Bft) O-NO 76 0 min 0,000 mm 0,0 UV-I 58 W/m -3,6 C -9,7 C 20,9 km/h (4 Bft) 95,83 %
22.02.2018 16:06 -2,3 C 3,9 C 91 % 1017,3 hPa 0,0 l/m 15,6 km/h (3 Bft) O-NO 76 0 min 0,000 mm 0,0 UV-I 56 W/m -3,6 C -10,1 C 19,3 km/h (3 Bft) 95,65 %
22.02.2018 16:07 -2,3 C 3,9 C 91 % 1017,2 hPa 0,0 l/m 14,4 km/h (3 Bft) O-NO 64 0 min 0,000 mm 0,0 UV-I 56 W/m -3,6 C -9,4 C 19,3 km/h (3 Bft) 100,00 %
22.02.2018 16:08 -2,3 C 3,9 C 91 % 1017,2 hPa 0,0 l/m 14,5 km/h (3 Bft) O-NO 69 0 min 0,000 mm 0,0 UV-I 55 W/m -3,6 C -9,4 C 17,7 km/h (3 Bft) 97,37 %
22.02.2018 16:09 -2,3 C 3,9 C 92 % 1017,3 hPa 0,0 l/m 14,1 km/h (3 Bft) O-NO 69 0 min 0,000 mm 0,0 UV-I 54 W/m -3,4 C -9,2 C 17,7 km/h (3 Bft) 95,83 %
22.02.2018 16:10 -2,3 C 3,9 C 92 % 1017,2 hPa 0,0 l/m 10,6 km/h (2 Bft) O-SO 104 0 min 0,000 mm 0,0 UV-I 54 W/m -3,4 C -6,5 C 14,5 km/h (3 Bft) 95,65 %
22.02.2018 16:11 -2,3 C 3,9 C 92 % 1017,3 hPa 0,0 l/m 12,0 km/h (2 Bft) O-NO 67 0 min 0,000 mm 0,0 UV-I 54 W/m -3,4 C -7,6 C 14,5 km/h (3 Bft) 97,89 %
22.02.2018 16:12 -2,3 C 3,3 C 92 % 1017,2 hPa 0,0 l/m 12,0 km/h (2 Bft) NO 43 0 min 0,000 mm 0,0 UV-I 53 W/m -3,4 C -7,6 C 17,7 km/h (3 Bft) 100,00 %
22.02.2018 16:13 -2,3 C 3,3 C 92 % 1017,3 hPa 0,0 l/m 11,5 km/h (2 Bft) O-NO 75 0 min 0,000 mm 0,0 UV-I 52 W/m -3,4 C -7,3 C 16,1 km/h (3 Bft) 96,30 %
22.02.2018 16:14 -2,3 C 3,3 C 92 % 1017,3 hPa 0,0 l/m 13,4 km/h (3 Bft) O-NO 67 0 min 0,000 mm 0,0 UV-I 50 W/m -3,4 C -8,7 C 16,1 km/h (3 Bft) 94,12 %
22.02.2018 16:15 -2,3 C 3,3 C 92 % 1017,3 hPa 0,0 l/m 13,3 km/h (3 Bft) O-NO 74 0 min 0,000 mm 0,0 UV-I 49 W/m -3,4 C -8,6 C 16,1 km/h (3 Bft) 100,00 %
22.02.2018 16:16 -2,3 C 3,3 C 92 % 1017,3 hPa 0,0 l/m 12,0 km/h (2 Bft) O 86 0 min 0,000 mm 0,0 UV-I 49 W/m -3,4 C -7,6 C 16,1 km/h (3 Bft) 95,65 %
22.02.2018 16:17 -2,3 C 3,3 C 92 % 1017,3 hPa 0,0 l/m 10,9 km/h (2 Bft) O 83 0 min 0,000 mm 0,0 UV-I 45 W/m -3,4 C -6,8 C 16,1 km/h (3 Bft) 100,00 %
22.02.2018 16:18 -2,3 C 3,3 C 92 % 1017,4 hPa 0,0 l/m 12,4 km/h (3 Bft) O-NO 57 0 min 0,000 mm 0,0 UV-I 44 W/m -3,4 C -8,0 C 16,1 km/h (3 Bft) 95,65 %
22.02.2018 16:19 -2,3 C 3,9 C 92 % 1017,4 hPa 0,0 l/m 11,7 km/h (2 Bft) O-NO 70 0 min 0,000 mm 0,0 UV-I 43 W/m -3,4 C -7,4 C 16,1 km/h (3 Bft) 100,00 %
22.02.2018 16:20 -2,3 C 3,9 C 92 % 1017,3 hPa 0,0 l/m 14,6 km/h (3 Bft) O 80 0 min 0,000 mm 0,0 UV-I 41 W/m -3,4 C -9,5 C 16,1 km/h (3 Bft) 97,90 %
22.02.2018 16:21 -2,3 C 3,9 C 92 % 1017,3 hPa 0,0 l/m 14,5 km/h (3 Bft) O 84 0 min 0,000 mm 0,0 UV-I 39 W/m -3,4 C -9,4 C 17,7 km/h (3 Bft) 97,37 %
22.02.2018 16:22 -2,3 C 3,9 C 92 % 1017,4 hPa 0,0 l/m 14,1 km/h (3 Bft) O-NO 76 0 min 0,000 mm 0,0 UV-I 39 W/m -3,4 C -9,2 C 17,7 km/h (3 Bft) 100,00 %
22.02.2018 16:23 -2,3 C 3,9 C 92 % 1017,4 hPa 0,0 l/m 11,9 km/h (2 Bft) O 80 0 min 0,000 mm 0,0 UV-I 37 W/m -3,4 C -7,6 C 14,5 km/h (3 Bft) 100,00 %
22.02.2018 16:24 -2,3 C 3,9 C 92 % 1017,4 hPa 0,0 l/m 9,8 km/h (2 Bft) O-NO 69 0 min 0,000 mm 0,0 UV-I 37 W/m -3,4 C -5,8 C 17,7 km/h (3 Bft) 100,00 %
22.02.2018 16:25 -2,3 C 3,9 C 92 % 1017,3 hPa 0,0 l/m 13,6 km/h (3 Bft) O-NO 64 0 min 0,000 mm 0,0 UV-I 37 W/m -3,4 C -8,8 C 17,7 km/h (3 Bft) 93,33 %
22.02.2018 16:26 -2,3 C 3,9 C 93 % 1017,3 hPa 0,0 l/m 10,2 km/h (2 Bft) O-NO 71 0 min 0,000 mm 0,0 UV-I 37 W/m -3,3 C -6,2 C 14,5 km/h (3 Bft) 96,30 %
22.02.2018 16:27 -2,3 C 3,9 C 93 % 1017,4 hPa 0,0 l/m 12,0 km/h (2 Bft) O-NO 66 0 min 0,000 mm 0,0 UV-I 37 W/m -3,3 C -7,6 C 17,7 km/h (3 Bft) 100,00 %
22.02.2018 16:28 -2,3 C 3,9 C 93 % 1017,4 hPa 0,0 l/m 10,8 km/h (2 Bft) O-NO 65 0 min 0,000 mm 0,0 UV-I 37 W/m -3,3 C -6,7 C 16,1 km/h (3 Bft) 100,00 %
22.02.2018 16:29 -2,3 C 3,9 C 93 % 1017,4 hPa 0,0 l/m 10,4 km/h (2 Bft) O-NO 61 0 min 0,000 mm 0,0 UV-I 39 W/m -3,3 C -6,3 C 14,5 km/h (3 Bft) 100,00 %
22.02.2018 16:30 -2,3 C 3,9 C 93 % 1017,4 hPa 0,0 l/m 9,5 km/h (2 Bft) O-NO 61 0 min 0,000 mm 0,0 UV-I 38 W/m -3,3 C -5,5 C 12,9 km/h (3 Bft) 100,00 %
22.02.2018 16:31 -2,4 C 3,9 C 93 % 1017,5 hPa 0,0 l/m 11,6 km/h (2 Bft) O 84 0 min 0,000 mm 0,0 UV-I 38 W/m -3,4 C -7,5 C 14,5 km/h (3 Bft) 100,00 %
22.02.2018 16:32 -2,3 C 3,9 C 93 % 1017,5 hPa 0,0 l/m 14,7 km/h (3 Bft) O-NO 71 0 min 0,000 mm 0,0 UV-I 39 W/m -3,3 C -9,6 C 17,7 km/h (3 Bft) 100,00 %
22.02.2018 16:33 -2,4 C 3,9 C 93 % 1017,5 hPa 0,0 l/m 12,9 km/h (3 Bft) O-NO 77 0 min 0,000 mm 0,0 UV-I 39 W/m -3,4 C -8,4 C 16,1 km/h (3 Bft) 100,00 %
22.02.2018 16:34 -2,4 C 3,9 C 93 % 1017,5 hPa 0,0 l/m 11,6 km/h (2 Bft) O-NO 77 0 min 0,000 mm 0,0 UV-I 39 W/m -3,4 C -7,5 C 14,5 km/h (3 Bft) 100,00 %
22.02.2018 16:35 -2,4 C 3,9 C 93 % 1017,5 hPa 0,0 l/m 12,2 km/h (2 Bft) O 88 0 min 0,000 mm 0,0 UV-I 37 W/m -3,4 C -7,9 C 14,5 km/h (3 Bft) 100,00 %
22.02.2018 16:36 -2,4 C 3,9 C 93 % 1017,5 hPa 0,0 l/m 8,3 km/h (2 Bft) O-NO 71 0 min 0,000 mm 0,0 UV-I 37 W/m -3,4 C -4,5 C 12,9 km/h (3 Bft) 100,00 %
22.02.2018 16:37 -2,4 C 3,9 C 93 % 1017,5 hPa 0,0 l/m 11,9 km/h (2 Bft) O-NO 78 0 min 0,000 mm 0,0 UV-I 37 W/m -3,4 C -7,7 C 14,5 km/h (3 Bft) 100,00 %
22.02.2018 16:38 -2,4 C 3,9 C 93 % 1017,5 hPa 0,0 l/m 13,6 km/h (3 Bft) O-NO 71 0 min 0,000 mm 0,0 UV-I 37 W/m -3,4 C -8,9 C 16,1 km/h (3 Bft) 100,00 %
22.02.2018 16:39 -2,4 C 3,9 C 93 % 1017,5 hPa 0,0 l/m 13,2 km/h (3 Bft) O-NO 77 0 min 0,000 mm 0,0 UV-I 37 W/m -3,4 C -8,7 C 16,1 km/h (3 Bft) 100,00 %
22.02.2018 16:40 -2,4 C 3,9 C 93 % 1017,5 hPa 0,0 l/m 15,0 km/h (3 Bft) O 80 0 min 0,000 mm 0,0 UV-I 35 W/m -3,4 C -9,9 C 17,7 km/h (3 Bft) 100,00 %
22.02.2018 16:41 -2,4 C 3,9 C 93 % 1017,5 hPa 0,0 l/m 13,5 km/h (3 Bft) O-NO 65 0 min 0,000 mm 0,0 UV-I 35 W/m -3,4 C -8,9 C 16,1 km/h (3 Bft) 100,00 %
22.02.2018 16:42 -2,4 C 3,9 C 93 % 1017,5 hPa 0,0 l/m 15,4 km/h (3 Bft) NO 54 0 min 0,000 mm 0,0 UV-I 35 W/m -3,4 C -10,1 C 19,3 km/h (3 Bft) 100,00 %
22.02.2018 16:43 -2,4 C 3,9 C 93 % 1017,5 hPa 0,0 l/m 9,5 km/h (2 Bft) O-NO 74 0 min 0,000 mm 0,0 UV-I 34 W/m -3,4 C -5,6 C 12,9 km/h (3 Bft) 100,00 %
22.02.2018 16:44 -2,4 C 3,9 C 93 % 1017,5 hPa 0,0 l/m 10,1 km/h (2 Bft) O-NO 71 0 min 0,000 mm 0,0 UV-I 32 W/m -3,4 C -6,2 C 14,5 km/h (3 Bft) 100,00 %
22.02.2018 16:45 -2,4 C 3,9 C 93 % 1017,6 hPa 0,0 l/m 12,4 km/h (3 Bft) O-NO 63 0 min 0,000 mm 0,0 UV-I 32 W/m -3,4 C -8,1 C 17,7 km/h (3 Bft) 100,00 %
22.02.2018 16:46 -2,4 C 3,9 C 93 % 1017,6 hPa 0,0 l/m 13,1 km/h (3 Bft) O 94 0 min 0,000 mm 0,0 UV-I 30 W/m -3,4 C -8,6 C 19,3 km/h (3 Bft) 100,00 %
22.02.2018 16:47 -2,4 C 3,9 C 93 % 1017,6 hPa 0,0 l/m 13,5 km/h (3 Bft) O 92 0 min 0,000 mm 0,0 UV-I 29 W/m -3,4 C -8,9 C 16,1 km/h (3 Bft) 97,95 %
22.02.2018 16:48 -2,4 C 3,9 C 93 % 1017,6 hPa 0,0 l/m 10,5 km/h (2 Bft) O-NO 78 0 min 0,000 mm 0,0 UV-I 28 W/m -3,4 C -6,5 C 19,3 km/h (3 Bft) 100,00 %
22.02.2018 16:49 -2,4 C 3,9 C 93 % 1017,6 hPa 0,0 l/m 16,0 km/h (3 Bft) O 87 0 min 0,000 mm 0,0 UV-I 27 W/m -3,4 C -10,5 C 17,7 km/h (3 Bft) 100,00 %
22.02.2018 16:50 -2,5 C 3,9 C 93 % 1017,6 hPa 0,0 l/m 14,7 km/h (3 Bft) O-NO 70 0 min 0,000 mm 0,0 UV-I 26 W/m -3,5 C -9,8 C 17,7 km/h (3 Bft) 100,00 %
22.02.2018 16:51 -2,5 C 3,9 C 93 % 1017,6 hPa 0,0 l/m 14,3 km/h (3 Bft) O-NO 76 0 min 0,000 mm 0,0 UV-I 26 W/m -3,5 C -9,5 C 19,3 km/h (3 Bft) 100,00 %
22.02.2018 16:52 -2,5 C 3,9 C 93 % 1017,6 hPa 0,0 l/m 12,3 km/h (3 Bft) O 92 0 min 0,000 mm 0,0 UV-I 25 W/m -3,5 C -8,1 C 17,7 km/h (3 Bft) 100,00 %
22.02.2018 16:53 -2,5 C 3,9 C 93 % 1017,5 hPa 0,0 l/m 13,1 km/h (3 Bft) NO 56 0 min 0,000 mm 0,0 UV-I 25 W/m -3,5 C -8,7 C 17,7 km/h (3 Bft) 100,00 %
22.02.2018 16:54 -2,5 C 3,9 C 93 % 1017,6 hPa 0,0 l/m 15,3 km/h (3 Bft) O 85 0 min 0,000 mm 0,0 UV-I 24 W/m -3,5 C -10,2 C 19,3 km/h (3 Bft) 100,00 %
22.02.2018 16:55 -2,5 C 3,9 C 93 % 1017,6 hPa 0,0 l/m 15,6 km/h (3 Bft) O 80 0 min 0,000 mm 0,0 UV-I 23 W/m -3,5 C -10,4 C 19,3 km/h (3 Bft) 100,00 %
22.02.2018 16:56 -2,5 C 3,3 C 94 % 1017,6 hPa 0,0 l/m 11,4 km/h (2 Bft) O 96 0 min 0,000 mm 0,0 UV-I 21 W/m -3,3 C -7,4 C 14,5 km/h (3 Bft) 100,00 %
22.02.2018 16:57 -2,5 C 3,3 C 94 % 1017,6 hPa 0,0 l/m 12,0 km/h (2 Bft) O-NO 71 0 min 0,000 mm 0,0 UV-I 21 W/m -3,3 C -7,9 C 16,1 km/h (3 Bft) 100,00 %
22.02.2018 16:58 -2,5 C 3,3 C 94 % 1017,6 hPa 0,0 l/m 11,6 km/h (2 Bft) O-NO 67 0 min 0,000 mm 0,0 UV-I 21 W/m -3,3 C -7,6 C 16,1 km/h (3 Bft) 100,00 %
22.02.2018 16:59 -2,5 C 3,3 C 94 % 1017,6 hPa 0,0 l/m 11,7 km/h (2 Bft) O-NO 71 0 min 0,000 mm 0,0 UV-I 21 W/m -3,3 C -7,6 C 17,7 km/h (3 Bft) 100,00 %
22.02.2018 17:00 -2,5 C 3,3 C 94 % 1017,6 hPa 0,0 l/m 15,0 km/h (3 Bft) O-NO 73 0 min 0,000 mm 0,0 UV-I 20 W/m -3,3 C -10,0 C 16,1 km/h (3 Bft) 100,00 %
22.02.2018 17:01 -2,5 C 3,3 C 94 % 1017,5 hPa 0,0 l/m 12,5 km/h (3 Bft) O 81 0 min 0,025 mm 0,0 UV-I 19 W/m -3,3 C -8,3 C 16,1 km/h (3 Bft) 100,00 %
22.02.2018 17:02 -2,5 C 3,3 C 94 % 1017,6 hPa 0,0 l/m 13,2 km/h (3 Bft) O-NO 71 0 min 0,000 mm 0,0 UV-I 19 W/m -3,3 C -8,8 C 17,7 km/h (3 Bft) 100,00 %
22.02.2018 17:03 -2,5 C 3,3 C 94 % 1017,5 hPa 0,0 l/m 13,9 km/h (3 Bft) O 92 0 min 0,000 mm 0,0 UV-I 19 W/m -3,3 C -9,3 C 17,7 km/h (3 Bft) 91,67 %
22.02.2018 17:04 -2,5 C 3,3 C 94 % 1017,6 hPa 0,0 l/m 14,1 km/h (3 Bft) O-NO 75 0 min 0,000 mm 0,0 UV-I 19 W/m -3,3 C -9,4 C 17,7 km/h (3 Bft) 96,30 %
22.02.2018 17:05 -2,5 C 3,3 C 94 % 1017,5 hPa 0,0 l/m 12,9 km/h (3 Bft) O-NO 71 0 min 0,000 mm 0,0 UV-I 19 W/m -3,3 C -8,6 C 16,1 km/h (3 Bft) 100,00 %
22.02.2018 17:06 -2,5 C 3,3 C 94 % 1017,5 hPa 0,0 l/m 14,4 km/h (3 Bft) O 79 0 min 0,000 mm 0,0 UV-I 19 W/m -3,3 C -9,6 C 17,7 km/h (3 Bft) 100,00 %
22.02.2018 17:07 -2,5 C 3,3 C 94 % 1017,5 hPa 0,0 l/m 13,9 km/h (3 Bft) O-NO 63 0 min 0,000 mm 0,0 UV-I 19 W/m -3,3 C -9,3 C 17,7 km/h (3 Bft) 92,86 %
22.02.2018 17:08 -2,6 C 3,3 C 94 % 1017,5 hPa 0,0 l/m 15,2 km/h (3 Bft) O 83 0 min 0,000 mm 0,0 UV-I 19 W/m -3,4 C -10,3 C 19,3 km/h (3 Bft) 100,00 %
22.02.2018 17:09 -2,6 C 3,3 C 94 % 1017,5 hPa 0,0 l/m 17,4 km/h (3 Bft) O 88 0 min 0,000 mm 0,0 UV-I 19 W/m -3,4 C -11,6 C 19,3 km/h (3 Bft) 100,00 %
22.02.2018 17:10 -2,6 C 3,3 C 94 % 1017,5 hPa 0,0 l/m 18,9 km/h (3 Bft) O-NO 69 0 min 0,000 mm 0,0 UV-I 18 W/m -3,4 C -12,4 C 20,9 km/h (4 Bft) 100,00 %
22.02.2018 17:11 -2,6 C 3,3 C 94 % 1017,5 hPa 0,0 l/m 17,1 km/h (3 Bft) O-NO 76 0 min 0,000 mm 0,0 UV-I 18 W/m -3,4 C -11,4 C 20,9 km/h (4 Bft) 100,00 %
22.02.2018 17:12 -2,6 C 3,3 C 94 % 1017,5 hPa 0,0 l/m 19,5 km/h (3 Bft) O-NO 72 0 min 0,000 mm 0,0 UV-I 18 W/m -3,4 C -12,7 C 22,5 km/h (4 Bft) 100,00 %
22.02.2018 17:13 -2,6 C 3,3 C 94 % 1017,5 hPa 0,0 l/m 18,7 km/h (3 Bft) O-NO 64 0 min 0,000 mm 0,0 UV-I 17 W/m -3,4 C -12,3 C 22,5 km/h (4 Bft) 100,00 %
22.02.2018 17:14 -2,6 C 3,3 C 94 % 1017,4 hPa 0,0 l/m 17,5 km/h (3 Bft) O-NO 69 0 min 0,000 mm 0,0 UV-I 16 W/m -3,4 C -11,7 C 20,9 km/h (4 Bft) 100,00 %
22.02.2018 17:15 -2,6 C 3,3 C 94 % 1017,4 hPa 0,0 l/m 14,5 km/h (3 Bft) O-NO 68 0 min 0,000 mm 0,0 UV-I 16 W/m -3,4 C -9,8 C 19,3 km/h (3 Bft) 100,00 %
22.02.2018 17:16 -2,5 C 3,3 C 94 % 1017,4 hPa 0,0 l/m 17,5 km/h (3 Bft) O 90 0 min 0,000 mm 0,0 UV-I 16 W/m -3,3 C -11,5 C 20,9 km/h (4 Bft) 100,00 %
22.02.2018 17:17 -2,6 C 3,3 C 94 % 1017,4 hPa 0,0 l/m 18,9 km/h (3 Bft) O 79 0 min 0,000 mm 0,0 UV-I 16 W/m -3,4 C -12,4 C 24,1 km/h (4 Bft) 100,00 %
22.02.2018 17:18 -2,6 C 3,3 C 94 % 1017,4 hPa 0,0 l/m 18,8 km/h (3 Bft) O-NO 78 0 min 0,000 mm 0,0 UV-I 16 W/m -3,4 C -12,4 C 24,1 km/h (4 Bft) 100,00 %
22.02.2018 17:19 -2,6 C 3,9 C 94 % 1017,5 hPa 0,0 l/m 20,4 km/h (4 Bft) O-NO 73 0 min 0,000 mm 0,0 UV-I 16 W/m -3,4 C -13,2 C 25,7 km/h (4 Bft) 100,00 %
22.02.2018 17:20 -2,6 C 3,9 C 94 % 1017,4 hPa 0,0 l/m 15,2 km/h (3 Bft) O 90 0 min 0,000 mm 0,0 UV-I 16 W/m -3,4 C -10,3 C 17,7 km/h (3 Bft) 100,00 %
22.02.2018 17:21 -2,6 C 3,9 C 94 % 1017,5 hPa 0,0 l/m 16,0 km/h (3 Bft) O-NO 68 0 min 0,000 mm 0,0 UV-I 16 W/m -3,4 C -10,8 C 20,9 km/h (4 Bft) 100,00 %
22.02.2018 17:22 -2,6 C 3,9 C 94 % 1017,5 hPa 0,0 l/m 18,5 km/h (3 Bft) O-NO 78 0 min 0,000 mm 0,0 UV-I 14 W/m -3,4 C -12,2 C 20,9 km/h (4 Bft) 100,00 %
22.02.2018 17:23 -2,6 C 3,9 C 94 % 1017,5 hPa 0,0 l/m 19,4 km/h (3 Bft) O-NO 69 0 min 0,000 mm 0,0 UV-I 13 W/m -3,4 C -12,7 C 22,5 km/h (4 Bft) 100,00 %
22.02.2018 17:24 -2,6 C 3,9 C 94 % 1017,5 hPa 0,0 l/m 18,7 km/h (3 Bft) O-NO 76 1 min 0,000 mm 0,0 UV-I 12 W/m -3,4 C -12,3 C 22,5 km/h (4 Bft) 96,15 %
22.02.2018 17:25 -2,6 C 3,9 C 94 % 1017,5 hPa 0,0 l/m 17,1 km/h (3 Bft) O-NO 62 1 min 0,000 mm 0,0 UV-I 12 W/m -3,4 C -11,4 C 20,9 km/h (4 Bft) 100,00 %
22.02.2018 17:26 -2,6 C 3,9 C 94 % 1017,5 hPa 0,0 l/m 16,8 km/h (3 Bft) O 81 1 min 0,000 mm 0,0 UV-I 11 W/m -3,4 C -11,2 C 20,9 km/h (4 Bft) 100,00 %
22.02.2018 17:27 -2,6 C 3,9 C 94 % 1017,5 hPa 0,0 l/m 16,4 km/h (3 Bft) O-NO 76 0 min 0,000 mm 0,0 UV-I 11 W/m -3,4 C -11,0 C 20,9 km/h (4 Bft) 93,33 %
22.02.2018 17:28 -2,6 C 3,9 C 94 % 1017,5 hPa 0,0 l/m 15,5 km/h (3 Bft) O-NO 76 0 min 0,000 mm 0,0 UV-I 10 W/m -3,4 C -10,5 C 19,3 km/h (3 Bft) 91,30 %
22.02.2018 17:29 -2,6 C 3,9 C 94 % 1017,6 hPa 0,0 l/m 14,6 km/h (3 Bft) O-NO 69 0 min 0,000 mm 0,0 UV-I 9 W/m -3,4 C -9,9 C 19,3 km/h (3 Bft) 100,00 %
22.02.2018 17:30 -2,6 C 3,3 C 94 % 1017,6 hPa 0,0 l/m 14,1 km/h (3 Bft) O 86 0 min 0,000 mm 0,0 UV-I 9 W/m -3,4 C -9,5 C 17,7 km/h (3 Bft) 96,15 %
22.02.2018 17:31 -2,6 C 3,9 C 94 % 1017,6 hPa 0,0 l/m 15,9 km/h (3 Bft) O-NO 63 0 min 0,000 mm 0,0 UV-I 7 W/m -3,4 C -10,7 C 19,3 km/h (3 Bft) 100,00 %
22.02.2018 17:32 -2,6 C 3,9 C 94 % 1017,6 hPa 0,0 l/m 14,8 km/h (3 Bft) O-NO 69 0 min 0,000 mm 0,0 UV-I 7 W/m -3,4 C -10,0 C 17,7 km/h (3 Bft) 100,00 %
22.02.2018 17:33 -2,6 C 3,9 C 94 % 1017,6 hPa 0,0 l/m 12,3 km/h (3 Bft) O-NO 76 0 min 0,000 mm 0,0 UV-I 7 W/m -3,4 C -8,2 C 14,5 km/h (3 Bft) 100,00 %
22.02.2018 17:34 -2,6 C 3,9 C 94 % 1017,6 hPa 0,0 l/m 13,1 km/h (3 Bft) O 81 0 min 0,000 mm 0,0 UV-I 7 W/m -3,4 C -8,8 C 19,3 km/h (3 Bft) 96,55 %
22.02.2018 17:35 -2,6 C 3,9 C 94 % 1017,7 hPa 0,0 l/m 13,7 km/h (3 Bft) O-NO 68 0 min 0,000 mm 0,0 UV-I 7 W/m -3,4 C -9,3 C 16,1 km/h (3 Bft) 100,00 %
22.02.2018 17:36 -2,6 C 3,9 C 94 % 1017,6 hPa 0,0 l/m 12,1 km/h (2 Bft) O 82 0 min 0,000 mm 0,0 UV-I 7 W/m -3,4 C -8,1 C 14,5 km/h (3 Bft) 100,00 %
22.02.2018 17:37 -2,6 C 3,9 C 94 % 1017,7 hPa 0,0 l/m 12,9 km/h (3 Bft) O 88 0 min 0,000 mm 0,0 UV-I 5 W/m -3,4 C -8,7 C 16,1 km/h (3 Bft) 100,00 %
22.02.2018 17:38 -2,6 C 3,3 C 94 % 1017,7 hPa 0,0 l/m 15,0 km/h (3 Bft) O 82 0 min 0,000 mm 0,0 UV-I 5 W/m -3,4 C -10,1 C 17,7 km/h (3 Bft) 100,00 %
22.02.2018 17:39 -2,6 C 3,3 C 94 % 1017,7 hPa 0,0 l/m 13,3 km/h (3 Bft) O 87 0 min 0,000 mm 0,0 UV-I 5 W/m -3,4 C -9,0 C 17,7 km/h (3 Bft) 100,00 %
22.02.2018 17:40 -2,6 C 3,3 C 94 % 1017,7 hPa 0,0 l/m 12,8 km/h (3 Bft) O-SO 107 0 min 0,000 mm 0,0 UV-I 5 W/m -3,4 C -8,6 C 16,1 km/h (3 Bft) 100,00 %
22.02.2018 17:41 -2,6 C 3,3 C 94 % 1017,6 hPa 0,0 l/m 15,2 km/h (3 Bft) O-NO 74 0 min 0,000 mm 0,0 UV-I 5 W/m -3,4 C -10,3 C 17,7 km/h (3 Bft) 96,15 %
22.02.2018 17:42 -2,6 C 3,3 C 94 % 1017,7 hPa 0,0 l/m 13,8 km/h (3 Bft) O-NO 68 0 min 0,000 mm 0,0 UV-I 5 W/m -3,4 C -9,3 C 17,7 km/h (3 Bft) 96,88 %
22.02.2018 17:43 -2,6 C 3,3 C 94 % 1017,6 hPa 0,0 l/m 15,1 km/h (3 Bft) O-NO 67 0 min 0,000 mm 0,0 UV-I 5 W/m -3,4 C -10,2 C 19,3 km/h (3 Bft) 94,44 %
22.02.2018 17:44 -2,6 C 3,3 C 94 % 1017,6 hPa 0,0 l/m 13,9 km/h (3 Bft) O-NO 64 0 min 0,000 mm 0,0 UV-I 5 W/m -3,4 C -9,4 C 17,7 km/h (3 Bft) 96,30 %
22.02.2018 17:45 -2,7 C 3,3 C 94 % 1017,7 hPa 0,0 l/m 14,7 km/h (3 Bft) O 81 0 min 0,000 mm 0,0 UV-I 3 W/m -3,5 C -10,1 C 17,7 km/h (3 Bft) 100,00 %
22.02.2018 17:46 -2,6 C 3,3 C 94 % 1017,7 hPa 0,0 l/m 14,4 km/h (3 Bft) O-NO 70 0 min 0,000 mm 0,0 UV-I 0 W/m -3,4 C -9,7 C 17,7 km/h (3 Bft) 91,67 %
22.02.2018 17:47 -2,6 C 3,3 C 94 % 1017,7 hPa 0,0 l/m 14,4 km/h (3 Bft) O 82 0 min 0,000 mm 0,0 UV-I 0 W/m -3,4 C -9,7 C 17,7 km/h (3 Bft) 92,86 %
22.02.2018 17:48 -2,6 C 3,9 C 94 % 1017,7 hPa 0,0 l/m 12,2 km/h (2 Bft) O-NO 69 0 min 0,000 mm 0,0 UV-I 0 W/m -3,4 C -8,2 C 16,1 km/h (3 Bft) 91,67 %
22.02.2018 17:49 -2,6 C 3,3 C 94 % 1017,7 hPa 0,0 l/m 16,3 km/h (3 Bft) O 95 0 min 0,000 mm 0,0 UV-I 0 W/m -3,4 C -10,9 C 20,9 km/h (4 Bft) 96,15 %
22.02.2018 17:50 -2,6 C 3,3 C 94 % 1017,6 hPa 0,0 l/m 12,5 km/h (3 Bft) O-NO 76 0 min 0,000 mm 0,0 UV-I 0 W/m -3,4 C -8,4 C 16,1 km/h (3 Bft) 95,83 %
22.02.2018 17:51 -2,6 C 3,3 C 94 % 1017,6 hPa 0,0 l/m 14,4 km/h (3 Bft) O 94 0 min 0,000 mm 0,0 UV-I 0 W/m -3,4 C -9,7 C 19,3 km/h (3 Bft) 88,46 %
22.02.2018 17:52 -2,6 C 3,3 C 94 % 1017,7 hPa 0,0 l/m 11,5 km/h (2 Bft) O-SO 109 0 min 0,000 mm 0,0 UV-I 0 W/m -3,4 C -7,6 C 17,7 km/h (3 Bft) 100,00 %
22.02.2018 17:53 -2,6 C 3,3 C 94 % 1017,7 hPa 0,0 l/m 14,7 km/h (3 Bft) O-NO 67 0 min 0,000 mm 0,0 UV-I 0 W/m -3,4 C -9,9 C 19,3 km/h (3 Bft) 91,30 %
22.02.2018 17:54 -2,6 C 3,3 C 94 % 1017,7 hPa 0,0 l/m 12,7 km/h (3 Bft) O 87 0 min 0,000 mm 0,0 UV-I 0 W/m -3,4 C -8,5 C 16,1 km/h (3 Bft) 96,30 %
22.02.2018 17:55 -2,6 C 3,3 C 94 % 1017,7 hPa 0,0 l/m 12,1 km/h (2 Bft) O-SO 106 0 min 0,000 mm 0,0 UV-I 0 W/m -3,4 C -8,1 C 16,1 km/h (3 Bft) 92,86 %
22.02.2018 17:56 -2,7 C 3,9 C 94 % 1017,7 hPa 0,0 l/m 11,5 km/h (2 Bft) O 82 0 min 0,000 mm 0,0 UV-I 0 W/m -3,5 C -7,7 C 16,1 km/h (3 Bft) 96,30 %
22.02.2018 17:57 -2,6 C 3,9 C 94 % 1017,7 hPa 0,0 l/m 10,2 km/h (2 Bft) O-NO 67 0 min 0,000 mm 0,0 UV-I 0 W/m -3,4 C -6,5 C 12,9 km/h (3 Bft) 96,15 %
22.02.2018 17:58 -2,6 C 3,9 C 94 % 1017,7 hPa 0,0 l/m 10,6 km/h (2 Bft) O-SO 105 0 min 0,000 mm 0,0 UV-I 0 W/m -3,4 C -6,8 C 14,5 km/h (3 Bft) 96,30 %
22.02.2018 17:59 -2,6 C 3,9 C 94 % 1017,7 hPa 0,0 l/m 9,0 km/h (2 Bft) NO 49 0 min 0,000 mm 0,0 UV-I 0 W/m -3,4 C -5,4 C 11,3 km/h (2 Bft) 91,67 %
22.02.2018 18:00 -2,6 C 3,9 C 94 % 1017,7 hPa 0,0 l/m 10,2 km/h (2 Bft) O-NO 78 0 min 0,000 mm 0,0 UV-I 0 W/m -3,4 C -6,5 C 14,5 km/h (3 Bft) 93,10 %
22.02.2018 18:01 -2,6 C 3,9 C 94 % 1017,7 hPa 0,0 l/m 9,5 km/h (2 Bft) O-NO 69 0 min 0,000 mm 0,0 UV-I 0 W/m -3,4 C -5,9 C 16,1 km/h (3 Bft) 95,83 %
22.02.2018 18:02 -2,6 C 3,9 C 94 % 1017,7 hPa 0,0 l/m 12,1 km/h (2 Bft) O-NO 70 0 min 0,000 mm 0,0 UV-I 0 W/m -3,4 C -8,1 C 16,1 km/h (3 Bft) 91,30 %
22.02.2018 18:03 -2,6 C 3,3 C 94 % 1017,7 hPa 0,0 l/m 12,1 km/h (2 Bft) O-NO 71 0 min 0,000 mm 0,0 UV-I 0 W/m -3,4 C -8,1 C 17,7 km/h (3 Bft) 96,30 %
22.02.2018 18:04 -2,6 C 3,3 C 94 % 1017,7 hPa 0,0 l/m 15,0 km/h (3 Bft) O 81 0 min 0,000 mm 0,0 UV-I 0 W/m -3,4 C -10,1 C 17,7 km/h (3 Bft) 90,91 %
22.02.2018 18:05 -2,6 C 3,3 C 94 % 1017,7 hPa 0,0 l/m 14,1 km/h (3 Bft) O 94 0 min 0,000 mm 0,0 UV-I 0 W/m -3,4 C -9,5 C 16,1 km/h (3 Bft) 96,30 %
22.02.2018 18:06 -2,6 C 3,3 C 94 % 1017,7 hPa 0,0 l/m 14,0 km/h (3 Bft) O-NO 64 0 min 0,000 mm 0,0 UV-I 0 W/m -3,4 C -9,5 C 16,1 km/h (3 Bft) 94,44 %
22.02.2018 18:07 -2,6 C 3,3 C 94 % 1017,7 hPa 0,0 l/m 12,9 km/h (3 Bft) O 99 0 min 0,000 mm 0,0 UV-I 0 W/m -3,4 C -8,7 C 16,1 km/h (3 Bft) 96,15 %
22.02.2018 18:08 -2,6 C 3,3 C 94 % 1017,7 hPa 0,0 l/m 12,8 km/h (3 Bft) O-NO 70 0 min 0,000 mm 0,0 UV-I 0 W/m -3,4 C -8,6 C 16,1 km/h (3 Bft) 88,46 %
22.02.2018 18:09 -2,6 C 3,3 C 94 % 1017,7 hPa 0,0 l/m 14,8 km/h (3 Bft) O 94 0 min 0,000 mm 0,0 UV-I 0 W/m -3,4 C -10,0 C 19,3 km/h (3 Bft) 96,30 %
22.02.2018 18:10 -2,6 C 3,3 C 94 % 1017,7 hPa 0,0 l/m 11,3 km/h (2 Bft) O-NO 61 0 min 0,000 mm 0,0 UV-I 0 W/m -3,4 C -7,4 C 16,1 km/h (3 Bft) 92,31 %
22.02.2018 18:11 -2,6 C 3,3 C 94 % 1017,8 hPa 0,0 l/m 14,6 km/h (3 Bft) O 94 0 min 0,000 mm 0,0 UV-I 0 W/m -3,4 C -9,9 C 20,9 km/h (4 Bft) 95,83 %
22.02.2018 18:12 -2,6 C 3,3 C 94 % 1017,7 hPa 0,0 l/m 15,0 km/h (3 Bft) O 82 0 min 0,000 mm 0,0 UV-I 0 W/m -3,4 C -10,1 C 19,3 km/h (3 Bft) 92,31 %
22.02.2018 18:13 -2,6 C 3,3 C 94 % 1017,7 hPa 0,0 l/m 16,3 km/h (3 Bft) O 92 0 min 0,000 mm 0,0 UV-I 0 W/m -3,4 C -10,9 C 19,3 km/h (3 Bft) 100,00 %
22.02.2018 18:14 -2,6 C 3,3 C 94 % 1017,7 hPa 0,0 l/m 15,8 km/h (3 Bft) O 98 0 min 0,000 mm 0,0 UV-I 0 W/m -3,4 C -10,6 C 19,3 km/h (3 Bft) 96,30 %
22.02.2018 18:15 -2,6 C 3,3 C 94 % 1017,7 hPa 0,0 l/m 15,4 km/h (3 Bft) O 90 0 min 0,000 mm 0,0 UV-I 0 W/m -3,4 C -10,4 C 17,7 km/h (3 Bft) 92,59 %
22.02.2018 18:16 -2,6 C 3,3 C 94 % 1017,7 hPa 0,0 l/m 11,2 km/h (2 Bft) O-NO 65 0 min 0,000 mm 0,0 UV-I 0 W/m -3,4 C -7,4 C 19,3 km/h (3 Bft) 95,65 %
22.02.2018 18:17 -2,6 C 3,3 C 94 % 1017,7 hPa 0,0 l/m 16,3 km/h (3 Bft) O-NO 77 0 min 0,000 mm 0,0 UV-I 0 W/m -3,4 C -10,9 C 19,3 km/h (3 Bft) 96,30 %
22.02.2018 18:18 -2,7 C 3,3 C 94 % 1017,7 hPa 0,0 l/m 16,2 km/h (3 Bft) O 91 0 min 0,000 mm 0,0 UV-I 0 W/m -3,5 C -11,0 C 22,5 km/h (4 Bft) 91,30 %
22.02.2018 18:19 -2,7 C 3,3 C 94 % 1017,7 hPa 0,0 l/m 14,8 km/h (3 Bft) O-SO 110 0 min 0,000 mm 0,0 UV-I 0 W/m -3,5 C -10,1 C 22,5 km/h (4 Bft) 97,89 %
22.02.2018 18:20 -2,7 C 3,3 C 94 % 1017,7 hPa 0,0 l/m 16,7 km/h (3 Bft) O 90 0 min 0,000 mm 0,0 UV-I 0 W/m -3,5 C -11,3 C 22,5 km/h (4 Bft) 95,24 %
22.02.2018 18:21 -2,7 C 3,3 C 94 % 1017,7 hPa 0,0 l/m 15,4 km/h (3 Bft) NO 54 0 min 0,000 mm 0,0 UV-I 0 W/m -3,5 C -10,5 C 20,9 km/h (4 Bft) 96,55 %
22.02.2018 18:22 -2,7 C 3,3 C 94 % 1017,7 hPa 0,0 l/m 14,7 km/h (3 Bft) O 80 0 min 0,000 mm 0,0 UV-I 0 W/m -3,5 C -10,1 C 17,7 km/h (3 Bft) 100,00 %
22.02.2018 18:23 -2,7 C 3,3 C 94 % 1017,7 hPa 0,0 l/m 13,0 km/h (3 Bft) O 85 0 min 0,000 mm 0,0 UV-I 0 W/m -3,5 C -8,9 C 16,1 km/h (3 Bft) 93,33 %
22.02.2018 18:24 -2,7 C 3,3 C 94 % 1017,7 hPa 0,0 l/m 16,3 km/h (3 Bft) O-NO 78 0 min 0,000 mm 0,0 UV-I 0 W/m -3,5 C -11,1 C 22,5 km/h (4 Bft) 100,00 %
22.02.2018 18:25 -2,7 C 3,3 C 94 % 1017,7 hPa 0,0 l/m 15,0 km/h (3 Bft) O-NO 67 0 min 0,000 mm 0,0 UV-I 0 W/m -3,5 C -10,3 C 17,7 km/h (3 Bft) 95,65 %
22.02.2018 18:26 -2,7 C 3,3 C 94 % 1017,7 hPa 0,0 l/m 16,0 km/h (3 Bft) O 87 0 min 0,000 mm 0,0 UV-I 0 W/m -3,5 C -10,9 C 19,3 km/h (3 Bft) 96,30 %
22.02.2018 18:27 -2,7 C 3,3 C 94 % 1017,7 hPa 0,0 l/m 16,9 km/h (3 Bft) NO 43 0 min 0,000 mm 0,0 UV-I 0 W/m -3,5 C -11,4 C 19,3 km/h (3 Bft) 100,00 %
22.02.2018 18:28 -2,7 C 3,3 C 94 % 1017,7 hPa 0,0 l/m 14,7 km/h (3 Bft) O-NO 77 0 min 0,000 mm 0,0 UV-I 0 W/m -3,5 C -10,1 C 17,7 km/h (3 Bft) 96,30 %
22.02.2018 18:29 -2,7 C 3,3 C 94 % 1017,7 hPa 0,0 l/m 18,0 km/h (3 Bft) O-NO 71 0 min 0,000 mm 0,0 UV-I 0 W/m -3,5 C -12,1 C 24,1 km/h (4 Bft) 100,00 %
22.02.2018 18:30 -2,7 C 3,3 C 94 % 1017,8 hPa 0,0 l/m 16,0 km/h (3 Bft) NO 55 0 min 0,000 mm 0,0 UV-I 0 W/m -3,5 C -10,9 C 20,9 km/h (4 Bft) 93,33 %
22.02.2018 18:31 -2,7 C 3,3 C 94 % 1017,8 hPa 0,0 l/m 14,9 km/h (3 Bft) O-NO 68 0 min 0,000 mm 0,0 UV-I 0 W/m -3,5 C -10,2 C 19,3 km/h (3 Bft) 100,00 %
22.02.2018 18:32 -2,7 C 3,3 C 94 % 1017,8 hPa 0,0 l/m 14,7 km/h (3 Bft) O-NO 65 0 min 0,000 mm 0,0 UV-I 0 W/m -3,5 C -10,1 C 17,7 km/h (3 Bft) 93,33 %
22.02.2018 18:33 -2,7 C 3,3 C 94 % 1017,8 hPa 0,0 l/m 14,4 km/h (3 Bft) O 83 0 min 0,000 mm 0,0 UV-I 0 W/m -3,5 C -9,9 C 17,7 km/h (3 Bft) 100,00 %
22.02.2018 18:34 -2,7 C 3,3 C 94 % 1017,8 hPa 0,0 l/m 13,7 km/h (3 Bft) NO 53 0 min 0,000 mm 0,0 UV-I 0 W/m -3,5 C -9,4 C 16,1 km/h (3 Bft) 96,30 %
22.02.2018 18:35 -2,7 C 3,3 C 94 % 1017,8 hPa 0,0 l/m 17,9 km/h (3 Bft) O 79 0 min 0,000 mm 0,0 UV-I 0 W/m -3,5 C -12,0 C 25,7 km/h (4 Bft) 96,55 %
22.02.2018 18:36 -2,7 C 3,3 C 94 % 1017,8 hPa 0,0 l/m 14,7 km/h (3 Bft) O-NO 58 0 min 0,000 mm 0,0 UV-I 0 W/m -3,5 C -10,1 C 17,7 km/h (3 Bft) 100,00 %
22.02.2018 18:37 -2,7 C 3,3 C 94 % 1017,8 hPa 0,0 l/m 15,0 km/h (3 Bft) O 93 0 min 0,000 mm 0,0 UV-I 0 W/m -3,5 C -10,3 C 19,3 km/h (3 Bft) 96,55 %
22.02.2018 18:38 -2,7 C 3,3 C 94 % 1017,9 hPa 0,0 l/m 17,2 km/h (3 Bft) O-NO 74 0 min 0,000 mm 0,0 UV-I 0 W/m -3,5 C -11,6 C 19,3 km/h (3 Bft) 100,00 %
22.02.2018 18:39 -2,7 C 3,3 C 94 % 1017,9 hPa 0,0 l/m 15,4 km/h (3 Bft) O 98 0 min 0,000 mm 0,0 UV-I 0 W/m -3,5 C -10,5 C 19,3 km/h (3 Bft) 95,65 %
22.02.2018 18:40 -2,7 C 3,3 C 94 % 1017,9 hPa 0,0 l/m 12,4 km/h (3 Bft) O-NO 62 0 min 0,000 mm 0,0 UV-I 0 W/m -3,5 C -8,4 C 16,1 km/h (3 Bft) 100,00 %
22.02.2018 18:41 -2,7 C 3,3 C 94 % 1017,9 hPa 0,0 l/m 10,7 km/h (2 Bft) O 96 0 min 0,000 mm 0,0 UV-I 0 W/m -3,5 C -7,0 C 14,5 km/h (3 Bft) 95,65 %
22.02.2018 18:42 -2,7 C 3,3 C 94 % 1017,9 hPa 0,0 l/m 13,4 km/h (3 Bft) O-NO 69 0 min 0,000 mm 0,0 UV-I 0 W/m -3,5 C -9,2 C 16,1 km/h (3 Bft) 100,00 %
22.02.2018 18:43 -2,7 C 3,3 C 94 % 1017,8 hPa 0,0 l/m 15,7 km/h (3 Bft) O 84 0 min 0,000 mm 0,0 UV-I 0 W/m -3,5 C -10,7 C 20,9 km/h (4 Bft) 91,67 %
22.02.2018 18:44 -2,7 C 3,3 C 94 % 1017,8 hPa 0,0 l/m 12,8 km/h (3 Bft) O 79 0 min 0,000 mm 0,0 UV-I 0 W/m -3,5 C -8,7 C 16,1 km/h (3 Bft) 100,00 %
22.02.2018 18:45 -2,7 C 3,3 C 94 % 1017,8 hPa 0,0 l/m 14,5 km/h (3 Bft) O-NO 73 0 min 0,000 mm 0,0 UV-I 0 W/m -3,5 C -9,9 C 16,1 km/h (3 Bft) 96,30 %
22.02.2018 18:46 -2,8 C 3,3 C 94 % 1017,7 hPa 0,0 l/m 13,6 km/h (3 Bft) O-NO 67 0 min 0,000 mm 0,0 UV-I 0 W/m -3,6 C -9,4 C 22,5 km/h (4 Bft) 96,15 %
22.02.2018 18:47 -2,8 C 3,3 C 94 % 1017,8 hPa 0,0 l/m 15,1 km/h (3 Bft) O-NO 77 0 min 0,000 mm 0,0 UV-I 0 W/m -3,6 C -10,4 C 19,3 km/h (3 Bft) 100,00 %
22.02.2018 18:48 -2,8 C 3,3 C 94 % 1017,8 hPa 0,0 l/m 13,0 km/h (3 Bft) O-NO 74 0 min 0,000 mm 0,0 UV-I 0 W/m -3,6 C -9,0 C 16,1 km/h (3 Bft) 100,00 %
22.02.2018 18:49 -2,8 C 3,3 C 94 % 1017,7 hPa 0,0 l/m 14,2 km/h (3 Bft) O-NO 63 0 min 0,000 mm 0,0 UV-I 0 W/m -3,6 C -9,8 C 16,1 km/h (3 Bft) 100,00 %
22.02.2018 18:50 -2,8 C 3,3 C 94 % 1017,8 hPa 0,0 l/m 14,8 km/h (3 Bft) O-NO 62 0 min 0,000 mm 0,0 UV-I 0 W/m -3,6 C -10,2 C 17,7 km/h (3 Bft) 100,00 %
22.02.2018 18:51 -2,8 C 3,3 C 94 % 1017,7 hPa 0,0 l/m 16,2 km/h (3 Bft) O-NO 71 0 min 0,000 mm 0,0 UV-I 0 W/m -3,6 C -11,1 C 20,9 km/h (4 Bft) 100,00 %
22.02.2018 18:52 -2,8 C 3,3 C 94 % 1017,7 hPa 0,0 l/m 16,5 km/h (3 Bft) O 86 0 min 0,000 mm 0,0 UV-I 0 W/m -3,6 C -11,3 C 20,9 km/h (4 Bft) 100,00 %
22.02.2018 18:53 -2,8 C 3,3 C 94 % 1017,8 hPa 0,0 l/m 13,6 km/h (3 Bft) O 86 0 min 0,000 mm 0,0 UV-I 0 W/m -3,6 C -9,4 C 17,7 km/h (3 Bft) 100,00 %
22.02.2018 18:54 -2,8 C 3,3 C 94 % 1017,8 hPa 0,0 l/m 14,3 km/h (3 Bft) O 81 0 min 0,000 mm 0,0 UV-I 0 W/m -3,6 C -9,9 C 17,7 km/h (3 Bft) 100,00 %
22.02.2018 18:55 -2,8 C 3,3 C 94 % 1017,8 hPa 0,0 l/m 12,2 km/h (2 Bft) O-NO 65 0 min 0,000 mm 0,0 UV-I 0 W/m -3,6 C -8,4 C 16,1 km/h (3 Bft) 100,00 %
22.02.2018 18:56 -2,8 C 3,3 C 94 % 1017,9 hPa 0,0 l/m 16,1 km/h (3 Bft) O 100 0 min 0,000 mm 0,0 UV-I 0 W/m -3,6 C -11,1 C 20,9 km/h (4 Bft) 100,00 %
22.02.2018 18:57 -2,8 C 3,3 C 94 % 1017,9 hPa 0,0 l/m 19,7 km/h (3 Bft) O 86 0 min 0,000 mm 0,0 UV-I 0 W/m -3,6 C -13,1 C 24,1 km/h (4 Bft) 100,00 %
22.02.2018 18:58 -2,8 C 3,3 C 94 % 1017,8 hPa 0,0 l/m 16,5 km/h (3 Bft) O 99 0 min 0,000 mm 0,0 UV-I 0 W/m -3,6 C -11,3 C 20,9 km/h (4 Bft) 100,00 %
22.02.2018 18:59 -2,8 C 3,3 C 94 % 1017,9 hPa 0,0 l/m 15,6 km/h (3 Bft) O-NO 78 0 min 0,000 mm 0,0 UV-I 0 W/m -3,6 C -10,8 C 19,3 km/h (3 Bft) 100,00 %
22.02.2018 19:00 -2,8 C 3,3 C 94 % 1017,8 hPa 0,0 l/m 16,0 km/h (3 Bft) O-NO 63 0 min 0,000 mm 0,0 UV-I 0 W/m -3,6 C -11,0 C 20,9 km/h (4 Bft) 100,00 %
22.02.2018 19:01 -2,8 C 3,3 C 94 % 1017,9 hPa 0,0 l/m 15,4 km/h (3 Bft) O-NO 72 0 min 0,000 mm 0,0 UV-I 0 W/m -3,6 C -10,6 C 20,9 km/h (4 Bft) 100,00 %
22.02.2018 19:02 -2,8 C 3,3 C 94 % 1017,9 hPa 0,0 l/m 14,4 km/h (3 Bft) O 84 0 min 0,000 mm 0,0 UV-I 0 W/m -3,6 C -10,0 C 17,7 km/h (3 Bft) 100,00 %
22.02.2018 19:03 -2,8 C 3,3 C 94 % 1017,8 hPa 0,0 l/m 18,0 km/h (3 Bft) O 84 0 min 0,000 mm 0,0 UV-I 0 W/m -3,6 C -12,2 C 22,5 km/h (4 Bft) 100,00 %
22.02.2018 19:04 -2,8 C 3,3 C 94 % 1017,8 hPa 0,0 l/m 16,3 km/h (3 Bft) O-NO 67 0 min 0,000 mm 0,0 UV-I 0 W/m -3,6 C -11,2 C 22,5 km/h (4 Bft) 100,00 %
22.02.2018 19:05 -2,8 C 3,3 C 94 % 1017,8 hPa 0,0 l/m 15,9 km/h (3 Bft) O-NO 62 0 min 0,000 mm 0,0 UV-I 0 W/m -3,6 C -10,9 C 19,3 km/h (3 Bft) 100,00 %
22.02.2018 19:06 -2,8 C 3,3 C 94 % 1017,8 hPa 0,0 l/m 17,2 km/h (3 Bft) O 83 0 min 0,000 mm 0,0 UV-I 0 W/m -3,6 C -11,7 C 20,9 km/h (4 Bft) 100,00 %
22.02.2018 19:07 -2,8 C 3,3 C 94 % 1017,8 hPa 0,0 l/m 16,9 km/h (3 Bft) O-NO 69 0 min 0,000 mm 0,0 UV-I 0 W/m -3,6 C -11,6 C 20,9 km/h (4 Bft) 100,00 %
22.02.2018 19:08 -2,8 C 3,3 C 94 % 1017,8 hPa 0,0 l/m 15,4 km/h (3 Bft) O 83 0 min 0,000 mm 0,0 UV-I 0 W/m -3,6 C -10,6 C 19,3 km/h (3 Bft) 100,00 %
22.02.2018 19:09 -2,8 C 3,3 C 94 % 1017,9 hPa 0,0 l/m 17,3 km/h (3 Bft) O-NO 66 0 min 0,000 mm 0,0 UV-I 0 W/m -3,6 C -11,8 C 22,5 km/h (4 Bft) 100,00 %
22.02.2018 19:10 -2,8 C 3,3 C 94 % 1017,8 hPa 0,0 l/m 18,6 km/h (3 Bft) O-SO 109 0 min 0,000 mm 0,0 UV-I 0 W/m -3,6 C -12,5 C 22,5 km/h (4 Bft) 100,00 %
22.02.2018 19:11 -2,8 C 3,3 C 94 % 1017,8 hPa 0,0 l/m 19,3 km/h (3 Bft) O 96 0 min 0,000 mm 0,0 UV-I 0 W/m -3,6 C -12,9 C 22,5 km/h (4 Bft) 100,00 %
22.02.2018 19:12 -2,8 C 3,3 C 94 % 1017,9 hPa 0,0 l/m 17,9 km/h (3 Bft) O 79 0 min 0,000 mm 0,0 UV-I 0 W/m -3,6 C -12,1 C 22,5 km/h (4 Bft) 100,00 %
22.02.2018 19:13 -2,8 C 3,3 C 94 % 1017,9 hPa 0,0 l/m 16,3 km/h (3 Bft) O-NO 67 0 min 0,000 mm 0,0 UV-I 0 W/m -3,6 C -11,2 C 20,9 km/h (4 Bft) 100,00 %
22.02.2018 19:14 -2,8 C 3,3 C 94 % 1017,9 hPa 0,0 l/m 17,1 km/h (3 Bft) O 89 0 min 0,000 mm 0,0 UV-I 0 W/m -3,6 C -11,7 C 22,5 km/h (4 Bft) 100,00 %
22.02.2018 19:15 -2,8 C 3,3 C 94 % 1017,8 hPa 0,0 l/m 17,7 km/h (3 Bft) O-NO 77 0 min 0,000 mm 0,0 UV-I 0 W/m -3,6 C -12,0 C 22,5 km/h (4 Bft) 96,55 %
22.02.2018 19:16 -2,8 C 3,3 C 94 % 1017,9 hPa 0,0 l/m 17,8 km/h (3 Bft) O-NO 76 0 min 0,000 mm 0,0 UV-I 0 W/m -3,6 C -12,1 C 22,5 km/h (4 Bft) 100,00 %
22.02.2018 19:17 -2,8 C 3,3 C 94 % 1017,8 hPa 0,0 l/m 17,1 km/h (3 Bft) O-NO 74 0 min 0,000 mm 0,0 UV-I 0 W/m -3,6 C -11,7 C 24,1 km/h (4 Bft) 100,00 %
22.02.2018 19:18 -2,8 C 3,3 C 94 % 1017,8 hPa 0,0 l/m 17,1 km/h (3 Bft) O 81 0 min 0,000 mm 0,0 UV-I 0 W/m -3,6 C -11,7 C 22,5 km/h (4 Bft) 100,00 %
22.02.2018 19:19 -2,8 C 3,3 C 94 % 1017,7 hPa 0,0 l/m 17,3 km/h (3 Bft) O 84 0 min 0,000 mm 0,0 UV-I 0 W/m -3,6 C -11,8 C 24,1 km/h (4 Bft) 100,00 %
22.02.2018 19:20 -2,8 C 3,3 C 93 % 1017,8 hPa 0,0 l/m 16,7 km/h (3 Bft) NO 54 0 min 0,000 mm 0,0 UV-I 0 W/m -3,8 C -11,4 C 19,3 km/h (3 Bft) 100,00 %
22.02.2018 19:21 -2,8 C 3,3 C 93 % 1017,7 hPa 0,0 l/m 18,3 km/h (3 Bft) O 99 0 min 0,000 mm 0,0 UV-I 0 W/m -3,8 C -12,4 C 22,5 km/h (4 Bft) 100,00 %
22.02.2018 19:22 -2,8 C 3,3 C 93 % 1017,8 hPa 0,0 l/m 19,4 km/h (3 Bft) O 79 0 min 0,000 mm 0,0 UV-I 0 W/m -3,8 C -12,9 C 24,1 km/h (4 Bft) 100,00 %
22.02.2018 19:23 -2,8 C 3,3 C 93 % 1017,7 hPa 0,0 l/m 20,7 km/h (4 Bft) O-NO 78 0 min 0,000 mm 0,0 UV-I 0 W/m -3,8 C -13,6 C 25,7 km/h (4 Bft) 96,67 %
22.02.2018 19:24 -2,8 C 3,3 C 93 % 1017,9 hPa 0,0 l/m 23,5 km/h (4 Bft) O 84 0 min 0,000 mm 0,0 UV-I 0 W/m -3,8 C -14,9 C 29,0 km/h (5 Bft) 100,00 %
22.02.2018 19:25 -2,8 C 3,3 C 93 % 1017,8 hPa 0,0 l/m 20,2 km/h (4 Bft) O-NO 68 0 min 0,000 mm 0,0 UV-I 0 W/m -3,8 C -13,3 C 27,4 km/h (4 Bft) 100,00 %
22.02.2018 19:26 -2,8 C 3,3 C 93 % 1017,8 hPa 0,0 l/m 15,4 km/h (3 Bft) O 83 0 min 0,000 mm 0,0 UV-I 0 W/m -3,8 C -10,6 C 17,7 km/h (3 Bft) 100,00 %
22.02.2018 19:27 -2,8 C 3,3 C 93 % 1017,8 hPa 0,0 l/m 15,6 km/h (3 Bft) O 92 0 min 0,000 mm 0,0 UV-I 0 W/m -3,8 C -10,8 C 19,3 km/h (3 Bft) 100,00 %
22.02.2018 19:28 -2,8 C 3,3 C 93 % 1017,9 hPa 0,0 l/m 17,8 km/h (3 Bft) O-NO 61 0 min 0,000 mm 0,0 UV-I 0 W/m -3,8 C -12,1 C 20,9 km/h (4 Bft) 100,00 %
22.02.2018 19:29 -2,8 C 3,3 C 93 % 1017,8 hPa 0,0 l/m 22,9 km/h (4 Bft) O 88 0 min 0,000 mm 0,0 UV-I 0 W/m -3,8 C -14,6 C 27,4 km/h (4 Bft) 100,00 %
22.02.2018 19:30 -2,8 C 3,3 C 93 % 1017,9 hPa 0,0 l/m 20,4 km/h (4 Bft) O-NO 78 0 min 0,000 mm 0,0 UV-I 0 W/m -3,8 C -13,4 C 24,1 km/h (4 Bft) 100,00 %
22.02.2018 19:31 -2,8 C 3,3 C 93 % 1017,8 hPa 0,0 l/m 16,6 km/h (3 Bft) O 83 0 min 0,000 mm 0,0 UV-I 0 W/m -3,8 C -11,4 C 20,9 km/h (4 Bft) 100,00 %
22.02.2018 19:32 -2,8 C 3,3 C 93 % 1017,8 hPa 0,0 l/m 18,0 km/h (3 Bft) O-NO 73 0 min 0,000 mm 0,0 UV-I 0 W/m -3,8 C -12,2 C 22,5 km/h (4 Bft) 100,00 %
22.02.2018 19:33 -2,8 C 3,3 C 93 % 1017,8 hPa 0,0 l/m 18,0 km/h (3 Bft) O-NO 75 0 min 0,000 mm 0,0 UV-I 0 W/m -3,8 C -12,2 C 22,5 km/h (4 Bft) 100,00 %
22.02.2018 19:34 -2,8 C 3,3 C 93 % 1017,8 hPa 0,0 l/m 13,3 km/h (3 Bft) O-NO 78 0 min 0,000 mm 0,0 UV-I 0 W/m -3,8 C -9,2 C 16,1 km/h (3 Bft) 100,00 %
22.02.2018 19:35 -2,8 C 3,3 C 93 % 1017,8 hPa 0,0 l/m 16,0 km/h (3 Bft) O-NO 78 0 min 0,000 mm 0,0 UV-I 0 W/m -3,8 C -11,0 C 22,5 km/h (4 Bft) 100,00 %
22.02.2018 19:36 -2,8 C 3,3 C 93 % 1017,9 hPa 0,0 l/m 17,7 km/h (3 Bft) O-NO 71 0 min 0,000 mm 0,0 UV-I 0 W/m -3,8 C -12,0 C 22,5 km/h (4 Bft) 100,00 %
22.02.2018 19:37 -2,8 C 3,3 C 93 % 1017,8 hPa 0,0 l/m 15,9 km/h (3 Bft) O 96 0 min 0,000 mm 0,0 UV-I 0 W/m -3,8 C -10,9 C 19,3 km/h (3 Bft) 93,33 %
22.02.2018 19:38 -2,8 C 3,3 C 93 % 1017,8 hPa 0,0 l/m 15,3 km/h (3 Bft) O 80 0 min 0,000 mm 0,0 UV-I 0 W/m -3,8 C -10,6 C 19,3 km/h (3 Bft) 100,00 %
22.02.2018 19:39 -2,8 C 3,3 C 93 % 1017,9 hPa 0,0 l/m 14,8 km/h (3 Bft) O 86 0 min 0,000 mm 0,0 UV-I 0 W/m -3,8 C -10,2 C 19,3 km/h (3 Bft) 100,00 %
22.02.2018 19:40 -2,8 C 3,3 C 93 % 1017,9 hPa 0,0 l/m 15,2 km/h (3 Bft) O-NO 76 0 min 0,000 mm 0,0 UV-I 0 W/m -3,8 C -10,5 C 17,7 km/h (3 Bft) 100,00 %
22.02.2018 19:41 -2,8 C 3,3 C 93 % 1017,9 hPa 0,0 l/m 16,9 km/h (3 Bft) O-NO 78 0 min 0,000 mm 0,0 UV-I 0 W/m -3,8 C -11,6 C 22,5 km/h (4 Bft) 100,00 %
22.02.2018 19:42 -2,7 C 3,3 C 93 % 1017,9 hPa 0,0 l/m 17,1 km/h (3 Bft) O 96 0 min 0,000 mm 0,0 UV-I 0 W/m -3,7 C -11,5 C 20,9 km/h (4 Bft) 100,00 %
22.02.2018 19:43 -2,7 C 3,3 C 93 % 1017,9 hPa 0,0 l/m 16,2 km/h (3 Bft) O 91 0 min 0,000 mm 0,0 UV-I 0 W/m -3,7 C -11,0 C 19,3 km/h (3 Bft) 100,00 %
22.02.2018 19:44 -2,8 C 3,3 C 93 % 1017,9 hPa 0,0 l/m 13,4 km/h (3 Bft) O-NO 60 0 min 0,000 mm 0,0 UV-I 0 W/m -3,8 C -9,3 C 17,7 km/h (3 Bft) 100,00 %
22.02.2018 19:45 -2,7 C 3,3 C 93 % 1017,9 hPa 0,0 l/m 17,9 km/h (3 Bft) O 88 0 min 0,000 mm 0,0 UV-I 0 W/m -3,7 C -12,0 C 24,1 km/h (4 Bft) 100,00 %
22.02.2018 19:46 -2,7 C 3,3 C 93 % 1017,9 hPa 0,0 l/m 16,6 km/h (3 Bft) O 96 0 min 0,000 mm 0,0 UV-I 0 W/m -3,7 C -11,3 C 19,3 km/h (3 Bft) 100,00 %
22.02.2018 19:47 -2,7 C 3,3 C 93 % 1017,9 hPa 0,0 l/m 16,8 km/h (3 Bft) O 84 0 min 0,000 mm 0,0 UV-I 0 W/m -3,7 C -11,4 C 20,9 km/h (4 Bft) 100,00 %
22.02.2018 19:48 -2,7 C 3,3 C 93 % 1017,9 hPa 0,0 l/m 16,7 km/h (3 Bft) O 86 0 min 0,000 mm 0,0 UV-I 0 W/m -3,7 C -11,3 C 20,9 km/h (4 Bft) 100,00 %
22.02.2018 19:49 -2,7 C 3,3 C 93 % 1017,9 hPa 0,0 l/m 18,4 km/h (3 Bft) O-NO 71 0 min 0,000 mm 0,0 UV-I 0 W/m -3,7 C -12,3 C 20,9 km/h (4 Bft) 100,00 %
22.02.2018 19:50 -2,7 C 3,3 C 93 % 1017,8 hPa 0,0 l/m 22,5 km/h (4 Bft) O-NO 76 0 min 0,000 mm 0,0 UV-I 0 W/m -3,7 C -14,3 C 27,4 km/h (4 Bft) 100,00 %
22.02.2018 19:51 -2,7 C 3,3 C 93 % 1017,8 hPa 0,0 l/m 19,6 km/h (3 Bft) O 83 0 min 0,000 mm 0,0 UV-I 0 W/m -3,7 C -12,9 C 24,1 km/h (4 Bft) 96,15 %
22.02.2018 19:52 -2,7 C 3,3 C 93 % 1017,8 hPa 0,0 l/m 17,6 km/h (3 Bft) O-NO 76 0 min 0,000 mm 0,0 UV-I 0 W/m -3,7 C -11,8 C 20,9 km/h (4 Bft) 93,33 %
22.02.2018 19:53 -2,7 C 3,3 C 93 % 1017,8 hPa 0,0 l/m 16,9 km/h (3 Bft) O-NO 75 0 min 0,000 mm 0,0 UV-I 0 W/m -3,7 C -11,4 C 20,9 km/h (4 Bft) 96,15 %
22.02.2018 19:54 -2,7 C 3,3 C 93 % 1017,8 hPa 0,0 l/m 16,7 km/h (3 Bft) O-NO 76 0 min 0,000 mm 0,0 UV-I 0 W/m -3,7 C -11,3 C 19,3 km/h (3 Bft) 100,00 %
22.02.2018 19:55 -2,7 C 3,3 C 93 % 1017,9 hPa 0,0 l/m 19,9 km/h (4 Bft) O-NO 69 0 min 0,000 mm 0,0 UV-I 0 W/m -3,7 C -13,1 C 25,7 km/h (4 Bft) 92,31 %
22.02.2018 19:56 -2,7 C 3,3 C 93 % 1017,8 hPa 0,0 l/m 21,3 km/h (4 Bft) O 89 0 min 0,000 mm 0,0 UV-I 0 W/m -3,7 C -13,8 C 25,7 km/h (4 Bft) 100,00 %
22.02.2018 19:57 -2,7 C 3,3 C 92 % 1017,9 hPa 0,0 l/m 21,0 km/h (4 Bft) O 85 0 min 0,000 mm 0,0 UV-I 0 W/m -3,8 C -13,6 C 25,7 km/h (4 Bft) 96,30 %
22.02.2018 19:58 -2,7 C 3,3 C 92 % 1017,9 hPa 0,0 l/m 17,8 km/h (3 Bft) O-NO 69 0 min 0,000 mm 0,0 UV-I 0 W/m -3,8 C -11,9 C 24,1 km/h (4 Bft) 92,31 %
22.02.2018 19:59 -2,7 C 3,3 C 92 % 1017,9 hPa 0,0 l/m 18,9 km/h (3 Bft) O-SO 107 0 min 0,000 mm 0,0 UV-I 0 W/m -3,8 C -12,5 C 24,1 km/h (4 Bft) 100,00 %
22.02.2018 20:00 -2,7 C 3,3 C 92 % 1018,0 hPa 0,0 l/m 15,9 km/h (3 Bft) O 93 0 min 0,000 mm 0,0 UV-I 0 W/m -3,8 C -10,8 C 19,3 km/h (3 Bft) 95,65 %
22.02.2018 20:01 -2,7 C 3,3 C 92 % 1017,9 hPa 0,0 l/m 16,4 km/h (3 Bft) O 90 0 min 0,000 mm 0,0 UV-I 0 W/m -3,8 C -11,1 C 22,5 km/h (4 Bft) 100,00 %
22.02.2018 20:02 -2,7 C 3,3 C 92 % 1018,0 hPa 0,0 l/m 18,4 km/h (3 Bft) NO 56 0 min 0,000 mm 0,0 UV-I 0 W/m -3,8 C -12,3 C 25,7 km/h (4 Bft) 95,65 %
22.02.2018 20:03 -2,7 C 3,3 C 92 % 1017,9 hPa 0,0 l/m 19,3 km/h (3 Bft) O 89 0 min 0,000 mm 0,0 UV-I 0 W/m -3,8 C -12,8 C 24,1 km/h (4 Bft) 100,00 %
22.02.2018 20:04 -2,7 C 3,3 C 92 % 1017,9 hPa 0,0 l/m 16,6 km/h (3 Bft) O-NO 76 0 min 0,000 mm 0,0 UV-I 0 W/m -3,8 C -11,3 C 22,5 km/h (4 Bft) 88,46 %
22.02.2018 20:05 -2,7 C 3,3 C 92 % 1017,9 hPa 0,0 l/m 16,5 km/h (3 Bft) O-NO 60 0 min 0,000 mm 0,0 UV-I 0 W/m -3,8 C -11,2 C 20,9 km/h (4 Bft) 100,00 %
22.02.2018 20:06 -2,7 C 3,3 C 92 % 1017,9 hPa 0,0 l/m 22,3 km/h (4 Bft) O-NO 77 0 min 0,000 mm 0,0 UV-I 0 W/m -3,8 C -14,2 C 30,6 km/h (5 Bft) 95,65 %
22.02.2018 20:07 -2,7 C 3,3 C 92 % 1017,9 hPa 0,0 l/m 16,6 km/h (3 Bft) O-NO 69 0 min 0,000 mm 0,0 UV-I 0 W/m -3,8 C -11,3 C 19,3 km/h (3 Bft) 96,30 %
22.02.2018 20:08 -2,7 C 3,3 C 92 % 1017,9 hPa 0,0 l/m 16,8 km/h (3 Bft) O 82 0 min 0,000 mm 0,0 UV-I 0 W/m -3,8 C -11,4 C 20,9 km/h (4 Bft) 100,00 %
22.02.2018 20:09 -2,7 C 3,3 C 92 % 1017,9 hPa 0,0 l/m 13,9 km/h (3 Bft) O-NO 66 0 min 0,000 mm 0,0 UV-I 0 W/m -3,8 C -9,5 C 17,7 km/h (3 Bft) 95,83 %
22.02.2018 20:10 -2,7 C 3,3 C 92 % 1017,9 hPa 0,0 l/m 16,4 km/h (3 Bft) O 96 0 min 0,000 mm 0,0 UV-I 0 W/m -3,8 C -11,1 C 19,3 km/h (3 Bft) 100,00 %
22.02.2018 20:11 -2,8 C 3,3 C 92 % 1017,9 hPa 0,0 l/m 15,9 km/h (3 Bft) O-NO 69 0 min 0,000 mm 0,0 UV-I 0 W/m -3,9 C -10,9 C 24,1 km/h (4 Bft) 91,67 %
22.02.2018 20:12 -2,8 C 3,3 C 92 % 1017,9 hPa 0,0 l/m 18,6 km/h (3 Bft) O 97 0 min 0,000 mm 0,0 UV-I 0 W/m -3,9 C -12,5 C 22,5 km/h (4 Bft) 100,00 %
22.02.2018 20:13 -2,8 C 3,3 C 92 % 1017,9 hPa 0,0 l/m 14,3 km/h (3 Bft) O-NO 77 0 min 0,000 mm 0,0 UV-I 0 W/m -3,9 C -9,9 C 19,3 km/h (3 Bft) 96,67 %
22.02.2018 20:14 -2,8 C 3,3 C 92 % 1017,9 hPa 0,0 l/m 13,9 km/h (3 Bft) O-NO 64 0 min 0,000 mm 0,0 UV-I 0 W/m -3,9 C -9,6 C 17,7 km/h (3 Bft) 95,65 %
22.02.2018 20:15 -2,8 C 3,3 C 92 % 1017,9 hPa 0,0 l/m 18,9 km/h (3 Bft) O-NO 57 0 min 0,000 mm 0,0 UV-I 0 W/m -3,9 C -12,7 C 25,7 km/h (4 Bft) 100,00 %
22.02.2018 20:16 -2,8 C 3,3 C 92 % 1017,9 hPa 0,0 l/m 21,0 km/h (4 Bft) O 86 0 min 0,000 mm 0,0 UV-I 0 W/m -3,9 C -13,7 C 25,7 km/h (4 Bft) 96,30 %
22.02.2018 20:17 -2,8 C 3,3 C 92 % 1018,0 hPa 0,0 l/m 18,0 km/h (3 Bft) O-SO 109 0 min 0,000 mm 0,0 UV-I 0 W/m -3,9 C -12,2 C 25,7 km/h (4 Bft) 100,00 %
22.02.2018 20:18 -2,8 C 3,3 C 92 % 1017,9 hPa 0,0 l/m 18,2 km/h (3 Bft) O-NO 75 0 min 0,000 mm 0,0 UV-I 0 W/m -3,9 C -12,3 C 24,1 km/h (4 Bft) 83,33 %
22.02.2018 20:19 -2,8 C 3,3 C 92 % 1017,9 hPa 0,0 l/m 17,9 km/h (3 Bft) O 80 0 min 0,000 mm 0,0 UV-I 0 W/m -3,9 C -12,1 C 20,9 km/h (4 Bft) 100,00 %
22.02.2018 20:20 -2,8 C 3,3 C 92 % 1017,9 hPa 0,0 l/m 18,5 km/h (3 Bft) O-NO 64 0 min 0,000 mm 0,0 UV-I 0 W/m -3,9 C -12,5 C 24,1 km/h (4 Bft) 96,30 %
22.02.2018 20:21 -2,8 C 3,3 C 92 % 1017,9 hPa 0,0 l/m 19,9 km/h (4 Bft) O-NO 71 0 min 0,000 mm 0,0 UV-I 0 W/m -3,9 C -13,2 C 25,7 km/h (4 Bft) 96,15 %
22.02.2018 20:22 -2,8 C 3,3 C 92 % 1017,9 hPa 0,0 l/m 21,1 km/h (4 Bft) O 80 0 min 0,000 mm 0,0 UV-I 0 W/m -3,9 C -13,8 C 24,1 km/h (4 Bft) 100,00 %
22.02.2018 20:23 -2,8 C 3,3 C 92 % 1017,8 hPa 0,0 l/m 19,7 km/h (3 Bft) O 80 0 min 0,000 mm 0,0 UV-I 0 W/m -3,9 C -13,1 C 22,5 km/h (4 Bft) 90,91 %
22.02.2018 20:24 -2,8 C 3,3 C 92 % 1017,8 hPa 0,0 l/m 20,8 km/h (4 Bft) O-NO 76 0 min 0,000 mm 0,0 UV-I 0 W/m -3,9 C -13,6 C 25,7 km/h (4 Bft) 95,83 %
22.02.2018 20:25 -2,8 C 3,3 C 92 % 1017,8 hPa 0,0 l/m 15,4 km/h (3 Bft) O-NO 65 0 min 0,000 mm 0,0 UV-I 0 W/m -3,9 C -10,6 C 19,3 km/h (3 Bft) 100,00 %
22.02.2018 20:26 -2,8 C 3,3 C 92 % 1017,7 hPa 0,0 l/m 17,0 km/h (3 Bft) O-NO 78 0 min 0,000 mm 0,0 UV-I 0 W/m -3,9 C -11,6 C 20,9 km/h (4 Bft) 100,00 %
22.02.2018 20:27 -2,8 C 3,3 C 92 % 1017,7 hPa 0,0 l/m 17,3 km/h (3 Bft) O-NO 62 0 min 0,000 mm 0,0 UV-I 0 W/m -3,9 C -11,8 C 24,1 km/h (4 Bft) 96,15 %
22.02.2018 20:28 -2,8 C 3,3 C 92 % 1017,8 hPa 0,0 l/m 18,3 km/h (3 Bft) O-NO 77 0 min 0,000 mm 0,0 UV-I 0 W/m -3,9 C -12,4 C 20,9 km/h (4 Bft) 100,00 %
22.02.2018 20:29 -2,8 C 3,3 C 92 % 1017,7 hPa 0,0 l/m 19,3 km/h (3 Bft) O 83 0 min 0,000 mm 0,0 UV-I 0 W/m -3,9 C -12,9 C 22,5 km/h (4 Bft) 100,00 %
22.02.2018 20:30 -2,8 C 3,3 C 92 % 1017,7 hPa 0,0 l/m 17,3 km/h (3 Bft) O-NO 71 0 min 0,000 mm 0,0 UV-I 0 W/m -3,9 C -11,8 C 22,5 km/h (4 Bft) 100,00 %
22.02.2018 20:31 -2,8 C 3,3 C 92 % 1017,7 hPa 0,0 l/m 20,5 km/h (4 Bft) O-NO 67 0 min 0,000 mm 0,0 UV-I 0 W/m -3,9 C -13,5 C 22,5 km/h (4 Bft) 100,00 %
22.02.2018 20:32 -2,8 C 3,3 C 92 % 1017,7 hPa 0,0 l/m 15,9 km/h (3 Bft) O-NO 67 0 min 0,000 mm 0,0 UV-I 0 W/m -3,9 C -10,9 C 19,3 km/h (3 Bft) 100,00 %
22.02.2018 20:33 -2,8 C 3,3 C 92 % 1017,9 hPa 0,0 l/m 16,9 km/h (3 Bft) O-NO 71 0 min 0,000 mm 0,0 UV-I 0 W/m -3,9 C -11,6 C 22,5 km/h (4 Bft) 96,15 %
22.02.2018 20:34 -2,8 C 3,3 C 92 % 1017,8 hPa 0,0 l/m 18,6 km/h (3 Bft) O-NO 76 0 min 0,000 mm 0,0 UV-I 0 W/m -3,9 C -12,5 C 25,7 km/h (4 Bft) 100,00 %
22.02.2018 20:35 -2,8 C 3,3 C 92 % 1017,9 hPa 0,0 l/m 18,4 km/h (3 Bft) O-NO 66 0 min 0,000 mm 0,0 UV-I 0 W/m -3,9 C -12,4 C 22,5 km/h (4 Bft) 100,00 %
22.02.2018 20:36 -2,8 C 3,3 C 92 % 1017,8 hPa 0,0 l/m 18,5 km/h (3 Bft) O-NO 78 0 min 0,000 mm 0,0 UV-I 0 W/m -3,9 C -12,5 C 20,9 km/h (4 Bft) 93,10 %
22.02.2018 20:37 -2,8 C 3,3 C 92 % 1017,9 hPa 0,0 l/m 15,9 km/h (3 Bft) O-NO 78 0 min 0,000 mm 0,0 UV-I 0 W/m -3,9 C -10,9 C 20,9 km/h (4 Bft) 100,00 %
22.02.2018 20:38 -2,8 C 3,3 C 92 % 1017,9 hPa 0,0 l/m 15,8 km/h (3 Bft) O-NO 75 0 min 0,000 mm 0,0 UV-I 0 W/m -3,9 C -10,9 C 20,9 km/h (4 Bft) 100,00 %
22.02.2018 20:39 -2,8 C 3,3 C 92 % 1017,9 hPa 0,0 l/m 16,9 km/h (3 Bft) O-NO 76 0 min 0,000 mm 0,0 UV-I 0 W/m -3,9 C -11,6 C 20,9 km/h (4 Bft) 100,00 %
22.02.2018 20:40 -2,8 C 3,3 C 92 % 1017,9 hPa 0,0 l/m 19,0 km/h (3 Bft) O-NO 67 0 min 0,000 mm 0,0 UV-I 0 W/m -3,9 C -12,7 C 22,5 km/h (4 Bft) 100,00 %
22.02.2018 20:41 -2,8 C 3,3 C 92 % 1017,9 hPa 0,0 l/m 16,1 km/h (3 Bft) O-NO 66 0 min 0,000 mm 0,0 UV-I 0 W/m -3,9 C -11,1 C 20,9 km/h (4 Bft) 100,00 %
22.02.2018 20:42 -2,8 C 3,3 C 92 % 1017,9 hPa 0,0 l/m 17,7 km/h (3 Bft) O-NO 75 0 min 0,000 mm 0,0 UV-I 0 W/m -3,9 C -12,0 C 24,1 km/h (4 Bft) 100,00 %
22.02.2018 20:43 -2,8 C 3,3 C 92 % 1017,8 hPa 0,0 l/m 18,0 km/h (3 Bft) O 91 0 min 0,000 mm 0,0 UV-I 0 W/m -3,9 C -12,2 C 22,5 km/h (4 Bft) 96,30 %
22.02.2018 20:44 -2,8 C 3,3 C 92 % 1017,8 hPa 0,0 l/m 16,3 km/h (3 Bft) O-NO 63 0 min 0,000 mm 0,0 UV-I 0 W/m -3,9 C -11,2 C 20,9 km/h (4 Bft) 93,33 %
22.02.2018 20:45 -2,8 C 3,3 C 92 % 1017,8 hPa 0,0 l/m 16,1 km/h (3 Bft) O 94 0 min 0,000 mm 0,0 UV-I 0 W/m -3,9 C -11,1 C 19,3 km/h (3 Bft) 100,00 %
22.02.2018 20:46 -2,8 C 3,3 C 92 % 1017,7 hPa 0,0 l/m 17,7 km/h (3 Bft) O-NO 77 0 min 0,000 mm 0,0 UV-I 0 W/m -3,9 C -12,0 C 24,1 km/h (4 Bft) 100,00 %
22.02.2018 20:47 -2,8 C 3,3 C 92 % 1017,7 hPa 0,0 l/m 20,2 km/h (4 Bft) O-NO 75 0 min 0,000 mm 0,0 UV-I 0 W/m -3,9 C -13,3 C 22,5 km/h (4 Bft) 93,33 %
22.02.2018 20:48 -2,8 C 3,3 C 92 % 1017,7 hPa 0,0 l/m 19,5 km/h (3 Bft) O 93 0 min 0,000 mm 0,0 UV-I 0 W/m -3,9 C -13,0 C 24,1 km/h (4 Bft) 97,56 %
22.02.2018 20:49 -2,8 C 3,3 C 92 % 1017,7 hPa 0,0 l/m 17,3 km/h (3 Bft) O-NO 67 0 min 0,000 mm 0,0 UV-I 0 W/m -3,9 C -11,8 C 24,1 km/h (4 Bft) 100,00 %
22.02.2018 20:50 -2,8 C 3,3 C 92 % 1017,6 hPa 0,0 l/m 18,6 km/h (3 Bft) O-NO 63 0 min 0,000 mm 0,0 UV-I 0 W/m -3,9 C -12,5 C 24,1 km/h (4 Bft) 96,30 %
22.02.2018 20:51 -2,8 C 3,3 C 92 % 1017,6 hPa 0,0 l/m 16,3 km/h (3 Bft) O-NO 61 0 min 0,000 mm 0,0 UV-I 0 W/m -3,9 C -11,2 C 19,3 km/h (3 Bft) 100,00 %
22.02.2018 20:52 -2,8 C 3,3 C 92 % 1017,6 hPa 0,0 l/m 17,4 km/h (3 Bft) O-NO 59 0 min 0,000 mm 0,0 UV-I 0 W/m -3,9 C -11,8 C 22,5 km/h (4 Bft) 95,65 %
22.02.2018 20:53 -2,8 C 3,3 C 92 % 1017,6 hPa 0,0 l/m 19,4 km/h (3 Bft) O-NO 59 0 min 0,000 mm 0,0 UV-I 0 W/m -3,9 C -12,9 C 22,5 km/h (4 Bft) 100,00 %
22.02.2018 20:54 -2,8 C 3,3 C 92 % 1017,6 hPa 0,0 l/m 18,7 km/h (3 Bft) O 89 0 min 0,000 mm 0,0 UV-I 0 W/m -3,9 C -12,6 C 22,5 km/h (4 Bft) 100,00 %
22.02.2018 20:55 -2,8 C 3,3 C 92 % 1017,6 hPa 0,0 l/m 18,6 km/h (3 Bft) O-NO 77 0 min 0,000 mm 0,0 UV-I 0 W/m -3,9 C -12,5 C 22,5 km/h (4 Bft) 100,00 %
22.02.2018 20:56 -2,8 C 3,3 C 92 % 1017,6 hPa 0,0 l/m 23,2 km/h (4 Bft) O 87 0 min 0,000 mm 0,0 UV-I 0 W/m -3,9 C -14,8 C 29,0 km/h (5 Bft) 100,00 %
22.02.2018 20:57 -2,8 C 3,3 C 92 % 1017,6 hPa 0,0 l/m 19,0 km/h (3 Bft) O-NO 69 0 min 0,000 mm 0,0 UV-I 0 W/m -3,9 C -12,7 C 24,1 km/h (4 Bft) 100,00 %
22.02.2018 20:58 -2,9 C 3,3 C 92 % 1017,5 hPa 0,0 l/m 22,2 km/h (4 Bft) O-NO 70 0 min 0,000 mm 0,0 UV-I 0 W/m -4,0 C -14,4 C 29,0 km/h (5 Bft) 100,00 %
22.02.2018 20:59 -2,9 C 3,3 C 92 % 1017,6 hPa 0,0 l/m 22,2 km/h (4 Bft) O-NO 69 0 min 0,000 mm 0,0 UV-I 0 W/m -4,0 C -14,4 C 27,4 km/h (4 Bft) 100,00 %
22.02.2018 21:00 -2,9 C 3,3 C 92 % 1017,6 hPa 0,0 l/m 18,2 km/h (3 Bft) O 89 0 min 0,000 mm 0,0 UV-I 0 W/m -4,0 C -12,4 C 22,5 km/h (4 Bft) 100,00 %
22.02.2018 21:01 -2,9 C 3,3 C 92 % 1017,5 hPa 0,0 l/m 21,0 km/h (4 Bft) O-NO 63 0 min 0,000 mm 0,0 UV-I 0 W/m -4,0 C -13,9 C 30,6 km/h (5 Bft) 100,00 %
22.02.2018 21:02 -2,9 C 3,3 C 92 % 1017,5 hPa 0,0 l/m 21,1 km/h (4 Bft) O-SO 107 0 min 0,000 mm 0,0 UV-I 0 W/m -4,0 C -13,9 C 25,7 km/h (4 Bft) 100,00 %
22.02.2018 21:03 -2,9 C 3,3 C 92 % 1017,5 hPa 0,0 l/m 16,1 km/h (3 Bft) O-NO 69 0 min 0,000 mm 0,0 UV-I 0 W/m -4,0 C -11,2 C 20,9 km/h (4 Bft) 95,65 %
22.02.2018 21:04 -2,9 C 3,3 C 92 % 1017,5 hPa 0,0 l/m 15,9 km/h (3 Bft) O 81 0 min 0,000 mm 0,0 UV-I 0 W/m -4,0 C -11,1 C 19,3 km/h (3 Bft) 100,00 %
22.02.2018 21:05 -3,0 C 3,3 C 92 % 1017,5 hPa 0,0 l/m 17,2 km/h (3 Bft) O 93 0 min 0,000 mm 0,0 UV-I 0 W/m -4,1 C -12,0 C 20,9 km/h (4 Bft) 100,00 %
22.02.2018 21:06 -3,0 C 3,3 C 92 % 1017,5 hPa 0,0 l/m 17,9 km/h (3 Bft) O-NO 58 0 min 0,000 mm 0,0 UV-I 0 W/m -4,1 C -12,4 C 20,9 km/h (4 Bft) 96,30 %
22.02.2018 21:07 -3,0 C 3,3 C 92 % 1017,5 hPa 0,0 l/m 18,2 km/h (3 Bft) NO 51 0 min 0,000 mm 0,0 UV-I 0 W/m -4,1 C -12,5 C 22,5 km/h (4 Bft) 100,00 %
22.02.2018 21:08 -3,0 C 3,3 C 92 % 1017,5 hPa 0,0 l/m 22,1 km/h (4 Bft) O 82 0 min 0,000 mm 0,0 UV-I 0 W/m -4,1 C -14,5 C 27,4 km/h (4 Bft) 92,59 %
22.02.2018 21:09 -3,0 C 3,3 C 92 % 1017,5 hPa 0,0 l/m 21,2 km/h (4 Bft) O-NO 76 0 min 0,000 mm 0,0 UV-I 0 W/m -4,1 C -14,1 C 24,1 km/h (4 Bft) 100,00 %
22.02.2018 21:10 -3,0 C 3,3 C 92 % 1017,5 hPa 0,0 l/m 19,5 km/h (3 Bft) O-NO 69 0 min 0,000 mm 0,0 UV-I 0 W/m -4,1 C -13,2 C 24,1 km/h (4 Bft) 96,15 %
22.02.2018 21:11 -3,0 C 3,3 C 92 % 1017,5 hPa 0,0 l/m 16,3 km/h (3 Bft) O-NO 59 0 min 0,000 mm 0,0 UV-I 0 W/m -4,1 C -11,4 C 20,9 km/h (4 Bft) 100,00 %
22.02.2018 21:12 -3,1 C 3,3 C 92 % 1017,5 hPa 0,0 l/m 17,8 km/h (3 Bft) O 80 0 min 0,000 mm 0,0 UV-I 0 W/m -4,2 C -12,5 C 22,5 km/h (4 Bft) 100,00 %
22.02.2018 21:13 -3,0 C 3,3 C 92 % 1017,5 hPa 0,0 l/m 19,7 km/h (3 Bft) O-NO 69 0 min 0,000 mm 0,0 UV-I 0 W/m -4,1 C -13,4 C 22,5 km/h (4 Bft) 100,00 %
22.02.2018 21:14 -3,1 C 3,3 C 92 % 1017,5 hPa 0,0 l/m 17,2 km/h (3 Bft) O-NO 75 0 min 0,000 mm 0,0 UV-I 0 W/m -4,2 C -12,1 C 20,9 km/h (4 Bft) 100,00 %
22.02.2018 21:15 -3,1 C 3,3 C 92 % 1017,6 hPa 0,0 l/m 16,5 km/h (3 Bft) O-NO 72 0 min 0,000 mm 0,0 UV-I 0 W/m -4,2 C -11,7 C 19,3 km/h (3 Bft) 96,30 %
22.02.2018 21:16 -3,0 C 3,3 C 92 % 1017,6 hPa 0,0 l/m 18,3 km/h (3 Bft) O-NO 63 0 min 0,000 mm 0,0 UV-I 0 W/m -4,1 C -12,6 C 20,9 km/h (4 Bft) 100,00 %
22.02.2018 21:17 -3,1 C 3,3 C 92 % 1017,6 hPa 0,0 l/m 17,5 km/h (3 Bft) O-NO 76 0 min 0,000 mm 0,0 UV-I 0 W/m -4,2 C -12,3 C 22,5 km/h (4 Bft) 100,00 %
22.02.2018 21:18 -3,0 C 3,3 C 92 % 1017,6 hPa 0,0 l/m 13,3 km/h (3 Bft) O 80 0 min 0,000 mm 0,0 UV-I 0 W/m -4,1 C -9,4 C 14,5 km/h (3 Bft) 100,00 %
22.02.2018 21:19 -3,1 C 3,3 C 92 % 1017,6 hPa 0,0 l/m 15,9 km/h (3 Bft) O-NO 74 0 min 0,000 mm 0,0 UV-I 0 W/m -4,2 C -11,3 C 19,3 km/h (3 Bft) 100,00 %
22.02.2018 21:20 -3,1 C 3,3 C 92 % 1017,6 hPa 0,0 l/m 16,0 km/h (3 Bft) O-NO 77 0 min 0,000 mm 0,0 UV-I 0 W/m -4,2 C -11,4 C 19,3 km/h (3 Bft) 100,00 %
22.02.2018 21:21 -3,1 C 3,3 C 92 % 1017,6 hPa 0,0 l/m 12,4 km/h (3 Bft) O 80 0 min 0,000 mm 0,0 UV-I 0 W/m -4,2 C -8,9 C 16,1 km/h (3 Bft) 100,00 %
22.02.2018 21:22 -3,1 C 3,3 C 92 % 1017,6 hPa 0,0 l/m 15,5 km/h (3 Bft) O-NO 71 0 min 0,000 mm 0,0 UV-I 0 W/m -4,2 C -11,1 C 24,1 km/h (4 Bft) 100,00 %
22.02.2018 21:23 -3,1 C 3,3 C 92 % 1017,5 hPa 0,0 l/m 15,1 km/h (3 Bft) O 85 0 min 0,000 mm 0,0 UV-I 0 W/m -4,2 C -10,8 C 22,5 km/h (4 Bft) 100,00 %
22.02.2018 21:24 -3,1 C 3,3 C 92 % 1017,5 hPa 0,0 l/m 16,8 km/h (3 Bft) O 82 0 min 0,000 mm 0,0 UV-I 0 W/m -4,2 C -11,9 C 22,5 km/h (4 Bft) 100,00 %
22.02.2018 21:25 -3,1 C 3,3 C 92 % 1017,5 hPa 0,0 l/m 21,4 km/h (4 Bft) O-NO 78 0 min 0,000 mm 0,0 UV-I 0 W/m -4,2 C -14,3 C 27,4 km/h (4 Bft) 100,00 %
22.02.2018 21:26 -3,1 C 3,3 C 92 % 1017,6 hPa 0,0 l/m 22,3 km/h (4 Bft) O-NO 75 0 min 0,000 mm 0,0 UV-I 0 W/m -4,2 C -14,8 C 25,7 km/h (4 Bft) 96,15 %
22.02.2018 21:27 -3,1 C 3,3 C 92 % 1017,5 hPa 0,0 l/m 18,4 km/h (3 Bft) O 90 0 min 0,000 mm 0,0 UV-I 0 W/m -4,2 C -12,8 C 22,5 km/h (4 Bft) 100,00 %
22.02.2018 21:28 -3,1 C 3,3 C 92 % 1017,6 hPa 0,0 l/m 17,5 km/h (3 Bft) O 80 0 min 0,000 mm 0,0 UV-I 0 W/m -4,2 C -12,3 C 20,9 km/h (4 Bft) 100,00 %
22.02.2018 21:29 -3,1 C 3,3 C 92 % 1017,5 hPa 0,0 l/m 16,2 km/h (3 Bft) O 84 0 min 0,000 mm 0,0 UV-I 0 W/m -4,2 C -11,5 C 17,7 km/h (3 Bft) 100,00 %
22.02.2018 21:30 -3,1 C 3,3 C 92 % 1017,5 hPa 0,0 l/m 15,3 km/h (3 Bft) O-NO 59 0 min 0,000 mm 0,0 UV-I 0 W/m -4,2 C -10,9 C 17,7 km/h (3 Bft) 100,00 %
22.02.2018 21:31 -3,1 C 3,3 C 92 % 1017,5 hPa 0,0 l/m 18,3 km/h (3 Bft) O 82 0 min 0,000 mm 0,0 UV-I 0 W/m -4,2 C -12,7 C 22,5 km/h (4 Bft) 96,30 %
22.02.2018 21:32 -3,1 C 3,3 C 92 % 1017,5 hPa 0,0 l/m 19,0 km/h (3 Bft) O-NO 72 0 min 0,000 mm 0,0 UV-I 0 W/m -4,2 C -13,1 C 25,7 km/h (4 Bft) 100,00 %
22.02.2018 21:33 -3,1 C 3,3 C 92 % 1017,5 hPa 0,0 l/m 14,6 km/h (3 Bft) O-NO 63 0 min 0,000 mm 0,0 UV-I 0 W/m -4,2 C -10,5 C 24,1 km/h (4 Bft) 100,00 %
22.02.2018 21:34 -3,1 C 3,3 C 92 % 1017,5 hPa 0,0 l/m 17,1 km/h (3 Bft) O 84 0 min 0,000 mm 0,0 UV-I 0 W/m -4,2 C -12,0 C 20,9 km/h (4 Bft) 100,00 %
22.02.2018 21:35 -3,1 C 3,3 C 92 % 1017,5 hPa 0,0 l/m 18,8 km/h (3 Bft) O-NO 74 0 min 0,000 mm 0,0 UV-I 0 W/m -4,2 C -13,0 C 22,5 km/h (4 Bft) 100,00 %
22.02.2018 21:36 -3,1 C 3,3 C 92 % 1017,5 hPa 0,0 l/m 20,3 km/h (4 Bft) O-NO 65 0 min 0,000 mm 0,0 UV-I 0 W/m -4,2 C -13,8 C 25,7 km/h (4 Bft) 100,00 %
22.02.2018 21:37 -3,1 C 3,3 C 92 % 1017,5 hPa 0,0 l/m 23,1 km/h (4 Bft) O-NO 75 0 min 0,000 mm 0,0 UV-I 0 W/m -4,2 C -15,1 C 29,0 km/h (5 Bft) 100,00 %
22.02.2018 21:38 -3,1 C 3,3 C 92 % 1017,5 hPa 0,0 l/m 18,3 km/h (3 Bft) O-NO 74 0 min 0,000 mm 0,0 UV-I 0 W/m -4,2 C -12,7 C 24,1 km/h (4 Bft) 100,00 %
22.02.2018 21:39 -3,1 C 3,3 C 92 % 1017,4 hPa 0,0 l/m 21,0 km/h (4 Bft) O-NO 73 0 min 0,000 mm 0,0 UV-I 0 W/m -4,2 C -14,1 C 25,7 km/h (4 Bft) 100,00 %
22.02.2018 21:40 -3,1 C 3,3 C 92 % 1017,4 hPa 0,0 l/m 19,6 km/h (3 Bft) O-NO 76 0 min 0,000 mm 0,0 UV-I 0 W/m -4,2 C -13,4 C 22,5 km/h (4 Bft) 100,00 %
22.02.2018 21:41 -3,1 C 3,3 C 92 % 1017,4 hPa 0,0 l/m 21,3 km/h (4 Bft) O-NO 63 0 min 0,000 mm 0,0 UV-I 0 W/m -4,2 C -14,3 C 27,4 km/h (4 Bft) 100,00 %
22.02.2018 21:42 -3,1 C 3,3 C 92 % 1017,4 hPa 0,0 l/m 20,2 km/h (4 Bft) O-NO 77 0 min 0,000 mm 0,0 UV-I 0 W/m -4,2 C -13,7 C 25,7 km/h (4 Bft) 100,00 %
22.02.2018 21:43 -3,1 C 3,3 C 92 % 1017,5 hPa 0,0 l/m 20,9 km/h (4 Bft) O 95 0 min 0,000 mm 0,0 UV-I 0 W/m -4,2 C -14,1 C 25,7 km/h (4 Bft) 100,00 %
22.02.2018 21:44 -3,1 C 3,3 C 92 % 1017,4 hPa 0,0 l/m 19,9 km/h (4 Bft) O 80 0 min 0,000 mm 0,0 UV-I 0 W/m -4,2 C -13,6 C 29,0 km/h (5 Bft) 100,00 %
22.02.2018 21:45 -3,1 C 3,3 C 92 % 1017,4 hPa 0,0 l/m 23,9 km/h (4 Bft) O 82 0 min 0,000 mm 0,0 UV-I 0 W/m -4,2 C -15,5 C 27,4 km/h (4 Bft) 96,15 %
22.02.2018 21:46 -3,1 C 3,3 C 92 % 1017,4 hPa 0,0 l/m 23,3 km/h (4 Bft) O-NO 76 0 min 0,000 mm 0,0 UV-I 0 W/m -4,2 C -15,2 C 25,7 km/h (4 Bft) 96,67 %
22.02.2018 21:47 -3,2 C 3,3 C 92 % 1017,4 hPa 0,0 l/m 23,5 km/h (4 Bft) O-NO 67 0 min 0,000 mm 0,0 UV-I 0 W/m -4,3 C -15,4 C 29,0 km/h (5 Bft) 98,03 %
22.02.2018 21:48 -3,2 C 3,3 C 92 % 1017,4 hPa 0,0 l/m 23,4 km/h (4 Bft) O-NO 65 0 min 0,000 mm 0,0 UV-I 0 W/m -4,3 C -15,4 C 32,2 km/h (5 Bft) 93,10 %
22.02.2018 21:49 -3,2 C 3,3 C 92 % 1017,4 hPa 0,0 l/m 22,1 km/h (4 Bft) O-NO 65 0 min 0,000 mm 0,0 UV-I 0 W/m -4,3 C -14,8 C 29,0 km/h (5 Bft) 97,37 %
22.02.2018 21:50 -3,2 C 3,3 C 92 % 1017,4 hPa 0,0 l/m 20,3 km/h (4 Bft) O-NO 76 0 min 0,000 mm 0,0 UV-I 0 W/m -4,3 C -13,9 C 24,1 km/h (4 Bft) 100,00 %
22.02.2018 21:51 -3,2 C 3,3 C 92 % 1017,5 hPa 0,0 l/m 20,1 km/h (4 Bft) O-NO 61 0 min 0,000 mm 0,0 UV-I 0 W/m -4,3 C -13,8 C 24,1 km/h (4 Bft) 91,67 %
22.02.2018 21:52 -3,2 C 3,3 C 92 % 1017,5 hPa 0,0 l/m 21,2 km/h (4 Bft) O 94 0 min 0,000 mm 0,0 UV-I 0 W/m -4,3 C -14,4 C 24,1 km/h (4 Bft) 95,65 %
22.02.2018 21:53 -3,2 C 3,3 C 92 % 1017,5 hPa 0,0 l/m 16,4 km/h (3 Bft) O 94 0 min 0,000 mm 0,0 UV-I 0 W/m -4,3 C -11,7 C 20,9 km/h (4 Bft) 93,33 %
22.02.2018 21:54 -3,2 C 3,3 C 92 % 1017,5 hPa 0,0 l/m 18,7 km/h (3 Bft) O 83 0 min 0,000 mm 0,0 UV-I 0 W/m -4,3 C -13,1 C 24,1 km/h (4 Bft) 100,00 %
22.02.2018 21:55 -3,3 C 3,3 C 92 % 1017,5 hPa 0,0 l/m 19,2 km/h (3 Bft) O 91 0 min 0,000 mm 0,0 UV-I 0 W/m -4,4 C -13,5 C 24,1 km/h (4 Bft) 83,33 %
22.02.2018 21:56 -3,3 C 3,3 C 92 % 1017,5 hPa 0,0 l/m 20,5 km/h (4 Bft) O-NO 70 0 min 0,000 mm 0,0 UV-I 0 W/m -4,4 C -14,1 C 25,7 km/h (4 Bft) 100,00 %
22.02.2018 21:57 -3,3 C 3,3 C 92 % 1017,5 hPa 0,0 l/m 18,9 km/h (3 Bft) O-NO 58 0 min 0,000 mm 0,0 UV-I 0 W/m -4,4 C -13,3 C 25,7 km/h (4 Bft) 95,24 %
22.02.2018 21:58 -3,3 C 3,3 C 92 % 1017,5 hPa 0,0 l/m 16,9 km/h (3 Bft) O-NO 77 0 min 0,000 mm 0,0 UV-I 0 W/m -4,4 C -12,2 C 20,9 km/h (4 Bft) 100,00 %
22.02.2018 21:59 -3,3 C 3,3 C 92 % 1017,5 hPa 0,0 l/m 14,2 km/h (3 Bft) O 96 0 min 0,000 mm 0,0 UV-I 0 W/m -4,4 C -10,4 C 16,1 km/h (3 Bft) 93,33 %
22.02.2018 22:00 -3,3 C 3,3 C 92 % 1017,6 hPa 0,0 l/m 17,9 km/h (3 Bft) O-NO 68 0 min 0,000 mm 0,0 UV-I 0 W/m -4,4 C -12,8 C 22,5 km/h (4 Bft) 92,31 %
22.02.2018 22:02 -3,3 C 3,3 C 92 % 1017,5 hPa 0,0 l/m 20,7 km/h (4 Bft) O 94 0 min 0,000 mm 0,0 UV-I 0 W/m -4,4 C -14,2 C 24,1 km/h (4 Bft) 97,56 %
22.02.2018 22:03 -3,3 C 3,3 C 92 % 1017,5 hPa 0,0 l/m 19,0 km/h (3 Bft) O 95 0 min 0,000 mm 0,0 UV-I 0 W/m -4,4 C -13,4 C 27,4 km/h (4 Bft) 100,00 %
22.02.2018 22:04 -3,3 C 3,3 C 92 % 1017,6 hPa 0,0 l/m 23,1 km/h (4 Bft) O-NO 68 0 min 0,000 mm 0,0 UV-I 0 W/m -4,4 C -15,4 C 27,4 km/h (4 Bft) 88,46 %
22.02.2018 22:05 -3,3 C 3,3 C 92 % 1017,5 hPa 0,0 l/m 17,9 km/h (3 Bft) O-NO 78 0 min 0,000 mm 0,0 UV-I 0 W/m -4,4 C -12,8 C 20,9 km/h (4 Bft) 100,00 %
22.02.2018 22:06 -3,3 C 3,3 C 92 % 1017,5 hPa 0,0 l/m 20,9 km/h (4 Bft) O 87 0 min 0,000 mm 0,0 UV-I 0 W/m -4,4 C -14,3 C 24,1 km/h (4 Bft) 91,30 %
22.02.2018 22:07 -3,3 C 3,3 C 92 % 1017,5 hPa 0,0 l/m 19,9 km/h (4 Bft) O-NO 69 0 min 0,000 mm 0,0 UV-I 0 W/m -4,4 C -13,8 C 24,1 km/h (4 Bft) 100,00 %
22.02.2018 22:08 -3,3 C 3,3 C 92 % 1017,5 hPa 0,0 l/m 21,8 km/h (4 Bft) O-NO 71 0 min 0,000 mm 0,0 UV-I 0 W/m -4,4 C -14,8 C 25,7 km/h (4 Bft) 88,46 %
22.02.2018 22:09 -3,3 C 3,3 C 92 % 1017,5 hPa 0,0 l/m 17,3 km/h (3 Bft) O-NO 76 0 min 0,000 mm 0,0 UV-I 0 W/m -4,4 C -12,4 C 22,5 km/h (4 Bft) 93,33 %
22.02.2018 22:10 -3,3 C 3,3 C 92 % 1017,5 hPa 0,0 l/m 20,1 km/h (4 Bft) O-NO 65 0 min 0,000 mm 0,0 UV-I 0 W/m -4,4 C -13,9 C 27,4 km/h (4 Bft) 100,00 %
22.02.2018 22:11 -3,3 C 3,3 C 92 % 1017,5 hPa 0,0 l/m 22,9 km/h (4 Bft) O 92 0 min 0,000 mm 0,0 UV-I 0 W/m -4,4 C -15,3 C 29,0 km/h (5 Bft) 100,00 %
22.02.2018 22:12 -3,3 C 3,3 C 92 % 1017,5 hPa 0,0 l/m 18,4 km/h (3 Bft) O 88 0 min 0,000 mm 0,0 UV-I 0 W/m -4,4 C -13,0 C 22,5 km/h (4 Bft) 90,00 %
22.02.2018 22:13 -3,3 C 3,3 C 92 % 1017,5 hPa 0,0 l/m 16,2 km/h (3 Bft) O 90 0 min 0,000 mm 0,0 UV-I 0 W/m -4,4 C -11,7 C 22,5 km/h (4 Bft) 93,10 %
22.02.2018 22:14 -3,3 C 3,3 C 91 % 1017,5 hPa 0,0 l/m 18,1 km/h (3 Bft) O 101 0 min 0,000 mm 0,0 UV-I 0 W/m -4,6 C -12,9 C 22,5 km/h (4 Bft) 100,00 %
22.02.2018 22:15 -3,3 C 3,3 C 91 % 1017,5 hPa 0,0 l/m 23,0 km/h (4 Bft) O 82 0 min 0,000 mm 0,0 UV-I 0 W/m -4,6 C -15,3 C 29,0 km/h (5 Bft) 92,31 %
22.02.2018 22:16 -3,3 C 3,3 C 91 % 1017,4 hPa 0,0 l/m 22,4 km/h (4 Bft) O-SO 103 0 min 0,000 mm 0,0 UV-I 0 W/m -4,6 C -15,1 C 27,4 km/h (4 Bft) 100,00 %
22.02.2018 22:17 -3,3 C 3,3 C 91 % 1017,5 hPa 0,0 l/m 21,4 km/h (4 Bft) O 94 0 min 0,000 mm 0,0 UV-I 0 W/m -4,6 C -14,6 C 27,4 km/h (4 Bft) 92,31 %
22.02.2018 22:18 -3,3 C 3,3 C 91 % 1017,4 hPa 0,0 l/m 22,1 km/h (4 Bft) O-NO 70 0 min 0,000 mm 0,0 UV-I 0 W/m -4,6 C -14,9 C 27,4 km/h (4 Bft) 96,30 %
22.02.2018 22:19 -3,3 C 3,3 C 91 % 1017,5 hPa 0,0 l/m 17,0 km/h (3 Bft) O 84 0 min 0,000 mm 0,0 UV-I 0 W/m -4,6 C -12,2 C 22,5 km/h (4 Bft) 94,12 %
22.02.2018 22:20 -3,4 C 3,3 C 91 % 1017,5 hPa 0,0 l/m 16,0 km/h (3 Bft) O 90 0 min 0,000 mm 0,0 UV-I 0 W/m -4,7 C -11,7 C 22,5 km/h (4 Bft) 96,30 %
22.02.2018 22:21 -3,4 C 3,3 C 91 % 1017,5 hPa 0,0 l/m 18,7 km/h (3 Bft) O-NO 68 0 min 0,000 mm 0,0 UV-I 0 W/m -4,7 C -13,3 C 22,5 km/h (4 Bft) 96,55 %
22.02.2018 22:22 -3,4 C 3,3 C 91 % 1017,5 hPa 0,0 l/m 18,3 km/h (3 Bft) O-NO 67 0 min 0,000 mm 0,0 UV-I 0 W/m -4,7 C -13,1 C 22,5 km/h (4 Bft) 91,67 %
22.02.2018 22:23 -3,4 C 3,3 C 91 % 1017,5 hPa 0,0 l/m 16,6 km/h (3 Bft) O-NO 71 0 min 0,000 mm 0,0 UV-I 0 W/m -4,7 C -12,1 C 20,9 km/h (4 Bft) 93,33 %
22.02.2018 22:24 -3,4 C 3,3 C 91 % 1017,5 hPa 0,0 l/m 17,2 km/h (3 Bft) O 82 0 min 0,000 mm 0,0 UV-I 0 W/m -4,7 C -12,5 C 20,9 km/h (4 Bft) 93,18 %
22.02.2018 22:25 -3,4 C 3,3 C 91 % 1017,5 hPa 0,0 l/m 18,2 km/h (3 Bft) O 94 0 min 0,000 mm 0,0 UV-I 0 W/m -4,7 C -13,1 C 27,4 km/h (4 Bft) 100,00 %
22.02.2018 22:26 -3,4 C 3,3 C 91 % 1017,5 hPa 0,0 l/m 18,0 km/h (3 Bft) O-NO 65 0 min 0,000 mm 0,0 UV-I 0 W/m -4,7 C -12,9 C 22,5 km/h (4 Bft) 92,86 %
22.02.2018 22:27 -3,5 C 3,3 C 91 % 1017,5 hPa 0,0 l/m 18,7 km/h (3 Bft) O-NO 63 0 min 0,000 mm 0,0 UV-I 0 W/m -4,8 C -13,5 C 22,5 km/h (4 Bft) 97,37 %
22.02.2018 22:28 -3,4 C 3,3 C 91 % 1017,5 hPa 0,0 l/m 19,1 km/h (3 Bft) O-NO 57 0 min 0,000 mm 0,0 UV-I 0 W/m -4,7 C -13,6 C 22,5 km/h (4 Bft) 92,59 %
22.02.2018 22:29 -3,5 C 3,3 C 91 % 1017,5 hPa 0,0 l/m 17,5 km/h (3 Bft) O 87 0 min 0,000 mm 0,0 UV-I 0 W/m -4,8 C -12,8 C 20,9 km/h (4 Bft) 100,00 %
22.02.2018 22:30 -3,4 C 3,3 C 91 % 1017,5 hPa 0,0 l/m 19,7 km/h (3 Bft) O 86 0 min 0,000 mm 0,0 UV-I 0 W/m -4,7 C -13,9 C 24,1 km/h (4 Bft) 93,10 %
22.02.2018 22:31 -3,4 C 3,3 C 91 % 1017,5 hPa 0,0 l/m 17,1 km/h (3 Bft) O 84 0 min 0,000 mm 0,0 UV-I 0 W/m -4,7 C -12,4 C 20,9 km/h (4 Bft) 96,15 %
22.02.2018 22:32 -3,4 C 3,3 C 91 % 1017,5 hPa 0,0 l/m 19,7 km/h (3 Bft) O 94 0 min 0,000 mm 0,0 UV-I 0 W/m -4,7 C -13,9 C 22,5 km/h (4 Bft) 100,00 %
22.02.2018 22:33 -3,4 C 3,3 C 91 % 1017,5 hPa 0,0 l/m 15,5 km/h (3 Bft) O 85 0 min 0,000 mm 0,0 UV-I 0 W/m -4,7 C -11,4 C 19,3 km/h (3 Bft) 100,00 %
22.02.2018 22:34 -3,4 C 3,3 C 91 % 1017,5 hPa 0,0 l/m 16,2 km/h (3 Bft) O 84 0 min 0,000 mm 0,0 UV-I 0 W/m -4,7 C -11,9 C 25,7 km/h (4 Bft) 92,31 %
22.02.2018 22:35 -3,4 C 3,3 C 91 % 1017,5 hPa 0,0 l/m 18,5 km/h (3 Bft) O 85 0 min 0,000 mm 0,0 UV-I 0 W/m -4,7 C -13,2 C 27,4 km/h (4 Bft) 96,30 %
22.02.2018 22:36 -3,3 C 3,3 C 91 % 1017,4 hPa 0,0 l/m 16,6 km/h (3 Bft) O 91 0 min 0,000 mm 0,0 UV-I 0 W/m -4,6 C -12,0 C 20,9 km/h (4 Bft) 100,00 %
22.02.2018 22:37 -3,3 C 3,3 C 91 % 1017,5 hPa 0,0 l/m 17,8 km/h (3 Bft) O-NO 60 0 min 0,000 mm 0,0 UV-I 0 W/m -4,6 C -12,7 C 22,5 km/h (4 Bft) 93,33 %
22.02.2018 22:38 -3,4 C 3,3 C 91 % 1017,4 hPa 0,0 l/m 19,5 km/h (3 Bft) O-NO 64 0 min 0,000 mm 0,0 UV-I 0 W/m -4,7 C -13,8 C 24,1 km/h (4 Bft) 100,00 %
22.02.2018 22:39 -3,4 C 3,3 C 91 % 1017,5 hPa 0,0 l/m 22,2 km/h (4 Bft) O 96 0 min 0,000 mm 0,0 UV-I 0 W/m -4,7 C -15,1 C 29,0 km/h (5 Bft) 91,67 %
22.02.2018 22:40 -3,4 C 3,3 C 91 % 1017,4 hPa 0,0 l/m 17,4 km/h (3 Bft) NO 54 0 min 0,000 mm 0,0 UV-I 0 W/m -4,7 C -12,6 C 24,1 km/h (4 Bft) 100,00 %
22.02.2018 22:41 -3,4 C 3,3 C 91 % 1017,4 hPa 0,0 l/m 18,1 km/h (3 Bft) O-NO 65 0 min 0,000 mm 0,0 UV-I 0 W/m -4,7 C -13,0 C 22,5 km/h (4 Bft) 96,30 %
22.02.2018 22:42 -3,4 C 3,3 C 91 % 1017,4 hPa 0,0 l/m 20,3 km/h (4 Bft) O 83 0 min 0,000 mm 0,0 UV-I 0 W/m -4,7 C -14,2 C 25,7 km/h (4 Bft) 100,00 %
22.02.2018 22:43 -3,4 C 3,3 C 91 % 1017,4 hPa 0,0 l/m 17,6 km/h (3 Bft) O-NO 65 0 min 0,000 mm 0,0 UV-I 0 W/m -4,7 C -12,7 C 20,9 km/h (4 Bft) 96,43 %
22.02.2018 22:44 -3,4 C 3,3 C 91 % 1017,4 hPa 0,0 l/m 18,9 km/h (3 Bft) O-NO 64 0 min 0,000 mm 0,0 UV-I 0 W/m -4,7 C -13,4 C 24,1 km/h (4 Bft) 95,65 %
22.02.2018 22:45 -3,4 C 3,3 C 91 % 1017,4 hPa 0,0 l/m 18,9 km/h (3 Bft) O-NO 69 0 min 0,000 mm 0,0 UV-I 0 W/m -4,7 C -13,4 C 24,1 km/h (4 Bft) 96,30 %
22.02.2018 22:46 -3,4 C 3,3 C 91 % 1017,4 hPa 0,0 l/m 18,5 km/h (3 Bft) O-NO 78 0 min 0,000 mm 0,0 UV-I 0 W/m -4,7 C -13,2 C 22,5 km/h (4 Bft) 97,90 %
22.02.2018 22:47 -3,4 C 3,3 C 90 % 1017,4 hPa 0,0 l/m 17,0 km/h (3 Bft) O 87 0 min 0,000 mm 0,0 UV-I 0 W/m -4,8 C -12,4 C 22,5 km/h (4 Bft) 95,45 %
22.02.2018 22:48 -3,4 C 3,3 C 90 % 1017,4 hPa 0,0 l/m 17,7 km/h (3 Bft) O-NO 71 0 min 0,000 mm 0,0 UV-I 0 W/m -4,8 C -12,8 C 22,5 km/h (4 Bft) 86,67 %
22.02.2018 22:49 -3,4 C 3,3 C 90 % 1017,4 hPa 0,0 l/m 17,4 km/h (3 Bft) O-NO 74 0 min 0,000 mm 0,0 UV-I 0 W/m -4,8 C -12,6 C 24,1 km/h (4 Bft) 100,00 %
22.02.2018 22:50 -3,4 C 3,3 C 90 % 1017,4 hPa 0,0 l/m 15,1 km/h (3 Bft) O-NO 78 0 min 0,000 mm 0,0 UV-I 0 W/m -4,8 C -11,2 C 19,3 km/h (3 Bft) 96,30 %
22.02.2018 22:51 -3,4 C 3,3 C 90 % 1017,4 hPa 0,0 l/m 17,2 km/h (3 Bft) O 86 0 min 0,000 mm 0,0 UV-I 0 W/m -4,8 C -12,5 C 22,5 km/h (4 Bft) 100,00 %
22.02.2018 22:52 -3,4 C 3,3 C 90 % 1017,4 hPa 0,0 l/m 25,3 km/h (4 Bft) O 81 0 min 0,000 mm 0,0 UV-I 0 W/m -4,8 C -16,4 C 30,6 km/h (5 Bft) 95,12 %
22.02.2018 22:53 -3,4 C 3,3 C 90 % 1017,4 hPa 0,0 l/m 25,3 km/h (4 Bft) O 95 0 min 0,000 mm 0,0 UV-I 0 W/m -4,8 C -16,4 C 30,6 km/h (5 Bft) 100,00 %
22.02.2018 22:54 -3,4 C 3,3 C 90 % 1017,4 hPa 0,0 l/m 21,3 km/h (4 Bft) O-NO 59 0 min 0,000 mm 0,0 UV-I 0 W/m -4,8 C -14,7 C 27,4 km/h (4 Bft) 96,30 %
22.02.2018 22:55 -3,4 C 3,3 C 90 % 1017,4 hPa 0,0 l/m 21,8 km/h (4 Bft) O-NO 68 0 min 0,000 mm 0,0 UV-I 0 W/m -4,8 C -14,9 C 27,4 km/h (4 Bft) 96,55 %
22.02.2018 22:56 -3,4 C 3,3 C 90 % 1017,4 hPa 0,0 l/m 23,7 km/h (4 Bft) O 96 0 min 0,000 mm 0,0 UV-I 0 W/m -4,8 C -15,8 C 30,6 km/h (5 Bft) 100,00 %
22.02.2018 22:57 -3,4 C 3,3 C 90 % 1017,4 hPa 0,0 l/m 21,6 km/h (4 Bft) O 80 0 min 0,000 mm 0,0 UV-I 0 W/m -4,8 C -14,8 C 29,0 km/h (5 Bft) 95,65 %
22.02.2018 22:58 -3,4 C 3,3 C 90 % 1017,4 hPa 0,0 l/m 18,4 km/h (3 Bft) O-NO 65 0 min 0,000 mm 0,0 UV-I 0 W/m -4,8 C -13,2 C 25,7 km/h (4 Bft) 100,00 %
22.02.2018 22:59 -3,4 C 3,3 C 90 % 1017,4 hPa 0,0 l/m 16,9 km/h (3 Bft) O-NO 68 0 min 0,000 mm 0,0 UV-I 0 W/m -4,8 C -12,3 C 19,3 km/h (3 Bft) 100,00 %
22.02.2018 23:00 -3,4 C 3,3 C 90 % 1017,4 hPa 0,0 l/m 19,6 km/h (3 Bft) O 80 0 min 0,000 mm 0,0 UV-I 0 W/m -4,8 C -13,8 C 29,0 km/h (5 Bft) 100,00 %
22.02.2018 23:02 -3,4 C 3,3 C 90 % 1017,5 hPa 0,0 l/m 19,5 km/h (3 Bft) O 86 0 min 0,000 mm 0,0 UV-I 0 W/m -4,8 C -13,8 C 25,7 km/h (4 Bft) 97,87 %
22.02.2018 23:03 -3,4 C 3,3 C 89 % 1017,4 hPa 0,0 l/m 20,5 km/h (4 Bft) O 85 0 min 0,000 mm 0,0 UV-I 0 W/m -4,9 C -14,3 C 25,7 km/h (4 Bft) 100,00 %
22.02.2018 23:04 -3,4 C 3,3 C 89 % 1017,5 hPa 0,0 l/m 24,0 km/h (4 Bft) O 101 0 min 0,000 mm 0,0 UV-I 0 W/m -4,9 C -15,9 C 30,6 km/h (5 Bft) 100,00 %
22.02.2018 23:05 -3,4 C 3,3 C 89 % 1017,4 hPa 0,0 l/m 18,6 km/h (3 Bft) O-SO 107 0 min 0,000 mm 0,0 UV-I 0 W/m -4,9 C -13,3 C 24,1 km/h (4 Bft) 100,00 %
22.02.2018 23:06 -3,4 C 3,3 C 89 % 1017,4 hPa 0,0 l/m 21,9 km/h (4 Bft) O 85 0 min 0,000 mm 0,0 UV-I 0 W/m -4,9 C -15,0 C 27,4 km/h (4 Bft) 100,00 %
22.02.2018 23:07 -3,4 C 3,3 C 89 % 1017,4 hPa 0,0 l/m 17,5 km/h (3 Bft) O 86 0 min 0,000 mm 0,0 UV-I 0 W/m -4,9 C -12,7 C 22,5 km/h (4 Bft) 100,00 %
22.02.2018 23:08 -3,4 C 3,3 C 89 % 1017,4 hPa 0,0 l/m 20,3 km/h (4 Bft) O-NO 76 0 min 0,000 mm 0,0 UV-I 0 W/m -4,9 C -14,2 C 25,7 km/h (4 Bft) 100,00 %
22.02.2018 23:09 -3,5 C 3,3 C 89 % 1017,4 hPa 0,0 l/m 19,2 km/h (3 Bft) O-NO 68 0 min 0,000 mm 0,0 UV-I 0 W/m -5,0 C -13,7 C 24,1 km/h (4 Bft) 100,00 %
22.02.2018 23:10 -3,5 C 3,3 C 89 % 1017,4 hPa 0,0 l/m 21,1 km/h (4 Bft) O 85 0 min 0,000 mm 0,0 UV-I 0 W/m -5,0 C -14,7 C 25,7 km/h (4 Bft) 95,65 %
22.02.2018 23:11 -3,5 C 3,3 C 89 % 1017,4 hPa 0,0 l/m 18,0 km/h (3 Bft) O-NO 66 0 min 0,000 mm 0,0 UV-I 0 W/m -5,0 C -13,1 C 22,5 km/h (4 Bft) 100,00 %
22.02.2018 23:12 -3,5 C 3,3 C 89 % 1017,3 hPa 0,0 l/m 18,3 km/h (3 Bft) O 92 0 min 0,000 mm 0,0 UV-I 0 W/m -5,0 C -13,2 C 27,4 km/h (4 Bft) 100,00 %
22.02.2018 23:13 -3,5 C 3,3 C 89 % 1017,4 hPa 0,0 l/m 18,9 km/h (3 Bft) O-SO 105 0 min 0,000 mm 0,0 UV-I 0 W/m -5,0 C -13,6 C 24,1 km/h (4 Bft) 100,00 %
22.02.2018 23:14 -3,5 C 3,3 C 89 % 1017,4 hPa 0,0 l/m 19,5 km/h (3 Bft) O 88 0 min 0,000 mm 0,0 UV-I 0 W/m -5,0 C -13,9 C 27,4 km/h (4 Bft) 100,00 %
22.02.2018 23:15 -3,5 C 3,3 C 89 % 1017,4 hPa 0,0 l/m 18,2 km/h (3 Bft) O-NO 65 0 min 0,000 mm 0,0 UV-I 0 W/m -5,0 C -13,2 C 25,7 km/h (4 Bft) 100,00 %
22.02.2018 23:16 -3,5 C 3,3 C 90 % 1017,4 hPa 0,0 l/m 21,1 km/h (4 Bft) O 89 0 min 0,000 mm 0,0 UV-I 0 W/m -4,9 C -14,7 C 30,6 km/h (5 Bft) 96,15 %
22.02.2018 23:17 -3,5 C 3,3 C 90 % 1017,5 hPa 0,0 l/m 21,4 km/h (4 Bft) O-NO 67 0 min 0,000 mm 0,0 UV-I 0 W/m -4,9 C -14,9 C 29,0 km/h (5 Bft) 95,83 %
22.02.2018 23:18 -3,5 C 3,3 C 90 % 1017,4 hPa 0,0 l/m 21,5 km/h (4 Bft) O-SO 105 0 min 0,000 mm 0,0 UV-I 0 W/m -4,9 C -14,9 C 27,4 km/h (4 Bft) 100,00 %
22.02.2018 23:19 -3,4 C 3,3 C 90 % 1017,4 hPa 0,0 l/m 19,3 km/h (3 Bft) O 81 0 min 0,000 mm 0,0 UV-I 0 W/m -4,8 C -13,7 C 24,1 km/h (4 Bft) 100,00 %
22.02.2018 23:20 -3,4 C 3,3 C 89 % 1017,4 hPa 0,0 l/m 19,0 km/h (3 Bft) O 85 0 min 0,000 mm 0,0 UV-I 0 W/m -4,9 C -13,5 C 24,1 km/h (4 Bft) 100,00 %
22.02.2018 23:21 -3,4 C 3,3 C 89 % 1017,4 hPa 0,0 l/m 16,3 km/h (3 Bft) O-NO 76 0 min 0,000 mm 0,0 UV-I 0 W/m -4,9 C -11,9 C 22,5 km/h (4 Bft) 100,00 %
22.02.2018 23:22 -3,4 C 3,3 C 89 % 1017,4 hPa 0,0 l/m 20,7 km/h (4 Bft) O 92 0 min 0,000 mm 0,0 UV-I 0 W/m -4,9 C -14,4 C 27,4 km/h (4 Bft) 100,00 %
22.02.2018 23:23 -3,4 C 3,3 C 89 % 1017,4 hPa 0,0 l/m 18,9 km/h (3 Bft) O-NO 66 0 min 0,000 mm 0,0 UV-I 0 W/m -4,9 C -13,4 C 24,1 km/h (4 Bft) 100,00 %
22.02.2018 23:24 -3,4 C 3,3 C 89 % 1017,5 hPa 0,0 l/m 23,6 km/h (4 Bft) O-NO 62 0 min 0,000 mm 0,0 UV-I 0 W/m -4,9 C -15,7 C 29,0 km/h (5 Bft) 100,00 %
22.02.2018 23:25 -3,4 C 3,3 C 89 % 1017,5 hPa 0,0 l/m 23,3 km/h (4 Bft) O 91 0 min 0,000 mm 0,0 UV-I 0 W/m -4,9 C -15,6 C 29,0 km/h (5 Bft) 100,00 %
22.02.2018 23:26 -3,4 C 3,3 C 89 % 1017,4 hPa 0,0 l/m 20,0 km/h (4 Bft) O 87 0 min 0,000 mm 0,0 UV-I 0 W/m -4,9 C -14,0 C 25,7 km/h (4 Bft) 100,00 %
22.02.2018 23:27 -3,4 C 3,3 C 89 % 1017,4 hPa 0,0 l/m 19,0 km/h (3 Bft) O 91 0 min 0,000 mm 0,0 UV-I 0 W/m -4,9 C -13,5 C 25,7 km/h (4 Bft) 100,00 %
22.02.2018 23:28 -3,4 C 3,3 C 89 % 1017,5 hPa 0,0 l/m 16,0 km/h (3 Bft) O-NO 76 0 min 0,000 mm 0,0 UV-I 0 W/m -4,9 C -11,7 C 20,9 km/h (4 Bft) 100,00 %
22.02.2018 23:29 -3,4 C 3,3 C 89 % 1017,4 hPa 0,0 l/m 18,9 km/h (3 Bft) O 90 0 min 0,000 mm 0,0 UV-I 0 W/m -4,9 C -13,4 C 25,7 km/h (4 Bft) 96,55 %
22.02.2018 23:30 -3,4 C 3,3 C 89 % 1017,5 hPa 0,0 l/m 19,0 km/h (3 Bft) O-NO 69 0 min 0,000 mm 0,0 UV-I 0 W/m -4,9 C -13,5 C 24,1 km/h (4 Bft) 100,00 %
22.02.2018 23:31 -3,4 C 3,3 C 89 % 1017,5 hPa 0,0 l/m 19,4 km/h (3 Bft) O-NO 67 0 min 0,000 mm 0,0 UV-I 0 W/m -4,9 C -13,7 C 24,1 km/h (4 Bft) 100,00 %
22.02.2018 23:32 -3,4 C 3,3 C 89 % 1017,4 hPa 0,0 l/m 19,7 km/h (3 Bft) O 98 0 min 0,000 mm 0,0 UV-I 0 W/m -4,9 C -13,9 C 24,1 km/h (4 Bft) 95,83 %
22.02.2018 23:33 -3,4 C 3,3 C 89 % 1017,5 hPa 0,0 l/m 17,1 km/h (3 Bft) O-NO 76 0 min 0,000 mm 0,0 UV-I 0 W/m -4,9 C -12,4 C 22,5 km/h (4 Bft) 100,00 %
22.02.2018 23:34 -3,4 C 3,3 C 89 % 1017,5 hPa 0,0 l/m 18,1 km/h (3 Bft) O-NO 60 0 min 0,000 mm 0,0 UV-I 0 W/m -4,9 C -13,0 C 22,5 km/h (4 Bft) 100,00 %
22.02.2018 23:35 -3,4 C 3,3 C 89 % 1017,5 hPa 0,0 l/m 18,4 km/h (3 Bft) O-NO 73 0 min 0,000 mm 0,0 UV-I 0 W/m -4,9 C -13,2 C 22,5 km/h (4 Bft) 100,00 %
22.02.2018 23:36 -3,4 C 3,3 C 89 % 1017,6 hPa 0,0 l/m 18,2 km/h (3 Bft) O 79 0 min 0,000 mm 0,0 UV-I 0 W/m -4,9 C -13,1 C 25,7 km/h (4 Bft) 100,00 %
22.02.2018 23:37 -3,4 C 3,3 C 89 % 1017,5 hPa 0,0 l/m 17,7 km/h (3 Bft) O 95 0 min 0,000 mm 0,0 UV-I 0 W/m -4,9 C -12,8 C 24,1 km/h (4 Bft) 100,00 %
22.02.2018 23:38 -3,4 C 3,3 C 89 % 1017,4 hPa 0,0 l/m 18,5 km/h (3 Bft) O 93 0 min 0,000 mm 0,0 UV-I 0 W/m -4,9 C -13,2 C 22,5 km/h (4 Bft) 100,00 %
22.02.2018 23:39 -3,4 C 3,3 C 89 % 1017,5 hPa 0,0 l/m 18,6 km/h (3 Bft) O 79 0 min 0,000 mm 0,0 UV-I 0 W/m -4,9 C -13,3 C 24,1 km/h (4 Bft) 100,00 %
22.02.2018 23:40 -3,4 C 3,3 C 89 % 1017,4 hPa 0,0 l/m 17,6 km/h (3 Bft) O 88 0 min 0,000 mm 0,0 UV-I 0 W/m -4,9 C -12,7 C 20,9 km/h (4 Bft) 100,00 %
22.02.2018 23:41 -3,4 C 3,3 C 89 % 1017,4 hPa 0,0 l/m 16,7 km/h (3 Bft) O 82 0 min 0,000 mm 0,0 UV-I 0 W/m -4,9 C -12,2 C 20,9 km/h (4 Bft) 100,00 %
22.02.2018 23:42 -3,4 C 3,3 C 89 % 1017,5 hPa 0,0 l/m 18,4 km/h (3 Bft) O-SO 102 0 min 0,000 mm 0,0 UV-I 0 W/m -4,9 C -13,2 C 25,7 km/h (4 Bft) 100,00 %
22.02.2018 23:43 -3,4 C 3,3 C 89 % 1017,5 hPa 0,0 l/m 19,0 km/h (3 Bft) O 97 0 min 0,000 mm 0,0 UV-I 0 W/m -4,9 C -13,5 C 22,5 km/h (4 Bft) 100,00 %
22.02.2018 23:44 -3,4 C 3,3 C 89 % 1017,4 hPa 0,0 l/m 19,1 km/h (3 Bft) O 94 0 min 0,000 mm 0,0 UV-I 0 W/m -4,9 C -13,6 C 24,1 km/h (4 Bft) 95,83 %
22.02.2018 23:45 -3,4 C 3,3 C 89 % 1017,5 hPa 0,0 l/m 19,0 km/h (3 Bft) O 82 0 min 0,000 mm 0,0 UV-I 0 W/m -4,9 C -13,5 C 22,5 km/h (4 Bft) 100,00 %
22.02.2018 23:46 -3,4 C 3,3 C 89 % 1017,5 hPa 0,0 l/m 18,1 km/h (3 Bft) O-NO 76 0 min 0,000 mm 0,0 UV-I 0 W/m -4,9 C -13,0 C 22,5 km/h (4 Bft) 100,00 %
22.02.2018 23:47 -3,4 C 3,3 C 90 % 1017,5 hPa 0,0 l/m 18,3 km/h (3 Bft) O 80 0 min 0,000 mm 0,0 UV-I 0 W/m -4,8 C -13,1 C 22,5 km/h (4 Bft) 100,00 %
22.02.2018 23:48 -3,4 C 3,3 C 90 % 1017,5 hPa 0,0 l/m 17,5 km/h (3 Bft) O 99 0 min 0,000 mm 0,0 UV-I 0 W/m -4,8 C -12,7 C 20,9 km/h (4 Bft) 100,00 %
22.02.2018 23:49 -3,4 C 3,3 C 90 % 1017,5 hPa 0,0 l/m 15,3 km/h (3 Bft) O 91 0 min 0,000 mm 0,0 UV-I 0 W/m -4,8 C -11,3 C 20,9 km/h (4 Bft) 95,83 %
22.02.2018 23:50 -3,4 C 3,3 C 90 % 1017,5 hPa 0,0 l/m 20,5 km/h (4 Bft) O 88 0 min 0,000 mm 0,0 UV-I 0 W/m -4,8 C -14,3 C 25,7 km/h (4 Bft) 100,00 %
22.02.2018 23:51 -3,4 C 3,3 C 90 % 1017,5 hPa 0,0 l/m 20,5 km/h (4 Bft) O-NO 72 0 min 0,000 mm 0,0 UV-I 0 W/m -4,8 C -14,3 C 25,7 km/h (4 Bft) 95,83 %
22.02.2018 23:52 -3,4 C 3,3 C 90 % 1017,5 hPa 0,0 l/m 21,8 km/h (4 Bft) O-NO 59 0 min 0,000 mm 0,0 UV-I 0 W/m -4,8 C -14,9 C 27,4 km/h (4 Bft) 100,00 %
22.02.2018 23:53 -3,4 C 3,3 C 90 % 1017,4 hPa 0,0 l/m 19,1 km/h (3 Bft) O 93 0 min 0,000 mm 0,0 UV-I 0 W/m -4,8 C -13,6 C 22,5 km/h (4 Bft) 100,00 %
22.02.2018 23:54 -3,4 C 3,3 C 90 % 1017,5 hPa 0,0 l/m 21,3 km/h (4 Bft) O-SO 104 0 min 0,000 mm 0,0 UV-I 0 W/m -4,8 C -14,7 C 27,4 km/h (4 Bft) 93,10 %
22.02.2018 23:55 -3,4 C 3,3 C 90 % 1017,4 hPa 0,0 l/m 26,2 km/h (4 Bft) O 81 0 min 0,000 mm 0,0 UV-I 0 W/m -4,8 C -16,8 C 32,2 km/h (5 Bft) 100,00 %
22.02.2018 23:56 -3,4 C 3,3 C 90 % 1017,4 hPa 0,0 l/m 20,0 km/h (4 Bft) O 81 0 min 0,000 mm 0,0 UV-I 0 W/m -4,8 C -14,0 C 25,7 km/h (4 Bft) 96,15 %
22.02.2018 23:57 -3,3 C 3,3 C 89 % 1017,4 hPa 0,0 l/m 21,3 km/h (4 Bft) O-NO 71 0 min 0,000 mm 0,0 UV-I 0 W/m -4,8 C -14,5 C 24,1 km/h (4 Bft) 96,67 %
22.02.2018 23:58 -3,4 C 3,3 C 89 % 1017,4 hPa 0,0 l/m 18,4 km/h (3 Bft) O 79 0 min 0,000 mm 0,0 UV-I 0 W/m -4,9 C -13,2 C 24,1 km/h (4 Bft) 97,95 %
22.02.2018 23:59 -3,4 C 3,3 C 89 % 1017,3 hPa 0,0 l/m 18,5 km/h (3 Bft) O 99 0 min 0,000 mm 0,0 UV-I 0 W/m -4,9 C -13,2 C 24,1 km/h (4 Bft) 96,55 %
_ Min-Zeit 23:15 16:12 00:34 06:44 - 02:39 - - - - - - 23:09 23:55 02:39 00:08
Minimum _ -3,6 C 3,3 C 86 % 1017,0 hPa - 6,1 km/h (2 Bft) - - - - - - -5,0 C -16,8 C 9,7 km/h (2 Bft) 83,33 %
_ Max-Zeit 00:00 00:06 16:56 00:12 00:00 23:55 - - 17:24 12:00 13:13 13:14 16:26 02:39 00:28 00:00
Maximum _ -1,8 C 4,4 C 94 % 1019,0 hPa 0,0 l/m 26,2 km/h
O (4 Bft)
- - 1 min 0,051 mm 0,7 UV-I 229 W/m -3,3 C -2,3 C 37,0 km/h
O (5 Bft)
100,00 %
Durchschnitt _ -2,6 C 3,7 C 90 % 1017,6 hPa #0,0 l/m 16,0 km/h (3 Bft) O - #3 min. #0,457 mm 0,5 UV-I 81 W/m -4,0 C -10,6 C 20,5 km/h (4 Bft) 97,93 %